<?xml version="1.0" encoding="UTF-8" standalone="no" ?>
<gpx xmlns="http://www.topografix.com/GPX/1/1" xmlns:xsi="http://www.w3.org/2001/XMLSchema-instance" xsi:schemaLocation="http://www.topografix.com/GPX/1/1 http://www.topografix.com/GPX/1/1/gpx.xsd" version="1.1" creator="VisuGPX - https://www.visugpx.com">
  <metadata>
    <name>Trace livradois forez 60</name>
    <desc><![CDATA[TLF du 17/05/2009.
Petit problème de flechage et retour par le 45
]]></desc>
  </metadata>
  <trk>
    <name><![CDATA[TLF]]></name>
    <cmt><![CDATA[Boucle de 60 ecourté car pb flechage et retour par le 45.
Au total 1577M de D+ et 55Km.
Dur, car beaucoup de vallée a passer et montées raides pour en sortir et non roulante (herbes).
Parcours d'enduro de moto]]></cmt>
    <trkseg>
      <trkpt lat="45.75823" lon="3.53602">
        <ele>336.1181640625</ele>
        <time>2009-05-17T06:09:16Z</time>
      </trkpt>
      <trkpt lat="45.75822" lon="3.53605">
        <ele>336.59887695312</ele>
        <time>2009-05-17T06:09:18Z</time>
      </trkpt>
      <trkpt lat="45.75815" lon="3.53621">
        <ele>335.63732910156</ele>
        <time>2009-05-17T06:09:24Z</time>
      </trkpt>
      <trkpt lat="45.75811" lon="3.53632">
        <ele>336.1181640625</ele>
        <time>2009-05-17T06:09:27Z</time>
      </trkpt>
      <trkpt lat="45.758" lon="3.53655">
        <ele>336.1181640625</ele>
        <time>2009-05-17T06:09:34Z</time>
      </trkpt>
      <trkpt lat="45.75796" lon="3.53684">
        <ele>335.63732910156</ele>
        <time>2009-05-17T06:09:40Z</time>
      </trkpt>
      <trkpt lat="45.7579" lon="3.53709">
        <ele>336.1181640625</ele>
        <time>2009-05-17T06:09:46Z</time>
      </trkpt>
      <trkpt lat="45.7578" lon="3.53739">
        <ele>337.07946777344</ele>
        <time>2009-05-17T06:09:52Z</time>
      </trkpt>
      <trkpt lat="45.7577" lon="3.53771">
        <ele>336.59887695312</ele>
        <time>2009-05-17T06:09:58Z</time>
      </trkpt>
      <trkpt lat="45.75766" lon="3.53782">
        <ele>335.63732910156</ele>
        <time>2009-05-17T06:10:00Z</time>
      </trkpt>
      <trkpt lat="45.75753" lon="3.5382">
        <ele>335.15673828125</ele>
        <time>2009-05-17T06:10:06Z</time>
      </trkpt>
      <trkpt lat="45.75743" lon="3.53849">
        <ele>334.19543457031</ele>
        <time>2009-05-17T06:10:11Z</time>
      </trkpt>
      <trkpt lat="45.75739" lon="3.53861">
        <ele>333.23413085938</ele>
        <time>2009-05-17T06:10:15Z</time>
      </trkpt>
      <trkpt lat="45.75737" lon="3.53865">
        <ele>333.23413085938</ele>
        <time>2009-05-17T06:10:17Z</time>
      </trkpt>
      <trkpt lat="45.7574" lon="3.53863">
        <ele>333.71472167969</ele>
        <time>2009-05-17T06:10:21Z</time>
      </trkpt>
      <trkpt lat="45.7574" lon="3.53851">
        <ele>334.19543457031</ele>
        <time>2009-05-17T06:10:25Z</time>
      </trkpt>
      <trkpt lat="45.75741" lon="3.53847">
        <ele>334.19543457031</ele>
        <time>2009-05-17T06:10:26Z</time>
      </trkpt>
      <trkpt lat="45.75751" lon="3.53813">
        <ele>334.19543457031</ele>
        <time>2009-05-17T06:10:34Z</time>
      </trkpt>
      <trkpt lat="45.75761" lon="3.53784">
        <ele>335.15673828125</ele>
        <time>2009-05-17T06:10:40Z</time>
      </trkpt>
      <trkpt lat="45.75767" lon="3.53768">
        <ele>336.1181640625</ele>
        <time>2009-05-17T06:10:43Z</time>
      </trkpt>
      <trkpt lat="45.75774" lon="3.53752">
        <ele>336.59887695312</ele>
        <time>2009-05-17T06:10:46Z</time>
      </trkpt>
      <trkpt lat="45.75775" lon="3.53746">
        <ele>336.59887695312</ele>
        <time>2009-05-17T06:10:47Z</time>
      </trkpt>
      <trkpt lat="45.75783" lon="3.53724">
        <ele>337.07946777344</ele>
        <time>2009-05-17T06:10:51Z</time>
      </trkpt>
      <trkpt lat="45.75793" lon="3.5369">
        <ele>336.59887695312</ele>
        <time>2009-05-17T06:10:58Z</time>
      </trkpt>
      <trkpt lat="45.75795" lon="3.53685">
        <ele>337.07946777344</ele>
        <time>2009-05-17T06:11:00Z</time>
      </trkpt>
      <trkpt lat="45.75792" lon="3.53683">
        <ele>337.56005859375</ele>
        <time>2009-05-17T06:11:05Z</time>
      </trkpt>
      <trkpt lat="45.75788" lon="3.53682">
        <ele>337.07946777344</ele>
        <time>2009-05-17T06:11:10Z</time>
      </trkpt>
      <trkpt lat="45.7577" lon="3.53677">
        <ele>338.04077148438</ele>
        <time>2009-05-17T06:11:15Z</time>
      </trkpt>
      <trkpt lat="45.7574" lon="3.53673">
        <ele>338.04077148438</ele>
        <time>2009-05-17T06:11:22Z</time>
      </trkpt>
      <trkpt lat="45.75721" lon="3.53674">
        <ele>338.04077148438</ele>
        <time>2009-05-17T06:11:26Z</time>
      </trkpt>
      <trkpt lat="45.7569" lon="3.53675">
        <ele>339.48266601562</ele>
        <time>2009-05-17T06:11:33Z</time>
      </trkpt>
      <trkpt lat="45.75647" lon="3.53677">
        <ele>338.521484375</ele>
        <time>2009-05-17T06:11:42Z</time>
      </trkpt>
      <trkpt lat="45.75641" lon="3.53677">
        <ele>338.04077148438</ele>
        <time>2009-05-17T06:11:43Z</time>
      </trkpt>
      <trkpt lat="45.75613" lon="3.5368">
        <ele>337.56005859375</ele>
        <time>2009-05-17T06:11:49Z</time>
      </trkpt>
      <trkpt lat="45.75599" lon="3.53688">
        <ele>337.56005859375</ele>
        <time>2009-05-17T06:11:54Z</time>
      </trkpt>
      <trkpt lat="45.75573" lon="3.53688">
        <ele>336.59887695312</ele>
        <time>2009-05-17T06:12:00Z</time>
      </trkpt>
      <trkpt lat="45.75559" lon="3.53689">
        <ele>336.1181640625</ele>
        <time>2009-05-17T06:12:04Z</time>
      </trkpt>
      <trkpt lat="45.75558" lon="3.53689">
        <ele>336.1181640625</ele>
        <time>2009-05-17T06:12:05Z</time>
      </trkpt>
      <trkpt lat="45.75562" lon="3.53695">
        <ele>336.1181640625</ele>
        <time>2009-05-17T06:12:08Z</time>
      </trkpt>
      <trkpt lat="45.75562" lon="3.53702">
        <ele>336.1181640625</ele>
        <time>2009-05-17T06:12:09Z</time>
      </trkpt>
      <trkpt lat="45.75566" lon="3.53753">
        <ele>336.1181640625</ele>
        <time>2009-05-17T06:12:16Z</time>
      </trkpt>
      <trkpt lat="45.75566" lon="3.53776">
        <ele>335.15673828125</ele>
        <time>2009-05-17T06:12:19Z</time>
      </trkpt>
      <trkpt lat="45.75565" lon="3.53793">
        <ele>335.15673828125</ele>
        <time>2009-05-17T06:12:21Z</time>
      </trkpt>
      <trkpt lat="45.75568" lon="3.53849">
        <ele>333.71472167969</ele>
        <time>2009-05-17T06:12:28Z</time>
      </trkpt>
      <trkpt lat="45.7557" lon="3.53882">
        <ele>333.71472167969</ele>
        <time>2009-05-17T06:12:33Z</time>
      </trkpt>
      <trkpt lat="45.7557" lon="3.53889">
        <ele>333.23413085938</ele>
        <time>2009-05-17T06:12:34Z</time>
      </trkpt>
      <trkpt lat="45.75568" lon="3.53925">
        <ele>332.75354003906</ele>
        <time>2009-05-17T06:12:39Z</time>
      </trkpt>
      <trkpt lat="45.75577" lon="3.53942">
        <ele>332.75354003906</ele>
        <time>2009-05-17T06:12:41Z</time>
      </trkpt>
      <trkpt lat="45.75599" lon="3.53991">
        <ele>329.38891601562</ele>
        <time>2009-05-17T06:12:46Z</time>
      </trkpt>
      <trkpt lat="45.75608" lon="3.54011">
        <ele>328.42761230469</ele>
        <time>2009-05-17T06:12:48Z</time>
      </trkpt>
      <trkpt lat="45.7562" lon="3.54045">
        <ele>326.98559570312</ele>
        <time>2009-05-17T06:12:51Z</time>
      </trkpt>
      <trkpt lat="45.7565" lon="3.54119">
        <ele>326.02416992188</ele>
        <time>2009-05-17T06:12:58Z</time>
      </trkpt>
      <trkpt lat="45.75657" lon="3.54138">
        <ele>324.1015625</ele>
        <time>2009-05-17T06:13:00Z</time>
      </trkpt>
      <trkpt lat="45.75673" lon="3.54173">
        <ele>325.06298828125</ele>
        <time>2009-05-17T06:13:04Z</time>
      </trkpt>
      <trkpt lat="45.75686" lon="3.54202">
        <ele>322.65966796875</ele>
        <time>2009-05-17T06:13:09Z</time>
      </trkpt>
      <trkpt lat="45.75687" lon="3.54208">
        <ele>322.65966796875</ele>
        <time>2009-05-17T06:13:10Z</time>
      </trkpt>
      <trkpt lat="45.75677" lon="3.54219">
        <ele>322.65966796875</ele>
        <time>2009-05-17T06:13:13Z</time>
      </trkpt>
      <trkpt lat="45.75636" lon="3.54236">
        <ele>323.14038085938</ele>
        <time>2009-05-17T06:13:20Z</time>
      </trkpt>
      <trkpt lat="45.75619" lon="3.54244">
        <ele>324.1015625</ele>
        <time>2009-05-17T06:13:23Z</time>
      </trkpt>
      <trkpt lat="45.75602" lon="3.5425">
        <ele>324.1015625</ele>
        <time>2009-05-17T06:13:26Z</time>
      </trkpt>
      <trkpt lat="45.75562" lon="3.54265">
        <ele>325.06298828125</ele>
        <time>2009-05-17T06:13:33Z</time>
      </trkpt>
      <trkpt lat="45.75516" lon="3.54283">
        <ele>324.1015625</ele>
        <time>2009-05-17T06:13:41Z</time>
      </trkpt>
      <trkpt lat="45.7546" lon="3.54305">
        <ele>323.14038085938</ele>
        <time>2009-05-17T06:13:50Z</time>
      </trkpt>
      <trkpt lat="45.75408" lon="3.54325">
        <ele>322.65966796875</ele>
        <time>2009-05-17T06:13:58Z</time>
      </trkpt>
      <trkpt lat="45.75402" lon="3.54327">
        <ele>323.14038085938</ele>
        <time>2009-05-17T06:13:59Z</time>
      </trkpt>
      <trkpt lat="45.75381" lon="3.54312">
        <ele>321.69836425781</ele>
        <time>2009-05-17T06:14:03Z</time>
      </trkpt>
      <trkpt lat="45.75375" lon="3.54295">
        <ele>320.73706054688</ele>
        <time>2009-05-17T06:14:05Z</time>
      </trkpt>
      <trkpt lat="45.75354" lon="3.54251">
        <ele>320.25634765625</ele>
        <time>2009-05-17T06:14:10Z</time>
      </trkpt>
      <trkpt lat="45.75317" lon="3.54195">
        <ele>320.25634765625</ele>
        <time>2009-05-17T06:14:17Z</time>
      </trkpt>
      <trkpt lat="45.75272" lon="3.54155">
        <ele>320.25634765625</ele>
        <time>2009-05-17T06:14:24Z</time>
      </trkpt>
      <trkpt lat="45.7521" lon="3.54104">
        <ele>320.25634765625</ele>
        <time>2009-05-17T06:14:34Z</time>
      </trkpt>
      <trkpt lat="45.75173" lon="3.54074">
        <ele>320.25634765625</ele>
        <time>2009-05-17T06:14:40Z</time>
      </trkpt>
      <trkpt lat="45.75118" lon="3.54028">
        <ele>320.25634765625</ele>
        <time>2009-05-17T06:14:49Z</time>
      </trkpt>
      <trkpt lat="45.75082" lon="3.53999">
        <ele>320.25634765625</ele>
        <time>2009-05-17T06:14:55Z</time>
      </trkpt>
      <trkpt lat="45.75048" lon="3.53991">
        <ele>320.73706054688</ele>
        <time>2009-05-17T06:15:00Z</time>
      </trkpt>
      <trkpt lat="45.75021" lon="3.54001">
        <ele>321.2177734375</ele>
        <time>2009-05-17T06:15:04Z</time>
      </trkpt>
      <trkpt lat="45.75009" lon="3.5401">
        <ele>321.69836425781</ele>
        <time>2009-05-17T06:15:06Z</time>
      </trkpt>
      <trkpt lat="45.74989" lon="3.54036">
        <ele>322.65966796875</ele>
        <time>2009-05-17T06:15:10Z</time>
      </trkpt>
      <trkpt lat="45.74965" lon="3.54093">
        <ele>322.65966796875</ele>
        <time>2009-05-17T06:15:17Z</time>
      </trkpt>
      <trkpt lat="45.74947" lon="3.54143">
        <ele>322.65966796875</ele>
        <time>2009-05-17T06:15:23Z</time>
      </trkpt>
      <trkpt lat="45.74917" lon="3.54216">
        <ele>322.65966796875</ele>
        <time>2009-05-17T06:15:32Z</time>
      </trkpt>
      <trkpt lat="45.74894" lon="3.5425">
        <ele>323.14038085938</ele>
        <time>2009-05-17T06:15:37Z</time>
      </trkpt>
      <trkpt lat="45.74852" lon="3.54298">
        <ele>323.14038085938</ele>
        <time>2009-05-17T06:15:45Z</time>
      </trkpt>
      <trkpt lat="45.74805" lon="3.5436">
        <ele>324.58227539062</ele>
        <time>2009-05-17T06:15:55Z</time>
      </trkpt>
      <trkpt lat="45.74784" lon="3.54367">
        <ele>324.1015625</ele>
        <time>2009-05-17T06:15:59Z</time>
      </trkpt>
      <trkpt lat="45.74718" lon="3.54349">
        <ele>326.98559570312</ele>
        <time>2009-05-17T06:16:11Z</time>
      </trkpt>
      <trkpt lat="45.74662" lon="3.54337">
        <ele>328.42761230469</ele>
        <time>2009-05-17T06:16:21Z</time>
      </trkpt>
      <trkpt lat="45.74609" lon="3.54336">
        <ele>328.90832519531</ele>
        <time>2009-05-17T06:16:30Z</time>
      </trkpt>
      <trkpt lat="45.74545" lon="3.54337">
        <ele>329.86950683594</ele>
        <time>2009-05-17T06:16:41Z</time>
      </trkpt>
      <trkpt lat="45.74498" lon="3.54346">
        <ele>329.86950683594</ele>
        <time>2009-05-17T06:16:49Z</time>
      </trkpt>
      <trkpt lat="45.74456" lon="3.54363">
        <ele>329.86950683594</ele>
        <time>2009-05-17T06:16:56Z</time>
      </trkpt>
      <trkpt lat="45.74427" lon="3.54371">
        <ele>330.83093261719</ele>
        <time>2009-05-17T06:17:01Z</time>
      </trkpt>
      <trkpt lat="45.74409" lon="3.54387">
        <ele>331.3115234375</ele>
        <time>2009-05-17T06:17:05Z</time>
      </trkpt>
      <trkpt lat="45.74382" lon="3.54412">
        <ele>332.27282714844</ele>
        <time>2009-05-17T06:17:11Z</time>
      </trkpt>
      <trkpt lat="45.74352" lon="3.54425">
        <ele>333.71472167969</ele>
        <time>2009-05-17T06:17:17Z</time>
      </trkpt>
      <trkpt lat="45.743" lon="3.54446">
        <ele>334.67614746094</ele>
        <time>2009-05-17T06:17:27Z</time>
      </trkpt>
      <trkpt lat="45.74265" lon="3.54458">
        <ele>335.15673828125</ele>
        <time>2009-05-17T06:17:34Z</time>
      </trkpt>
      <trkpt lat="45.7424" lon="3.54471">
        <ele>336.59887695312</ele>
        <time>2009-05-17T06:17:41Z</time>
      </trkpt>
      <trkpt lat="45.7422" lon="3.54479">
        <ele>339.00207519531</ele>
        <time>2009-05-17T06:17:48Z</time>
      </trkpt>
      <trkpt lat="45.74209" lon="3.54489">
        <ele>340.92468261719</ele>
        <time>2009-05-17T06:17:53Z</time>
      </trkpt>
      <trkpt lat="45.74207" lon="3.54491">
        <ele>341.4052734375</ele>
        <time>2009-05-17T06:17:54Z</time>
      </trkpt>
      <trkpt lat="45.74191" lon="3.54507">
        <ele>344.28942871094</ele>
        <time>2009-05-17T06:18:02Z</time>
      </trkpt>
      <trkpt lat="45.74177" lon="3.54509">
        <ele>348.13464355469</ele>
        <time>2009-05-17T06:18:09Z</time>
      </trkpt>
      <trkpt lat="45.74175" lon="3.54508">
        <ele>348.13464355469</ele>
        <time>2009-05-17T06:18:10Z</time>
      </trkpt>
      <trkpt lat="45.74166" lon="3.54497">
        <ele>350.05725097656</ele>
        <time>2009-05-17T06:18:16Z</time>
      </trkpt>
      <trkpt lat="45.74154" lon="3.54477">
        <ele>352.94116210938</ele>
        <time>2009-05-17T06:18:25Z</time>
      </trkpt>
      <trkpt lat="45.74145" lon="3.54464">
        <ele>355.8251953125</ele>
        <time>2009-05-17T06:18:31Z</time>
      </trkpt>
      <trkpt lat="45.74143" lon="3.54461">
        <ele>355.8251953125</ele>
        <time>2009-05-17T06:18:32Z</time>
      </trkpt>
      <trkpt lat="45.74128" lon="3.54442">
        <ele>358.22839355469</ele>
        <time>2009-05-17T06:18:41Z</time>
      </trkpt>
      <trkpt lat="45.74112" lon="3.54437">
        <ele>360.63171386719</ele>
        <time>2009-05-17T06:18:49Z</time>
      </trkpt>
      <trkpt lat="45.74095" lon="3.5444">
        <ele>363.51574707031</ele>
        <time>2009-05-17T06:18:57Z</time>
      </trkpt>
      <trkpt lat="45.74084" lon="3.54443">
        <ele>365.43835449219</ele>
        <time>2009-05-17T06:19:02Z</time>
      </trkpt>
      <trkpt lat="45.74068" lon="3.54448">
        <ele>366.88024902344</ele>
        <time>2009-05-17T06:19:10Z</time>
      </trkpt>
      <trkpt lat="45.74062" lon="3.54448">
        <ele>368.322265625</ele>
        <time>2009-05-17T06:19:13Z</time>
      </trkpt>
      <trkpt lat="45.74048" lon="3.54452">
        <ele>370.24487304688</ele>
        <time>2009-05-17T06:19:20Z</time>
      </trkpt>
      <trkpt lat="45.74031" lon="3.54456">
        <ele>372.16748046875</ele>
        <time>2009-05-17T06:19:28Z</time>
      </trkpt>
      <trkpt lat="45.74007" lon="3.54457">
        <ele>374.57080078125</ele>
        <time>2009-05-17T06:19:39Z</time>
      </trkpt>
      <trkpt lat="45.7398" lon="3.54455">
        <ele>377.93542480469</ele>
        <time>2009-05-17T06:19:50Z</time>
      </trkpt>
      <trkpt lat="45.73955" lon="3.54449">
        <ele>380.81945800781</ele>
        <time>2009-05-17T06:20:01Z</time>
      </trkpt>
      <trkpt lat="45.73946" lon="3.54447">
        <ele>382.26135253906</ele>
        <time>2009-05-17T06:20:05Z</time>
      </trkpt>
      <trkpt lat="45.73918" lon="3.54444">
        <ele>384.66479492188</ele>
        <time>2009-05-17T06:20:15Z</time>
      </trkpt>
      <trkpt lat="45.7389" lon="3.54439">
        <ele>386.58740234375</ele>
        <time>2009-05-17T06:20:25Z</time>
      </trkpt>
      <trkpt lat="45.73872" lon="3.54442">
        <ele>387.06799316406</ele>
        <time>2009-05-17T06:20:32Z</time>
      </trkpt>
      <trkpt lat="45.73854" lon="3.54447">
        <ele>387.54858398438</ele>
        <time>2009-05-17T06:20:38Z</time>
      </trkpt>
      <trkpt lat="45.73839" lon="3.54454">
        <ele>389.95190429688</ele>
        <time>2009-05-17T06:20:44Z</time>
      </trkpt>
      <trkpt lat="45.7382" lon="3.5446">
        <ele>392.35534667969</ele>
        <time>2009-05-17T06:20:52Z</time>
      </trkpt>
      <trkpt lat="45.73808" lon="3.54465">
        <ele>393.31652832031</ele>
        <time>2009-05-17T06:20:57Z</time>
      </trkpt>
      <trkpt lat="45.73792" lon="3.54473">
        <ele>395.23913574219</ele>
        <time>2009-05-17T06:21:04Z</time>
      </trkpt>
      <trkpt lat="45.73779" lon="3.54481">
        <ele>396.68115234375</ele>
        <time>2009-05-17T06:21:10Z</time>
      </trkpt>
      <trkpt lat="45.73757" lon="3.54493">
        <ele>398.60375976562</ele>
        <time>2009-05-17T06:21:19Z</time>
      </trkpt>
      <trkpt lat="45.73729" lon="3.54507">
        <ele>400.52648925781</ele>
        <time>2009-05-17T06:21:30Z</time>
      </trkpt>
      <trkpt lat="45.73706" lon="3.54518">
        <ele>402.44909667969</ele>
        <time>2009-05-17T06:21:39Z</time>
      </trkpt>
      <trkpt lat="45.73687" lon="3.54522">
        <ele>403.89111328125</ele>
        <time>2009-05-17T06:21:46Z</time>
      </trkpt>
      <trkpt lat="45.73662" lon="3.54519">
        <ele>405.3330078125</ele>
        <time>2009-05-17T06:21:55Z</time>
      </trkpt>
      <trkpt lat="45.73638" lon="3.54513">
        <ele>406.77490234375</ele>
        <time>2009-05-17T06:22:04Z</time>
      </trkpt>
      <trkpt lat="45.73617" lon="3.54509">
        <ele>408.69763183594</ele>
        <time>2009-05-17T06:22:12Z</time>
      </trkpt>
      <trkpt lat="45.73601" lon="3.54506">
        <ele>409.17834472656</ele>
        <time>2009-05-17T06:22:18Z</time>
      </trkpt>
      <trkpt lat="45.73574" lon="3.54501">
        <ele>410.62023925781</ele>
        <time>2009-05-17T06:22:28Z</time>
      </trkpt>
      <trkpt lat="45.73544" lon="3.54492">
        <ele>412.06225585938</ele>
        <time>2009-05-17T06:22:38Z</time>
      </trkpt>
      <trkpt lat="45.73525" lon="3.54485">
        <ele>412.06225585938</ele>
        <time>2009-05-17T06:22:44Z</time>
      </trkpt>
      <trkpt lat="45.73509" lon="3.54474">
        <ele>413.02355957031</ele>
        <time>2009-05-17T06:22:50Z</time>
      </trkpt>
      <trkpt lat="45.73495" lon="3.54465">
        <ele>414.46545410156</ele>
        <time>2009-05-17T06:22:55Z</time>
      </trkpt>
      <trkpt lat="45.73484" lon="3.54459">
        <ele>415.90747070312</ele>
        <time>2009-05-17T06:23:00Z</time>
      </trkpt>
      <trkpt lat="45.73471" lon="3.54452">
        <ele>417.349609375</ele>
        <time>2009-05-17T06:23:05Z</time>
      </trkpt>
      <trkpt lat="45.7345" lon="3.54441">
        <ele>419.75280761719</ele>
        <time>2009-05-17T06:23:13Z</time>
      </trkpt>
      <trkpt lat="45.73428" lon="3.5443">
        <ele>420.71411132812</ele>
        <time>2009-05-17T06:23:21Z</time>
      </trkpt>
      <trkpt lat="45.73399" lon="3.54414">
        <ele>423.59802246094</ele>
        <time>2009-05-17T06:23:32Z</time>
      </trkpt>
      <trkpt lat="45.7338" lon="3.54408">
        <ele>425.04016113281</ele>
        <time>2009-05-17T06:23:39Z</time>
      </trkpt>
      <trkpt lat="45.73348" lon="3.54401">
        <ele>426.96276855469</ele>
        <time>2009-05-17T06:23:50Z</time>
      </trkpt>
      <trkpt lat="45.73323" lon="3.54394">
        <ele>427.92395019531</ele>
        <time>2009-05-17T06:23:58Z</time>
      </trkpt>
      <trkpt lat="45.733" lon="3.54387">
        <ele>429.36596679688</ele>
        <time>2009-05-17T06:24:05Z</time>
      </trkpt>
      <trkpt lat="45.73273" lon="3.54377">
        <ele>430.32727050781</ele>
        <time>2009-05-17T06:24:13Z</time>
      </trkpt>
      <trkpt lat="45.7324" lon="3.54365">
        <ele>431.28857421875</ele>
        <time>2009-05-17T06:24:22Z</time>
      </trkpt>
      <trkpt lat="45.73206" lon="3.54347">
        <ele>431.76916503906</ele>
        <time>2009-05-17T06:24:31Z</time>
      </trkpt>
      <trkpt lat="45.73178" lon="3.54329">
        <ele>432.73071289062</ele>
        <time>2009-05-17T06:24:39Z</time>
      </trkpt>
      <trkpt lat="45.73145" lon="3.54307">
        <ele>434.17260742188</ele>
        <time>2009-05-17T06:24:49Z</time>
      </trkpt>
      <trkpt lat="45.7312" lon="3.54294">
        <ele>434.6533203125</ele>
        <time>2009-05-17T06:24:56Z</time>
      </trkpt>
      <trkpt lat="45.73091" lon="3.54285">
        <ele>434.17260742188</ele>
        <time>2009-05-17T06:25:04Z</time>
      </trkpt>
      <trkpt lat="45.73069" lon="3.5428">
        <ele>434.17260742188</ele>
        <time>2009-05-17T06:25:10Z</time>
      </trkpt>
      <trkpt lat="45.73057" lon="3.54274">
        <ele>435.13391113281</ele>
        <time>2009-05-17T06:25:13Z</time>
      </trkpt>
      <trkpt lat="45.73029" lon="3.54252">
        <ele>435.61450195312</ele>
        <time>2009-05-17T06:25:21Z</time>
      </trkpt>
      <trkpt lat="45.73005" lon="3.54227">
        <ele>437.537109375</ele>
        <time>2009-05-17T06:25:29Z</time>
      </trkpt>
      <trkpt lat="45.72995" lon="3.54217">
        <ele>438.49853515625</ele>
        <time>2009-05-17T06:25:33Z</time>
      </trkpt>
      <trkpt lat="45.72978" lon="3.54206">
        <ele>441.38244628906</ele>
        <time>2009-05-17T06:25:40Z</time>
      </trkpt>
      <trkpt lat="45.72976" lon="3.54205">
        <ele>441.86315917969</ele>
        <time>2009-05-17T06:25:41Z</time>
      </trkpt>
      <trkpt lat="45.72964" lon="3.542">
        <ele>443.30505371094</ele>
        <time>2009-05-17T06:25:47Z</time>
      </trkpt>
      <trkpt lat="45.72953" lon="3.54196">
        <ele>444.26647949219</ele>
        <time>2009-05-17T06:25:53Z</time>
      </trkpt>
      <trkpt lat="45.72952" lon="3.54195">
        <ele>444.7470703125</ele>
        <time>2009-05-17T06:25:54Z</time>
      </trkpt>
      <trkpt lat="45.72937" lon="3.54189">
        <ele>447.15026855469</ele>
        <time>2009-05-17T06:26:03Z</time>
      </trkpt>
      <trkpt lat="45.72934" lon="3.54188">
        <ele>448.11181640625</ele>
        <time>2009-05-17T06:26:06Z</time>
      </trkpt>
      <trkpt lat="45.72922" lon="3.5418">
        <ele>450.51501464844</ele>
        <time>2009-05-17T06:26:14Z</time>
      </trkpt>
      <trkpt lat="45.72913" lon="3.54173">
        <ele>452.91821289062</ele>
        <time>2009-05-17T06:26:21Z</time>
      </trkpt>
      <trkpt lat="45.72909" lon="3.54169">
        <ele>454.36022949219</ele>
        <time>2009-05-17T06:26:24Z</time>
      </trkpt>
      <trkpt lat="45.72895" lon="3.54159">
        <ele>456.76354980469</ele>
        <time>2009-05-17T06:26:32Z</time>
      </trkpt>
      <trkpt lat="45.72882" lon="3.54148">
        <ele>458.20556640625</ele>
        <time>2009-05-17T06:26:39Z</time>
      </trkpt>
      <trkpt lat="45.72873" lon="3.5414">
        <ele>459.16687011719</ele>
        <time>2009-05-17T06:26:44Z</time>
      </trkpt>
      <trkpt lat="45.72861" lon="3.54125">
        <ele>460.60876464844</ele>
        <time>2009-05-17T06:26:52Z</time>
      </trkpt>
      <trkpt lat="45.7285" lon="3.54115">
        <ele>463.49279785156</ele>
        <time>2009-05-17T06:26:59Z</time>
      </trkpt>
      <trkpt lat="45.72841" lon="3.54109">
        <ele>465.41552734375</ele>
        <time>2009-05-17T06:27:05Z</time>
      </trkpt>
      <trkpt lat="45.72831" lon="3.54102">
        <ele>466.37670898438</ele>
        <time>2009-05-17T06:27:10Z</time>
      </trkpt>
      <trkpt lat="45.72828" lon="3.541">
        <ele>467.81872558594</ele>
        <time>2009-05-17T06:27:13Z</time>
      </trkpt>
      <trkpt lat="45.72819" lon="3.54096">
        <ele>469.2607421875</ele>
        <time>2009-05-17T06:27:18Z</time>
      </trkpt>
      <trkpt lat="45.7281" lon="3.5409">
        <ele>471.18334960938</ele>
        <time>2009-05-17T06:27:25Z</time>
      </trkpt>
      <trkpt lat="45.72799" lon="3.54085">
        <ele>473.10607910156</ele>
        <time>2009-05-17T06:27:31Z</time>
      </trkpt>
      <trkpt lat="45.72783" lon="3.54078">
        <ele>474.54797363281</ele>
        <time>2009-05-17T06:27:38Z</time>
      </trkpt>
      <trkpt lat="45.72762" lon="3.54073">
        <ele>475.50927734375</ele>
        <time>2009-05-17T06:27:46Z</time>
      </trkpt>
      <trkpt lat="45.72745" lon="3.54068">
        <ele>476.47058105469</ele>
        <time>2009-05-17T06:27:53Z</time>
      </trkpt>
      <trkpt lat="45.72729" lon="3.54061">
        <ele>478.87390136719</ele>
        <time>2009-05-17T06:28:00Z</time>
      </trkpt>
      <trkpt lat="45.72726" lon="3.5406">
        <ele>478.87390136719</ele>
        <time>2009-05-17T06:28:01Z</time>
      </trkpt>
      <trkpt lat="45.72702" lon="3.54057">
        <ele>480.31591796875</ele>
        <time>2009-05-17T06:28:09Z</time>
      </trkpt>
      <trkpt lat="45.72684" lon="3.54052">
        <ele>483.19982910156</ele>
        <time>2009-05-17T06:28:16Z</time>
      </trkpt>
      <trkpt lat="45.72665" lon="3.54046">
        <ele>484.1611328125</ele>
        <time>2009-05-17T06:28:23Z</time>
      </trkpt>
      <trkpt lat="45.72641" lon="3.54049">
        <ele>485.12243652344</ele>
        <time>2009-05-17T06:28:30Z</time>
      </trkpt>
      <trkpt lat="45.72607" lon="3.54058">
        <ele>485.12243652344</ele>
        <time>2009-05-17T06:28:39Z</time>
      </trkpt>
      <trkpt lat="45.72583" lon="3.54068">
        <ele>485.60302734375</ele>
        <time>2009-05-17T06:28:45Z</time>
      </trkpt>
      <trkpt lat="45.72558" lon="3.54082">
        <ele>485.60302734375</ele>
        <time>2009-05-17T06:28:51Z</time>
      </trkpt>
      <trkpt lat="45.72541" lon="3.54091">
        <ele>484.64184570312</ele>
        <time>2009-05-17T06:28:55Z</time>
      </trkpt>
      <trkpt lat="45.72514" lon="3.54108">
        <ele>483.19982910156</ele>
        <time>2009-05-17T06:29:01Z</time>
      </trkpt>
      <trkpt lat="45.72503" lon="3.54114">
        <ele>483.19982910156</ele>
        <time>2009-05-17T06:29:03Z</time>
      </trkpt>
      <trkpt lat="45.72483" lon="3.54129">
        <ele>482.23852539062</ele>
        <time>2009-05-17T06:29:07Z</time>
      </trkpt>
      <trkpt lat="45.72454" lon="3.54152">
        <ele>480.31591796875</ele>
        <time>2009-05-17T06:29:12Z</time>
      </trkpt>
      <trkpt lat="45.72448" lon="3.54157">
        <ele>479.83508300781</ele>
        <time>2009-05-17T06:29:13Z</time>
      </trkpt>
      <trkpt lat="45.72433" lon="3.54164">
        <ele>478.87390136719</ele>
        <time>2009-05-17T06:29:15Z</time>
      </trkpt>
      <trkpt lat="45.72419" lon="3.54169">
        <ele>478.87390136719</ele>
        <time>2009-05-17T06:29:17Z</time>
      </trkpt>
      <trkpt lat="45.72351" lon="3.54173">
        <ele>476.95129394531</ele>
        <time>2009-05-17T06:29:26Z</time>
      </trkpt>
      <trkpt lat="45.72301" lon="3.54169">
        <ele>475.98986816406</ele>
        <time>2009-05-17T06:29:33Z</time>
      </trkpt>
      <trkpt lat="45.72276" lon="3.54163">
        <ele>475.98986816406</ele>
        <time>2009-05-17T06:29:37Z</time>
      </trkpt>
      <trkpt lat="45.72254" lon="3.54149">
        <ele>476.47058105469</ele>
        <time>2009-05-17T06:29:42Z</time>
      </trkpt>
      <trkpt lat="45.72237" lon="3.54154">
        <ele>475.50927734375</ele>
        <time>2009-05-17T06:29:46Z</time>
      </trkpt>
      <trkpt lat="45.72227" lon="3.54164">
        <ele>475.50927734375</ele>
        <time>2009-05-17T06:29:48Z</time>
      </trkpt>
      <trkpt lat="45.72186" lon="3.54221">
        <ele>473.58666992188</ele>
        <time>2009-05-17T06:29:57Z</time>
      </trkpt>
      <trkpt lat="45.72156" lon="3.54278">
        <ele>472.62536621094</ele>
        <time>2009-05-17T06:30:04Z</time>
      </trkpt>
      <trkpt lat="45.72129" lon="3.54328">
        <ele>471.66394042969</ele>
        <time>2009-05-17T06:30:10Z</time>
      </trkpt>
      <trkpt lat="45.72125" lon="3.54337">
        <ele>471.18334960938</ele>
        <time>2009-05-17T06:30:11Z</time>
      </trkpt>
      <trkpt lat="45.72114" lon="3.54364">
        <ele>469.74133300781</ele>
        <time>2009-05-17T06:30:14Z</time>
      </trkpt>
      <trkpt lat="45.72098" lon="3.54409">
        <ele>471.18334960938</ele>
        <time>2009-05-17T06:30:19Z</time>
      </trkpt>
      <trkpt lat="45.72091" lon="3.54431">
        <ele>472.14465332031</ele>
        <time>2009-05-17T06:30:22Z</time>
      </trkpt>
      <trkpt lat="45.72087" lon="3.54444">
        <ele>472.62536621094</ele>
        <time>2009-05-17T06:30:24Z</time>
      </trkpt>
      <trkpt lat="45.72086" lon="3.54451">
        <ele>472.62536621094</ele>
        <time>2009-05-17T06:30:25Z</time>
      </trkpt>
      <trkpt lat="45.72084" lon="3.54457">
        <ele>473.10607910156</ele>
        <time>2009-05-17T06:30:26Z</time>
      </trkpt>
      <trkpt lat="45.72073" lon="3.54502">
        <ele>475.50927734375</ele>
        <time>2009-05-17T06:30:34Z</time>
      </trkpt>
      <trkpt lat="45.7207" lon="3.54519">
        <ele>476.47058105469</ele>
        <time>2009-05-17T06:30:37Z</time>
      </trkpt>
      <trkpt lat="45.72067" lon="3.54541">
        <ele>476.95129394531</ele>
        <time>2009-05-17T06:30:41Z</time>
      </trkpt>
      <trkpt lat="45.72066" lon="3.54553">
        <ele>477.43188476562</ele>
        <time>2009-05-17T06:30:43Z</time>
      </trkpt>
      <trkpt lat="45.72065" lon="3.54595">
        <ele>477.43188476562</ele>
        <time>2009-05-17T06:30:50Z</time>
      </trkpt>
      <trkpt lat="45.72058" lon="3.54636">
        <ele>476.95129394531</ele>
        <time>2009-05-17T06:30:56Z</time>
      </trkpt>
      <trkpt lat="45.72048" lon="3.54693">
        <ele>475.50927734375</ele>
        <time>2009-05-17T06:31:03Z</time>
      </trkpt>
      <trkpt lat="45.72042" lon="3.54738">
        <ele>475.02868652344</ele>
        <time>2009-05-17T06:31:08Z</time>
      </trkpt>
      <trkpt lat="45.72038" lon="3.54774">
        <ele>474.06726074219</ele>
        <time>2009-05-17T06:31:12Z</time>
      </trkpt>
      <trkpt lat="45.72033" lon="3.54793">
        <ele>473.10607910156</ele>
        <time>2009-05-17T06:31:15Z</time>
      </trkpt>
      <trkpt lat="45.72038" lon="3.54797">
        <ele>473.58666992188</ele>
        <time>2009-05-17T06:31:19Z</time>
      </trkpt>
      <trkpt lat="45.72033" lon="3.54788">
        <ele>472.62536621094</ele>
        <time>2009-05-17T06:31:22Z</time>
      </trkpt>
      <trkpt lat="45.72021" lon="3.54776">
        <ele>471.66394042969</ele>
        <time>2009-05-17T06:31:25Z</time>
      </trkpt>
      <trkpt lat="45.71984" lon="3.54737">
        <ele>469.2607421875</ele>
        <time>2009-05-17T06:31:33Z</time>
      </trkpt>
      <trkpt lat="45.7197" lon="3.54725">
        <ele>467.81872558594</ele>
        <time>2009-05-17T06:31:36Z</time>
      </trkpt>
      <trkpt lat="45.71965" lon="3.5472">
        <ele>467.33813476562</ele>
        <time>2009-05-17T06:31:37Z</time>
      </trkpt>
      <trkpt lat="45.71954" lon="3.54711">
        <ele>466.37670898438</ele>
        <time>2009-05-17T06:31:39Z</time>
      </trkpt>
      <trkpt lat="45.71921" lon="3.54681">
        <ele>462.53137207031</ele>
        <time>2009-05-17T06:31:45Z</time>
      </trkpt>
      <trkpt lat="45.71894" lon="3.54657">
        <ele>460.12817382812</ele>
        <time>2009-05-17T06:31:50Z</time>
      </trkpt>
      <trkpt lat="45.71871" lon="3.54623">
        <ele>457.72497558594</ele>
        <time>2009-05-17T06:31:55Z</time>
      </trkpt>
      <trkpt lat="45.71862" lon="3.54607">
        <ele>456.76354980469</ele>
        <time>2009-05-17T06:31:57Z</time>
      </trkpt>
      <trkpt lat="45.71841" lon="3.54575">
        <ele>453.39892578125</ele>
        <time>2009-05-17T06:32:01Z</time>
      </trkpt>
      <trkpt lat="45.71829" lon="3.54558">
        <ele>452.91821289062</ele>
        <time>2009-05-17T06:32:03Z</time>
      </trkpt>
      <trkpt lat="45.71817" lon="3.5453">
        <ele>450.99560546875</ele>
        <time>2009-05-17T06:32:06Z</time>
      </trkpt>
      <trkpt lat="45.71809" lon="3.54499">
        <ele>445.70837402344</ele>
        <time>2009-05-17T06:32:09Z</time>
      </trkpt>
      <trkpt lat="45.71806" lon="3.54489">
        <ele>444.7470703125</ele>
        <time>2009-05-17T06:32:10Z</time>
      </trkpt>
      <trkpt lat="45.7179" lon="3.54454">
        <ele>441.86315917969</ele>
        <time>2009-05-17T06:32:15Z</time>
      </trkpt>
      <trkpt lat="45.71781" lon="3.54421">
        <ele>441.86315917969</ele>
        <time>2009-05-17T06:32:20Z</time>
      </trkpt>
      <trkpt lat="45.71768" lon="3.54382">
        <ele>442.82446289062</ele>
        <time>2009-05-17T06:32:24Z</time>
      </trkpt>
      <trkpt lat="45.71758" lon="3.54359">
        <ele>443.78576660156</ele>
        <time>2009-05-17T06:32:27Z</time>
      </trkpt>
      <trkpt lat="45.71751" lon="3.54343">
        <ele>443.30505371094</ele>
        <time>2009-05-17T06:32:29Z</time>
      </trkpt>
      <trkpt lat="45.71743" lon="3.54328">
        <ele>443.78576660156</ele>
        <time>2009-05-17T06:32:32Z</time>
      </trkpt>
      <trkpt lat="45.7174" lon="3.5432">
        <ele>444.26647949219</ele>
        <time>2009-05-17T06:32:34Z</time>
      </trkpt>
      <trkpt lat="45.71739" lon="3.54316">
        <ele>444.7470703125</ele>
        <time>2009-05-17T06:32:35Z</time>
      </trkpt>
      <trkpt lat="45.71737" lon="3.5431">
        <ele>445.22766113281</ele>
        <time>2009-05-17T06:32:36Z</time>
      </trkpt>
      <trkpt lat="45.7173" lon="3.54299">
        <ele>447.63098144531</ele>
        <time>2009-05-17T06:32:39Z</time>
      </trkpt>
      <trkpt lat="45.71727" lon="3.54293">
        <ele>448.11181640625</ele>
        <time>2009-05-17T06:32:41Z</time>
      </trkpt>
      <trkpt lat="45.71716" lon="3.54275">
        <ele>450.03442382812</ele>
        <time>2009-05-17T06:32:47Z</time>
      </trkpt>
      <trkpt lat="45.71713" lon="3.5427">
        <ele>451.47631835938</ele>
        <time>2009-05-17T06:32:49Z</time>
      </trkpt>
      <trkpt lat="45.71706" lon="3.54257">
        <ele>451.95703125</ele>
        <time>2009-05-17T06:32:54Z</time>
      </trkpt>
      <trkpt lat="45.71698" lon="3.54246">
        <ele>453.87963867188</ele>
        <time>2009-05-17T06:33:00Z</time>
      </trkpt>
      <trkpt lat="45.71696" lon="3.54244">
        <ele>453.87963867188</ele>
        <time>2009-05-17T06:33:01Z</time>
      </trkpt>
      <trkpt lat="45.71688" lon="3.54239">
        <ele>455.32153320312</ele>
        <time>2009-05-17T06:33:05Z</time>
      </trkpt>
      <trkpt lat="45.71679" lon="3.54238">
        <ele>457.72497558594</ele>
        <time>2009-05-17T06:33:10Z</time>
      </trkpt>
      <trkpt lat="45.71681" lon="3.54247">
        <ele>457.72497558594</ele>
        <time>2009-05-17T06:33:15Z</time>
      </trkpt>
      <trkpt lat="45.717" lon="3.54281">
        <ele>457.72497558594</ele>
        <time>2009-05-17T06:33:24Z</time>
      </trkpt>
      <trkpt lat="45.71711" lon="3.54308">
        <ele>457.72497558594</ele>
        <time>2009-05-17T06:33:30Z</time>
      </trkpt>
      <trkpt lat="45.71722" lon="3.54339">
        <ele>457.72497558594</ele>
        <time>2009-05-17T06:33:35Z</time>
      </trkpt>
      <trkpt lat="45.71734" lon="3.5439">
        <ele>456.76354980469</ele>
        <time>2009-05-17T06:33:42Z</time>
      </trkpt>
      <trkpt lat="45.7174" lon="3.54419">
        <ele>456.28295898438</ele>
        <time>2009-05-17T06:33:46Z</time>
      </trkpt>
      <trkpt lat="45.71739" lon="3.54456">
        <ele>457.24426269531</ele>
        <time>2009-05-17T06:33:51Z</time>
      </trkpt>
      <trkpt lat="45.71725" lon="3.54478">
        <ele>457.72497558594</ele>
        <time>2009-05-17T06:33:55Z</time>
      </trkpt>
      <trkpt lat="45.71709" lon="3.54496">
        <ele>458.20556640625</ele>
        <time>2009-05-17T06:33:59Z</time>
      </trkpt>
      <trkpt lat="45.717" lon="3.54527">
        <ele>458.68615722656</ele>
        <time>2009-05-17T06:34:04Z</time>
      </trkpt>
      <trkpt lat="45.71701" lon="3.54534">
        <ele>459.16687011719</ele>
        <time>2009-05-17T06:34:05Z</time>
      </trkpt>
      <trkpt lat="45.71708" lon="3.54564">
        <ele>459.16687011719</ele>
        <time>2009-05-17T06:34:10Z</time>
      </trkpt>
      <trkpt lat="45.71717" lon="3.54595">
        <ele>460.60876464844</ele>
        <time>2009-05-17T06:34:16Z</time>
      </trkpt>
      <trkpt lat="45.71712" lon="3.54605">
        <ele>462.05078125</ele>
        <time>2009-05-17T06:34:20Z</time>
      </trkpt>
      <trkpt lat="45.7171" lon="3.5461">
        <ele>463.49279785156</ele>
        <time>2009-05-17T06:34:22Z</time>
      </trkpt>
      <trkpt lat="45.71701" lon="3.54622">
        <ele>465.89611816406</ele>
        <time>2009-05-17T06:34:29Z</time>
      </trkpt>
      <trkpt lat="45.71693" lon="3.54631">
        <ele>467.81872558594</ele>
        <time>2009-05-17T06:34:34Z</time>
      </trkpt>
      <trkpt lat="45.71687" lon="3.5464">
        <ele>469.2607421875</ele>
        <time>2009-05-17T06:34:38Z</time>
      </trkpt>
      <trkpt lat="45.71676" lon="3.54649">
        <ele>470.22192382812</ele>
        <time>2009-05-17T06:34:44Z</time>
      </trkpt>
      <trkpt lat="45.71659" lon="3.54658">
        <ele>471.18334960938</ele>
        <time>2009-05-17T06:34:52Z</time>
      </trkpt>
      <trkpt lat="45.71642" lon="3.54663">
        <ele>473.10607910156</ele>
        <time>2009-05-17T06:35:00Z</time>
      </trkpt>
      <trkpt lat="45.71628" lon="3.54668">
        <ele>475.50927734375</ele>
        <time>2009-05-17T06:35:07Z</time>
      </trkpt>
      <trkpt lat="45.71612" lon="3.54673">
        <ele>477.43188476562</ele>
        <time>2009-05-17T06:35:15Z</time>
      </trkpt>
      <trkpt lat="45.71595" lon="3.54679">
        <ele>479.3544921875</ele>
        <time>2009-05-17T06:35:24Z</time>
      </trkpt>
      <trkpt lat="45.71579" lon="3.54692">
        <ele>481.7578125</ele>
        <time>2009-05-17T06:35:32Z</time>
      </trkpt>
      <trkpt lat="45.71561" lon="3.54708">
        <ele>483.68041992188</ele>
        <time>2009-05-17T06:35:41Z</time>
      </trkpt>
      <trkpt lat="45.71546" lon="3.54721">
        <ele>484.1611328125</ele>
        <time>2009-05-17T06:35:48Z</time>
      </trkpt>
      <trkpt lat="45.71531" lon="3.54731">
        <ele>485.60302734375</ele>
        <time>2009-05-17T06:35:55Z</time>
      </trkpt>
      <trkpt lat="45.71515" lon="3.54742">
        <ele>487.52563476562</ele>
        <time>2009-05-17T06:36:03Z</time>
      </trkpt>
      <trkpt lat="45.71494" lon="3.54752">
        <ele>489.44836425781</ele>
        <time>2009-05-17T06:36:12Z</time>
      </trkpt>
      <trkpt lat="45.71476" lon="3.5476">
        <ele>490.89038085938</ele>
        <time>2009-05-17T06:36:20Z</time>
      </trkpt>
      <trkpt lat="45.71452" lon="3.54768">
        <ele>493.77429199219</ele>
        <time>2009-05-17T06:36:30Z</time>
      </trkpt>
      <trkpt lat="45.7143" lon="3.54771">
        <ele>494.73559570312</ele>
        <time>2009-05-17T06:36:39Z</time>
      </trkpt>
      <trkpt lat="45.71407" lon="3.54773">
        <ele>496.177734375</ele>
        <time>2009-05-17T06:36:48Z</time>
      </trkpt>
      <trkpt lat="45.71397" lon="3.5478">
        <ele>496.177734375</ele>
        <time>2009-05-17T06:36:52Z</time>
      </trkpt>
      <trkpt lat="45.71385" lon="3.54806">
        <ele>496.177734375</ele>
        <time>2009-05-17T06:36:58Z</time>
      </trkpt>
      <trkpt lat="45.71383" lon="3.54812">
        <ele>495.69689941406</ele>
        <time>2009-05-17T06:36:59Z</time>
      </trkpt>
      <trkpt lat="45.71371" lon="3.54836">
        <ele>495.69689941406</ele>
        <time>2009-05-17T06:37:03Z</time>
      </trkpt>
      <trkpt lat="45.71356" lon="3.54862">
        <ele>495.21618652344</ele>
        <time>2009-05-17T06:37:07Z</time>
      </trkpt>
      <trkpt lat="45.71331" lon="3.54904">
        <ele>495.21618652344</ele>
        <time>2009-05-17T06:37:13Z</time>
      </trkpt>
      <trkpt lat="45.71305" lon="3.54948">
        <ele>496.177734375</ele>
        <time>2009-05-17T06:37:20Z</time>
      </trkpt>
      <trkpt lat="45.7129" lon="3.54974">
        <ele>496.65832519531</ele>
        <time>2009-05-17T06:37:25Z</time>
      </trkpt>
      <trkpt lat="45.71266" lon="3.55018">
        <ele>497.61962890625</ele>
        <time>2009-05-17T06:37:33Z</time>
      </trkpt>
      <trkpt lat="45.71241" lon="3.5506">
        <ele>499.54223632812</ele>
        <time>2009-05-17T06:37:42Z</time>
      </trkpt>
      <trkpt lat="45.71218" lon="3.55097">
        <ele>501.46484375</ele>
        <time>2009-05-17T06:37:50Z</time>
      </trkpt>
      <trkpt lat="45.71196" lon="3.5513">
        <ele>501.46484375</ele>
        <time>2009-05-17T06:37:57Z</time>
      </trkpt>
      <trkpt lat="45.71179" lon="3.55173">
        <ele>500.98413085938</ele>
        <time>2009-05-17T06:38:04Z</time>
      </trkpt>
      <trkpt lat="45.71172" lon="3.55197">
        <ele>500.02294921875</ele>
        <time>2009-05-17T06:38:07Z</time>
      </trkpt>
      <trkpt lat="45.71158" lon="3.55242">
        <ele>498.10034179688</ele>
        <time>2009-05-17T06:38:12Z</time>
      </trkpt>
      <trkpt lat="45.71155" lon="3.55251">
        <ele>497.13891601562</ele>
        <time>2009-05-17T06:38:13Z</time>
      </trkpt>
      <trkpt lat="45.71143" lon="3.55292">
        <ele>495.21618652344</ele>
        <time>2009-05-17T06:38:17Z</time>
      </trkpt>
      <trkpt lat="45.71141" lon="3.55303">
        <ele>495.21618652344</ele>
        <time>2009-05-17T06:38:18Z</time>
      </trkpt>
      <trkpt lat="45.71128" lon="3.55368">
        <ele>491.85168457031</ele>
        <time>2009-05-17T06:38:23Z</time>
      </trkpt>
      <trkpt lat="45.71125" lon="3.55381">
        <ele>491.85168457031</ele>
        <time>2009-05-17T06:38:24Z</time>
      </trkpt>
      <trkpt lat="45.71106" lon="3.55425">
        <ele>489.44836425781</ele>
        <time>2009-05-17T06:38:28Z</time>
      </trkpt>
      <trkpt lat="45.7108" lon="3.55447">
        <ele>486.564453125</ele>
        <time>2009-05-17T06:38:31Z</time>
      </trkpt>
      <trkpt lat="45.71071" lon="3.55453">
        <ele>485.60302734375</ele>
        <time>2009-05-17T06:38:32Z</time>
      </trkpt>
      <trkpt lat="45.71054" lon="3.55463">
        <ele>483.19982910156</ele>
        <time>2009-05-17T06:38:34Z</time>
      </trkpt>
      <trkpt lat="45.7103" lon="3.55498">
        <ele>479.3544921875</ele>
        <time>2009-05-17T06:38:38Z</time>
      </trkpt>
      <trkpt lat="45.7102" lon="3.55521">
        <ele>475.50927734375</ele>
        <time>2009-05-17T06:38:40Z</time>
      </trkpt>
      <trkpt lat="45.71015" lon="3.55534">
        <ele>475.50927734375</ele>
        <time>2009-05-17T06:38:41Z</time>
      </trkpt>
      <trkpt lat="45.71005" lon="3.55575">
        <ele>473.10607910156</ele>
        <time>2009-05-17T06:38:44Z</time>
      </trkpt>
      <trkpt lat="45.71004" lon="3.55589">
        <ele>472.62536621094</ele>
        <time>2009-05-17T06:38:45Z</time>
      </trkpt>
      <trkpt lat="45.71008" lon="3.55641">
        <ele>470.70263671875</ele>
        <time>2009-05-17T06:38:49Z</time>
      </trkpt>
      <trkpt lat="45.71002" lon="3.55685">
        <ele>470.22192382812</ele>
        <time>2009-05-17T06:38:53Z</time>
      </trkpt>
      <trkpt lat="45.70987" lon="3.55704">
        <ele>471.18334960938</ele>
        <time>2009-05-17T06:38:56Z</time>
      </trkpt>
      <trkpt lat="45.70959" lon="3.55716">
        <ele>473.58666992188</ele>
        <time>2009-05-17T06:39:02Z</time>
      </trkpt>
      <trkpt lat="45.70949" lon="3.55708">
        <ele>475.50927734375</ele>
        <time>2009-05-17T06:39:06Z</time>
      </trkpt>
      <trkpt lat="45.7094" lon="3.55698">
        <ele>476.95129394531</ele>
        <time>2009-05-17T06:39:10Z</time>
      </trkpt>
      <trkpt lat="45.7093" lon="3.55689">
        <ele>476.95129394531</ele>
        <time>2009-05-17T06:39:14Z</time>
      </trkpt>
      <trkpt lat="45.70908" lon="3.55678">
        <ele>478.39318847656</ele>
        <time>2009-05-17T06:39:22Z</time>
      </trkpt>
      <trkpt lat="45.7089" lon="3.55673">
        <ele>480.31591796875</ele>
        <time>2009-05-17T06:39:28Z</time>
      </trkpt>
      <trkpt lat="45.70879" lon="3.55669">
        <ele>480.31591796875</ele>
        <time>2009-05-17T06:39:32Z</time>
      </trkpt>
      <trkpt lat="45.70872" lon="3.55667">
        <ele>481.7578125</ele>
        <time>2009-05-17T06:39:35Z</time>
      </trkpt>
      <trkpt lat="45.70861" lon="3.55658">
        <ele>483.68041992188</ele>
        <time>2009-05-17T06:39:41Z</time>
      </trkpt>
      <trkpt lat="45.70849" lon="3.55643">
        <ele>486.564453125</ele>
        <time>2009-05-17T06:39:48Z</time>
      </trkpt>
      <trkpt lat="45.70847" lon="3.55641">
        <ele>487.04504394531</ele>
        <time>2009-05-17T06:39:49Z</time>
      </trkpt>
      <trkpt lat="45.70836" lon="3.55638">
        <ele>487.52563476562</ele>
        <time>2009-05-17T06:39:55Z</time>
      </trkpt>
      <trkpt lat="45.70824" lon="3.55648">
        <ele>489.44836425781</ele>
        <time>2009-05-17T06:40:02Z</time>
      </trkpt>
      <trkpt lat="45.70808" lon="3.55664">
        <ele>490.89038085938</ele>
        <time>2009-05-17T06:40:11Z</time>
      </trkpt>
      <trkpt lat="45.70795" lon="3.55676">
        <ele>492.81298828125</ele>
        <time>2009-05-17T06:40:18Z</time>
      </trkpt>
      <trkpt lat="45.70776" lon="3.55682">
        <ele>495.21618652344</ele>
        <time>2009-05-17T06:40:26Z</time>
      </trkpt>
      <trkpt lat="45.70753" lon="3.55686">
        <ele>497.61962890625</ele>
        <time>2009-05-17T06:40:35Z</time>
      </trkpt>
      <trkpt lat="45.70728" lon="3.55694">
        <ele>498.10034179688</ele>
        <time>2009-05-17T06:40:44Z</time>
      </trkpt>
      <trkpt lat="45.7071" lon="3.557">
        <ele>499.0615234375</ele>
        <time>2009-05-17T06:40:50Z</time>
      </trkpt>
      <trkpt lat="45.70693" lon="3.55697">
        <ele>499.0615234375</ele>
        <time>2009-05-17T06:40:55Z</time>
      </trkpt>
      <trkpt lat="45.70678" lon="3.55688">
        <ele>499.0615234375</ele>
        <time>2009-05-17T06:40:59Z</time>
      </trkpt>
      <trkpt lat="45.70656" lon="3.5568">
        <ele>497.61962890625</ele>
        <time>2009-05-17T06:41:04Z</time>
      </trkpt>
      <trkpt lat="45.70651" lon="3.55678">
        <ele>497.13891601562</ele>
        <time>2009-05-17T06:41:05Z</time>
      </trkpt>
      <trkpt lat="45.70619" lon="3.5568">
        <ele>494.73559570312</ele>
        <time>2009-05-17T06:41:10Z</time>
      </trkpt>
      <trkpt lat="45.70592" lon="3.55671">
        <ele>494.25500488281</ele>
        <time>2009-05-17T06:41:14Z</time>
      </trkpt>
      <trkpt lat="45.7057" lon="3.55662">
        <ele>492.81298828125</ele>
        <time>2009-05-17T06:41:17Z</time>
      </trkpt>
      <trkpt lat="45.70539" lon="3.55667">
        <ele>489.92907714844</ele>
        <time>2009-05-17T06:41:21Z</time>
      </trkpt>
      <trkpt lat="45.70489" lon="3.55696">
        <ele>487.04504394531</ele>
        <time>2009-05-17T06:41:27Z</time>
      </trkpt>
      <trkpt lat="45.70433" lon="3.55725">
        <ele>484.1611328125</ele>
        <time>2009-05-17T06:41:33Z</time>
      </trkpt>
      <trkpt lat="45.704" lon="3.5574">
        <ele>481.7578125</ele>
        <time>2009-05-17T06:41:37Z</time>
      </trkpt>
      <trkpt lat="45.70393" lon="3.55743">
        <ele>480.79663085938</ele>
        <time>2009-05-17T06:41:38Z</time>
      </trkpt>
      <trkpt lat="45.70382" lon="3.55749">
        <ele>479.3544921875</ele>
        <time>2009-05-17T06:41:41Z</time>
      </trkpt>
      <trkpt lat="45.70381" lon="3.5575">
        <ele>479.3544921875</ele>
        <time>2009-05-17T06:41:45Z</time>
      </trkpt>
      <trkpt lat="45.70377" lon="3.55755">
        <ele>478.87390136719</ele>
        <time>2009-05-17T06:41:57Z</time>
      </trkpt>
      <trkpt lat="45.7037" lon="3.55761">
        <ele>478.39318847656</ele>
        <time>2009-05-17T06:41:59Z</time>
      </trkpt>
      <trkpt lat="45.70354" lon="3.55777">
        <ele>476.95129394531</ele>
        <time>2009-05-17T06:42:02Z</time>
      </trkpt>
      <trkpt lat="45.70321" lon="3.55793">
        <ele>472.62536621094</ele>
        <time>2009-05-17T06:42:06Z</time>
      </trkpt>
      <trkpt lat="45.70311" lon="3.55792">
        <ele>472.14465332031</ele>
        <time>2009-05-17T06:42:07Z</time>
      </trkpt>
      <trkpt lat="45.7028" lon="3.55783">
        <ele>468.29931640625</ele>
        <time>2009-05-17T06:42:10Z</time>
      </trkpt>
      <trkpt lat="45.70269" lon="3.55781">
        <ele>467.33813476562</ele>
        <time>2009-05-17T06:42:11Z</time>
      </trkpt>
      <trkpt lat="45.70235" lon="3.55779">
        <ele>463.49279785156</ele>
        <time>2009-05-17T06:42:14Z</time>
      </trkpt>
      <trkpt lat="45.70204" lon="3.5578">
        <ele>459.64758300781</ele>
        <time>2009-05-17T06:42:17Z</time>
      </trkpt>
      <trkpt lat="45.70173" lon="3.55792">
        <ele>454.8408203125</ele>
        <time>2009-05-17T06:42:20Z</time>
      </trkpt>
      <trkpt lat="45.70163" lon="3.55798">
        <ele>453.39892578125</ele>
        <time>2009-05-17T06:42:21Z</time>
      </trkpt>
      <trkpt lat="45.70132" lon="3.55822">
        <ele>447.15026855469</ele>
        <time>2009-05-17T06:42:24Z</time>
      </trkpt>
      <trkpt lat="45.7009" lon="3.55833">
        <ele>443.30505371094</ele>
        <time>2009-05-17T06:42:28Z</time>
      </trkpt>
      <trkpt lat="45.70053" lon="3.5583">
        <ele>438.49853515625</ele>
        <time>2009-05-17T06:42:31Z</time>
      </trkpt>
      <trkpt lat="45.70042" lon="3.55829">
        <ele>437.05651855469</ele>
        <time>2009-05-17T06:42:32Z</time>
      </trkpt>
      <trkpt lat="45.70017" lon="3.55815">
        <ele>432.25</ele>
        <time>2009-05-17T06:42:35Z</time>
      </trkpt>
      <trkpt lat="45.7001" lon="3.55796">
        <ele>430.32727050781</ele>
        <time>2009-05-17T06:42:37Z</time>
      </trkpt>
      <trkpt lat="45.70008" lon="3.55784">
        <ele>429.84655761719</ele>
        <time>2009-05-17T06:42:38Z</time>
      </trkpt>
      <trkpt lat="45.69995" lon="3.55742">
        <ele>424.07873535156</ele>
        <time>2009-05-17T06:42:42Z</time>
      </trkpt>
      <trkpt lat="45.6998" lon="3.55731">
        <ele>422.15600585938</ele>
        <time>2009-05-17T06:42:44Z</time>
      </trkpt>
      <trkpt lat="45.69952" lon="3.55719">
        <ele>418.79150390625</ele>
        <time>2009-05-17T06:42:47Z</time>
      </trkpt>
      <trkpt lat="45.6992" lon="3.55717">
        <ele>415.90747070312</ele>
        <time>2009-05-17T06:42:51Z</time>
      </trkpt>
      <trkpt lat="45.69913" lon="3.55717">
        <ele>413.50427246094</ele>
        <time>2009-05-17T06:42:53Z</time>
      </trkpt>
      <trkpt lat="45.69905" lon="3.55711">
        <ele>412.06225585938</ele>
        <time>2009-05-17T06:42:58Z</time>
      </trkpt>
      <trkpt lat="45.69896" lon="3.55704">
        <ele>407.736328125</ele>
        <time>2009-05-17T06:43:02Z</time>
      </trkpt>
      <trkpt lat="45.69888" lon="3.55696">
        <ele>403.89111328125</ele>
        <time>2009-05-17T06:43:06Z</time>
      </trkpt>
      <trkpt lat="45.69881" lon="3.5569">
        <ele>402.44909667969</ele>
        <time>2009-05-17T06:43:08Z</time>
      </trkpt>
      <trkpt lat="45.69864" lon="3.55674">
        <ele>400.0458984375</ele>
        <time>2009-05-17T06:43:13Z</time>
      </trkpt>
      <trkpt lat="45.69854" lon="3.55672">
        <ele>398.12316894531</ele>
        <time>2009-05-17T06:43:15Z</time>
      </trkpt>
      <trkpt lat="45.69843" lon="3.55672">
        <ele>396.68115234375</ele>
        <time>2009-05-17T06:43:17Z</time>
      </trkpt>
      <trkpt lat="45.69833" lon="3.55673">
        <ele>395.23913574219</ele>
        <time>2009-05-17T06:43:19Z</time>
      </trkpt>
      <trkpt lat="45.69816" lon="3.55676">
        <ele>391.87451171875</ele>
        <time>2009-05-17T06:43:23Z</time>
      </trkpt>
      <trkpt lat="45.69804" lon="3.55679">
        <ele>388.51000976562</ele>
        <time>2009-05-17T06:43:27Z</time>
      </trkpt>
      <trkpt lat="45.69796" lon="3.55682">
        <ele>386.58740234375</ele>
        <time>2009-05-17T06:43:29Z</time>
      </trkpt>
      <trkpt lat="45.69779" lon="3.5569">
        <ele>382.26135253906</ele>
        <time>2009-05-17T06:43:34Z</time>
      </trkpt>
      <trkpt lat="45.69764" lon="3.55692">
        <ele>378.41613769531</ele>
        <time>2009-05-17T06:43:39Z</time>
      </trkpt>
      <trkpt lat="45.69754" lon="3.55702">
        <ele>376.01281738281</ele>
        <time>2009-05-17T06:43:43Z</time>
      </trkpt>
      <trkpt lat="45.69745" lon="3.5571">
        <ele>373.12890625</ele>
        <time>2009-05-17T06:43:46Z</time>
      </trkpt>
      <trkpt lat="45.69738" lon="3.55713">
        <ele>372.16748046875</ele>
        <time>2009-05-17T06:43:50Z</time>
      </trkpt>
      <trkpt lat="45.69727" lon="3.55717">
        <ele>368.80297851562</ele>
        <time>2009-05-17T06:43:54Z</time>
      </trkpt>
      <trkpt lat="45.69715" lon="3.55715">
        <ele>367.36096191406</ele>
        <time>2009-05-17T06:43:58Z</time>
      </trkpt>
      <trkpt lat="45.69709" lon="3.55716">
        <ele>366.88024902344</ele>
        <time>2009-05-17T06:44:00Z</time>
      </trkpt>
      <trkpt lat="45.69708" lon="3.5573">
        <ele>367.36096191406</ele>
        <time>2009-05-17T06:44:05Z</time>
      </trkpt>
      <trkpt lat="45.69708" lon="3.55735">
        <ele>366.88024902344</ele>
        <time>2009-05-17T06:44:09Z</time>
      </trkpt>
      <trkpt lat="45.69708" lon="3.55737">
        <ele>367.36096191406</ele>
        <time>2009-05-17T06:44:10Z</time>
      </trkpt>
      <trkpt lat="45.69698" lon="3.5574">
        <ele>368.80297851562</ele>
        <time>2009-05-17T06:44:17Z</time>
      </trkpt>
      <trkpt lat="45.69697" lon="3.55739">
        <ele>369.28369140625</ele>
        <time>2009-05-17T06:44:18Z</time>
      </trkpt>
      <trkpt lat="45.69689" lon="3.55743">
        <ele>369.76428222656</ele>
        <time>2009-05-17T06:44:22Z</time>
      </trkpt>
      <trkpt lat="45.69675" lon="3.55747">
        <ele>370.24487304688</ele>
        <time>2009-05-17T06:44:25Z</time>
      </trkpt>
      <trkpt lat="45.69662" lon="3.55758">
        <ele>371.20629882812</ele>
        <time>2009-05-17T06:44:29Z</time>
      </trkpt>
      <trkpt lat="45.69661" lon="3.55765">
        <ele>371.68688964844</ele>
        <time>2009-05-17T06:44:32Z</time>
      </trkpt>
      <trkpt lat="45.69661" lon="3.55769">
        <ele>372.64819335938</ele>
        <time>2009-05-17T06:44:35Z</time>
      </trkpt>
      <trkpt lat="45.69661" lon="3.55777">
        <ele>372.64819335938</ele>
        <time>2009-05-17T06:44:39Z</time>
      </trkpt>
      <trkpt lat="45.69659" lon="3.55793">
        <ele>374.09008789062</ele>
        <time>2009-05-17T06:44:46Z</time>
      </trkpt>
      <trkpt lat="45.69658" lon="3.55796">
        <ele>374.57080078125</ele>
        <time>2009-05-17T06:44:48Z</time>
      </trkpt>
      <trkpt lat="45.69662" lon="3.55809">
        <ele>375.53210449219</ele>
        <time>2009-05-17T06:44:54Z</time>
      </trkpt>
      <trkpt lat="45.69665" lon="3.5582">
        <ele>376.97424316406</ele>
        <time>2009-05-17T06:44:59Z</time>
      </trkpt>
      <trkpt lat="45.69671" lon="3.55834">
        <ele>377.45483398438</ele>
        <time>2009-05-17T06:45:06Z</time>
      </trkpt>
      <trkpt lat="45.69672" lon="3.55835">
        <ele>377.93542480469</ele>
        <time>2009-05-17T06:45:07Z</time>
      </trkpt>
      <trkpt lat="45.69676" lon="3.55847">
        <ele>378.89685058594</ele>
        <time>2009-05-17T06:45:14Z</time>
      </trkpt>
      <trkpt lat="45.69679" lon="3.55856">
        <ele>380.33874511719</ele>
        <time>2009-05-17T06:45:19Z</time>
      </trkpt>
      <trkpt lat="45.69682" lon="3.55871">
        <ele>381.78063964844</ele>
        <time>2009-05-17T06:45:25Z</time>
      </trkpt>
      <trkpt lat="45.69682" lon="3.55873">
        <ele>381.78063964844</ele>
        <time>2009-05-17T06:45:26Z</time>
      </trkpt>
      <trkpt lat="45.69684" lon="3.55888">
        <ele>383.22265625</ele>
        <time>2009-05-17T06:45:33Z</time>
      </trkpt>
      <trkpt lat="45.69685" lon="3.55897">
        <ele>384.18408203125</ele>
        <time>2009-05-17T06:45:37Z</time>
      </trkpt>
      <trkpt lat="45.6969" lon="3.55914">
        <ele>385.14538574219</ele>
        <time>2009-05-17T06:45:43Z</time>
      </trkpt>
      <trkpt lat="45.69696" lon="3.55927">
        <ele>386.58740234375</ele>
        <time>2009-05-17T06:45:49Z</time>
      </trkpt>
      <trkpt lat="45.69702" lon="3.55939">
        <ele>387.06799316406</ele>
        <time>2009-05-17T06:45:55Z</time>
      </trkpt>
      <trkpt lat="45.69706" lon="3.55945">
        <ele>388.51000976562</ele>
        <time>2009-05-17T06:46:00Z</time>
      </trkpt>
      <trkpt lat="45.69713" lon="3.55953">
        <ele>389.47119140625</ele>
        <time>2009-05-17T06:46:06Z</time>
      </trkpt>
      <trkpt lat="45.69716" lon="3.55958">
        <ele>390.91320800781</ele>
        <time>2009-05-17T06:46:09Z</time>
      </trkpt>
      <trkpt lat="45.69728" lon="3.55974">
        <ele>392.8359375</ele>
        <time>2009-05-17T06:46:18Z</time>
      </trkpt>
      <trkpt lat="45.69738" lon="3.55991">
        <ele>393.79724121094</ele>
        <time>2009-05-17T06:46:26Z</time>
      </trkpt>
      <trkpt lat="45.69747" lon="3.56001">
        <ele>394.75854492188</ele>
        <time>2009-05-17T06:46:32Z</time>
      </trkpt>
      <trkpt lat="45.69759" lon="3.56013">
        <ele>395.71984863281</ele>
        <time>2009-05-17T06:46:40Z</time>
      </trkpt>
      <trkpt lat="45.69762" lon="3.56016">
        <ele>396.68115234375</ele>
        <time>2009-05-17T06:46:42Z</time>
      </trkpt>
      <trkpt lat="45.6977" lon="3.56026">
        <ele>398.60375976562</ele>
        <time>2009-05-17T06:46:49Z</time>
      </trkpt>
      <trkpt lat="45.6978" lon="3.56038">
        <ele>401.00708007812</ele>
        <time>2009-05-17T06:46:57Z</time>
      </trkpt>
      <trkpt lat="45.69791" lon="3.56051">
        <ele>402.9296875</ele>
        <time>2009-05-17T06:47:06Z</time>
      </trkpt>
      <trkpt lat="45.69807" lon="3.56061">
        <ele>405.81372070312</ele>
        <time>2009-05-17T06:47:16Z</time>
      </trkpt>
      <trkpt lat="45.69814" lon="3.56068">
        <ele>407.25561523438</ele>
        <time>2009-05-17T06:47:22Z</time>
      </trkpt>
      <trkpt lat="45.69822" lon="3.56083">
        <ele>408.69763183594</ele>
        <time>2009-05-17T06:47:31Z</time>
      </trkpt>
      <trkpt lat="45.69831" lon="3.5609">
        <ele>410.1396484375</ele>
        <time>2009-05-17T06:47:38Z</time>
      </trkpt>
      <trkpt lat="45.69843" lon="3.56097">
        <ele>411.58166503906</ele>
        <time>2009-05-17T06:47:47Z</time>
      </trkpt>
      <trkpt lat="45.69848" lon="3.56107">
        <ele>412.54284667969</ele>
        <time>2009-05-17T06:47:52Z</time>
      </trkpt>
      <trkpt lat="45.69856" lon="3.56121">
        <ele>413.98486328125</ele>
        <time>2009-05-17T06:48:00Z</time>
      </trkpt>
      <trkpt lat="45.69863" lon="3.56131">
        <ele>415.42687988281</ele>
        <time>2009-05-17T06:48:06Z</time>
      </trkpt>
      <trkpt lat="45.69867" lon="3.56145">
        <ele>416.86889648438</ele>
        <time>2009-05-17T06:48:13Z</time>
      </trkpt>
      <trkpt lat="45.69868" lon="3.56156">
        <ele>417.83020019531</ele>
        <time>2009-05-17T06:48:20Z</time>
      </trkpt>
      <trkpt lat="45.6987" lon="3.56164">
        <ele>418.79150390625</ele>
        <time>2009-05-17T06:48:24Z</time>
      </trkpt>
      <trkpt lat="45.69876" lon="3.56172">
        <ele>420.2333984375</ele>
        <time>2009-05-17T06:48:31Z</time>
      </trkpt>
      <trkpt lat="45.69878" lon="3.56175">
        <ele>420.71411132812</ele>
        <time>2009-05-17T06:48:33Z</time>
      </trkpt>
      <trkpt lat="45.69885" lon="3.56186">
        <ele>422.63671875</ele>
        <time>2009-05-17T06:48:41Z</time>
      </trkpt>
      <trkpt lat="45.69891" lon="3.56195">
        <ele>424.55944824219</ele>
        <time>2009-05-17T06:48:47Z</time>
      </trkpt>
      <trkpt lat="45.69894" lon="3.56202">
        <ele>425.04016113281</ele>
        <time>2009-05-17T06:48:52Z</time>
      </trkpt>
      <trkpt lat="45.69896" lon="3.56214">
        <ele>426.96276855469</ele>
        <time>2009-05-17T06:48:58Z</time>
      </trkpt>
      <trkpt lat="45.69897" lon="3.56221">
        <ele>427.92395019531</ele>
        <time>2009-05-17T06:49:02Z</time>
      </trkpt>
      <trkpt lat="45.69896" lon="3.56233">
        <ele>428.88537597656</ele>
        <time>2009-05-17T06:49:09Z</time>
      </trkpt>
      <trkpt lat="45.69894" lon="3.56246">
        <ele>430.32727050781</ele>
        <time>2009-05-17T06:49:15Z</time>
      </trkpt>
      <trkpt lat="45.69893" lon="3.56256">
        <ele>431.76916503906</ele>
        <time>2009-05-17T06:49:22Z</time>
      </trkpt>
      <trkpt lat="45.69893" lon="3.56265">
        <ele>433.21130371094</ele>
        <time>2009-05-17T06:49:31Z</time>
      </trkpt>
      <trkpt lat="45.69893" lon="3.56272">
        <ele>434.6533203125</ele>
        <time>2009-05-17T06:49:36Z</time>
      </trkpt>
      <trkpt lat="45.69889" lon="3.5628">
        <ele>437.05651855469</ele>
        <time>2009-05-17T06:49:44Z</time>
      </trkpt>
      <trkpt lat="45.69888" lon="3.56291">
        <ele>437.537109375</ele>
        <time>2009-05-17T06:49:54Z</time>
      </trkpt>
      <trkpt lat="45.69891" lon="3.56302">
        <ele>438.49853515625</ele>
        <time>2009-05-17T06:50:00Z</time>
      </trkpt>
      <trkpt lat="45.69894" lon="3.56307">
        <ele>439.45971679688</ele>
        <time>2009-05-17T06:50:05Z</time>
      </trkpt>
      <trkpt lat="45.69902" lon="3.56313">
        <ele>439.9404296875</ele>
        <time>2009-05-17T06:50:11Z</time>
      </trkpt>
      <trkpt lat="45.69903" lon="3.56314">
        <ele>440.42126464844</ele>
        <time>2009-05-17T06:50:12Z</time>
      </trkpt>
      <trkpt lat="45.69907" lon="3.56315">
        <ele>440.42126464844</ele>
        <time>2009-05-17T06:50:16Z</time>
      </trkpt>
      <trkpt lat="45.69913" lon="3.56322">
        <ele>442.34387207031</ele>
        <time>2009-05-17T06:50:22Z</time>
      </trkpt>
      <trkpt lat="45.69919" lon="3.56333">
        <ele>444.7470703125</ele>
        <time>2009-05-17T06:50:29Z</time>
      </trkpt>
      <trkpt lat="45.6992" lon="3.56339">
        <ele>444.7470703125</ele>
        <time>2009-05-17T06:50:32Z</time>
      </trkpt>
      <trkpt lat="45.69921" lon="3.56352">
        <ele>445.70837402344</ele>
        <time>2009-05-17T06:50:38Z</time>
      </trkpt>
      <trkpt lat="45.69918" lon="3.56368">
        <ele>446.66967773438</ele>
        <time>2009-05-17T06:50:44Z</time>
      </trkpt>
      <trkpt lat="45.69913" lon="3.56383">
        <ele>448.59240722656</ele>
        <time>2009-05-17T06:50:52Z</time>
      </trkpt>
      <trkpt lat="45.6991" lon="3.56395">
        <ele>450.03442382812</ele>
        <time>2009-05-17T06:50:58Z</time>
      </trkpt>
      <trkpt lat="45.69907" lon="3.5641">
        <ele>450.51501464844</ele>
        <time>2009-05-17T06:51:04Z</time>
      </trkpt>
      <trkpt lat="45.69904" lon="3.56427">
        <ele>452.43762207031</ele>
        <time>2009-05-17T06:51:12Z</time>
      </trkpt>
      <trkpt lat="45.69904" lon="3.56429">
        <ele>452.91821289062</ele>
        <time>2009-05-17T06:51:13Z</time>
      </trkpt>
      <trkpt lat="45.69901" lon="3.56442">
        <ele>454.8408203125</ele>
        <time>2009-05-17T06:51:20Z</time>
      </trkpt>
      <trkpt lat="45.69901" lon="3.56446">
        <ele>455.32153320312</ele>
        <time>2009-05-17T06:51:22Z</time>
      </trkpt>
      <trkpt lat="45.699" lon="3.56458">
        <ele>455.80224609375</ele>
        <time>2009-05-17T06:51:27Z</time>
      </trkpt>
      <trkpt lat="45.69901" lon="3.56471">
        <ele>456.76354980469</ele>
        <time>2009-05-17T06:51:33Z</time>
      </trkpt>
      <trkpt lat="45.69906" lon="3.56489">
        <ele>455.80224609375</ele>
        <time>2009-05-17T06:51:38Z</time>
      </trkpt>
      <trkpt lat="45.6991" lon="3.56502">
        <ele>456.28295898438</ele>
        <time>2009-05-17T06:51:43Z</time>
      </trkpt>
      <trkpt lat="45.69915" lon="3.56516">
        <ele>457.24426269531</ele>
        <time>2009-05-17T06:51:49Z</time>
      </trkpt>
      <trkpt lat="45.69914" lon="3.56532">
        <ele>458.20556640625</ele>
        <time>2009-05-17T06:51:55Z</time>
      </trkpt>
      <trkpt lat="45.69914" lon="3.56549">
        <ele>460.12817382812</ele>
        <time>2009-05-17T06:52:02Z</time>
      </trkpt>
      <trkpt lat="45.69915" lon="3.56553">
        <ele>460.12817382812</ele>
        <time>2009-05-17T06:52:04Z</time>
      </trkpt>
      <trkpt lat="45.69915" lon="3.56557">
        <ele>461.08947753906</ele>
        <time>2009-05-17T06:52:06Z</time>
      </trkpt>
      <trkpt lat="45.69913" lon="3.56572">
        <ele>462.53137207031</ele>
        <time>2009-05-17T06:52:11Z</time>
      </trkpt>
      <trkpt lat="45.69911" lon="3.56587">
        <ele>463.97338867188</ele>
        <time>2009-05-17T06:52:17Z</time>
      </trkpt>
      <trkpt lat="45.69906" lon="3.56608">
        <ele>464.4541015625</ele>
        <time>2009-05-17T06:52:23Z</time>
      </trkpt>
      <trkpt lat="45.69907" lon="3.56628">
        <ele>465.89611816406</ele>
        <time>2009-05-17T06:52:29Z</time>
      </trkpt>
      <trkpt lat="45.69905" lon="3.56653">
        <ele>466.37670898438</ele>
        <time>2009-05-17T06:52:36Z</time>
      </trkpt>
      <trkpt lat="45.69904" lon="3.56672">
        <ele>466.857421875</ele>
        <time>2009-05-17T06:52:42Z</time>
      </trkpt>
      <trkpt lat="45.69902" lon="3.56693">
        <ele>467.81872558594</ele>
        <time>2009-05-17T06:52:48Z</time>
      </trkpt>
      <trkpt lat="45.699" lon="3.5671">
        <ele>468.29931640625</ele>
        <time>2009-05-17T06:52:52Z</time>
      </trkpt>
      <trkpt lat="45.69898" lon="3.56725">
        <ele>468.78002929688</ele>
        <time>2009-05-17T06:52:57Z</time>
      </trkpt>
      <trkpt lat="45.69895" lon="3.56745">
        <ele>469.74133300781</ele>
        <time>2009-05-17T06:53:04Z</time>
      </trkpt>
      <trkpt lat="45.69894" lon="3.56765">
        <ele>471.18334960938</ele>
        <time>2009-05-17T06:53:11Z</time>
      </trkpt>
      <trkpt lat="45.69891" lon="3.56783">
        <ele>472.14465332031</ele>
        <time>2009-05-17T06:53:17Z</time>
      </trkpt>
      <trkpt lat="45.69886" lon="3.56788">
        <ele>473.10607910156</ele>
        <time>2009-05-17T06:53:21Z</time>
      </trkpt>
      <trkpt lat="45.69878" lon="3.56801">
        <ele>474.54797363281</ele>
        <time>2009-05-17T06:53:28Z</time>
      </trkpt>
      <trkpt lat="45.69872" lon="3.56809">
        <ele>475.98986816406</ele>
        <time>2009-05-17T06:53:33Z</time>
      </trkpt>
      <trkpt lat="45.69868" lon="3.56812">
        <ele>475.98986816406</ele>
        <time>2009-05-17T06:53:36Z</time>
      </trkpt>
      <trkpt lat="45.69862" lon="3.56814">
        <ele>477.43188476562</ele>
        <time>2009-05-17T06:53:42Z</time>
      </trkpt>
      <trkpt lat="45.69857" lon="3.56816">
        <ele>478.39318847656</ele>
        <time>2009-05-17T06:53:47Z</time>
      </trkpt>
      <trkpt lat="45.69852" lon="3.56815">
        <ele>480.31591796875</ele>
        <time>2009-05-17T06:53:53Z</time>
      </trkpt>
      <trkpt lat="45.69845" lon="3.56815">
        <ele>481.7578125</ele>
        <time>2009-05-17T06:54:02Z</time>
      </trkpt>
      <trkpt lat="45.69839" lon="3.56814">
        <ele>483.68041992188</ele>
        <time>2009-05-17T06:54:09Z</time>
      </trkpt>
      <trkpt lat="45.69832" lon="3.5681">
        <ele>485.12243652344</ele>
        <time>2009-05-17T06:54:18Z</time>
      </trkpt>
      <trkpt lat="45.6983" lon="3.56809">
        <ele>485.60302734375</ele>
        <time>2009-05-17T06:54:29Z</time>
      </trkpt>
      <trkpt lat="45.69819" lon="3.56797">
        <ele>487.52563476562</ele>
        <time>2009-05-17T06:54:40Z</time>
      </trkpt>
      <trkpt lat="45.69812" lon="3.56785">
        <ele>489.92907714844</ele>
        <time>2009-05-17T06:54:49Z</time>
      </trkpt>
      <trkpt lat="45.698" lon="3.56769">
        <ele>493.29357910156</ele>
        <time>2009-05-17T06:55:02Z</time>
      </trkpt>
      <trkpt lat="45.69793" lon="3.5676">
        <ele>494.73559570312</ele>
        <time>2009-05-17T06:55:10Z</time>
      </trkpt>
      <trkpt lat="45.6979" lon="3.56756">
        <ele>496.65832519531</ele>
        <time>2009-05-17T06:55:13Z</time>
      </trkpt>
      <trkpt lat="45.69782" lon="3.56747">
        <ele>498.58093261719</ele>
        <time>2009-05-17T06:55:22Z</time>
      </trkpt>
      <trkpt lat="45.69775" lon="3.56738">
        <ele>500.98413085938</ele>
        <time>2009-05-17T06:55:30Z</time>
      </trkpt>
      <trkpt lat="45.69767" lon="3.56728">
        <ele>504.34887695312</ele>
        <time>2009-05-17T06:55:39Z</time>
      </trkpt>
      <trkpt lat="45.69761" lon="3.5672">
        <ele>505.79089355469</ele>
        <time>2009-05-17T06:55:47Z</time>
      </trkpt>
      <trkpt lat="45.69758" lon="3.56707">
        <ele>507.23278808594</ele>
        <time>2009-05-17T06:55:56Z</time>
      </trkpt>
      <trkpt lat="45.69757" lon="3.56694">
        <ele>508.67468261719</ele>
        <time>2009-05-17T06:56:05Z</time>
      </trkpt>
      <trkpt lat="45.69757" lon="3.56681">
        <ele>510.59729003906</ele>
        <time>2009-05-17T06:56:13Z</time>
      </trkpt>
      <trkpt lat="45.69757" lon="3.56677">
        <ele>512.03942871094</ele>
        <time>2009-05-17T06:56:15Z</time>
      </trkpt>
      <trkpt lat="45.69757" lon="3.56663">
        <ele>513.00073242188</ele>
        <time>2009-05-17T06:56:23Z</time>
      </trkpt>
      <trkpt lat="45.69759" lon="3.56651">
        <ele>514.92333984375</ele>
        <time>2009-05-17T06:56:30Z</time>
      </trkpt>
      <trkpt lat="45.69765" lon="3.56639">
        <ele>514.92333984375</ele>
        <time>2009-05-17T06:56:37Z</time>
      </trkpt>
      <trkpt lat="45.69775" lon="3.56623">
        <ele>514.92333984375</ele>
        <time>2009-05-17T06:56:43Z</time>
      </trkpt>
      <trkpt lat="45.69776" lon="3.56607">
        <ele>516.365234375</ele>
        <time>2009-05-17T06:56:48Z</time>
      </trkpt>
      <trkpt lat="45.69772" lon="3.56597">
        <ele>517.32666015625</ele>
        <time>2009-05-17T06:56:53Z</time>
      </trkpt>
      <trkpt lat="45.69759" lon="3.56587">
        <ele>518.7685546875</ele>
        <time>2009-05-17T06:57:02Z</time>
      </trkpt>
      <trkpt lat="45.69744" lon="3.56586">
        <ele>520.21057128906</ele>
        <time>2009-05-17T06:57:10Z</time>
      </trkpt>
      <trkpt lat="45.69733" lon="3.56587">
        <ele>521.17199707031</ele>
        <time>2009-05-17T06:57:16Z</time>
      </trkpt>
      <trkpt lat="45.69717" lon="3.56589">
        <ele>522.13317871094</ele>
        <time>2009-05-17T06:57:23Z</time>
      </trkpt>
      <trkpt lat="45.69696" lon="3.56597">
        <ele>522.13317871094</ele>
        <time>2009-05-17T06:57:30Z</time>
      </trkpt>
      <trkpt lat="45.69675" lon="3.56609">
        <ele>523.5751953125</ele>
        <time>2009-05-17T06:57:37Z</time>
      </trkpt>
      <trkpt lat="45.69671" lon="3.56636">
        <ele>525.01721191406</ele>
        <time>2009-05-17T06:57:44Z</time>
      </trkpt>
      <trkpt lat="45.69669" lon="3.56666">
        <ele>525.49780273438</ele>
        <time>2009-05-17T06:57:51Z</time>
      </trkpt>
      <trkpt lat="45.69665" lon="3.56692">
        <ele>526.93981933594</ele>
        <time>2009-05-17T06:57:58Z</time>
      </trkpt>
      <trkpt lat="45.6966" lon="3.56712">
        <ele>528.3818359375</ele>
        <time>2009-05-17T06:58:04Z</time>
      </trkpt>
      <trkpt lat="45.69652" lon="3.56731">
        <ele>529.82373046875</ele>
        <time>2009-05-17T06:58:11Z</time>
      </trkpt>
      <trkpt lat="45.6964" lon="3.56752">
        <ele>532.22705078125</ele>
        <time>2009-05-17T06:58:19Z</time>
      </trkpt>
      <trkpt lat="45.6963" lon="3.56761">
        <ele>533.18835449219</ele>
        <time>2009-05-17T06:58:25Z</time>
      </trkpt>
      <trkpt lat="45.69621" lon="3.56769">
        <ele>534.14965820312</ele>
        <time>2009-05-17T06:58:32Z</time>
      </trkpt>
      <trkpt lat="45.69619" lon="3.5677">
        <ele>535.11096191406</ele>
        <time>2009-05-17T06:58:37Z</time>
      </trkpt>
      <trkpt lat="45.69618" lon="3.5677">
        <ele>535.11096191406</ele>
        <time>2009-05-17T06:58:44Z</time>
      </trkpt>
      <trkpt lat="45.69613" lon="3.56775">
        <ele>534.14965820312</ele>
        <time>2009-05-17T06:59:03Z</time>
      </trkpt>
      <trkpt lat="45.69602" lon="3.56786">
        <ele>533.6689453125</ele>
        <time>2009-05-17T06:59:08Z</time>
      </trkpt>
      <trkpt lat="45.69595" lon="3.56793">
        <ele>533.18835449219</ele>
        <time>2009-05-17T06:59:11Z</time>
      </trkpt>
      <trkpt lat="45.69589" lon="3.56798">
        <ele>532.70776367188</ele>
        <time>2009-05-17T06:59:13Z</time>
      </trkpt>
      <trkpt lat="45.69586" lon="3.568">
        <ele>533.18835449219</ele>
        <time>2009-05-17T06:59:14Z</time>
      </trkpt>
      <trkpt lat="45.69577" lon="3.56807">
        <ele>532.70776367188</ele>
        <time>2009-05-17T06:59:17Z</time>
      </trkpt>
      <trkpt lat="45.69566" lon="3.56813">
        <ele>533.18835449219</ele>
        <time>2009-05-17T06:59:20Z</time>
      </trkpt>
      <trkpt lat="45.69562" lon="3.56815">
        <ele>532.70776367188</ele>
        <time>2009-05-17T06:59:21Z</time>
      </trkpt>
      <trkpt lat="45.69539" lon="3.56837">
        <ele>534.14965820312</ele>
        <time>2009-05-17T06:59:29Z</time>
      </trkpt>
      <trkpt lat="45.69526" lon="3.56859">
        <ele>535.11096191406</ele>
        <time>2009-05-17T06:59:35Z</time>
      </trkpt>
      <trkpt lat="45.69521" lon="3.56877">
        <ele>535.59155273438</ele>
        <time>2009-05-17T06:59:39Z</time>
      </trkpt>
      <trkpt lat="45.69512" lon="3.56912">
        <ele>534.63037109375</ele>
        <time>2009-05-17T06:59:46Z</time>
      </trkpt>
      <trkpt lat="45.69504" lon="3.56937">
        <ele>534.14965820312</ele>
        <time>2009-05-17T06:59:50Z</time>
      </trkpt>
      <trkpt lat="45.6951" lon="3.56962">
        <ele>533.6689453125</ele>
        <time>2009-05-17T06:59:54Z</time>
      </trkpt>
      <trkpt lat="45.69523" lon="3.56997">
        <ele>531.26574707031</ele>
        <time>2009-05-17T07:00:00Z</time>
      </trkpt>
      <trkpt lat="45.69526" lon="3.57005">
        <ele>531.26574707031</ele>
        <time>2009-05-17T07:00:01Z</time>
      </trkpt>
      <trkpt lat="45.69532" lon="3.57018">
        <ele>529.82373046875</ele>
        <time>2009-05-17T07:00:03Z</time>
      </trkpt>
      <trkpt lat="45.69537" lon="3.57049">
        <ele>525.01721191406</ele>
        <time>2009-05-17T07:00:08Z</time>
      </trkpt>
      <trkpt lat="45.69526" lon="3.57064">
        <ele>525.01721191406</ele>
        <time>2009-05-17T07:00:11Z</time>
      </trkpt>
      <trkpt lat="45.69516" lon="3.57084">
        <ele>524.05578613281</ele>
        <time>2009-05-17T07:00:14Z</time>
      </trkpt>
      <trkpt lat="45.69515" lon="3.57101">
        <ele>524.05578613281</ele>
        <time>2009-05-17T07:00:16Z</time>
      </trkpt>
      <trkpt lat="45.69516" lon="3.57118">
        <ele>523.5751953125</ele>
        <time>2009-05-17T07:00:18Z</time>
      </trkpt>
      <trkpt lat="45.69526" lon="3.57185">
        <ele>521.65258789062</ele>
        <time>2009-05-17T07:00:25Z</time>
      </trkpt>
      <trkpt lat="45.69528" lon="3.57202">
        <ele>522.13317871094</ele>
        <time>2009-05-17T07:00:27Z</time>
      </trkpt>
      <trkpt lat="45.69521" lon="3.57231">
        <ele>523.09460449219</ele>
        <time>2009-05-17T07:00:32Z</time>
      </trkpt>
      <trkpt lat="45.69515" lon="3.57244">
        <ele>524.05578613281</ele>
        <time>2009-05-17T07:00:36Z</time>
      </trkpt>
      <trkpt lat="45.69506" lon="3.57261">
        <ele>525.01721191406</ele>
        <time>2009-05-17T07:00:42Z</time>
      </trkpt>
      <trkpt lat="45.69501" lon="3.57269">
        <ele>525.97839355469</ele>
        <time>2009-05-17T07:00:45Z</time>
      </trkpt>
      <trkpt lat="45.69491" lon="3.57284">
        <ele>527.42041015625</ele>
        <time>2009-05-17T07:00:51Z</time>
      </trkpt>
      <trkpt lat="45.69487" lon="3.57291">
        <ele>528.3818359375</ele>
        <time>2009-05-17T07:00:54Z</time>
      </trkpt>
      <trkpt lat="45.6948" lon="3.573">
        <ele>528.86254882812</ele>
        <time>2009-05-17T07:00:58Z</time>
      </trkpt>
      <trkpt lat="45.69475" lon="3.57307">
        <ele>529.34313964844</ele>
        <time>2009-05-17T07:01:01Z</time>
      </trkpt>
      <trkpt lat="45.69465" lon="3.57314">
        <ele>531.26574707031</ele>
        <time>2009-05-17T07:01:07Z</time>
      </trkpt>
      <trkpt lat="45.69454" lon="3.57319">
        <ele>533.6689453125</ele>
        <time>2009-05-17T07:01:13Z</time>
      </trkpt>
      <trkpt lat="45.69452" lon="3.5732">
        <ele>533.6689453125</ele>
        <time>2009-05-17T07:01:14Z</time>
      </trkpt>
      <trkpt lat="45.6944" lon="3.57319">
        <ele>534.63037109375</ele>
        <time>2009-05-17T07:01:21Z</time>
      </trkpt>
      <trkpt lat="45.69431" lon="3.57315">
        <ele>537.99499511719</ele>
        <time>2009-05-17T07:01:28Z</time>
      </trkpt>
      <trkpt lat="45.69423" lon="3.57305">
        <ele>538.95629882812</ele>
        <time>2009-05-17T07:01:35Z</time>
      </trkpt>
      <trkpt lat="45.69416" lon="3.57297">
        <ele>540.39831542969</ele>
        <time>2009-05-17T07:01:41Z</time>
      </trkpt>
      <trkpt lat="45.69406" lon="3.57287">
        <ele>542.32092285156</ele>
        <time>2009-05-17T07:01:49Z</time>
      </trkpt>
      <trkpt lat="45.69403" lon="3.57285">
        <ele>542.80151367188</ele>
        <time>2009-05-17T07:01:51Z</time>
      </trkpt>
      <trkpt lat="45.69399" lon="3.57281">
        <ele>544.24365234375</ele>
        <time>2009-05-17T07:01:54Z</time>
      </trkpt>
      <trkpt lat="45.69382" lon="3.57271">
        <ele>545.685546875</ele>
        <time>2009-05-17T07:02:05Z</time>
      </trkpt>
      <trkpt lat="45.69369" lon="3.57262">
        <ele>546.64685058594</ele>
        <time>2009-05-17T07:02:12Z</time>
      </trkpt>
      <trkpt lat="45.69349" lon="3.57252">
        <ele>546.64685058594</ele>
        <time>2009-05-17T07:02:19Z</time>
      </trkpt>
      <trkpt lat="45.69313" lon="3.57239">
        <ele>548.5693359375</ele>
        <time>2009-05-17T07:02:30Z</time>
      </trkpt>
      <trkpt lat="45.69282" lon="3.57235">
        <ele>549.53076171875</ele>
        <time>2009-05-17T07:02:39Z</time>
      </trkpt>
      <trkpt lat="45.69257" lon="3.57239">
        <ele>549.53076171875</ele>
        <time>2009-05-17T07:02:46Z</time>
      </trkpt>
      <trkpt lat="45.69242" lon="3.5725">
        <ele>550.01147460938</ele>
        <time>2009-05-17T07:02:51Z</time>
      </trkpt>
      <trkpt lat="45.69229" lon="3.57282">
        <ele>548.0888671875</ele>
        <time>2009-05-17T07:02:56Z</time>
      </trkpt>
      <trkpt lat="45.69215" lon="3.57307">
        <ele>545.685546875</ele>
        <time>2009-05-17T07:02:59Z</time>
      </trkpt>
      <trkpt lat="45.69205" lon="3.57327">
        <ele>543.76281738281</ele>
        <time>2009-05-17T07:03:01Z</time>
      </trkpt>
      <trkpt lat="45.69201" lon="3.57363">
        <ele>542.32092285156</ele>
        <time>2009-05-17T07:03:04Z</time>
      </trkpt>
      <trkpt lat="45.69202" lon="3.57375">
        <ele>542.32092285156</ele>
        <time>2009-05-17T07:03:05Z</time>
      </trkpt>
      <trkpt lat="45.69201" lon="3.57411">
        <ele>539.91760253906</ele>
        <time>2009-05-17T07:03:08Z</time>
      </trkpt>
      <trkpt lat="45.69192" lon="3.57459">
        <ele>536.07238769531</ele>
        <time>2009-05-17T07:03:12Z</time>
      </trkpt>
      <trkpt lat="45.69186" lon="3.57483">
        <ele>535.59155273438</ele>
        <time>2009-05-17T07:03:14Z</time>
      </trkpt>
      <trkpt lat="45.69173" lon="3.57524">
        <ele>531.74633789062</ele>
        <time>2009-05-17T07:03:18Z</time>
      </trkpt>
      <trkpt lat="45.69171" lon="3.57544">
        <ele>530.30444335938</ele>
        <time>2009-05-17T07:03:20Z</time>
      </trkpt>
      <trkpt lat="45.69171" lon="3.5756">
        <ele>528.86254882812</ele>
        <time>2009-05-17T07:03:22Z</time>
      </trkpt>
      <trkpt lat="45.69171" lon="3.57568">
        <ele>527.42041015625</ele>
        <time>2009-05-17T07:03:23Z</time>
      </trkpt>
      <trkpt lat="45.69159" lon="3.57593">
        <ele>523.5751953125</ele>
        <time>2009-05-17T07:03:27Z</time>
      </trkpt>
      <trkpt lat="45.69148" lon="3.57617">
        <ele>519.72985839844</ele>
        <time>2009-05-17T07:03:31Z</time>
      </trkpt>
      <trkpt lat="45.69149" lon="3.57624">
        <ele>519.24926757812</ele>
        <time>2009-05-17T07:03:32Z</time>
      </trkpt>
      <trkpt lat="45.69163" lon="3.57642">
        <ele>518.28784179688</ele>
        <time>2009-05-17T07:03:35Z</time>
      </trkpt>
      <trkpt lat="45.69192" lon="3.57664">
        <ele>517.32666015625</ele>
        <time>2009-05-17T07:03:40Z</time>
      </trkpt>
      <trkpt lat="45.6923" lon="3.57676">
        <ele>517.80725097656</ele>
        <time>2009-05-17T07:03:48Z</time>
      </trkpt>
      <trkpt lat="45.69251" lon="3.57684">
        <ele>519.72985839844</ele>
        <time>2009-05-17T07:03:54Z</time>
      </trkpt>
      <trkpt lat="45.69267" lon="3.57689">
        <ele>521.65258789062</ele>
        <time>2009-05-17T07:04:00Z</time>
      </trkpt>
      <trkpt lat="45.69275" lon="3.57691">
        <ele>522.13317871094</ele>
        <time>2009-05-17T07:04:03Z</time>
      </trkpt>
      <trkpt lat="45.69277" lon="3.57692">
        <ele>522.13317871094</ele>
        <time>2009-05-17T07:04:04Z</time>
      </trkpt>
      <trkpt lat="45.69287" lon="3.57695">
        <ele>523.09460449219</ele>
        <time>2009-05-17T07:04:09Z</time>
      </trkpt>
      <trkpt lat="45.69297" lon="3.57698">
        <ele>524.53649902344</ele>
        <time>2009-05-17T07:04:14Z</time>
      </trkpt>
      <trkpt lat="45.69308" lon="3.57707">
        <ele>526.45910644531</ele>
        <time>2009-05-17T07:04:20Z</time>
      </trkpt>
      <trkpt lat="45.69313" lon="3.5771">
        <ele>527.90100097656</ele>
        <time>2009-05-17T07:04:23Z</time>
      </trkpt>
      <trkpt lat="45.69315" lon="3.57711">
        <ele>527.90100097656</ele>
        <time>2009-05-17T07:04:24Z</time>
      </trkpt>
      <trkpt lat="45.69322" lon="3.57716">
        <ele>529.82373046875</ele>
        <time>2009-05-17T07:04:29Z</time>
      </trkpt>
      <trkpt lat="45.69326" lon="3.57721">
        <ele>531.26574707031</ele>
        <time>2009-05-17T07:04:32Z</time>
      </trkpt>
      <trkpt lat="45.69329" lon="3.5773">
        <ele>531.74633789062</ele>
        <time>2009-05-17T07:04:37Z</time>
      </trkpt>
      <trkpt lat="45.69339" lon="3.57748">
        <ele>532.70776367188</ele>
        <time>2009-05-17T07:04:44Z</time>
      </trkpt>
      <trkpt lat="45.69349" lon="3.57761">
        <ele>534.14965820312</ele>
        <time>2009-05-17T07:04:51Z</time>
      </trkpt>
      <trkpt lat="45.6936" lon="3.57778">
        <ele>537.51428222656</ele>
        <time>2009-05-17T07:05:01Z</time>
      </trkpt>
      <trkpt lat="45.69372" lon="3.57791">
        <ele>537.03369140625</ele>
        <time>2009-05-17T07:05:07Z</time>
      </trkpt>
      <trkpt lat="45.69387" lon="3.57804">
        <ele>537.51428222656</ele>
        <time>2009-05-17T07:05:13Z</time>
      </trkpt>
      <trkpt lat="45.69401" lon="3.57819">
        <ele>536.07238769531</ele>
        <time>2009-05-17T07:05:17Z</time>
      </trkpt>
      <trkpt lat="45.69415" lon="3.57854">
        <ele>534.14965820312</ele>
        <time>2009-05-17T07:05:22Z</time>
      </trkpt>
      <trkpt lat="45.69419" lon="3.57876">
        <ele>532.70776367188</ele>
        <time>2009-05-17T07:05:24Z</time>
      </trkpt>
      <trkpt lat="45.69424" lon="3.57943">
        <ele>529.34313964844</ele>
        <time>2009-05-17T07:05:29Z</time>
      </trkpt>
      <trkpt lat="45.69426" lon="3.57957">
        <ele>529.34313964844</ele>
        <time>2009-05-17T07:05:30Z</time>
      </trkpt>
      <trkpt lat="45.69427" lon="3.57983">
        <ele>528.86254882812</ele>
        <time>2009-05-17T07:05:32Z</time>
      </trkpt>
      <trkpt lat="45.69437" lon="3.58017">
        <ele>528.86254882812</ele>
        <time>2009-05-17T07:05:35Z</time>
      </trkpt>
      <trkpt lat="45.69442" lon="3.58024">
        <ele>528.86254882812</ele>
        <time>2009-05-17T07:05:36Z</time>
      </trkpt>
      <trkpt lat="45.69468" lon="3.58059">
        <ele>529.82373046875</ele>
        <time>2009-05-17T07:05:42Z</time>
      </trkpt>
      <trkpt lat="45.69481" lon="3.58072">
        <ele>529.34313964844</ele>
        <time>2009-05-17T07:05:45Z</time>
      </trkpt>
      <trkpt lat="45.69493" lon="3.58087">
        <ele>527.90100097656</ele>
        <time>2009-05-17T07:05:48Z</time>
      </trkpt>
      <trkpt lat="45.695" lon="3.58097">
        <ele>527.42041015625</ele>
        <time>2009-05-17T07:05:50Z</time>
      </trkpt>
      <trkpt lat="45.69511" lon="3.58108">
        <ele>525.97839355469</ele>
        <time>2009-05-17T07:05:54Z</time>
      </trkpt>
      <trkpt lat="45.69515" lon="3.58109">
        <ele>525.97839355469</ele>
        <time>2009-05-17T07:05:56Z</time>
      </trkpt>
      <trkpt lat="45.69517" lon="3.5811">
        <ele>525.49780273438</ele>
        <time>2009-05-17T07:06:02Z</time>
      </trkpt>
      <trkpt lat="45.69517" lon="3.58112">
        <ele>524.05578613281</ele>
        <time>2009-05-17T07:06:09Z</time>
      </trkpt>
      <trkpt lat="45.69516" lon="3.58105">
        <ele>523.09460449219</ele>
        <time>2009-05-17T07:10:50Z</time>
      </trkpt>
      <trkpt lat="45.69516" lon="3.58105">
        <ele>523.5751953125</ele>
        <time>2009-05-17T07:10:51Z</time>
      </trkpt>
      <trkpt lat="45.69516" lon="3.58105">
        <ele>523.5751953125</ele>
        <time>2009-05-17T07:10:56Z</time>
      </trkpt>
      <trkpt lat="45.69516" lon="3.58105">
        <ele>523.09460449219</ele>
        <time>2009-05-17T07:11:23Z</time>
      </trkpt>
      <trkpt lat="45.69516" lon="3.58106">
        <ele>522.13317871094</ele>
        <time>2009-05-17T07:12:11Z</time>
      </trkpt>
      <trkpt lat="45.69517" lon="3.58105">
        <ele>521.65258789062</ele>
        <time>2009-05-17T07:12:26Z</time>
      </trkpt>
      <trkpt lat="45.69517" lon="3.58104">
        <ele>523.09460449219</ele>
        <time>2009-05-17T07:12:30Z</time>
      </trkpt>
      <trkpt lat="45.69517" lon="3.58104">
        <ele>523.09460449219</ele>
        <time>2009-05-17T07:12:33Z</time>
      </trkpt>
      <trkpt lat="45.69517" lon="3.58105">
        <ele>522.61389160156</ele>
        <time>2009-05-17T07:12:42Z</time>
      </trkpt>
      <trkpt lat="45.69528" lon="3.58108">
        <ele>522.61389160156</ele>
        <time>2009-05-17T07:12:48Z</time>
      </trkpt>
      <trkpt lat="45.69545" lon="3.58122">
        <ele>522.13317871094</ele>
        <time>2009-05-17T07:12:54Z</time>
      </trkpt>
      <trkpt lat="45.69566" lon="3.58149">
        <ele>520.69128417969</ele>
        <time>2009-05-17T07:13:00Z</time>
      </trkpt>
      <trkpt lat="45.6959" lon="3.58184">
        <ele>518.28784179688</ele>
        <time>2009-05-17T07:13:05Z</time>
      </trkpt>
      <trkpt lat="45.69609" lon="3.5823">
        <ele>516.365234375</ele>
        <time>2009-05-17T07:13:10Z</time>
      </trkpt>
      <trkpt lat="45.69633" lon="3.58285">
        <ele>514.92333984375</ele>
        <time>2009-05-17T07:13:16Z</time>
      </trkpt>
      <trkpt lat="45.69641" lon="3.58326">
        <ele>513.4814453125</ele>
        <time>2009-05-17T07:13:20Z</time>
      </trkpt>
      <trkpt lat="45.69643" lon="3.58386">
        <ele>510.11669921875</ele>
        <time>2009-05-17T07:13:25Z</time>
      </trkpt>
      <trkpt lat="45.69645" lon="3.58425">
        <ele>507.23278808594</ele>
        <time>2009-05-17T07:13:29Z</time>
      </trkpt>
      <trkpt lat="45.69658" lon="3.58465">
        <ele>503.8681640625</ele>
        <time>2009-05-17T07:13:34Z</time>
      </trkpt>
      <trkpt lat="45.69661" lon="3.58473">
        <ele>502.90673828125</ele>
        <time>2009-05-17T07:13:35Z</time>
      </trkpt>
      <trkpt lat="45.69659" lon="3.58493">
        <ele>502.42614746094</ele>
        <time>2009-05-17T07:13:39Z</time>
      </trkpt>
      <trkpt lat="45.69652" lon="3.58494">
        <ele>502.42614746094</ele>
        <time>2009-05-17T07:13:41Z</time>
      </trkpt>
      <trkpt lat="45.69629" lon="3.58492">
        <ele>503.38745117188</ele>
        <time>2009-05-17T07:13:47Z</time>
      </trkpt>
      <trkpt lat="45.69611" lon="3.58494">
        <ele>503.38745117188</ele>
        <time>2009-05-17T07:13:51Z</time>
      </trkpt>
      <trkpt lat="45.69581" lon="3.58493">
        <ele>502.90673828125</ele>
        <time>2009-05-17T07:13:57Z</time>
      </trkpt>
      <trkpt lat="45.69567" lon="3.58494">
        <ele>503.8681640625</ele>
        <time>2009-05-17T07:14:00Z</time>
      </trkpt>
      <trkpt lat="45.6954" lon="3.58498">
        <ele>503.8681640625</ele>
        <time>2009-05-17T07:14:06Z</time>
      </trkpt>
      <trkpt lat="45.69522" lon="3.58499">
        <ele>504.82946777344</ele>
        <time>2009-05-17T07:14:10Z</time>
      </trkpt>
      <trkpt lat="45.69509" lon="3.58498">
        <ele>505.31018066406</ele>
        <time>2009-05-17T07:14:13Z</time>
      </trkpt>
      <trkpt lat="45.69476" lon="3.58493">
        <ele>506.271484375</ele>
        <time>2009-05-17T07:14:21Z</time>
      </trkpt>
      <trkpt lat="45.69448" lon="3.58492">
        <ele>506.271484375</ele>
        <time>2009-05-17T07:14:28Z</time>
      </trkpt>
      <trkpt lat="45.69427" lon="3.58494">
        <ele>506.271484375</ele>
        <time>2009-05-17T07:14:33Z</time>
      </trkpt>
      <trkpt lat="45.69423" lon="3.58494">
        <ele>506.271484375</ele>
        <time>2009-05-17T07:14:34Z</time>
      </trkpt>
      <trkpt lat="45.69395" lon="3.58484">
        <ele>507.71350097656</ele>
        <time>2009-05-17T07:14:41Z</time>
      </trkpt>
      <trkpt lat="45.69365" lon="3.58469">
        <ele>507.23278808594</ele>
        <time>2009-05-17T07:14:49Z</time>
      </trkpt>
      <trkpt lat="45.69349" lon="3.58476">
        <ele>506.75207519531</ele>
        <time>2009-05-17T07:14:53Z</time>
      </trkpt>
      <trkpt lat="45.6935" lon="3.58493">
        <ele>506.75207519531</ele>
        <time>2009-05-17T07:14:56Z</time>
      </trkpt>
      <trkpt lat="45.69347" lon="3.58521">
        <ele>506.75207519531</ele>
        <time>2009-05-17T07:15:01Z</time>
      </trkpt>
      <trkpt lat="45.69329" lon="3.58549">
        <ele>506.271484375</ele>
        <time>2009-05-17T07:15:06Z</time>
      </trkpt>
      <trkpt lat="45.69303" lon="3.58564">
        <ele>505.31018066406</ele>
        <time>2009-05-17T07:15:11Z</time>
      </trkpt>
      <trkpt lat="45.69273" lon="3.58577">
        <ele>503.8681640625</ele>
        <time>2009-05-17T07:15:16Z</time>
      </trkpt>
      <trkpt lat="45.69257" lon="3.5859">
        <ele>503.8681640625</ele>
        <time>2009-05-17T07:15:19Z</time>
      </trkpt>
      <trkpt lat="45.69235" lon="3.58608">
        <ele>505.79089355469</ele>
        <time>2009-05-17T07:15:25Z</time>
      </trkpt>
      <trkpt lat="45.69231" lon="3.58611">
        <ele>506.75207519531</ele>
        <time>2009-05-17T07:15:27Z</time>
      </trkpt>
      <trkpt lat="45.69218" lon="3.58622">
        <ele>508.67468261719</ele>
        <time>2009-05-17T07:15:33Z</time>
      </trkpt>
      <trkpt lat="45.69212" lon="3.58627">
        <ele>509.15539550781</ele>
        <time>2009-05-17T07:15:36Z</time>
      </trkpt>
      <trkpt lat="45.69206" lon="3.58634">
        <ele>510.59729003906</ele>
        <time>2009-05-17T07:15:40Z</time>
      </trkpt>
      <trkpt lat="45.69196" lon="3.58646">
        <ele>511.07800292969</ele>
        <time>2009-05-17T07:15:45Z</time>
      </trkpt>
      <trkpt lat="45.69186" lon="3.58659">
        <ele>511.55871582031</ele>
        <time>2009-05-17T07:15:50Z</time>
      </trkpt>
      <trkpt lat="45.69173" lon="3.58667">
        <ele>513.4814453125</ele>
        <time>2009-05-17T07:15:55Z</time>
      </trkpt>
      <trkpt lat="45.69156" lon="3.58673">
        <ele>513.4814453125</ele>
        <time>2009-05-17T07:16:01Z</time>
      </trkpt>
      <trkpt lat="45.69138" lon="3.58676">
        <ele>513.96203613281</ele>
        <time>2009-05-17T07:16:07Z</time>
      </trkpt>
      <trkpt lat="45.69122" lon="3.58678">
        <ele>515.40405273438</ele>
        <time>2009-05-17T07:16:12Z</time>
      </trkpt>
      <trkpt lat="45.69106" lon="3.58679">
        <ele>516.365234375</ele>
        <time>2009-05-17T07:16:17Z</time>
      </trkpt>
      <trkpt lat="45.6909" lon="3.58677">
        <ele>518.28784179688</ele>
        <time>2009-05-17T07:16:23Z</time>
      </trkpt>
      <trkpt lat="45.69075" lon="3.5867">
        <ele>517.32666015625</ele>
        <time>2009-05-17T07:16:28Z</time>
      </trkpt>
      <trkpt lat="45.69057" lon="3.58665">
        <ele>517.32666015625</ele>
        <time>2009-05-17T07:16:33Z</time>
      </trkpt>
      <trkpt lat="45.69038" lon="3.58659">
        <ele>517.32666015625</ele>
        <time>2009-05-17T07:16:37Z</time>
      </trkpt>
      <trkpt lat="45.69019" lon="3.58658">
        <ele>517.32666015625</ele>
        <time>2009-05-17T07:16:42Z</time>
      </trkpt>
      <trkpt lat="45.69" lon="3.58662">
        <ele>517.32666015625</ele>
        <time>2009-05-17T07:16:47Z</time>
      </trkpt>
      <trkpt lat="45.6899" lon="3.58663">
        <ele>516.84594726562</ele>
        <time>2009-05-17T07:16:49Z</time>
      </trkpt>
      <trkpt lat="45.6898" lon="3.58663">
        <ele>517.32666015625</ele>
        <time>2009-05-17T07:16:51Z</time>
      </trkpt>
      <trkpt lat="45.68951" lon="3.58659">
        <ele>518.28784179688</ele>
        <time>2009-05-17T07:16:57Z</time>
      </trkpt>
      <trkpt lat="45.68935" lon="3.58659">
        <ele>518.7685546875</ele>
        <time>2009-05-17T07:17:01Z</time>
      </trkpt>
      <trkpt lat="45.68915" lon="3.58649">
        <ele>519.72985839844</ele>
        <time>2009-05-17T07:17:07Z</time>
      </trkpt>
      <trkpt lat="45.68898" lon="3.58651">
        <ele>520.69128417969</ele>
        <time>2009-05-17T07:17:12Z</time>
      </trkpt>
      <trkpt lat="45.68895" lon="3.58653">
        <ele>520.69128417969</ele>
        <time>2009-05-17T07:17:13Z</time>
      </trkpt>
      <trkpt lat="45.68897" lon="3.58675">
        <ele>520.69128417969</ele>
        <time>2009-05-17T07:17:17Z</time>
      </trkpt>
      <trkpt lat="45.68902" lon="3.58692">
        <ele>521.17199707031</ele>
        <time>2009-05-17T07:17:21Z</time>
      </trkpt>
      <trkpt lat="45.68903" lon="3.58697">
        <ele>521.17199707031</ele>
        <time>2009-05-17T07:17:22Z</time>
      </trkpt>
      <trkpt lat="45.68898" lon="3.58719">
        <ele>520.21057128906</ele>
        <time>2009-05-17T07:17:26Z</time>
      </trkpt>
      <trkpt lat="45.68897" lon="3.58732">
        <ele>519.72985839844</ele>
        <time>2009-05-17T07:17:28Z</time>
      </trkpt>
      <trkpt lat="45.68906" lon="3.58757">
        <ele>521.65258789062</ele>
        <time>2009-05-17T07:17:33Z</time>
      </trkpt>
      <trkpt lat="45.68916" lon="3.58777">
        <ele>523.5751953125</ele>
        <time>2009-05-17T07:17:39Z</time>
      </trkpt>
      <trkpt lat="45.68919" lon="3.58783">
        <ele>524.53649902344</ele>
        <time>2009-05-17T07:17:41Z</time>
      </trkpt>
      <trkpt lat="45.68933" lon="3.58805">
        <ele>525.49780273438</ele>
        <time>2009-05-17T07:17:48Z</time>
      </trkpt>
      <trkpt lat="45.68938" lon="3.58815">
        <ele>525.97839355469</ele>
        <time>2009-05-17T07:17:52Z</time>
      </trkpt>
      <trkpt lat="45.68948" lon="3.58834">
        <ele>526.45910644531</ele>
        <time>2009-05-17T07:17:57Z</time>
      </trkpt>
      <trkpt lat="45.68957" lon="3.58855">
        <ele>527.90100097656</ele>
        <time>2009-05-17T07:18:02Z</time>
      </trkpt>
      <trkpt lat="45.68968" lon="3.58871">
        <ele>528.3818359375</ele>
        <time>2009-05-17T07:18:07Z</time>
      </trkpt>
      <trkpt lat="45.68975" lon="3.58891">
        <ele>528.86254882812</ele>
        <time>2009-05-17T07:18:12Z</time>
      </trkpt>
      <trkpt lat="45.68983" lon="3.58916">
        <ele>529.82373046875</ele>
        <time>2009-05-17T07:18:17Z</time>
      </trkpt>
      <trkpt lat="45.69" lon="3.58959">
        <ele>530.78515625</ele>
        <time>2009-05-17T07:18:26Z</time>
      </trkpt>
      <trkpt lat="45.69012" lon="3.58998">
        <ele>531.74633789062</ele>
        <time>2009-05-17T07:18:34Z</time>
      </trkpt>
      <trkpt lat="45.69011" lon="3.59036">
        <ele>532.22705078125</ele>
        <time>2009-05-17T07:18:41Z</time>
      </trkpt>
      <trkpt lat="45.68998" lon="3.59071">
        <ele>532.70776367188</ele>
        <time>2009-05-17T07:18:48Z</time>
      </trkpt>
      <trkpt lat="45.68987" lon="3.59099">
        <ele>532.70776367188</ele>
        <time>2009-05-17T07:18:53Z</time>
      </trkpt>
      <trkpt lat="45.68971" lon="3.59144">
        <ele>532.22705078125</ele>
        <time>2009-05-17T07:19:00Z</time>
      </trkpt>
      <trkpt lat="45.6896" lon="3.59166">
        <ele>532.22705078125</ele>
        <time>2009-05-17T07:19:04Z</time>
      </trkpt>
      <trkpt lat="45.68961" lon="3.59192">
        <ele>530.30444335938</ele>
        <time>2009-05-17T07:19:08Z</time>
      </trkpt>
      <trkpt lat="45.68964" lon="3.59213">
        <ele>526.93981933594</ele>
        <time>2009-05-17T07:19:11Z</time>
      </trkpt>
      <trkpt lat="45.68959" lon="3.59222">
        <ele>525.97839355469</ele>
        <time>2009-05-17T07:19:13Z</time>
      </trkpt>
      <trkpt lat="45.68954" lon="3.59224">
        <ele>525.97839355469</ele>
        <time>2009-05-17T07:19:14Z</time>
      </trkpt>
      <trkpt lat="45.68929" lon="3.59232">
        <ele>522.61389160156</ele>
        <time>2009-05-17T07:19:19Z</time>
      </trkpt>
      <trkpt lat="45.68914" lon="3.59237">
        <ele>519.24926757812</ele>
        <time>2009-05-17T07:19:22Z</time>
      </trkpt>
      <trkpt lat="45.689" lon="3.59242">
        <ele>515.40405273438</ele>
        <time>2009-05-17T07:19:25Z</time>
      </trkpt>
      <trkpt lat="45.68885" lon="3.5925">
        <ele>512.03942871094</ele>
        <time>2009-05-17T07:19:28Z</time>
      </trkpt>
      <trkpt lat="45.68869" lon="3.59261">
        <ele>508.19409179688</ele>
        <time>2009-05-17T07:19:31Z</time>
      </trkpt>
      <trkpt lat="45.68854" lon="3.59271">
        <ele>506.271484375</ele>
        <time>2009-05-17T07:19:34Z</time>
      </trkpt>
      <trkpt lat="45.68845" lon="3.59279">
        <ele>504.82946777344</ele>
        <time>2009-05-17T07:19:36Z</time>
      </trkpt>
      <trkpt lat="45.68826" lon="3.59286">
        <ele>502.90673828125</ele>
        <time>2009-05-17T07:19:40Z</time>
      </trkpt>
      <trkpt lat="45.68811" lon="3.59282">
        <ele>502.42614746094</ele>
        <time>2009-05-17T07:19:43Z</time>
      </trkpt>
      <trkpt lat="45.68792" lon="3.59269">
        <ele>499.54223632812</ele>
        <time>2009-05-17T07:19:47Z</time>
      </trkpt>
      <trkpt lat="45.68772" lon="3.5925">
        <ele>495.69689941406</ele>
        <time>2009-05-17T07:19:51Z</time>
      </trkpt>
      <trkpt lat="45.68755" lon="3.59231">
        <ele>491.85168457031</ele>
        <time>2009-05-17T07:19:55Z</time>
      </trkpt>
      <trkpt lat="45.68738" lon="3.59219">
        <ele>487.52563476562</ele>
        <time>2009-05-17T07:19:59Z</time>
      </trkpt>
      <trkpt lat="45.68728" lon="3.59214">
        <ele>486.564453125</ele>
        <time>2009-05-17T07:20:01Z</time>
      </trkpt>
      <trkpt lat="45.68724" lon="3.59211">
        <ele>485.60302734375</ele>
        <time>2009-05-17T07:20:02Z</time>
      </trkpt>
      <trkpt lat="45.68714" lon="3.59208">
        <ele>483.68041992188</ele>
        <time>2009-05-17T07:20:04Z</time>
      </trkpt>
      <trkpt lat="45.68702" lon="3.59204">
        <ele>482.71923828125</ele>
        <time>2009-05-17T07:20:06Z</time>
      </trkpt>
      <trkpt lat="45.68688" lon="3.592">
        <ele>481.27722167969</ele>
        <time>2009-05-17T07:20:08Z</time>
      </trkpt>
      <trkpt lat="45.68682" lon="3.59199">
        <ele>479.3544921875</ele>
        <time>2009-05-17T07:20:09Z</time>
      </trkpt>
      <trkpt lat="45.6866" lon="3.59204">
        <ele>476.95129394531</ele>
        <time>2009-05-17T07:20:14Z</time>
      </trkpt>
      <trkpt lat="45.68659" lon="3.59206">
        <ele>476.95129394531</ele>
        <time>2009-05-17T07:20:15Z</time>
      </trkpt>
      <trkpt lat="45.68676" lon="3.59211">
        <ele>475.02868652344</ele>
        <time>2009-05-17T07:20:20Z</time>
      </trkpt>
      <trkpt lat="45.6869" lon="3.59212">
        <ele>474.54797363281</ele>
        <time>2009-05-17T07:20:23Z</time>
      </trkpt>
      <trkpt lat="45.68711" lon="3.59223">
        <ele>473.10607910156</ele>
        <time>2009-05-17T07:20:27Z</time>
      </trkpt>
      <trkpt lat="45.68719" lon="3.59231">
        <ele>472.14465332031</ele>
        <time>2009-05-17T07:20:29Z</time>
      </trkpt>
      <trkpt lat="45.68727" lon="3.59253">
        <ele>469.74133300781</ele>
        <time>2009-05-17T07:20:33Z</time>
      </trkpt>
      <trkpt lat="45.6873" lon="3.59269">
        <ele>468.78002929688</ele>
        <time>2009-05-17T07:20:35Z</time>
      </trkpt>
      <trkpt lat="45.68733" lon="3.5929">
        <ele>468.29931640625</ele>
        <time>2009-05-17T07:20:38Z</time>
      </trkpt>
      <trkpt lat="45.68736" lon="3.59305">
        <ele>467.81872558594</ele>
        <time>2009-05-17T07:20:40Z</time>
      </trkpt>
      <trkpt lat="45.6875" lon="3.59333">
        <ele>467.33813476562</ele>
        <time>2009-05-17T07:20:45Z</time>
      </trkpt>
      <trkpt lat="45.68768" lon="3.59359">
        <ele>465.89611816406</ele>
        <time>2009-05-17T07:20:50Z</time>
      </trkpt>
      <trkpt lat="45.68795" lon="3.59377">
        <ele>462.53137207031</ele>
        <time>2009-05-17T07:20:55Z</time>
      </trkpt>
      <trkpt lat="45.68822" lon="3.59382">
        <ele>461.57019042969</ele>
        <time>2009-05-17T07:21:00Z</time>
      </trkpt>
      <trkpt lat="45.68837" lon="3.59389">
        <ele>460.60876464844</ele>
        <time>2009-05-17T07:21:03Z</time>
      </trkpt>
      <trkpt lat="45.68851" lon="3.59399">
        <ele>459.16687011719</ele>
        <time>2009-05-17T07:21:06Z</time>
      </trkpt>
      <trkpt lat="45.68861" lon="3.59404">
        <ele>458.68615722656</ele>
        <time>2009-05-17T07:21:08Z</time>
      </trkpt>
      <trkpt lat="45.68874" lon="3.5942">
        <ele>458.20556640625</ele>
        <time>2009-05-17T07:21:11Z</time>
      </trkpt>
      <trkpt lat="45.68884" lon="3.59428">
        <ele>457.24426269531</ele>
        <time>2009-05-17T07:21:13Z</time>
      </trkpt>
      <trkpt lat="45.689" lon="3.59457">
        <ele>456.28295898438</ele>
        <time>2009-05-17T07:21:17Z</time>
      </trkpt>
      <trkpt lat="45.68921" lon="3.59484">
        <ele>453.39892578125</ele>
        <time>2009-05-17T07:21:22Z</time>
      </trkpt>
      <trkpt lat="45.68923" lon="3.59486">
        <ele>453.39892578125</ele>
        <time>2009-05-17T07:21:23Z</time>
      </trkpt>
      <trkpt lat="45.68923" lon="3.59493">
        <ele>452.43762207031</ele>
        <time>2009-05-17T07:21:27Z</time>
      </trkpt>
      <trkpt lat="45.68916" lon="3.59494">
        <ele>451.47631835938</ele>
        <time>2009-05-17T07:21:31Z</time>
      </trkpt>
      <trkpt lat="45.68913" lon="3.59495">
        <ele>450.51501464844</ele>
        <time>2009-05-17T07:21:33Z</time>
      </trkpt>
      <trkpt lat="45.68909" lon="3.59492">
        <ele>448.59240722656</ele>
        <time>2009-05-17T07:21:35Z</time>
      </trkpt>
      <trkpt lat="45.68898" lon="3.59487">
        <ele>445.70837402344</ele>
        <time>2009-05-17T07:21:41Z</time>
      </trkpt>
      <trkpt lat="45.68895" lon="3.59486">
        <ele>445.70837402344</ele>
        <time>2009-05-17T07:21:42Z</time>
      </trkpt>
      <trkpt lat="45.68889" lon="3.59481">
        <ele>443.78576660156</ele>
        <time>2009-05-17T07:21:45Z</time>
      </trkpt>
      <trkpt lat="45.68882" lon="3.59476">
        <ele>443.30505371094</ele>
        <time>2009-05-17T07:21:51Z</time>
      </trkpt>
      <trkpt lat="45.68874" lon="3.59474">
        <ele>440.90185546875</ele>
        <time>2009-05-17T07:21:56Z</time>
      </trkpt>
      <trkpt lat="45.68871" lon="3.59472">
        <ele>440.42126464844</ele>
        <time>2009-05-17T07:22:02Z</time>
      </trkpt>
      <trkpt lat="45.68866" lon="3.59474">
        <ele>439.45971679688</ele>
        <time>2009-05-17T07:22:07Z</time>
      </trkpt>
      <trkpt lat="45.68863" lon="3.59471">
        <ele>438.01782226562</ele>
        <time>2009-05-17T07:22:11Z</time>
      </trkpt>
      <trkpt lat="45.6886" lon="3.5947">
        <ele>437.05651855469</ele>
        <time>2009-05-17T07:22:15Z</time>
      </trkpt>
      <trkpt lat="45.68857" lon="3.5947">
        <ele>436.57592773438</ele>
        <time>2009-05-17T07:22:23Z</time>
      </trkpt>
      <trkpt lat="45.68853" lon="3.59473">
        <ele>436.57592773438</ele>
        <time>2009-05-17T07:22:28Z</time>
      </trkpt>
      <trkpt lat="45.68852" lon="3.59468">
        <ele>437.05651855469</ele>
        <time>2009-05-17T07:22:46Z</time>
      </trkpt>
      <trkpt lat="45.68852" lon="3.59464">
        <ele>436.57592773438</ele>
        <time>2009-05-17T07:22:53Z</time>
      </trkpt>
      <trkpt lat="45.68852" lon="3.59462">
        <ele>436.09521484375</ele>
        <time>2009-05-17T07:22:56Z</time>
      </trkpt>
      <trkpt lat="45.6885" lon="3.59459">
        <ele>436.57592773438</ele>
        <time>2009-05-17T07:23:03Z</time>
      </trkpt>
      <trkpt lat="45.68847" lon="3.59463">
        <ele>437.05651855469</ele>
        <time>2009-05-17T07:23:08Z</time>
      </trkpt>
      <trkpt lat="45.6885" lon="3.59464">
        <ele>438.01782226562</ele>
        <time>2009-05-17T07:23:16Z</time>
      </trkpt>
      <trkpt lat="45.68852" lon="3.59468">
        <ele>438.97912597656</ele>
        <time>2009-05-17T07:23:21Z</time>
      </trkpt>
      <trkpt lat="45.68855" lon="3.59472">
        <ele>439.45971679688</ele>
        <time>2009-05-17T07:23:26Z</time>
      </trkpt>
      <trkpt lat="45.68856" lon="3.59479">
        <ele>439.45971679688</ele>
        <time>2009-05-17T07:23:32Z</time>
      </trkpt>
      <trkpt lat="45.6886" lon="3.59487">
        <ele>439.9404296875</ele>
        <time>2009-05-17T07:23:37Z</time>
      </trkpt>
      <trkpt lat="45.68861" lon="3.59502">
        <ele>439.9404296875</ele>
        <time>2009-05-17T07:23:42Z</time>
      </trkpt>
      <trkpt lat="45.68861" lon="3.59505">
        <ele>440.42126464844</ele>
        <time>2009-05-17T07:23:43Z</time>
      </trkpt>
      <trkpt lat="45.68869" lon="3.59524">
        <ele>442.34387207031</ele>
        <time>2009-05-17T07:23:51Z</time>
      </trkpt>
      <trkpt lat="45.68875" lon="3.59535">
        <ele>443.78576660156</ele>
        <time>2009-05-17T07:23:57Z</time>
      </trkpt>
      <trkpt lat="45.68881" lon="3.59545">
        <ele>445.22766113281</ele>
        <time>2009-05-17T07:24:03Z</time>
      </trkpt>
      <trkpt lat="45.68884" lon="3.59551">
        <ele>446.66967773438</ele>
        <time>2009-05-17T07:24:09Z</time>
      </trkpt>
      <trkpt lat="45.68887" lon="3.5956">
        <ele>449.07299804688</ele>
        <time>2009-05-17T07:24:17Z</time>
      </trkpt>
      <trkpt lat="45.68887" lon="3.59576">
        <ele>448.59240722656</ele>
        <time>2009-05-17T07:24:23Z</time>
      </trkpt>
      <trkpt lat="45.68885" lon="3.5958">
        <ele>448.11181640625</ele>
        <time>2009-05-17T07:24:24Z</time>
      </trkpt>
      <trkpt lat="45.68881" lon="3.59612">
        <ele>448.11181640625</ele>
        <time>2009-05-17T07:24:30Z</time>
      </trkpt>
      <trkpt lat="45.6888" lon="3.59625">
        <ele>449.07299804688</ele>
        <time>2009-05-17T07:24:35Z</time>
      </trkpt>
      <trkpt lat="45.68882" lon="3.59641">
        <ele>450.51501464844</ele>
        <time>2009-05-17T07:24:41Z</time>
      </trkpt>
      <trkpt lat="45.68888" lon="3.59656">
        <ele>451.95703125</ele>
        <time>2009-05-17T07:24:46Z</time>
      </trkpt>
      <trkpt lat="45.6889" lon="3.59658">
        <ele>452.43762207031</ele>
        <time>2009-05-17T07:24:47Z</time>
      </trkpt>
      <trkpt lat="45.68891" lon="3.59671">
        <ele>452.91821289062</ele>
        <time>2009-05-17T07:24:51Z</time>
      </trkpt>
      <trkpt lat="45.68903" lon="3.59676">
        <ele>454.36022949219</ele>
        <time>2009-05-17T07:24:57Z</time>
      </trkpt>
      <trkpt lat="45.68915" lon="3.5968">
        <ele>455.80224609375</ele>
        <time>2009-05-17T07:25:04Z</time>
      </trkpt>
      <trkpt lat="45.68924" lon="3.59685">
        <ele>456.28295898438</ele>
        <time>2009-05-17T07:25:10Z</time>
      </trkpt>
      <trkpt lat="45.68927" lon="3.59687">
        <ele>456.76354980469</ele>
        <time>2009-05-17T07:25:12Z</time>
      </trkpt>
      <trkpt lat="45.68932" lon="3.5969">
        <ele>457.72497558594</ele>
        <time>2009-05-17T07:25:15Z</time>
      </trkpt>
      <trkpt lat="45.68937" lon="3.59706">
        <ele>458.68615722656</ele>
        <time>2009-05-17T07:25:22Z</time>
      </trkpt>
      <trkpt lat="45.68939" lon="3.5972">
        <ele>457.72497558594</ele>
        <time>2009-05-17T07:25:29Z</time>
      </trkpt>
      <trkpt lat="45.68941" lon="3.59726">
        <ele>458.68615722656</ele>
        <time>2009-05-17T07:25:35Z</time>
      </trkpt>
      <trkpt lat="45.68941" lon="3.59735">
        <ele>459.64758300781</ele>
        <time>2009-05-17T07:25:41Z</time>
      </trkpt>
      <trkpt lat="45.68948" lon="3.59754">
        <ele>459.64758300781</ele>
        <time>2009-05-17T07:25:47Z</time>
      </trkpt>
      <trkpt lat="45.68958" lon="3.59765">
        <ele>461.08947753906</ele>
        <time>2009-05-17T07:25:54Z</time>
      </trkpt>
      <trkpt lat="45.68964" lon="3.59767">
        <ele>462.05078125</ele>
        <time>2009-05-17T07:25:59Z</time>
      </trkpt>
      <trkpt lat="45.68971" lon="3.59767">
        <ele>464.4541015625</ele>
        <time>2009-05-17T07:26:06Z</time>
      </trkpt>
      <trkpt lat="45.68977" lon="3.59771">
        <ele>465.41552734375</ele>
        <time>2009-05-17T07:26:11Z</time>
      </trkpt>
      <trkpt lat="45.68981" lon="3.59771">
        <ele>466.857421875</ele>
        <time>2009-05-17T07:26:17Z</time>
      </trkpt>
      <trkpt lat="45.68987" lon="3.59773">
        <ele>467.33813476562</ele>
        <time>2009-05-17T07:26:22Z</time>
      </trkpt>
      <trkpt lat="45.68992" lon="3.59774">
        <ele>467.81872558594</ele>
        <time>2009-05-17T07:26:26Z</time>
      </trkpt>
      <trkpt lat="45.68997" lon="3.59777">
        <ele>469.2607421875</ele>
        <time>2009-05-17T07:26:31Z</time>
      </trkpt>
      <trkpt lat="45.69003" lon="3.59781">
        <ele>470.22192382812</ele>
        <time>2009-05-17T07:26:35Z</time>
      </trkpt>
      <trkpt lat="45.69005" lon="3.59781">
        <ele>471.18334960938</ele>
        <time>2009-05-17T07:26:37Z</time>
      </trkpt>
      <trkpt lat="45.69012" lon="3.59786">
        <ele>473.10607910156</ele>
        <time>2009-05-17T07:26:43Z</time>
      </trkpt>
      <trkpt lat="45.69016" lon="3.59789">
        <ele>474.06726074219</ele>
        <time>2009-05-17T07:26:51Z</time>
      </trkpt>
      <trkpt lat="45.69022" lon="3.59793">
        <ele>475.98986816406</ele>
        <time>2009-05-17T07:26:57Z</time>
      </trkpt>
      <trkpt lat="45.69028" lon="3.59799">
        <ele>477.91247558594</ele>
        <time>2009-05-17T07:27:04Z</time>
      </trkpt>
      <trkpt lat="45.69032" lon="3.59802">
        <ele>478.87390136719</ele>
        <time>2009-05-17T07:27:12Z</time>
      </trkpt>
      <trkpt lat="45.69036" lon="3.59805">
        <ele>480.31591796875</ele>
        <time>2009-05-17T07:27:19Z</time>
      </trkpt>
      <trkpt lat="45.69043" lon="3.59809">
        <ele>481.7578125</ele>
        <time>2009-05-17T07:27:26Z</time>
      </trkpt>
      <trkpt lat="45.69046" lon="3.59811">
        <ele>483.19982910156</ele>
        <time>2009-05-17T07:27:31Z</time>
      </trkpt>
      <trkpt lat="45.69053" lon="3.59814">
        <ele>484.1611328125</ele>
        <time>2009-05-17T07:27:37Z</time>
      </trkpt>
      <trkpt lat="45.6906" lon="3.59817">
        <ele>486.08374023438</ele>
        <time>2009-05-17T07:27:45Z</time>
      </trkpt>
      <trkpt lat="45.69067" lon="3.5982">
        <ele>488.00646972656</ele>
        <time>2009-05-17T07:27:52Z</time>
      </trkpt>
      <trkpt lat="45.69073" lon="3.59826">
        <ele>489.44836425781</ele>
        <time>2009-05-17T07:27:58Z</time>
      </trkpt>
      <trkpt lat="45.69075" lon="3.59839">
        <ele>490.89038085938</ele>
        <time>2009-05-17T07:28:06Z</time>
      </trkpt>
      <trkpt lat="45.69071" lon="3.59845">
        <ele>492.33239746094</ele>
        <time>2009-05-17T07:28:12Z</time>
      </trkpt>
      <trkpt lat="45.69064" lon="3.59851">
        <ele>493.77429199219</ele>
        <time>2009-05-17T07:28:19Z</time>
      </trkpt>
      <trkpt lat="45.69057" lon="3.59855">
        <ele>495.21618652344</ele>
        <time>2009-05-17T07:28:26Z</time>
      </trkpt>
      <trkpt lat="45.6905" lon="3.59858">
        <ele>495.69689941406</ele>
        <time>2009-05-17T07:28:32Z</time>
      </trkpt>
      <trkpt lat="45.69041" lon="3.59864">
        <ele>496.65832519531</ele>
        <time>2009-05-17T07:28:40Z</time>
      </trkpt>
      <trkpt lat="45.69033" lon="3.59875">
        <ele>498.10034179688</ele>
        <time>2009-05-17T07:28:48Z</time>
      </trkpt>
      <trkpt lat="45.69029" lon="3.59887">
        <ele>498.58093261719</ele>
        <time>2009-05-17T07:28:54Z</time>
      </trkpt>
      <trkpt lat="45.69023" lon="3.59905">
        <ele>499.54223632812</ele>
        <time>2009-05-17T07:29:00Z</time>
      </trkpt>
      <trkpt lat="45.69013" lon="3.59935">
        <ele>498.58093261719</ele>
        <time>2009-05-17T07:29:07Z</time>
      </trkpt>
      <trkpt lat="45.69008" lon="3.59954">
        <ele>496.65832519531</ele>
        <time>2009-05-17T07:29:10Z</time>
      </trkpt>
      <trkpt lat="45.69002" lon="3.5997">
        <ele>495.69689941406</ele>
        <time>2009-05-17T07:29:12Z</time>
      </trkpt>
      <trkpt lat="45.68991" lon="3.59987">
        <ele>494.73559570312</ele>
        <time>2009-05-17T07:29:14Z</time>
      </trkpt>
      <trkpt lat="45.68956" lon="3.60028">
        <ele>490.40979003906</ele>
        <time>2009-05-17T07:29:20Z</time>
      </trkpt>
      <trkpt lat="45.68949" lon="3.60036">
        <ele>490.89038085938</ele>
        <time>2009-05-17T07:29:21Z</time>
      </trkpt>
      <trkpt lat="45.68942" lon="3.60044">
        <ele>489.92907714844</ele>
        <time>2009-05-17T07:29:22Z</time>
      </trkpt>
      <trkpt lat="45.68927" lon="3.60063">
        <ele>488.9677734375</ele>
        <time>2009-05-17T07:29:24Z</time>
      </trkpt>
      <trkpt lat="45.68906" lon="3.60088">
        <ele>487.04504394531</ele>
        <time>2009-05-17T07:29:27Z</time>
      </trkpt>
      <trkpt lat="45.689" lon="3.60095">
        <ele>487.52563476562</ele>
        <time>2009-05-17T07:29:28Z</time>
      </trkpt>
      <trkpt lat="45.68882" lon="3.60118">
        <ele>485.60302734375</ele>
        <time>2009-05-17T07:29:31Z</time>
      </trkpt>
      <trkpt lat="45.68867" lon="3.6014">
        <ele>484.1611328125</ele>
        <time>2009-05-17T07:29:34Z</time>
      </trkpt>
      <trkpt lat="45.68845" lon="3.60165">
        <ele>484.1611328125</ele>
        <time>2009-05-17T07:29:38Z</time>
      </trkpt>
      <trkpt lat="45.68828" lon="3.60184">
        <ele>485.12243652344</ele>
        <time>2009-05-17T07:29:43Z</time>
      </trkpt>
      <trkpt lat="45.68816" lon="3.60191">
        <ele>484.64184570312</ele>
        <time>2009-05-17T07:29:46Z</time>
      </trkpt>
      <trkpt lat="45.68795" lon="3.60207">
        <ele>484.1611328125</ele>
        <time>2009-05-17T07:29:51Z</time>
      </trkpt>
      <trkpt lat="45.68785" lon="3.60215">
        <ele>482.23852539062</ele>
        <time>2009-05-17T07:29:53Z</time>
      </trkpt>
      <trkpt lat="45.68761" lon="3.6023">
        <ele>481.27722167969</ele>
        <time>2009-05-17T07:29:57Z</time>
      </trkpt>
      <trkpt lat="45.68745" lon="3.60241">
        <ele>476.47058105469</ele>
        <time>2009-05-17T07:30:00Z</time>
      </trkpt>
      <trkpt lat="45.68731" lon="3.60249">
        <ele>475.02868652344</ele>
        <time>2009-05-17T07:30:03Z</time>
      </trkpt>
      <trkpt lat="45.68718" lon="3.60259">
        <ele>471.18334960938</ele>
        <time>2009-05-17T07:30:06Z</time>
      </trkpt>
      <trkpt lat="45.68709" lon="3.60265">
        <ele>469.74133300781</ele>
        <time>2009-05-17T07:30:09Z</time>
      </trkpt>
      <trkpt lat="45.68708" lon="3.60265">
        <ele>468.78002929688</ele>
        <time>2009-05-17T07:30:10Z</time>
      </trkpt>
      <trkpt lat="45.68697" lon="3.60271">
        <ele>468.29931640625</ele>
        <time>2009-05-17T07:30:16Z</time>
      </trkpt>
      <trkpt lat="45.68685" lon="3.60288">
        <ele>466.37670898438</ele>
        <time>2009-05-17T07:30:21Z</time>
      </trkpt>
      <trkpt lat="45.68681" lon="3.60296">
        <ele>465.41552734375</ele>
        <time>2009-05-17T07:30:23Z</time>
      </trkpt>
      <trkpt lat="45.68678" lon="3.603">
        <ele>464.4541015625</ele>
        <time>2009-05-17T07:30:24Z</time>
      </trkpt>
      <trkpt lat="45.68674" lon="3.60304">
        <ele>463.49279785156</ele>
        <time>2009-05-17T07:30:25Z</time>
      </trkpt>
      <trkpt lat="45.68656" lon="3.60321">
        <ele>458.68615722656</ele>
        <time>2009-05-17T07:30:29Z</time>
      </trkpt>
      <trkpt lat="45.68655" lon="3.60328">
        <ele>458.20556640625</ele>
        <time>2009-05-17T07:30:30Z</time>
      </trkpt>
      <trkpt lat="45.68657" lon="3.60339">
        <ele>458.20556640625</ele>
        <time>2009-05-17T07:30:33Z</time>
      </trkpt>
      <trkpt lat="45.68666" lon="3.60334">
        <ele>458.68615722656</ele>
        <time>2009-05-17T07:30:37Z</time>
      </trkpt>
      <trkpt lat="45.68672" lon="3.60332">
        <ele>460.12817382812</ele>
        <time>2009-05-17T07:30:40Z</time>
      </trkpt>
      <trkpt lat="45.68684" lon="3.60331">
        <ele>462.05078125</ele>
        <time>2009-05-17T07:30:47Z</time>
      </trkpt>
      <trkpt lat="45.6869" lon="3.60332">
        <ele>463.49279785156</ele>
        <time>2009-05-17T07:30:51Z</time>
      </trkpt>
      <trkpt lat="45.68696" lon="3.60332">
        <ele>463.97338867188</ele>
        <time>2009-05-17T07:30:55Z</time>
      </trkpt>
      <trkpt lat="45.68702" lon="3.60332">
        <ele>464.4541015625</ele>
        <time>2009-05-17T07:30:59Z</time>
      </trkpt>
      <trkpt lat="45.68708" lon="3.60332">
        <ele>464.93481445312</ele>
        <time>2009-05-17T07:31:03Z</time>
      </trkpt>
      <trkpt lat="45.68715" lon="3.60331">
        <ele>465.89611816406</ele>
        <time>2009-05-17T07:31:07Z</time>
      </trkpt>
      <trkpt lat="45.68721" lon="3.60332">
        <ele>466.37670898438</ele>
        <time>2009-05-17T07:31:11Z</time>
      </trkpt>
      <trkpt lat="45.6873" lon="3.60331">
        <ele>467.33813476562</ele>
        <time>2009-05-17T07:31:17Z</time>
      </trkpt>
      <trkpt lat="45.68741" lon="3.60333">
        <ele>468.78002929688</ele>
        <time>2009-05-17T07:31:24Z</time>
      </trkpt>
      <trkpt lat="45.68752" lon="3.60335">
        <ele>470.22192382812</ele>
        <time>2009-05-17T07:31:31Z</time>
      </trkpt>
      <trkpt lat="45.68755" lon="3.60335">
        <ele>470.70263671875</ele>
        <time>2009-05-17T07:31:34Z</time>
      </trkpt>
      <trkpt lat="45.68765" lon="3.60338">
        <ele>472.62536621094</ele>
        <time>2009-05-17T07:31:42Z</time>
      </trkpt>
      <trkpt lat="45.68769" lon="3.60339">
        <ele>474.54797363281</ele>
        <time>2009-05-17T07:31:46Z</time>
      </trkpt>
      <trkpt lat="45.68777" lon="3.60341">
        <ele>476.95129394531</ele>
        <time>2009-05-17T07:31:53Z</time>
      </trkpt>
      <trkpt lat="45.68789" lon="3.60341">
        <ele>479.3544921875</ele>
        <time>2009-05-17T07:32:03Z</time>
      </trkpt>
      <trkpt lat="45.688" lon="3.60344">
        <ele>480.79663085938</ele>
        <time>2009-05-17T07:32:12Z</time>
      </trkpt>
      <trkpt lat="45.68801" lon="3.60354">
        <ele>481.27722167969</ele>
        <time>2009-05-17T07:32:17Z</time>
      </trkpt>
      <trkpt lat="45.68813" lon="3.60357">
        <ele>483.19982910156</ele>
        <time>2009-05-17T07:32:25Z</time>
      </trkpt>
      <trkpt lat="45.68823" lon="3.60357">
        <ele>484.1611328125</ele>
        <time>2009-05-17T07:32:31Z</time>
      </trkpt>
      <trkpt lat="45.68828" lon="3.60357">
        <ele>485.12243652344</ele>
        <time>2009-05-17T07:32:34Z</time>
      </trkpt>
      <trkpt lat="45.68843" lon="3.60364">
        <ele>487.04504394531</ele>
        <time>2009-05-17T07:32:43Z</time>
      </trkpt>
      <trkpt lat="45.68837" lon="3.6037">
        <ele>488.48718261719</ele>
        <time>2009-05-17T07:32:48Z</time>
      </trkpt>
      <trkpt lat="45.68834" lon="3.60371">
        <ele>488.00646972656</ele>
        <time>2009-05-17T07:32:49Z</time>
      </trkpt>
      <trkpt lat="45.68818" lon="3.60377">
        <ele>489.44836425781</ele>
        <time>2009-05-17T07:32:57Z</time>
      </trkpt>
      <trkpt lat="45.68801" lon="3.60385">
        <ele>490.89038085938</ele>
        <time>2009-05-17T07:33:05Z</time>
      </trkpt>
      <trkpt lat="45.68785" lon="3.60401">
        <ele>493.77429199219</ele>
        <time>2009-05-17T07:33:14Z</time>
      </trkpt>
      <trkpt lat="45.68772" lon="3.60424">
        <ele>493.29357910156</ele>
        <time>2009-05-17T07:33:20Z</time>
      </trkpt>
      <trkpt lat="45.68748" lon="3.60464">
        <ele>493.77429199219</ele>
        <time>2009-05-17T07:33:28Z</time>
      </trkpt>
      <trkpt lat="45.68728" lon="3.60502">
        <ele>494.25500488281</ele>
        <time>2009-05-17T07:33:36Z</time>
      </trkpt>
      <trkpt lat="45.68721" lon="3.60527">
        <ele>495.21618652344</ele>
        <time>2009-05-17T07:33:42Z</time>
      </trkpt>
      <trkpt lat="45.68714" lon="3.60537">
        <ele>495.21618652344</ele>
        <time>2009-05-17T07:33:46Z</time>
      </trkpt>
      <trkpt lat="45.68704" lon="3.60541">
        <ele>497.61962890625</ele>
        <time>2009-05-17T07:33:53Z</time>
      </trkpt>
      <trkpt lat="45.6869" lon="3.60541">
        <ele>500.02294921875</ele>
        <time>2009-05-17T07:34:02Z</time>
      </trkpt>
      <trkpt lat="45.68677" lon="3.60538">
        <ele>501.94555664062</ele>
        <time>2009-05-17T07:34:11Z</time>
      </trkpt>
      <trkpt lat="45.68672" lon="3.60535">
        <ele>502.90673828125</ele>
        <time>2009-05-17T07:34:15Z</time>
      </trkpt>
      <trkpt lat="45.6867" lon="3.60534">
        <ele>503.8681640625</ele>
        <time>2009-05-17T07:34:17Z</time>
      </trkpt>
      <trkpt lat="45.68661" lon="3.60527">
        <ele>504.34887695312</ele>
        <time>2009-05-17T07:34:24Z</time>
      </trkpt>
      <trkpt lat="45.68657" lon="3.60521">
        <ele>505.79089355469</ele>
        <time>2009-05-17T07:34:28Z</time>
      </trkpt>
      <trkpt lat="45.68649" lon="3.60508">
        <ele>508.19409179688</ele>
        <time>2009-05-17T07:34:38Z</time>
      </trkpt>
      <trkpt lat="45.68641" lon="3.60498">
        <ele>508.67468261719</ele>
        <time>2009-05-17T07:34:45Z</time>
      </trkpt>
      <trkpt lat="45.68635" lon="3.60491">
        <ele>509.15539550781</ele>
        <time>2009-05-17T07:34:52Z</time>
      </trkpt>
      <trkpt lat="45.68628" lon="3.60479">
        <ele>510.11669921875</ele>
        <time>2009-05-17T07:35:00Z</time>
      </trkpt>
      <trkpt lat="45.68626" lon="3.60478">
        <ele>511.07800292969</ele>
        <time>2009-05-17T07:35:01Z</time>
      </trkpt>
      <trkpt lat="45.68615" lon="3.6047">
        <ele>510.11669921875</ele>
        <time>2009-05-17T07:35:09Z</time>
      </trkpt>
      <trkpt lat="45.68598" lon="3.60462">
        <ele>510.59729003906</ele>
        <time>2009-05-17T07:35:16Z</time>
      </trkpt>
      <trkpt lat="45.68584" lon="3.60454">
        <ele>509.63610839844</ele>
        <time>2009-05-17T07:35:21Z</time>
      </trkpt>
      <trkpt lat="45.68573" lon="3.60446">
        <ele>509.63610839844</ele>
        <time>2009-05-17T07:35:25Z</time>
      </trkpt>
      <trkpt lat="45.68564" lon="3.6044">
        <ele>509.15539550781</ele>
        <time>2009-05-17T07:35:28Z</time>
      </trkpt>
      <trkpt lat="45.68549" lon="3.6043">
        <ele>508.19409179688</ele>
        <time>2009-05-17T07:35:32Z</time>
      </trkpt>
      <trkpt lat="45.68534" lon="3.60419">
        <ele>507.23278808594</ele>
        <time>2009-05-17T07:35:36Z</time>
      </trkpt>
      <trkpt lat="45.68513" lon="3.60402">
        <ele>505.31018066406</ele>
        <time>2009-05-17T07:35:41Z</time>
      </trkpt>
      <trkpt lat="45.68503" lon="3.60394">
        <ele>505.31018066406</ele>
        <time>2009-05-17T07:35:43Z</time>
      </trkpt>
      <trkpt lat="45.6849" lon="3.60388">
        <ele>503.8681640625</ele>
        <time>2009-05-17T07:35:46Z</time>
      </trkpt>
      <trkpt lat="45.68474" lon="3.60372">
        <ele>502.90673828125</ele>
        <time>2009-05-17T07:35:50Z</time>
      </trkpt>
      <trkpt lat="45.68467" lon="3.60367">
        <ele>503.38745117188</ele>
        <time>2009-05-17T07:35:52Z</time>
      </trkpt>
      <trkpt lat="45.68463" lon="3.60363">
        <ele>503.38745117188</ele>
        <time>2009-05-17T07:35:57Z</time>
      </trkpt>
      <trkpt lat="45.68463" lon="3.60365">
        <ele>502.90673828125</ele>
        <time>2009-05-17T07:36:05Z</time>
      </trkpt>
      <trkpt lat="45.68463" lon="3.60365">
        <ele>502.90673828125</ele>
        <time>2009-05-17T07:36:09Z</time>
      </trkpt>
      <trkpt lat="45.68462" lon="3.60368">
        <ele>502.90673828125</ele>
        <time>2009-05-17T07:36:22Z</time>
      </trkpt>
      <trkpt lat="45.68456" lon="3.60364">
        <ele>503.8681640625</ele>
        <time>2009-05-17T07:36:27Z</time>
      </trkpt>
      <trkpt lat="45.68449" lon="3.60362">
        <ele>504.34887695312</ele>
        <time>2009-05-17T07:36:30Z</time>
      </trkpt>
      <trkpt lat="45.68436" lon="3.60354">
        <ele>504.82946777344</ele>
        <time>2009-05-17T07:36:36Z</time>
      </trkpt>
      <trkpt lat="45.68421" lon="3.60346">
        <ele>505.79089355469</ele>
        <time>2009-05-17T07:36:42Z</time>
      </trkpt>
      <trkpt lat="45.68406" lon="3.6034">
        <ele>507.23278808594</ele>
        <time>2009-05-17T07:36:47Z</time>
      </trkpt>
      <trkpt lat="45.68396" lon="3.60335">
        <ele>508.19409179688</ele>
        <time>2009-05-17T07:36:50Z</time>
      </trkpt>
      <trkpt lat="45.68385" lon="3.60331">
        <ele>508.67468261719</ele>
        <time>2009-05-17T07:36:53Z</time>
      </trkpt>
      <trkpt lat="45.68378" lon="3.6033">
        <ele>508.67468261719</ele>
        <time>2009-05-17T07:36:55Z</time>
      </trkpt>
      <trkpt lat="45.68364" lon="3.60328">
        <ele>509.63610839844</ele>
        <time>2009-05-17T07:36:59Z</time>
      </trkpt>
      <trkpt lat="45.68338" lon="3.60321">
        <ele>510.11669921875</ele>
        <time>2009-05-17T07:37:06Z</time>
      </trkpt>
      <trkpt lat="45.68316" lon="3.60317">
        <ele>511.07800292969</ele>
        <time>2009-05-17T07:37:12Z</time>
      </trkpt>
      <trkpt lat="45.68288" lon="3.60312">
        <ele>513.4814453125</ele>
        <time>2009-05-17T07:37:20Z</time>
      </trkpt>
      <trkpt lat="45.6827" lon="3.60309">
        <ele>513.96203613281</ele>
        <time>2009-05-17T07:37:26Z</time>
      </trkpt>
      <trkpt lat="45.6827" lon="3.60314">
        <ele>513.96203613281</ele>
        <time>2009-05-17T07:37:30Z</time>
      </trkpt>
      <trkpt lat="45.68286" lon="3.60315">
        <ele>513.4814453125</ele>
        <time>2009-05-17T07:37:35Z</time>
      </trkpt>
      <trkpt lat="45.6829" lon="3.60317">
        <ele>513.00073242188</ele>
        <time>2009-05-17T07:37:36Z</time>
      </trkpt>
      <trkpt lat="45.68316" lon="3.60322">
        <ele>512.03942871094</ele>
        <time>2009-05-17T07:37:41Z</time>
      </trkpt>
      <trkpt lat="45.68347" lon="3.60328">
        <ele>510.11669921875</ele>
        <time>2009-05-17T07:37:46Z</time>
      </trkpt>
      <trkpt lat="45.68375" lon="3.60332">
        <ele>509.63610839844</ele>
        <time>2009-05-17T07:37:50Z</time>
      </trkpt>
      <trkpt lat="45.68412" lon="3.60341">
        <ele>507.23278808594</ele>
        <time>2009-05-17T07:37:55Z</time>
      </trkpt>
      <trkpt lat="45.6843" lon="3.60349">
        <ele>505.79089355469</ele>
        <time>2009-05-17T07:37:58Z</time>
      </trkpt>
      <trkpt lat="45.68442" lon="3.60354">
        <ele>504.34887695312</ele>
        <time>2009-05-17T07:38:01Z</time>
      </trkpt>
      <trkpt lat="45.68447" lon="3.60355">
        <ele>503.8681640625</ele>
        <time>2009-05-17T07:38:04Z</time>
      </trkpt>
      <trkpt lat="45.68449" lon="3.60357">
        <ele>503.38745117188</ele>
        <time>2009-05-17T07:38:06Z</time>
      </trkpt>
      <trkpt lat="45.68457" lon="3.60361">
        <ele>502.90673828125</ele>
        <time>2009-05-17T07:38:10Z</time>
      </trkpt>
      <trkpt lat="45.6846" lon="3.60363">
        <ele>502.42614746094</ele>
        <time>2009-05-17T07:38:12Z</time>
      </trkpt>
      <trkpt lat="45.68464" lon="3.60364">
        <ele>501.94555664062</ele>
        <time>2009-05-17T07:38:18Z</time>
      </trkpt>
      <trkpt lat="45.68464" lon="3.60364">
        <ele>502.42614746094</ele>
        <time>2009-05-17T07:38:23Z</time>
      </trkpt>
      <trkpt lat="45.68463" lon="3.60364">
        <ele>502.42614746094</ele>
        <time>2009-05-17T07:38:25Z</time>
      </trkpt>
      <trkpt lat="45.68464" lon="3.60364">
        <ele>502.90673828125</ele>
        <time>2009-05-17T07:38:28Z</time>
      </trkpt>
      <trkpt lat="45.68464" lon="3.60364">
        <ele>502.90673828125</ele>
        <time>2009-05-17T07:38:29Z</time>
      </trkpt>
      <trkpt lat="45.68467" lon="3.60362">
        <ele>501.94555664062</ele>
        <time>2009-05-17T07:38:43Z</time>
      </trkpt>
      <trkpt lat="45.68468" lon="3.60358">
        <ele>501.94555664062</ele>
        <time>2009-05-17T07:38:48Z</time>
      </trkpt>
      <trkpt lat="45.68455" lon="3.60341">
        <ele>498.58093261719</ele>
        <time>2009-05-17T07:38:54Z</time>
      </trkpt>
      <trkpt lat="45.68444" lon="3.60327">
        <ele>496.177734375</ele>
        <time>2009-05-17T07:38:57Z</time>
      </trkpt>
      <trkpt lat="45.6844" lon="3.60322">
        <ele>495.21618652344</ele>
        <time>2009-05-17T07:38:58Z</time>
      </trkpt>
      <trkpt lat="45.68409" lon="3.60299">
        <ele>492.81298828125</ele>
        <time>2009-05-17T07:39:03Z</time>
      </trkpt>
      <trkpt lat="45.68402" lon="3.60296">
        <ele>492.33239746094</ele>
        <time>2009-05-17T07:39:04Z</time>
      </trkpt>
      <trkpt lat="45.68385" lon="3.60288">
        <ele>490.89038085938</ele>
        <time>2009-05-17T07:39:08Z</time>
      </trkpt>
      <trkpt lat="45.68373" lon="3.60287">
        <ele>489.44836425781</ele>
        <time>2009-05-17T07:39:13Z</time>
      </trkpt>
      <trkpt lat="45.68364" lon="3.60285">
        <ele>489.44836425781</ele>
        <time>2009-05-17T07:39:17Z</time>
      </trkpt>
      <trkpt lat="45.68359" lon="3.60282">
        <ele>489.44836425781</ele>
        <time>2009-05-17T07:39:19Z</time>
      </trkpt>
      <trkpt lat="45.68356" lon="3.60282">
        <ele>488.9677734375</ele>
        <time>2009-05-17T07:39:20Z</time>
      </trkpt>
      <trkpt lat="45.68343" lon="3.6028">
        <ele>489.92907714844</ele>
        <time>2009-05-17T07:39:26Z</time>
      </trkpt>
      <trkpt lat="45.68332" lon="3.60278">
        <ele>489.92907714844</ele>
        <time>2009-05-17T07:39:29Z</time>
      </trkpt>
      <trkpt lat="45.68321" lon="3.60279">
        <ele>491.37097167969</ele>
        <time>2009-05-17T07:39:33Z</time>
      </trkpt>
      <trkpt lat="45.68318" lon="3.60279">
        <ele>491.37097167969</ele>
        <time>2009-05-17T07:39:34Z</time>
      </trkpt>
      <trkpt lat="45.68315" lon="3.60281">
        <ele>491.37097167969</ele>
        <time>2009-05-17T07:39:35Z</time>
      </trkpt>
      <trkpt lat="45.68311" lon="3.6028">
        <ele>491.37097167969</ele>
        <time>2009-05-17T07:39:37Z</time>
      </trkpt>
      <trkpt lat="45.68309" lon="3.6028">
        <ele>491.37097167969</ele>
        <time>2009-05-17T07:39:38Z</time>
      </trkpt>
      <trkpt lat="45.68305" lon="3.60279">
        <ele>491.85168457031</ele>
        <time>2009-05-17T07:39:40Z</time>
      </trkpt>
      <trkpt lat="45.68295" lon="3.60278">
        <ele>493.29357910156</ele>
        <time>2009-05-17T07:39:46Z</time>
      </trkpt>
      <trkpt lat="45.68289" lon="3.60275">
        <ele>493.29357910156</ele>
        <time>2009-05-17T07:39:50Z</time>
      </trkpt>
      <trkpt lat="45.68287" lon="3.60273">
        <ele>493.29357910156</ele>
        <time>2009-05-17T07:39:52Z</time>
      </trkpt>
      <trkpt lat="45.68281" lon="3.60264">
        <ele>495.69689941406</ele>
        <time>2009-05-17T07:39:58Z</time>
      </trkpt>
      <trkpt lat="45.68281" lon="3.60261">
        <ele>496.65832519531</ele>
        <time>2009-05-17T07:40:00Z</time>
      </trkpt>
      <trkpt lat="45.68282" lon="3.60259">
        <ele>496.65832519531</ele>
        <time>2009-05-17T07:40:04Z</time>
      </trkpt>
      <trkpt lat="45.68283" lon="3.60256">
        <ele>497.13891601562</ele>
        <time>2009-05-17T07:40:10Z</time>
      </trkpt>
      <trkpt lat="45.68284" lon="3.60255">
        <ele>497.61962890625</ele>
        <time>2009-05-17T07:40:13Z</time>
      </trkpt>
      <trkpt lat="45.68291" lon="3.60249">
        <ele>499.0615234375</ele>
        <time>2009-05-17T07:40:21Z</time>
      </trkpt>
      <trkpt lat="45.68301" lon="3.60243">
        <ele>499.54223632812</ele>
        <time>2009-05-17T07:40:28Z</time>
      </trkpt>
      <trkpt lat="45.68309" lon="3.60239">
        <ele>500.02294921875</ele>
        <time>2009-05-17T07:40:35Z</time>
      </trkpt>
      <trkpt lat="45.68317" lon="3.60238">
        <ele>500.98413085938</ele>
        <time>2009-05-17T07:40:42Z</time>
      </trkpt>
      <trkpt lat="45.68325" lon="3.60233">
        <ele>501.46484375</ele>
        <time>2009-05-17T07:40:48Z</time>
      </trkpt>
      <trkpt lat="45.68327" lon="3.60232">
        <ele>501.46484375</ele>
        <time>2009-05-17T07:40:49Z</time>
      </trkpt>
      <trkpt lat="45.68335" lon="3.60223">
        <ele>502.42614746094</ele>
        <time>2009-05-17T07:40:55Z</time>
      </trkpt>
      <trkpt lat="45.68338" lon="3.60221">
        <ele>501.94555664062</ele>
        <time>2009-05-17T07:40:57Z</time>
      </trkpt>
      <trkpt lat="45.68346" lon="3.60215">
        <ele>504.34887695312</ele>
        <time>2009-05-17T07:41:04Z</time>
      </trkpt>
      <trkpt lat="45.68355" lon="3.60213">
        <ele>504.82946777344</ele>
        <time>2009-05-17T07:41:11Z</time>
      </trkpt>
      <trkpt lat="45.68362" lon="3.60213">
        <ele>507.23278808594</ele>
        <time>2009-05-17T07:41:18Z</time>
      </trkpt>
      <trkpt lat="45.68368" lon="3.60211">
        <ele>508.67468261719</ele>
        <time>2009-05-17T07:41:24Z</time>
      </trkpt>
      <trkpt lat="45.68376" lon="3.60202">
        <ele>509.63610839844</ele>
        <time>2009-05-17T07:41:31Z</time>
      </trkpt>
      <trkpt lat="45.68382" lon="3.60199">
        <ele>510.59729003906</ele>
        <time>2009-05-17T07:41:37Z</time>
      </trkpt>
      <trkpt lat="45.68386" lon="3.60198">
        <ele>512.52001953125</ele>
        <time>2009-05-17T07:41:43Z</time>
      </trkpt>
      <trkpt lat="45.68392" lon="3.60194">
        <ele>514.44262695312</ele>
        <time>2009-05-17T07:41:50Z</time>
      </trkpt>
      <trkpt lat="45.68399" lon="3.6019">
        <ele>515.40405273438</ele>
        <time>2009-05-17T07:41:56Z</time>
      </trkpt>
      <trkpt lat="45.68408" lon="3.60186">
        <ele>515.88464355469</ele>
        <time>2009-05-17T07:42:03Z</time>
      </trkpt>
      <trkpt lat="45.68415" lon="3.60183">
        <ele>517.32666015625</ele>
        <time>2009-05-17T07:42:08Z</time>
      </trkpt>
      <trkpt lat="45.68425" lon="3.6018">
        <ele>519.24926757812</ele>
        <time>2009-05-17T07:42:14Z</time>
      </trkpt>
      <trkpt lat="45.68434" lon="3.60176">
        <ele>520.69128417969</ele>
        <time>2009-05-17T07:42:20Z</time>
      </trkpt>
      <trkpt lat="45.68447" lon="3.60171">
        <ele>522.13317871094</ele>
        <time>2009-05-17T07:42:28Z</time>
      </trkpt>
      <trkpt lat="45.68457" lon="3.60167">
        <ele>523.5751953125</ele>
        <time>2009-05-17T07:42:35Z</time>
      </trkpt>
      <trkpt lat="45.68467" lon="3.60163">
        <ele>525.49780273438</ele>
        <time>2009-05-17T07:42:42Z</time>
      </trkpt>
      <trkpt lat="45.68479" lon="3.60159">
        <ele>526.45910644531</ele>
        <time>2009-05-17T07:42:49Z</time>
      </trkpt>
      <trkpt lat="45.68493" lon="3.60155">
        <ele>527.42041015625</ele>
        <time>2009-05-17T07:42:56Z</time>
      </trkpt>
      <trkpt lat="45.68501" lon="3.60153">
        <ele>528.3818359375</ele>
        <time>2009-05-17T07:43:00Z</time>
      </trkpt>
      <trkpt lat="45.68509" lon="3.60152">
        <ele>529.34313964844</ele>
        <time>2009-05-17T07:43:05Z</time>
      </trkpt>
      <trkpt lat="45.68523" lon="3.60149">
        <ele>530.78515625</ele>
        <time>2009-05-17T07:43:12Z</time>
      </trkpt>
      <trkpt lat="45.68534" lon="3.60144">
        <ele>531.74633789062</ele>
        <time>2009-05-17T07:43:18Z</time>
      </trkpt>
      <trkpt lat="45.68541" lon="3.60143">
        <ele>532.70776367188</ele>
        <time>2009-05-17T07:43:22Z</time>
      </trkpt>
      <trkpt lat="45.68552" lon="3.60139">
        <ele>533.18835449219</ele>
        <time>2009-05-17T07:43:28Z</time>
      </trkpt>
      <trkpt lat="45.68566" lon="3.60133">
        <ele>535.11096191406</ele>
        <time>2009-05-17T07:43:35Z</time>
      </trkpt>
      <trkpt lat="45.68579" lon="3.60126">
        <ele>536.55310058594</ele>
        <time>2009-05-17T07:43:42Z</time>
      </trkpt>
      <trkpt lat="45.68592" lon="3.60117">
        <ele>537.99499511719</ele>
        <time>2009-05-17T07:43:50Z</time>
      </trkpt>
      <trkpt lat="45.68603" lon="3.6011">
        <ele>539.43688964844</ele>
        <time>2009-05-17T07:43:58Z</time>
      </trkpt>
      <trkpt lat="45.68609" lon="3.60105">
        <ele>540.87890625</ele>
        <time>2009-05-17T07:44:04Z</time>
      </trkpt>
      <trkpt lat="45.6862" lon="3.60094">
        <ele>542.80151367188</ele>
        <time>2009-05-17T07:44:13Z</time>
      </trkpt>
      <trkpt lat="45.68631" lon="3.60083">
        <ele>545.20483398438</ele>
        <time>2009-05-17T07:44:22Z</time>
      </trkpt>
      <trkpt lat="45.68636" lon="3.60076">
        <ele>547.60815429688</ele>
        <time>2009-05-17T07:44:28Z</time>
      </trkpt>
      <trkpt lat="45.68641" lon="3.60069">
        <ele>548.0888671875</ele>
        <time>2009-05-17T07:44:34Z</time>
      </trkpt>
      <trkpt lat="45.68652" lon="3.6006">
        <ele>549.53076171875</ele>
        <time>2009-05-17T07:44:40Z</time>
      </trkpt>
      <trkpt lat="45.68668" lon="3.60044">
        <ele>550.4921875</ele>
        <time>2009-05-17T07:44:48Z</time>
      </trkpt>
      <trkpt lat="45.68683" lon="3.60034">
        <ele>552.41455078125</ele>
        <time>2009-05-17T07:44:55Z</time>
      </trkpt>
      <trkpt lat="45.68685" lon="3.60033">
        <ele>552.41455078125</ele>
        <time>2009-05-17T07:44:56Z</time>
      </trkpt>
      <trkpt lat="45.68702" lon="3.6002">
        <ele>554.33740234375</ele>
        <time>2009-05-17T07:45:04Z</time>
      </trkpt>
      <trkpt lat="45.68715" lon="3.60001">
        <ele>555.29858398438</ele>
        <time>2009-05-17T07:45:11Z</time>
      </trkpt>
      <trkpt lat="45.68716" lon="3.59979">
        <ele>555.779296875</ele>
        <time>2009-05-17T07:45:16Z</time>
      </trkpt>
      <trkpt lat="45.68706" lon="3.59955">
        <ele>556.74072265625</ele>
        <time>2009-05-17T07:45:22Z</time>
      </trkpt>
      <trkpt lat="45.68687" lon="3.59937">
        <ele>558.18286132812</ele>
        <time>2009-05-17T07:45:29Z</time>
      </trkpt>
      <trkpt lat="45.68659" lon="3.5992">
        <ele>559.62475585938</ele>
        <time>2009-05-17T07:45:39Z</time>
      </trkpt>
      <trkpt lat="45.6864" lon="3.59913">
        <ele>560.5859375</ele>
        <time>2009-05-17T07:45:46Z</time>
      </trkpt>
      <trkpt lat="45.68621" lon="3.59909">
        <ele>562.50854492188</ele>
        <time>2009-05-17T07:45:53Z</time>
      </trkpt>
      <trkpt lat="45.68601" lon="3.59902">
        <ele>564.43115234375</ele>
        <time>2009-05-17T07:46:00Z</time>
      </trkpt>
      <trkpt lat="45.68585" lon="3.59896">
        <ele>565.392578125</ele>
        <time>2009-05-17T07:46:06Z</time>
      </trkpt>
      <trkpt lat="45.68576" lon="3.59884">
        <ele>564.91186523438</ele>
        <time>2009-05-17T07:46:11Z</time>
      </trkpt>
      <trkpt lat="45.68562" lon="3.59868">
        <ele>562.9892578125</ele>
        <time>2009-05-17T07:46:15Z</time>
      </trkpt>
      <trkpt lat="45.68549" lon="3.59842">
        <ele>560.10522460938</ele>
        <time>2009-05-17T07:46:19Z</time>
      </trkpt>
      <trkpt lat="45.68551" lon="3.59817">
        <ele>559.14404296875</ele>
        <time>2009-05-17T07:46:22Z</time>
      </trkpt>
      <trkpt lat="45.68559" lon="3.59762">
        <ele>557.7021484375</ele>
        <time>2009-05-17T07:46:28Z</time>
      </trkpt>
      <trkpt lat="45.68561" lon="3.59741">
        <ele>555.779296875</ele>
        <time>2009-05-17T07:46:30Z</time>
      </trkpt>
      <trkpt lat="45.68563" lon="3.59719">
        <ele>554.81787109375</ele>
        <time>2009-05-17T07:46:32Z</time>
      </trkpt>
      <trkpt lat="45.68565" lon="3.59698">
        <ele>553.3759765625</ele>
        <time>2009-05-17T07:46:34Z</time>
      </trkpt>
      <trkpt lat="45.68567" lon="3.59687">
        <ele>551.93408203125</ele>
        <time>2009-05-17T07:46:35Z</time>
      </trkpt>
      <trkpt lat="45.68568" lon="3.59678">
        <ele>550.4921875</ele>
        <time>2009-05-17T07:46:36Z</time>
      </trkpt>
      <trkpt lat="45.68569" lon="3.5967">
        <ele>549.53076171875</ele>
        <time>2009-05-17T07:46:37Z</time>
      </trkpt>
      <trkpt lat="45.68572" lon="3.59645">
        <ele>544.24365234375</ele>
        <time>2009-05-17T07:46:40Z</time>
      </trkpt>
      <trkpt lat="45.68572" lon="3.59637">
        <ele>544.24365234375</ele>
        <time>2009-05-17T07:46:41Z</time>
      </trkpt>
      <trkpt lat="45.6858" lon="3.5961">
        <ele>540.87890625</ele>
        <time>2009-05-17T07:46:44Z</time>
      </trkpt>
      <trkpt lat="45.68584" lon="3.59601">
        <ele>540.87890625</ele>
        <time>2009-05-17T07:46:45Z</time>
      </trkpt>
      <trkpt lat="45.68592" lon="3.59581">
        <ele>537.51428222656</ele>
        <time>2009-05-17T07:46:47Z</time>
      </trkpt>
      <trkpt lat="45.68615" lon="3.59533">
        <ele>534.14965820312</ele>
        <time>2009-05-17T07:46:51Z</time>
      </trkpt>
      <trkpt lat="45.68619" lon="3.59521">
        <ele>532.70776367188</ele>
        <time>2009-05-17T07:46:52Z</time>
      </trkpt>
      <trkpt lat="45.68626" lon="3.59483">
        <ele>528.86254882812</ele>
        <time>2009-05-17T07:46:55Z</time>
      </trkpt>
      <trkpt lat="45.68627" lon="3.59462">
        <ele>525.49780273438</ele>
        <time>2009-05-17T07:46:57Z</time>
      </trkpt>
      <trkpt lat="45.68626" lon="3.59433">
        <ele>521.65258789062</ele>
        <time>2009-05-17T07:47:00Z</time>
      </trkpt>
      <trkpt lat="45.68625" lon="3.59424">
        <ele>520.69128417969</ele>
        <time>2009-05-17T07:47:01Z</time>
      </trkpt>
      <trkpt lat="45.68624" lon="3.59397">
        <ele>517.80725097656</ele>
        <time>2009-05-17T07:47:04Z</time>
      </trkpt>
      <trkpt lat="45.68631" lon="3.59377">
        <ele>515.40405273438</ele>
        <time>2009-05-17T07:47:08Z</time>
      </trkpt>
      <trkpt lat="45.68631" lon="3.59369">
        <ele>515.40405273438</ele>
        <time>2009-05-17T07:47:11Z</time>
      </trkpt>
      <trkpt lat="45.68626" lon="3.59368">
        <ele>516.365234375</ele>
        <time>2009-05-17T07:47:16Z</time>
      </trkpt>
      <trkpt lat="45.68621" lon="3.59369">
        <ele>517.80725097656</ele>
        <time>2009-05-17T07:47:21Z</time>
      </trkpt>
      <trkpt lat="45.68619" lon="3.59368">
        <ele>519.24926757812</ele>
        <time>2009-05-17T07:47:24Z</time>
      </trkpt>
      <trkpt lat="45.68616" lon="3.59368">
        <ele>519.72985839844</ele>
        <time>2009-05-17T07:47:28Z</time>
      </trkpt>
      <trkpt lat="45.68613" lon="3.59368">
        <ele>520.21057128906</ele>
        <time>2009-05-17T07:47:30Z</time>
      </trkpt>
      <trkpt lat="45.68613" lon="3.59367">
        <ele>520.69128417969</ele>
        <time>2009-05-17T07:47:31Z</time>
      </trkpt>
      <trkpt lat="45.68612" lon="3.59368">
        <ele>521.17199707031</ele>
        <time>2009-05-17T07:47:32Z</time>
      </trkpt>
      <trkpt lat="45.68605" lon="3.59368">
        <ele>521.65258789062</ele>
        <time>2009-05-17T07:47:37Z</time>
      </trkpt>
      <trkpt lat="45.68595" lon="3.5937">
        <ele>523.5751953125</ele>
        <time>2009-05-17T07:47:45Z</time>
      </trkpt>
      <trkpt lat="45.68589" lon="3.59371">
        <ele>525.01721191406</ele>
        <time>2009-05-17T07:47:50Z</time>
      </trkpt>
      <trkpt lat="45.68584" lon="3.59372">
        <ele>525.49780273438</ele>
        <time>2009-05-17T07:47:54Z</time>
      </trkpt>
      <trkpt lat="45.68576" lon="3.59373">
        <ele>526.45910644531</ele>
        <time>2009-05-17T07:48:01Z</time>
      </trkpt>
      <trkpt lat="45.6857" lon="3.59376">
        <ele>526.93981933594</ele>
        <time>2009-05-17T07:48:08Z</time>
      </trkpt>
      <trkpt lat="45.68562" lon="3.59379">
        <ele>528.3818359375</ele>
        <time>2009-05-17T07:48:15Z</time>
      </trkpt>
      <trkpt lat="45.68555" lon="3.59382">
        <ele>529.34313964844</ele>
        <time>2009-05-17T07:48:20Z</time>
      </trkpt>
      <trkpt lat="45.68544" lon="3.59385">
        <ele>530.30444335938</ele>
        <time>2009-05-17T07:48:27Z</time>
      </trkpt>
      <trkpt lat="45.6853" lon="3.59389">
        <ele>531.74633789062</ele>
        <time>2009-05-17T07:48:35Z</time>
      </trkpt>
      <trkpt lat="45.68515" lon="3.59394">
        <ele>534.14965820312</ele>
        <time>2009-05-17T07:48:44Z</time>
      </trkpt>
      <trkpt lat="45.68505" lon="3.59396">
        <ele>535.59155273438</ele>
        <time>2009-05-17T07:48:51Z</time>
      </trkpt>
      <trkpt lat="45.68489" lon="3.59401">
        <ele>536.55310058594</ele>
        <time>2009-05-17T07:49:02Z</time>
      </trkpt>
      <trkpt lat="45.68477" lon="3.59406">
        <ele>538.95629882812</ele>
        <time>2009-05-17T07:49:11Z</time>
      </trkpt>
      <trkpt lat="45.68466" lon="3.59409">
        <ele>540.39831542969</ele>
        <time>2009-05-17T07:49:19Z</time>
      </trkpt>
      <trkpt lat="45.68449" lon="3.59416">
        <ele>541.84020996094</ele>
        <time>2009-05-17T07:49:30Z</time>
      </trkpt>
      <trkpt lat="45.68435" lon="3.59419">
        <ele>543.76281738281</ele>
        <time>2009-05-17T07:49:39Z</time>
      </trkpt>
      <trkpt lat="45.68417" lon="3.59419">
        <ele>545.685546875</ele>
        <time>2009-05-17T07:49:49Z</time>
      </trkpt>
      <trkpt lat="45.684" lon="3.59414">
        <ele>547.12744140625</ele>
        <time>2009-05-17T07:49:58Z</time>
      </trkpt>
      <trkpt lat="45.6839" lon="3.59408">
        <ele>548.5693359375</ele>
        <time>2009-05-17T07:50:05Z</time>
      </trkpt>
      <trkpt lat="45.6838" lon="3.59402">
        <ele>550.97265625</ele>
        <time>2009-05-17T07:50:13Z</time>
      </trkpt>
      <trkpt lat="45.68368" lon="3.59396">
        <ele>552.89526367188</ele>
        <time>2009-05-17T07:50:22Z</time>
      </trkpt>
      <trkpt lat="45.68359" lon="3.59389">
        <ele>552.89526367188</ele>
        <time>2009-05-17T07:50:29Z</time>
      </trkpt>
      <trkpt lat="45.68346" lon="3.5938">
        <ele>555.29858398438</ele>
        <time>2009-05-17T07:50:38Z</time>
      </trkpt>
      <trkpt lat="45.68335" lon="3.59375">
        <ele>556.74072265625</ele>
        <time>2009-05-17T07:50:46Z</time>
      </trkpt>
      <trkpt lat="45.68322" lon="3.59371">
        <ele>558.18286132812</ele>
        <time>2009-05-17T07:50:55Z</time>
      </trkpt>
      <trkpt lat="45.6831" lon="3.59366">
        <ele>559.14404296875</ele>
        <time>2009-05-17T07:51:03Z</time>
      </trkpt>
      <trkpt lat="45.68296" lon="3.59357">
        <ele>561.06665039062</ele>
        <time>2009-05-17T07:51:12Z</time>
      </trkpt>
      <trkpt lat="45.68284" lon="3.5935">
        <ele>562.50854492188</ele>
        <time>2009-05-17T07:51:20Z</time>
      </trkpt>
      <trkpt lat="45.68269" lon="3.59342">
        <ele>564.43115234375</ele>
        <time>2009-05-17T07:51:30Z</time>
      </trkpt>
      <trkpt lat="45.68255" lon="3.59336">
        <ele>564.91186523438</ele>
        <time>2009-05-17T07:51:39Z</time>
      </trkpt>
      <trkpt lat="45.68241" lon="3.59334">
        <ele>566.35375976562</ele>
        <time>2009-05-17T07:51:49Z</time>
      </trkpt>
      <trkpt lat="45.68232" lon="3.59336">
        <ele>567.79565429688</ele>
        <time>2009-05-17T07:51:55Z</time>
      </trkpt>
      <trkpt lat="45.68231" lon="3.59337">
        <ele>567.79565429688</ele>
        <time>2009-05-17T07:51:56Z</time>
      </trkpt>
      <trkpt lat="45.68218" lon="3.59339">
        <ele>569.23779296875</ele>
        <time>2009-05-17T07:52:05Z</time>
      </trkpt>
      <trkpt lat="45.682" lon="3.59342">
        <ele>571.64086914062</ele>
        <time>2009-05-17T07:52:17Z</time>
      </trkpt>
      <trkpt lat="45.68184" lon="3.59344">
        <ele>573.56396484375</ele>
        <time>2009-05-17T07:52:28Z</time>
      </trkpt>
      <trkpt lat="45.6817" lon="3.59346">
        <ele>575.005859375</ele>
        <time>2009-05-17T07:52:37Z</time>
      </trkpt>
      <trkpt lat="45.68155" lon="3.59349">
        <ele>575.96704101562</ele>
        <time>2009-05-17T07:52:48Z</time>
      </trkpt>
      <trkpt lat="45.68145" lon="3.59351">
        <ele>578.37036132812</ele>
        <time>2009-05-17T07:52:55Z</time>
      </trkpt>
      <trkpt lat="45.68132" lon="3.59356">
        <ele>580.77368164062</ele>
        <time>2009-05-17T07:53:07Z</time>
      </trkpt>
      <trkpt lat="45.68124" lon="3.59364">
        <ele>581.73486328125</ele>
        <time>2009-05-17T07:53:16Z</time>
      </trkpt>
      <trkpt lat="45.6812" lon="3.59369">
        <ele>583.65747070312</ele>
        <time>2009-05-17T07:53:21Z</time>
      </trkpt>
      <trkpt lat="45.68114" lon="3.5938">
        <ele>586.06079101562</ele>
        <time>2009-05-17T07:53:30Z</time>
      </trkpt>
      <trkpt lat="45.68108" lon="3.59391">
        <ele>587.9833984375</ele>
        <time>2009-05-17T07:53:39Z</time>
      </trkpt>
      <trkpt lat="45.68105" lon="3.59405">
        <ele>589.90625</ele>
        <time>2009-05-17T07:53:49Z</time>
      </trkpt>
      <trkpt lat="45.68104" lon="3.59419">
        <ele>591.82885742188</ele>
        <time>2009-05-17T07:53:58Z</time>
      </trkpt>
      <trkpt lat="45.68105" lon="3.59432">
        <ele>594.23217773438</ele>
        <time>2009-05-17T07:54:07Z</time>
      </trkpt>
      <trkpt lat="45.68105" lon="3.59445">
        <ele>595.67407226562</ele>
        <time>2009-05-17T07:54:15Z</time>
      </trkpt>
      <trkpt lat="45.68106" lon="3.59454">
        <ele>596.63549804688</ele>
        <time>2009-05-17T07:54:22Z</time>
      </trkpt>
      <trkpt lat="45.68107" lon="3.59466">
        <ele>598.07739257812</ele>
        <time>2009-05-17T07:54:30Z</time>
      </trkpt>
      <trkpt lat="45.68104" lon="3.5948">
        <ele>600</ele>
        <time>2009-05-17T07:54:39Z</time>
      </trkpt>
      <trkpt lat="45.68098" lon="3.59498">
        <ele>601.44189453125</ele>
        <time>2009-05-17T07:54:49Z</time>
      </trkpt>
      <trkpt lat="45.68093" lon="3.59513">
        <ele>603.36450195312</ele>
        <time>2009-05-17T07:54:58Z</time>
      </trkpt>
      <trkpt lat="45.68092" lon="3.59522">
        <ele>603.84521484375</ele>
        <time>2009-05-17T07:55:03Z</time>
      </trkpt>
      <trkpt lat="45.68082" lon="3.59523">
        <ele>604.326171875</ele>
        <time>2009-05-17T07:55:09Z</time>
      </trkpt>
      <trkpt lat="45.68069" lon="3.59523">
        <ele>604.806640625</ele>
        <time>2009-05-17T07:55:16Z</time>
      </trkpt>
      <trkpt lat="45.68056" lon="3.59524">
        <ele>604.806640625</ele>
        <time>2009-05-17T07:55:22Z</time>
      </trkpt>
      <trkpt lat="45.68047" lon="3.59526">
        <ele>604.806640625</ele>
        <time>2009-05-17T07:55:25Z</time>
      </trkpt>
      <trkpt lat="45.68024" lon="3.5953">
        <ele>604.326171875</ele>
        <time>2009-05-17T07:55:30Z</time>
      </trkpt>
      <trkpt lat="45.68009" lon="3.59536">
        <ele>604.326171875</ele>
        <time>2009-05-17T07:55:34Z</time>
      </trkpt>
      <trkpt lat="45.68003" lon="3.59538">
        <ele>604.326171875</ele>
        <time>2009-05-17T07:55:36Z</time>
      </trkpt>
      <trkpt lat="45.68" lon="3.5954">
        <ele>604.806640625</ele>
        <time>2009-05-17T07:55:37Z</time>
      </trkpt>
      <trkpt lat="45.67982" lon="3.59548">
        <ele>605.76806640625</ele>
        <time>2009-05-17T07:55:45Z</time>
      </trkpt>
      <trkpt lat="45.67965" lon="3.59559">
        <ele>608.17138671875</ele>
        <time>2009-05-17T07:55:54Z</time>
      </trkpt>
      <trkpt lat="45.6796" lon="3.59562">
        <ele>609.61328125</ele>
        <time>2009-05-17T07:55:57Z</time>
      </trkpt>
      <trkpt lat="45.67957" lon="3.59564">
        <ele>609.61328125</ele>
        <time>2009-05-17T07:55:59Z</time>
      </trkpt>
      <trkpt lat="45.67945" lon="3.59566">
        <ele>611.05517578125</ele>
        <time>2009-05-17T07:56:06Z</time>
      </trkpt>
      <trkpt lat="45.67929" lon="3.59566">
        <ele>612.4970703125</ele>
        <time>2009-05-17T07:56:15Z</time>
      </trkpt>
      <trkpt lat="45.6792" lon="3.59566">
        <ele>614.41967773438</ele>
        <time>2009-05-17T07:56:20Z</time>
      </trkpt>
      <trkpt lat="45.67916" lon="3.59565">
        <ele>614.900390625</ele>
        <time>2009-05-17T07:56:22Z</time>
      </trkpt>
      <trkpt lat="45.67899" lon="3.59564">
        <ele>616.34228515625</ele>
        <time>2009-05-17T07:56:31Z</time>
      </trkpt>
      <trkpt lat="45.67882" lon="3.59562">
        <ele>616.82299804688</ele>
        <time>2009-05-17T07:56:39Z</time>
      </trkpt>
      <trkpt lat="45.67865" lon="3.5956">
        <ele>617.7841796875</ele>
        <time>2009-05-17T07:56:47Z</time>
      </trkpt>
      <trkpt lat="45.67844" lon="3.59559">
        <ele>619.22631835938</ele>
        <time>2009-05-17T07:56:57Z</time>
      </trkpt>
      <trkpt lat="45.67828" lon="3.59562">
        <ele>621.14916992188</ele>
        <time>2009-05-17T07:57:05Z</time>
      </trkpt>
      <trkpt lat="45.67817" lon="3.59561">
        <ele>622.59106445312</ele>
        <time>2009-05-17T07:57:11Z</time>
      </trkpt>
      <trkpt lat="45.67808" lon="3.59551">
        <ele>624.03295898438</ele>
        <time>2009-05-17T07:57:19Z</time>
      </trkpt>
      <trkpt lat="45.67805" lon="3.59542">
        <ele>624.99438476562</ele>
        <time>2009-05-17T07:57:23Z</time>
      </trkpt>
      <trkpt lat="45.67801" lon="3.59522">
        <ele>626.9169921875</ele>
        <time>2009-05-17T07:57:32Z</time>
      </trkpt>
      <trkpt lat="45.67794" lon="3.59503">
        <ele>628.35888671875</ele>
        <time>2009-05-17T07:57:40Z</time>
      </trkpt>
      <trkpt lat="45.67787" lon="3.59488">
        <ele>629.80078125</ele>
        <time>2009-05-17T07:57:47Z</time>
      </trkpt>
      <trkpt lat="45.67777" lon="3.59474">
        <ele>631.24291992188</ele>
        <time>2009-05-17T07:57:55Z</time>
      </trkpt>
      <trkpt lat="45.67765" lon="3.5946">
        <ele>634.12670898438</ele>
        <time>2009-05-17T07:58:04Z</time>
      </trkpt>
      <trkpt lat="45.67751" lon="3.59452">
        <ele>635.08813476562</ele>
        <time>2009-05-17T07:58:12Z</time>
      </trkpt>
      <trkpt lat="45.6774" lon="3.59454">
        <ele>636.04956054688</ele>
        <time>2009-05-17T07:58:18Z</time>
      </trkpt>
      <trkpt lat="45.67727" lon="3.59452">
        <ele>638.45288085938</ele>
        <time>2009-05-17T07:58:26Z</time>
      </trkpt>
      <trkpt lat="45.67715" lon="3.59447">
        <ele>639.4140625</ele>
        <time>2009-05-17T07:58:32Z</time>
      </trkpt>
      <trkpt lat="45.67702" lon="3.59439">
        <ele>640.37548828125</ele>
        <time>2009-05-17T07:58:38Z</time>
      </trkpt>
      <trkpt lat="45.67682" lon="3.59424">
        <ele>640.85595703125</ele>
        <time>2009-05-17T07:58:45Z</time>
      </trkpt>
      <trkpt lat="45.67651" lon="3.59402">
        <ele>641.33666992188</ele>
        <time>2009-05-17T07:58:54Z</time>
      </trkpt>
      <trkpt lat="45.67628" lon="3.59386">
        <ele>642.77880859375</ele>
        <time>2009-05-17T07:59:01Z</time>
      </trkpt>
      <trkpt lat="45.67607" lon="3.59371">
        <ele>644.701171875</ele>
        <time>2009-05-17T07:59:08Z</time>
      </trkpt>
      <trkpt lat="45.67589" lon="3.59359">
        <ele>645.66259765625</ele>
        <time>2009-05-17T07:59:14Z</time>
      </trkpt>
      <trkpt lat="45.6758" lon="3.59339">
        <ele>645.66259765625</ele>
        <time>2009-05-17T07:59:19Z</time>
      </trkpt>
      <trkpt lat="45.67569" lon="3.59298">
        <ele>645.18188476562</ele>
        <time>2009-05-17T07:59:26Z</time>
      </trkpt>
      <trkpt lat="45.67556" lon="3.59248">
        <ele>644.701171875</ele>
        <time>2009-05-17T07:59:34Z</time>
      </trkpt>
      <trkpt lat="45.67551" lon="3.59228">
        <ele>643.25927734375</ele>
        <time>2009-05-17T07:59:37Z</time>
      </trkpt>
      <trkpt lat="45.6754" lon="3.5918">
        <ele>642.77880859375</ele>
        <time>2009-05-17T07:59:43Z</time>
      </trkpt>
      <trkpt lat="45.67533" lon="3.59145">
        <ele>642.29809570312</ele>
        <time>2009-05-17T07:59:47Z</time>
      </trkpt>
      <trkpt lat="45.67529" lon="3.59128">
        <ele>641.33666992188</ele>
        <time>2009-05-17T07:59:49Z</time>
      </trkpt>
      <trkpt lat="45.67527" lon="3.5911">
        <ele>640.37548828125</ele>
        <time>2009-05-17T07:59:51Z</time>
      </trkpt>
      <trkpt lat="45.67521" lon="3.5907">
        <ele>638.93359375</ele>
        <time>2009-05-17T07:59:55Z</time>
      </trkpt>
      <trkpt lat="45.67521" lon="3.59047">
        <ele>637.97216796875</ele>
        <time>2009-05-17T07:59:57Z</time>
      </trkpt>
      <trkpt lat="45.67521" lon="3.59036">
        <ele>637.0107421875</ele>
        <time>2009-05-17T07:59:58Z</time>
      </trkpt>
      <trkpt lat="45.67521" lon="3.59012">
        <ele>636.04956054688</ele>
        <time>2009-05-17T08:00:00Z</time>
      </trkpt>
      <trkpt lat="45.67522" lon="3.59">
        <ele>636.04956054688</ele>
        <time>2009-05-17T08:00:01Z</time>
      </trkpt>
      <trkpt lat="45.67527" lon="3.58949">
        <ele>632.2041015625</ele>
        <time>2009-05-17T08:00:05Z</time>
      </trkpt>
      <trkpt lat="45.67529" lon="3.58936">
        <ele>630.28149414062</ele>
        <time>2009-05-17T08:00:06Z</time>
      </trkpt>
      <trkpt lat="45.67535" lon="3.58907">
        <ele>627.39770507812</ele>
        <time>2009-05-17T08:00:08Z</time>
      </trkpt>
      <trkpt lat="45.6754" lon="3.58893">
        <ele>625.47485351562</ele>
        <time>2009-05-17T08:00:09Z</time>
      </trkpt>
      <trkpt lat="45.67545" lon="3.58879">
        <ele>620.66845703125</ele>
        <time>2009-05-17T08:00:10Z</time>
      </trkpt>
      <trkpt lat="45.67567" lon="3.58838">
        <ele>614.900390625</ele>
        <time>2009-05-17T08:00:14Z</time>
      </trkpt>
      <trkpt lat="45.67584" lon="3.58819">
        <ele>612.97778320312</ele>
        <time>2009-05-17T08:00:17Z</time>
      </trkpt>
      <trkpt lat="45.676" lon="3.58798">
        <ele>609.61328125</ele>
        <time>2009-05-17T08:00:20Z</time>
      </trkpt>
      <trkpt lat="45.67605" lon="3.5879">
        <ele>608.65185546875</ele>
        <time>2009-05-17T08:00:21Z</time>
      </trkpt>
      <trkpt lat="45.67613" lon="3.58758">
        <ele>607.2099609375</ele>
        <time>2009-05-17T08:00:24Z</time>
      </trkpt>
      <trkpt lat="45.67612" lon="3.58745">
        <ele>606.24853515625</ele>
        <time>2009-05-17T08:00:25Z</time>
      </trkpt>
      <trkpt lat="45.67612" lon="3.58709">
        <ele>603.84521484375</ele>
        <time>2009-05-17T08:00:28Z</time>
      </trkpt>
      <trkpt lat="45.6761" lon="3.58667">
        <ele>600.48071289062</ele>
        <time>2009-05-17T08:00:32Z</time>
      </trkpt>
      <trkpt lat="45.67609" lon="3.58657">
        <ele>599.51928710938</ele>
        <time>2009-05-17T08:00:33Z</time>
      </trkpt>
      <trkpt lat="45.67598" lon="3.58613">
        <ele>594.71264648438</ele>
        <time>2009-05-17T08:00:37Z</time>
      </trkpt>
      <trkpt lat="45.67587" lon="3.58579">
        <ele>590.86743164062</ele>
        <time>2009-05-17T08:00:40Z</time>
      </trkpt>
      <trkpt lat="45.67581" lon="3.58556">
        <ele>587.9833984375</ele>
        <time>2009-05-17T08:00:42Z</time>
      </trkpt>
      <trkpt lat="45.67569" lon="3.58529">
        <ele>584.13818359375</ele>
        <time>2009-05-17T08:00:45Z</time>
      </trkpt>
      <trkpt lat="45.67564" lon="3.58522">
        <ele>583.65747070312</ele>
        <time>2009-05-17T08:00:46Z</time>
      </trkpt>
      <trkpt lat="45.6755" lon="3.58504">
        <ele>579.81225585938</ele>
        <time>2009-05-17T08:00:49Z</time>
      </trkpt>
      <trkpt lat="45.67542" lon="3.58492">
        <ele>577.4091796875</ele>
        <time>2009-05-17T08:00:51Z</time>
      </trkpt>
      <trkpt lat="45.67539" lon="3.58485">
        <ele>575.96704101562</ele>
        <time>2009-05-17T08:00:52Z</time>
      </trkpt>
      <trkpt lat="45.67526" lon="3.5846">
        <ele>572.12182617188</ele>
        <time>2009-05-17T08:00:56Z</time>
      </trkpt>
      <trkpt lat="45.67516" lon="3.58446">
        <ele>569.23779296875</ele>
        <time>2009-05-17T08:00:58Z</time>
      </trkpt>
      <trkpt lat="45.67505" lon="3.58427">
        <ele>564.43115234375</ele>
        <time>2009-05-17T08:01:01Z</time>
      </trkpt>
      <trkpt lat="45.67498" lon="3.58417">
        <ele>563.46997070312</ele>
        <time>2009-05-17T08:01:03Z</time>
      </trkpt>
      <trkpt lat="45.67492" lon="3.5841">
        <ele>562.50854492188</ele>
        <time>2009-05-17T08:01:05Z</time>
      </trkpt>
      <trkpt lat="45.67469" lon="3.58403">
        <ele>557.7021484375</ele>
        <time>2009-05-17T08:01:10Z</time>
      </trkpt>
      <trkpt lat="45.67454" lon="3.58399">
        <ele>553.85668945312</ele>
        <time>2009-05-17T08:01:13Z</time>
      </trkpt>
      <trkpt lat="45.67443" lon="3.58396">
        <ele>551.45336914062</ele>
        <time>2009-05-17T08:01:15Z</time>
      </trkpt>
      <trkpt lat="45.67412" lon="3.58397">
        <ele>546.64685058594</ele>
        <time>2009-05-17T08:01:20Z</time>
      </trkpt>
      <trkpt lat="45.67394" lon="3.584">
        <ele>543.28210449219</ele>
        <time>2009-05-17T08:01:23Z</time>
      </trkpt>
      <trkpt lat="45.67386" lon="3.58401">
        <ele>541.35949707031</ele>
        <time>2009-05-17T08:01:25Z</time>
      </trkpt>
      <trkpt lat="45.67382" lon="3.58389">
        <ele>538.47570800781</ele>
        <time>2009-05-17T08:01:29Z</time>
      </trkpt>
      <trkpt lat="45.6739" lon="3.58371">
        <ele>535.11096191406</ele>
        <time>2009-05-17T08:01:32Z</time>
      </trkpt>
      <trkpt lat="45.67394" lon="3.58365">
        <ele>533.6689453125</ele>
        <time>2009-05-17T08:01:33Z</time>
      </trkpt>
      <trkpt lat="45.67408" lon="3.58346">
        <ele>528.86254882812</ele>
        <time>2009-05-17T08:01:37Z</time>
      </trkpt>
      <trkpt lat="45.67413" lon="3.58332">
        <ele>526.93981933594</ele>
        <time>2009-05-17T08:01:40Z</time>
      </trkpt>
      <trkpt lat="45.67414" lon="3.58316">
        <ele>526.45910644531</ele>
        <time>2009-05-17T08:01:45Z</time>
      </trkpt>
      <trkpt lat="45.67414" lon="3.58298">
        <ele>527.42041015625</ele>
        <time>2009-05-17T08:01:52Z</time>
      </trkpt>
      <trkpt lat="45.67413" lon="3.58292">
        <ele>528.86254882812</ele>
        <time>2009-05-17T08:01:55Z</time>
      </trkpt>
      <trkpt lat="45.67412" lon="3.58283">
        <ele>529.34313964844</ele>
        <time>2009-05-17T08:02:00Z</time>
      </trkpt>
      <trkpt lat="45.67412" lon="3.58275">
        <ele>529.82373046875</ele>
        <time>2009-05-17T08:02:04Z</time>
      </trkpt>
      <trkpt lat="45.67411" lon="3.58266">
        <ele>530.78515625</ele>
        <time>2009-05-17T08:02:09Z</time>
      </trkpt>
      <trkpt lat="45.67411" lon="3.58258">
        <ele>531.74633789062</ele>
        <time>2009-05-17T08:02:14Z</time>
      </trkpt>
      <trkpt lat="45.67411" lon="3.5825">
        <ele>532.22705078125</ele>
        <time>2009-05-17T08:02:19Z</time>
      </trkpt>
      <trkpt lat="45.67411" lon="3.58243">
        <ele>533.6689453125</ele>
        <time>2009-05-17T08:02:24Z</time>
      </trkpt>
      <trkpt lat="45.67411" lon="3.58235">
        <ele>535.11096191406</ele>
        <time>2009-05-17T08:02:30Z</time>
      </trkpt>
      <trkpt lat="45.67411" lon="3.58231">
        <ele>536.55310058594</ele>
        <time>2009-05-17T08:02:36Z</time>
      </trkpt>
      <trkpt lat="45.6741" lon="3.58227">
        <ele>537.51428222656</ele>
        <time>2009-05-17T08:02:42Z</time>
      </trkpt>
      <trkpt lat="45.67409" lon="3.58222">
        <ele>538.95629882812</ele>
        <time>2009-05-17T08:02:48Z</time>
      </trkpt>
      <trkpt lat="45.67407" lon="3.58215">
        <ele>539.91760253906</ele>
        <time>2009-05-17T08:02:55Z</time>
      </trkpt>
      <trkpt lat="45.67404" lon="3.58208">
        <ele>541.84020996094</ele>
        <time>2009-05-17T08:03:04Z</time>
      </trkpt>
      <trkpt lat="45.67402" lon="3.58197">
        <ele>543.76281738281</ele>
        <time>2009-05-17T08:03:12Z</time>
      </trkpt>
      <trkpt lat="45.674" lon="3.58194">
        <ele>544.72424316406</ele>
        <time>2009-05-17T08:03:18Z</time>
      </trkpt>
      <trkpt lat="45.67397" lon="3.58191">
        <ele>546.16625976562</ele>
        <time>2009-05-17T08:03:27Z</time>
      </trkpt>
      <trkpt lat="45.67396" lon="3.58184">
        <ele>547.12744140625</ele>
        <time>2009-05-17T08:03:35Z</time>
      </trkpt>
      <trkpt lat="45.67395" lon="3.58179">
        <ele>549.05004882812</ele>
        <time>2009-05-17T08:03:42Z</time>
      </trkpt>
      <trkpt lat="45.67397" lon="3.58172">
        <ele>550.97265625</ele>
        <time>2009-05-17T08:03:53Z</time>
      </trkpt>
      <trkpt lat="45.674" lon="3.58169">
        <ele>552.41455078125</ele>
        <time>2009-05-17T08:04:00Z</time>
      </trkpt>
      <trkpt lat="45.67404" lon="3.58165">
        <ele>553.85668945312</ele>
        <time>2009-05-17T08:04:09Z</time>
      </trkpt>
      <trkpt lat="45.67409" lon="3.5816">
        <ele>555.779296875</ele>
        <time>2009-05-17T08:04:16Z</time>
      </trkpt>
      <trkpt lat="45.67412" lon="3.58157">
        <ele>557.22143554688</ele>
        <time>2009-05-17T08:04:22Z</time>
      </trkpt>
      <trkpt lat="45.67416" lon="3.58153">
        <ele>559.14404296875</ele>
        <time>2009-05-17T08:04:29Z</time>
      </trkpt>
      <trkpt lat="45.6742" lon="3.58149">
        <ele>560.10522460938</ele>
        <time>2009-05-17T08:04:37Z</time>
      </trkpt>
      <trkpt lat="45.67425" lon="3.58143">
        <ele>561.54736328125</ele>
        <time>2009-05-17T08:04:45Z</time>
      </trkpt>
      <trkpt lat="45.67431" lon="3.58136">
        <ele>563.95043945312</ele>
        <time>2009-05-17T08:04:53Z</time>
      </trkpt>
      <trkpt lat="45.67432" lon="3.58135">
        <ele>564.43115234375</ele>
        <time>2009-05-17T08:04:54Z</time>
      </trkpt>
      <trkpt lat="45.67438" lon="3.58126">
        <ele>565.87329101562</ele>
        <time>2009-05-17T08:05:01Z</time>
      </trkpt>
      <trkpt lat="45.67445" lon="3.58119">
        <ele>567.79565429688</ele>
        <time>2009-05-17T08:05:10Z</time>
      </trkpt>
      <trkpt lat="45.67449" lon="3.58114">
        <ele>568.2763671875</ele>
        <time>2009-05-17T08:05:15Z</time>
      </trkpt>
      <trkpt lat="45.67453" lon="3.5811">
        <ele>569.71850585938</ele>
        <time>2009-05-17T08:05:21Z</time>
      </trkpt>
      <trkpt lat="45.67458" lon="3.58104">
        <ele>571.64086914062</ele>
        <time>2009-05-17T08:05:28Z</time>
      </trkpt>
      <trkpt lat="45.67463" lon="3.58101">
        <ele>573.08325195312</ele>
        <time>2009-05-17T08:05:36Z</time>
      </trkpt>
      <trkpt lat="45.67467" lon="3.58094">
        <ele>573.08325195312</ele>
        <time>2009-05-17T08:05:44Z</time>
      </trkpt>
      <trkpt lat="45.67472" lon="3.58089">
        <ele>574.52514648438</ele>
        <time>2009-05-17T08:05:49Z</time>
      </trkpt>
      <trkpt lat="45.6748" lon="3.58082">
        <ele>575.486328125</ele>
        <time>2009-05-17T08:05:56Z</time>
      </trkpt>
      <trkpt lat="45.67486" lon="3.58074">
        <ele>576.92846679688</ele>
        <time>2009-05-17T08:06:02Z</time>
      </trkpt>
      <trkpt lat="45.67498" lon="3.58068">
        <ele>578.37036132812</ele>
        <time>2009-05-17T08:06:10Z</time>
      </trkpt>
      <trkpt lat="45.67502" lon="3.58069">
        <ele>579.33154296875</ele>
        <time>2009-05-17T08:06:13Z</time>
      </trkpt>
      <trkpt lat="45.67504" lon="3.58067">
        <ele>579.81225585938</ele>
        <time>2009-05-17T08:06:15Z</time>
      </trkpt>
      <trkpt lat="45.67513" lon="3.58064">
        <ele>581.25439453125</ele>
        <time>2009-05-17T08:06:23Z</time>
      </trkpt>
      <trkpt lat="45.67514" lon="3.58064">
        <ele>581.73486328125</ele>
        <time>2009-05-17T08:06:24Z</time>
      </trkpt>
      <trkpt lat="45.67522" lon="3.58062">
        <ele>582.21557617188</ele>
        <time>2009-05-17T08:06:31Z</time>
      </trkpt>
      <trkpt lat="45.67525" lon="3.58063">
        <ele>582.6962890625</ele>
        <time>2009-05-17T08:06:33Z</time>
      </trkpt>
      <trkpt lat="45.67527" lon="3.58062">
        <ele>582.6962890625</ele>
        <time>2009-05-17T08:06:35Z</time>
      </trkpt>
      <trkpt lat="45.6754" lon="3.58056">
        <ele>585.099609375</ele>
        <time>2009-05-17T08:06:45Z</time>
      </trkpt>
      <trkpt lat="45.67557" lon="3.58052">
        <ele>587.02197265625</ele>
        <time>2009-05-17T08:06:56Z</time>
      </trkpt>
      <trkpt lat="45.67572" lon="3.58048">
        <ele>587.9833984375</ele>
        <time>2009-05-17T08:07:06Z</time>
      </trkpt>
      <trkpt lat="45.67583" lon="3.58044">
        <ele>589.42553710938</ele>
        <time>2009-05-17T08:07:14Z</time>
      </trkpt>
      <trkpt lat="45.67594" lon="3.5804">
        <ele>591.82885742188</ele>
        <time>2009-05-17T08:07:23Z</time>
      </trkpt>
      <trkpt lat="45.67597" lon="3.58038">
        <ele>592.79028320312</ele>
        <time>2009-05-17T08:07:26Z</time>
      </trkpt>
      <trkpt lat="45.67604" lon="3.5803">
        <ele>594.71264648438</ele>
        <time>2009-05-17T08:07:35Z</time>
      </trkpt>
      <trkpt lat="45.67609" lon="3.58027">
        <ele>595.193359375</ele>
        <time>2009-05-17T08:07:39Z</time>
      </trkpt>
      <trkpt lat="45.67614" lon="3.5802">
        <ele>597.11596679688</ele>
        <time>2009-05-17T08:07:46Z</time>
      </trkpt>
      <trkpt lat="45.67619" lon="3.58014">
        <ele>598.55786132812</ele>
        <time>2009-05-17T08:07:52Z</time>
      </trkpt>
      <trkpt lat="45.67616" lon="3.58005">
        <ele>599.51928710938</ele>
        <time>2009-05-17T08:07:57Z</time>
      </trkpt>
      <trkpt lat="45.67612" lon="3.57999">
        <ele>600</ele>
        <time>2009-05-17T08:08:00Z</time>
      </trkpt>
      <trkpt lat="45.67597" lon="3.57981">
        <ele>601.92260742188</ele>
        <time>2009-05-17T08:08:10Z</time>
      </trkpt>
      <trkpt lat="45.67583" lon="3.57965">
        <ele>602.40307617188</ele>
        <time>2009-05-17T08:08:19Z</time>
      </trkpt>
      <trkpt lat="45.67568" lon="3.57952">
        <ele>604.806640625</ele>
        <time>2009-05-17T08:08:28Z</time>
      </trkpt>
      <trkpt lat="45.67557" lon="3.57942">
        <ele>607.2099609375</ele>
        <time>2009-05-17T08:08:35Z</time>
      </trkpt>
      <trkpt lat="45.67551" lon="3.57923">
        <ele>607.69067382812</ele>
        <time>2009-05-17T08:08:42Z</time>
      </trkpt>
      <trkpt lat="45.67543" lon="3.57904">
        <ele>608.17138671875</ele>
        <time>2009-05-17T08:08:49Z</time>
      </trkpt>
      <trkpt lat="45.67532" lon="3.57902">
        <ele>608.65185546875</ele>
        <time>2009-05-17T08:08:54Z</time>
      </trkpt>
      <trkpt lat="45.6751" lon="3.57907">
        <ele>609.61328125</ele>
        <time>2009-05-17T08:09:02Z</time>
      </trkpt>
      <trkpt lat="45.67477" lon="3.5791">
        <ele>611.05517578125</ele>
        <time>2009-05-17T08:09:13Z</time>
      </trkpt>
      <trkpt lat="45.67456" lon="3.57913">
        <ele>612.0166015625</ele>
        <time>2009-05-17T08:09:20Z</time>
      </trkpt>
      <trkpt lat="45.67427" lon="3.57916">
        <ele>613.45849609375</ele>
        <time>2009-05-17T08:09:29Z</time>
      </trkpt>
      <trkpt lat="45.67398" lon="3.57914">
        <ele>614.900390625</ele>
        <time>2009-05-17T08:09:38Z</time>
      </trkpt>
      <trkpt lat="45.67369" lon="3.57908">
        <ele>615.86181640625</ele>
        <time>2009-05-17T08:09:47Z</time>
      </trkpt>
      <trkpt lat="45.6734" lon="3.57901">
        <ele>617.7841796875</ele>
        <time>2009-05-17T08:09:57Z</time>
      </trkpt>
      <trkpt lat="45.67326" lon="3.57898">
        <ele>619.70703125</ele>
        <time>2009-05-17T08:10:02Z</time>
      </trkpt>
      <trkpt lat="45.67303" lon="3.57895">
        <ele>620.18774414062</ele>
        <time>2009-05-17T08:10:11Z</time>
      </trkpt>
      <trkpt lat="45.67283" lon="3.57889">
        <ele>622.1103515625</ele>
        <time>2009-05-17T08:10:19Z</time>
      </trkpt>
      <trkpt lat="45.67268" lon="3.57885">
        <ele>623.07177734375</ele>
        <time>2009-05-17T08:10:25Z</time>
      </trkpt>
      <trkpt lat="45.67265" lon="3.57872">
        <ele>624.03295898438</ele>
        <time>2009-05-17T08:10:30Z</time>
      </trkpt>
      <trkpt lat="45.67267" lon="3.57862">
        <ele>624.513671875</ele>
        <time>2009-05-17T08:10:33Z</time>
      </trkpt>
      <trkpt lat="45.67274" lon="3.57841">
        <ele>625.95556640625</ele>
        <time>2009-05-17T08:10:40Z</time>
      </trkpt>
      <trkpt lat="45.67284" lon="3.57813">
        <ele>627.39770507812</ele>
        <time>2009-05-17T08:10:48Z</time>
      </trkpt>
      <trkpt lat="45.67294" lon="3.57776">
        <ele>627.39770507812</ele>
        <time>2009-05-17T08:10:57Z</time>
      </trkpt>
      <trkpt lat="45.67297" lon="3.5775">
        <ele>626.9169921875</ele>
        <time>2009-05-17T08:11:03Z</time>
      </trkpt>
      <trkpt lat="45.6729" lon="3.57714">
        <ele>627.87817382812</ele>
        <time>2009-05-17T08:11:10Z</time>
      </trkpt>
      <trkpt lat="45.6729" lon="3.57704">
        <ele>628.83959960938</ele>
        <time>2009-05-17T08:11:12Z</time>
      </trkpt>
      <trkpt lat="45.67286" lon="3.57681">
        <ele>628.83959960938</ele>
        <time>2009-05-17T08:11:17Z</time>
      </trkpt>
      <trkpt lat="45.67272" lon="3.57664">
        <ele>630.28149414062</ele>
        <time>2009-05-17T08:11:23Z</time>
      </trkpt>
      <trkpt lat="45.67257" lon="3.57649">
        <ele>631.24291992188</ele>
        <time>2009-05-17T08:11:30Z</time>
      </trkpt>
      <trkpt lat="45.67245" lon="3.57636">
        <ele>633.16528320312</ele>
        <time>2009-05-17T08:11:36Z</time>
      </trkpt>
      <trkpt lat="45.67239" lon="3.57618">
        <ele>633.64599609375</ele>
        <time>2009-05-17T08:11:42Z</time>
      </trkpt>
      <trkpt lat="45.67237" lon="3.57615">
        <ele>633.64599609375</ele>
        <time>2009-05-17T08:11:43Z</time>
      </trkpt>
      <trkpt lat="45.67233" lon="3.57612">
        <ele>633.64599609375</ele>
        <time>2009-05-17T08:11:46Z</time>
      </trkpt>
      <trkpt lat="45.67232" lon="3.57606">
        <ele>633.64599609375</ele>
        <time>2009-05-17T08:11:49Z</time>
      </trkpt>
      <trkpt lat="45.67236" lon="3.57602">
        <ele>633.64599609375</ele>
        <time>2009-05-17T08:11:53Z</time>
      </trkpt>
      <trkpt lat="45.67241" lon="3.57593">
        <ele>633.64599609375</ele>
        <time>2009-05-17T08:11:57Z</time>
      </trkpt>
      <trkpt lat="45.67246" lon="3.5759">
        <ele>633.64599609375</ele>
        <time>2009-05-17T08:12:00Z</time>
      </trkpt>
      <trkpt lat="45.67261" lon="3.57577">
        <ele>633.16528320312</ele>
        <time>2009-05-17T08:12:07Z</time>
      </trkpt>
      <trkpt lat="45.67268" lon="3.5757">
        <ele>632.68481445312</ele>
        <time>2009-05-17T08:12:10Z</time>
      </trkpt>
      <trkpt lat="45.67286" lon="3.57549">
        <ele>633.16528320312</ele>
        <time>2009-05-17T08:12:16Z</time>
      </trkpt>
      <trkpt lat="45.67296" lon="3.57529">
        <ele>632.2041015625</ele>
        <time>2009-05-17T08:12:21Z</time>
      </trkpt>
      <trkpt lat="45.67297" lon="3.57515">
        <ele>632.2041015625</ele>
        <time>2009-05-17T08:12:24Z</time>
      </trkpt>
      <trkpt lat="45.67295" lon="3.57488">
        <ele>629.80078125</ele>
        <time>2009-05-17T08:12:29Z</time>
      </trkpt>
      <trkpt lat="45.67282" lon="3.57484">
        <ele>629.32006835938</ele>
        <time>2009-05-17T08:12:33Z</time>
      </trkpt>
      <trkpt lat="45.67247" lon="3.57474">
        <ele>626.43627929688</ele>
        <time>2009-05-17T08:12:40Z</time>
      </trkpt>
      <trkpt lat="45.67227" lon="3.57469">
        <ele>624.513671875</ele>
        <time>2009-05-17T08:12:43Z</time>
      </trkpt>
      <trkpt lat="45.67219" lon="3.57467">
        <ele>624.03295898438</ele>
        <time>2009-05-17T08:12:44Z</time>
      </trkpt>
      <trkpt lat="45.67212" lon="3.57465">
        <ele>623.07177734375</ele>
        <time>2009-05-17T08:12:45Z</time>
      </trkpt>
      <trkpt lat="45.67187" lon="3.57464">
        <ele>619.70703125</ele>
        <time>2009-05-17T08:12:48Z</time>
      </trkpt>
      <trkpt lat="45.67178" lon="3.57463">
        <ele>618.26489257812</ele>
        <time>2009-05-17T08:12:49Z</time>
      </trkpt>
      <trkpt lat="45.67132" lon="3.57445">
        <ele>612.97778320312</ele>
        <time>2009-05-17T08:12:54Z</time>
      </trkpt>
      <trkpt lat="45.67113" lon="3.57435">
        <ele>610.09375</ele>
        <time>2009-05-17T08:12:56Z</time>
      </trkpt>
      <trkpt lat="45.67103" lon="3.5743">
        <ele>609.13256835938</ele>
        <time>2009-05-17T08:12:57Z</time>
      </trkpt>
      <trkpt lat="45.67061" lon="3.5741">
        <ele>604.326171875</ele>
        <time>2009-05-17T08:13:01Z</time>
      </trkpt>
      <trkpt lat="45.6704" lon="3.57399">
        <ele>602.40307617188</ele>
        <time>2009-05-17T08:13:03Z</time>
      </trkpt>
      <trkpt lat="45.6701" lon="3.57384">
        <ele>600.96118164062</ele>
        <time>2009-05-17T08:13:06Z</time>
      </trkpt>
      <trkpt lat="45.66983" lon="3.57371">
        <ele>600.48071289062</ele>
        <time>2009-05-17T08:13:09Z</time>
      </trkpt>
      <trkpt lat="45.66954" lon="3.57345">
        <ele>600</ele>
        <time>2009-05-17T08:13:13Z</time>
      </trkpt>
      <trkpt lat="45.66943" lon="3.57322">
        <ele>600.48071289062</ele>
        <time>2009-05-17T08:13:16Z</time>
      </trkpt>
      <trkpt lat="45.66941" lon="3.573">
        <ele>601.44189453125</ele>
        <time>2009-05-17T08:13:19Z</time>
      </trkpt>
      <trkpt lat="45.66943" lon="3.57281">
        <ele>603.36450195312</ele>
        <time>2009-05-17T08:13:23Z</time>
      </trkpt>
      <trkpt lat="45.66944" lon="3.57274">
        <ele>603.84521484375</ele>
        <time>2009-05-17T08:13:25Z</time>
      </trkpt>
      <trkpt lat="45.66946" lon="3.57263">
        <ele>604.806640625</ele>
        <time>2009-05-17T08:13:28Z</time>
      </trkpt>
      <trkpt lat="45.66946" lon="3.5726">
        <ele>604.806640625</ele>
        <time>2009-05-17T08:13:29Z</time>
      </trkpt>
      <trkpt lat="45.66948" lon="3.57247">
        <ele>606.24853515625</ele>
        <time>2009-05-17T08:13:33Z</time>
      </trkpt>
      <trkpt lat="45.66949" lon="3.5724">
        <ele>607.2099609375</ele>
        <time>2009-05-17T08:13:35Z</time>
      </trkpt>
      <trkpt lat="45.66949" lon="3.57234">
        <ele>608.65185546875</ele>
        <time>2009-05-17T08:13:37Z</time>
      </trkpt>
      <trkpt lat="45.66949" lon="3.5723">
        <ele>608.17138671875</ele>
        <time>2009-05-17T08:13:38Z</time>
      </trkpt>
      <trkpt lat="45.66951" lon="3.57225">
        <ele>609.13256835938</ele>
        <time>2009-05-17T08:13:40Z</time>
      </trkpt>
      <trkpt lat="45.66952" lon="3.57222">
        <ele>609.61328125</ele>
        <time>2009-05-17T08:13:41Z</time>
      </trkpt>
      <trkpt lat="45.66952" lon="3.57213">
        <ele>610.57446289062</ele>
        <time>2009-05-17T08:13:44Z</time>
      </trkpt>
      <trkpt lat="45.66953" lon="3.57199">
        <ele>611.53588867188</ele>
        <time>2009-05-17T08:13:49Z</time>
      </trkpt>
      <trkpt lat="45.66955" lon="3.57189">
        <ele>612.0166015625</ele>
        <time>2009-05-17T08:13:53Z</time>
      </trkpt>
      <trkpt lat="45.66955" lon="3.57184">
        <ele>612.4970703125</ele>
        <time>2009-05-17T08:13:55Z</time>
      </trkpt>
      <trkpt lat="45.66956" lon="3.57173">
        <ele>613.45849609375</ele>
        <time>2009-05-17T08:13:59Z</time>
      </trkpt>
      <trkpt lat="45.66959" lon="3.57146">
        <ele>615.38110351562</ele>
        <time>2009-05-17T08:14:09Z</time>
      </trkpt>
      <trkpt lat="45.6696" lon="3.57118">
        <ele>617.7841796875</ele>
        <time>2009-05-17T08:14:19Z</time>
      </trkpt>
      <trkpt lat="45.66961" lon="3.57093">
        <ele>618.26489257812</ele>
        <time>2009-05-17T08:14:28Z</time>
      </trkpt>
      <trkpt lat="45.66963" lon="3.57065">
        <ele>621.14916992188</ele>
        <time>2009-05-17T08:14:38Z</time>
      </trkpt>
      <trkpt lat="45.66967" lon="3.57039">
        <ele>620.18774414062</ele>
        <time>2009-05-17T08:14:45Z</time>
      </trkpt>
      <trkpt lat="45.6697" lon="3.5702">
        <ele>618.26489257812</ele>
        <time>2009-05-17T08:14:48Z</time>
      </trkpt>
      <trkpt lat="45.66982" lon="3.5699">
        <ele>614.900390625</ele>
        <time>2009-05-17T08:14:52Z</time>
      </trkpt>
      <trkpt lat="45.67007" lon="3.56952">
        <ele>610.57446289062</ele>
        <time>2009-05-17T08:14:57Z</time>
      </trkpt>
      <trkpt lat="45.67018" lon="3.56937">
        <ele>609.13256835938</ele>
        <time>2009-05-17T08:14:59Z</time>
      </trkpt>
      <trkpt lat="45.67028" lon="3.56921">
        <ele>608.17138671875</ele>
        <time>2009-05-17T08:15:01Z</time>
      </trkpt>
      <trkpt lat="45.67036" lon="3.56904">
        <ele>607.2099609375</ele>
        <time>2009-05-17T08:15:03Z</time>
      </trkpt>
      <trkpt lat="45.67045" lon="3.56887">
        <ele>605.28735351562</ele>
        <time>2009-05-17T08:15:05Z</time>
      </trkpt>
      <trkpt lat="45.67055" lon="3.56859">
        <ele>604.806640625</ele>
        <time>2009-05-17T08:15:08Z</time>
      </trkpt>
      <trkpt lat="45.6706" lon="3.5684">
        <ele>602.40307617188</ele>
        <time>2009-05-17T08:15:10Z</time>
      </trkpt>
      <trkpt lat="45.67068" lon="3.56823">
        <ele>600.96118164062</ele>
        <time>2009-05-17T08:15:12Z</time>
      </trkpt>
      <trkpt lat="45.67076" lon="3.56806">
        <ele>598.55786132812</ele>
        <time>2009-05-17T08:15:14Z</time>
      </trkpt>
      <trkpt lat="45.6708" lon="3.56797">
        <ele>598.07739257812</ele>
        <time>2009-05-17T08:15:15Z</time>
      </trkpt>
      <trkpt lat="45.67086" lon="3.56789">
        <ele>597.11596679688</ele>
        <time>2009-05-17T08:15:16Z</time>
      </trkpt>
      <trkpt lat="45.67104" lon="3.56767">
        <ele>592.79028320312</ele>
        <time>2009-05-17T08:15:19Z</time>
      </trkpt>
      <trkpt lat="45.67128" lon="3.56735">
        <ele>589.42553710938</ele>
        <time>2009-05-17T08:15:23Z</time>
      </trkpt>
      <trkpt lat="45.67154" lon="3.56719">
        <ele>589.42553710938</ele>
        <time>2009-05-17T08:15:27Z</time>
      </trkpt>
      <trkpt lat="45.67173" lon="3.5671">
        <ele>589.90625</ele>
        <time>2009-05-17T08:15:31Z</time>
      </trkpt>
      <trkpt lat="45.67181" lon="3.56705">
        <ele>590.38696289062</ele>
        <time>2009-05-17T08:15:33Z</time>
      </trkpt>
      <trkpt lat="45.67187" lon="3.56702">
        <ele>590.86743164062</ele>
        <time>2009-05-17T08:15:35Z</time>
      </trkpt>
      <trkpt lat="45.6719" lon="3.567">
        <ele>591.82885742188</ele>
        <time>2009-05-17T08:15:36Z</time>
      </trkpt>
      <trkpt lat="45.672" lon="3.56695">
        <ele>592.79028320312</ele>
        <time>2009-05-17T08:15:40Z</time>
      </trkpt>
      <trkpt lat="45.67202" lon="3.56693">
        <ele>593.75146484375</ele>
        <time>2009-05-17T08:15:41Z</time>
      </trkpt>
      <trkpt lat="45.67215" lon="3.56689">
        <ele>594.71264648438</ele>
        <time>2009-05-17T08:15:46Z</time>
      </trkpt>
      <trkpt lat="45.67223" lon="3.56687">
        <ele>595.67407226562</ele>
        <time>2009-05-17T08:15:49Z</time>
      </trkpt>
      <trkpt lat="45.67228" lon="3.56686">
        <ele>595.67407226562</ele>
        <time>2009-05-17T08:15:51Z</time>
      </trkpt>
      <trkpt lat="45.67231" lon="3.56685">
        <ele>596.15478515625</ele>
        <time>2009-05-17T08:15:52Z</time>
      </trkpt>
      <trkpt lat="45.67236" lon="3.56683">
        <ele>596.15478515625</ele>
        <time>2009-05-17T08:15:54Z</time>
      </trkpt>
      <trkpt lat="45.67246" lon="3.56678">
        <ele>596.63549804688</ele>
        <time>2009-05-17T08:15:58Z</time>
      </trkpt>
      <trkpt lat="45.67262" lon="3.56666">
        <ele>598.07739257812</ele>
        <time>2009-05-17T08:16:05Z</time>
      </trkpt>
      <trkpt lat="45.67271" lon="3.56651">
        <ele>599.51928710938</ele>
        <time>2009-05-17T08:16:11Z</time>
      </trkpt>
      <trkpt lat="45.67281" lon="3.56633">
        <ele>600.96118164062</ele>
        <time>2009-05-17T08:16:18Z</time>
      </trkpt>
      <trkpt lat="45.67289" lon="3.56612">
        <ele>602.8837890625</ele>
        <time>2009-05-17T08:16:26Z</time>
      </trkpt>
      <trkpt lat="45.67295" lon="3.56593">
        <ele>604.326171875</ele>
        <time>2009-05-17T08:16:33Z</time>
      </trkpt>
      <trkpt lat="45.67301" lon="3.56574">
        <ele>605.28735351562</ele>
        <time>2009-05-17T08:16:40Z</time>
      </trkpt>
      <trkpt lat="45.67312" lon="3.56546">
        <ele>606.24853515625</ele>
        <time>2009-05-17T08:16:50Z</time>
      </trkpt>
      <trkpt lat="45.67324" lon="3.56519">
        <ele>608.65185546875</ele>
        <time>2009-05-17T08:17:00Z</time>
      </trkpt>
      <trkpt lat="45.67333" lon="3.56497">
        <ele>610.57446289062</ele>
        <time>2009-05-17T08:17:08Z</time>
      </trkpt>
      <trkpt lat="45.67347" lon="3.56474">
        <ele>611.53588867188</ele>
        <time>2009-05-17T08:17:18Z</time>
      </trkpt>
      <trkpt lat="45.67363" lon="3.56457">
        <ele>612.97778320312</ele>
        <time>2009-05-17T08:17:27Z</time>
      </trkpt>
      <trkpt lat="45.67377" lon="3.56443">
        <ele>613.93896484375</ele>
        <time>2009-05-17T08:17:35Z</time>
      </trkpt>
      <trkpt lat="45.67382" lon="3.56438">
        <ele>615.86181640625</ele>
        <time>2009-05-17T08:17:38Z</time>
      </trkpt>
      <trkpt lat="45.67395" lon="3.56423">
        <ele>616.82299804688</ele>
        <time>2009-05-17T08:17:47Z</time>
      </trkpt>
      <trkpt lat="45.67409" lon="3.56409">
        <ele>618.74560546875</ele>
        <time>2009-05-17T08:17:56Z</time>
      </trkpt>
      <trkpt lat="45.67422" lon="3.56393">
        <ele>621.62963867188</ele>
        <time>2009-05-17T08:18:05Z</time>
      </trkpt>
      <trkpt lat="45.67426" lon="3.56378">
        <ele>622.59106445312</ele>
        <time>2009-05-17T08:18:11Z</time>
      </trkpt>
      <trkpt lat="45.67424" lon="3.56356">
        <ele>623.55249023438</ele>
        <time>2009-05-17T08:18:19Z</time>
      </trkpt>
      <trkpt lat="45.67421" lon="3.56335">
        <ele>623.55249023438</ele>
        <time>2009-05-17T08:18:26Z</time>
      </trkpt>
      <trkpt lat="45.67419" lon="3.56303">
        <ele>625.47485351562</ele>
        <time>2009-05-17T08:18:34Z</time>
      </trkpt>
      <trkpt lat="45.67419" lon="3.56264">
        <ele>626.9169921875</ele>
        <time>2009-05-17T08:18:42Z</time>
      </trkpt>
      <trkpt lat="45.6742" lon="3.56233">
        <ele>626.9169921875</ele>
        <time>2009-05-17T08:18:49Z</time>
      </trkpt>
      <trkpt lat="45.67423" lon="3.5621">
        <ele>626.43627929688</ele>
        <time>2009-05-17T08:18:54Z</time>
      </trkpt>
      <trkpt lat="45.67427" lon="3.56193">
        <ele>624.99438476562</ele>
        <time>2009-05-17T08:18:57Z</time>
      </trkpt>
      <trkpt lat="45.67429" lon="3.56175">
        <ele>623.55249023438</ele>
        <time>2009-05-17T08:19:00Z</time>
      </trkpt>
      <trkpt lat="45.67435" lon="3.5615">
        <ele>621.14916992188</ele>
        <time>2009-05-17T08:19:04Z</time>
      </trkpt>
      <trkpt lat="45.67441" lon="3.56139">
        <ele>619.70703125</ele>
        <time>2009-05-17T08:19:06Z</time>
      </trkpt>
      <trkpt lat="45.6745" lon="3.5613">
        <ele>617.7841796875</ele>
        <time>2009-05-17T08:19:08Z</time>
      </trkpt>
      <trkpt lat="45.67465" lon="3.56118">
        <ele>613.93896484375</ele>
        <time>2009-05-17T08:19:11Z</time>
      </trkpt>
      <trkpt lat="45.67471" lon="3.56114">
        <ele>612.97778320312</ele>
        <time>2009-05-17T08:19:12Z</time>
      </trkpt>
      <trkpt lat="45.67479" lon="3.56107">
        <ele>612.0166015625</ele>
        <time>2009-05-17T08:19:14Z</time>
      </trkpt>
      <trkpt lat="45.67485" lon="3.56098">
        <ele>609.61328125</ele>
        <time>2009-05-17T08:19:16Z</time>
      </trkpt>
      <trkpt lat="45.67485" lon="3.56083">
        <ele>608.65185546875</ele>
        <time>2009-05-17T08:19:19Z</time>
      </trkpt>
      <trkpt lat="45.6748" lon="3.56061">
        <ele>608.65185546875</ele>
        <time>2009-05-17T08:19:24Z</time>
      </trkpt>
      <trkpt lat="45.67484" lon="3.56049">
        <ele>609.13256835938</ele>
        <time>2009-05-17T08:19:27Z</time>
      </trkpt>
      <trkpt lat="45.67495" lon="3.56029">
        <ele>610.57446289062</ele>
        <time>2009-05-17T08:19:35Z</time>
      </trkpt>
      <trkpt lat="45.67502" lon="3.56017">
        <ele>612.0166015625</ele>
        <time>2009-05-17T08:19:41Z</time>
      </trkpt>
      <trkpt lat="45.67504" lon="3.56013">
        <ele>612.97778320312</ele>
        <time>2009-05-17T08:19:44Z</time>
      </trkpt>
      <trkpt lat="45.67506" lon="3.56008">
        <ele>613.45849609375</ele>
        <time>2009-05-17T08:19:47Z</time>
      </trkpt>
      <trkpt lat="45.67508" lon="3.56003">
        <ele>614.900390625</ele>
        <time>2009-05-17T08:19:50Z</time>
      </trkpt>
      <trkpt lat="45.67509" lon="3.56001">
        <ele>614.900390625</ele>
        <time>2009-05-17T08:19:51Z</time>
      </trkpt>
      <trkpt lat="45.6751" lon="3.55997">
        <ele>614.900390625</ele>
        <time>2009-05-17T08:19:53Z</time>
      </trkpt>
      <trkpt lat="45.67513" lon="3.55979">
        <ele>616.82299804688</ele>
        <time>2009-05-17T08:20:01Z</time>
      </trkpt>
      <trkpt lat="45.67512" lon="3.55966">
        <ele>618.74560546875</ele>
        <time>2009-05-17T08:20:07Z</time>
      </trkpt>
      <trkpt lat="45.67508" lon="3.55951">
        <ele>619.22631835938</ele>
        <time>2009-05-17T08:20:13Z</time>
      </trkpt>
      <trkpt lat="45.67505" lon="3.5593">
        <ele>621.14916992188</ele>
        <time>2009-05-17T08:20:22Z</time>
      </trkpt>
      <trkpt lat="45.67504" lon="3.55926">
        <ele>622.1103515625</ele>
        <time>2009-05-17T08:20:24Z</time>
      </trkpt>
      <trkpt lat="45.67501" lon="3.5591">
        <ele>624.513671875</ele>
        <time>2009-05-17T08:20:31Z</time>
      </trkpt>
      <trkpt lat="45.67501" lon="3.55897">
        <ele>626.43627929688</ele>
        <time>2009-05-17T08:20:38Z</time>
      </trkpt>
      <trkpt lat="45.67507" lon="3.55881">
        <ele>626.43627929688</ele>
        <time>2009-05-17T08:20:45Z</time>
      </trkpt>
      <trkpt lat="45.67519" lon="3.55866">
        <ele>625.95556640625</ele>
        <time>2009-05-17T08:20:51Z</time>
      </trkpt>
      <trkpt lat="45.67521" lon="3.55863">
        <ele>625.95556640625</ele>
        <time>2009-05-17T08:20:52Z</time>
      </trkpt>
      <trkpt lat="45.67518" lon="3.55856">
        <ele>626.9169921875</ele>
        <time>2009-05-17T08:20:56Z</time>
      </trkpt>
      <trkpt lat="45.67516" lon="3.55858">
        <ele>626.9169921875</ele>
        <time>2009-05-17T08:20:57Z</time>
      </trkpt>
      <trkpt lat="45.675" lon="3.55871">
        <ele>627.39770507812</ele>
        <time>2009-05-17T08:21:05Z</time>
      </trkpt>
      <trkpt lat="45.67485" lon="3.55878">
        <ele>628.35888671875</ele>
        <time>2009-05-17T08:21:12Z</time>
      </trkpt>
      <trkpt lat="45.67467" lon="3.55874">
        <ele>628.83959960938</ele>
        <time>2009-05-17T08:21:21Z</time>
      </trkpt>
      <trkpt lat="45.67458" lon="3.55869">
        <ele>631.24291992188</ele>
        <time>2009-05-17T08:21:26Z</time>
      </trkpt>
      <trkpt lat="45.67441" lon="3.55859">
        <ele>633.16528320312</ele>
        <time>2009-05-17T08:21:35Z</time>
      </trkpt>
      <trkpt lat="45.6742" lon="3.55847">
        <ele>634.12670898438</ele>
        <time>2009-05-17T08:21:45Z</time>
      </trkpt>
      <trkpt lat="45.67398" lon="3.55835">
        <ele>635.56860351562</ele>
        <time>2009-05-17T08:21:54Z</time>
      </trkpt>
      <trkpt lat="45.67378" lon="3.55827">
        <ele>636.5302734375</ele>
        <time>2009-05-17T08:22:02Z</time>
      </trkpt>
      <trkpt lat="45.67367" lon="3.55836">
        <ele>637.0107421875</ele>
        <time>2009-05-17T08:22:07Z</time>
      </trkpt>
      <trkpt lat="45.67353" lon="3.55847">
        <ele>637.97216796875</ele>
        <time>2009-05-17T08:22:13Z</time>
      </trkpt>
      <trkpt lat="45.67346" lon="3.55843">
        <ele>638.93359375</ele>
        <time>2009-05-17T08:22:17Z</time>
      </trkpt>
      <trkpt lat="45.67346" lon="3.5584">
        <ele>639.89477539062</ele>
        <time>2009-05-17T08:22:18Z</time>
      </trkpt>
      <trkpt lat="45.67349" lon="3.55814">
        <ele>639.89477539062</ele>
        <time>2009-05-17T08:22:24Z</time>
      </trkpt>
      <trkpt lat="45.67351" lon="3.55779">
        <ele>639.89477539062</ele>
        <time>2009-05-17T08:22:31Z</time>
      </trkpt>
      <trkpt lat="45.67345" lon="3.55736">
        <ele>639.4140625</ele>
        <time>2009-05-17T08:22:38Z</time>
      </trkpt>
      <trkpt lat="45.67342" lon="3.55717">
        <ele>639.89477539062</ele>
        <time>2009-05-17T08:22:41Z</time>
      </trkpt>
      <trkpt lat="45.6734" lon="3.55703">
        <ele>639.89477539062</ele>
        <time>2009-05-17T08:22:43Z</time>
      </trkpt>
      <trkpt lat="45.6734" lon="3.55696">
        <ele>640.37548828125</ele>
        <time>2009-05-17T08:22:44Z</time>
      </trkpt>
      <trkpt lat="45.67342" lon="3.55676">
        <ele>640.37548828125</ele>
        <time>2009-05-17T08:22:47Z</time>
      </trkpt>
      <trkpt lat="45.67355" lon="3.5564">
        <ele>642.29809570312</ele>
        <time>2009-05-17T08:22:54Z</time>
      </trkpt>
      <trkpt lat="45.67367" lon="3.55617">
        <ele>642.77880859375</ele>
        <time>2009-05-17T08:23:00Z</time>
      </trkpt>
      <trkpt lat="45.67374" lon="3.55598">
        <ele>644.701171875</ele>
        <time>2009-05-17T08:23:05Z</time>
      </trkpt>
      <trkpt lat="45.67377" lon="3.55582">
        <ele>644.701171875</ele>
        <time>2009-05-17T08:23:09Z</time>
      </trkpt>
      <trkpt lat="45.67377" lon="3.55551">
        <ele>646.6240234375</ele>
        <time>2009-05-17T08:23:16Z</time>
      </trkpt>
      <trkpt lat="45.67375" lon="3.5551">
        <ele>648.54638671875</ele>
        <time>2009-05-17T08:23:25Z</time>
      </trkpt>
      <trkpt lat="45.67374" lon="3.55479">
        <ele>648.06591796875</ele>
        <time>2009-05-17T08:23:32Z</time>
      </trkpt>
      <trkpt lat="45.67372" lon="3.55451">
        <ele>646.6240234375</ele>
        <time>2009-05-17T08:23:37Z</time>
      </trkpt>
      <trkpt lat="45.67371" lon="3.55402">
        <ele>644.701171875</ele>
        <time>2009-05-17T08:23:43Z</time>
      </trkpt>
      <trkpt lat="45.67371" lon="3.55384">
        <ele>643.73999023438</ele>
        <time>2009-05-17T08:23:45Z</time>
      </trkpt>
      <trkpt lat="45.67366" lon="3.55346">
        <ele>639.4140625</ele>
        <time>2009-05-17T08:23:49Z</time>
      </trkpt>
      <trkpt lat="45.67363" lon="3.55334">
        <ele>638.45288085938</ele>
        <time>2009-05-17T08:23:51Z</time>
      </trkpt>
      <trkpt lat="45.67368" lon="3.55322">
        <ele>637.0107421875</ele>
        <time>2009-05-17T08:23:54Z</time>
      </trkpt>
      <trkpt lat="45.67372" lon="3.55311">
        <ele>635.56860351562</ele>
        <time>2009-05-17T08:23:56Z</time>
      </trkpt>
      <trkpt lat="45.67375" lon="3.55295">
        <ele>633.64599609375</ele>
        <time>2009-05-17T08:23:58Z</time>
      </trkpt>
      <trkpt lat="45.67377" lon="3.55279">
        <ele>630.76220703125</ele>
        <time>2009-05-17T08:24:00Z</time>
      </trkpt>
      <trkpt lat="45.67387" lon="3.55247">
        <ele>625.47485351562</ele>
        <time>2009-05-17T08:24:04Z</time>
      </trkpt>
      <trkpt lat="45.67393" lon="3.55232">
        <ele>622.59106445312</ele>
        <time>2009-05-17T08:24:06Z</time>
      </trkpt>
      <trkpt lat="45.67406" lon="3.552">
        <ele>617.7841796875</ele>
        <time>2009-05-17T08:24:10Z</time>
      </trkpt>
      <trkpt lat="45.67414" lon="3.55181">
        <ele>614.41967773438</ele>
        <time>2009-05-17T08:24:12Z</time>
      </trkpt>
      <trkpt lat="45.67429" lon="3.55155">
        <ele>609.13256835938</ele>
        <time>2009-05-17T08:24:15Z</time>
      </trkpt>
      <trkpt lat="45.6744" lon="3.55139">
        <ele>604.326171875</ele>
        <time>2009-05-17T08:24:17Z</time>
      </trkpt>
      <trkpt lat="45.67456" lon="3.55116">
        <ele>600.48071289062</ele>
        <time>2009-05-17T08:24:20Z</time>
      </trkpt>
      <trkpt lat="45.67462" lon="3.55109">
        <ele>599.03857421875</ele>
        <time>2009-05-17T08:24:21Z</time>
      </trkpt>
      <trkpt lat="45.67474" lon="3.5508">
        <ele>595.67407226562</ele>
        <time>2009-05-17T08:24:25Z</time>
      </trkpt>
      <trkpt lat="45.67483" lon="3.55033">
        <ele>587.9833984375</ele>
        <time>2009-05-17T08:24:30Z</time>
      </trkpt>
      <trkpt lat="45.67484" lon="3.55025">
        <ele>587.50268554688</ele>
        <time>2009-05-17T08:24:31Z</time>
      </trkpt>
      <trkpt lat="45.67489" lon="3.55009">
        <ele>585.099609375</ele>
        <time>2009-05-17T08:24:33Z</time>
      </trkpt>
      <trkpt lat="45.67496" lon="3.54976">
        <ele>580.77368164062</ele>
        <time>2009-05-17T08:24:37Z</time>
      </trkpt>
      <trkpt lat="45.6749" lon="3.54927">
        <ele>577.4091796875</ele>
        <time>2009-05-17T08:24:41Z</time>
      </trkpt>
      <trkpt lat="45.67488" lon="3.54915">
        <ele>575.96704101562</ele>
        <time>2009-05-17T08:24:42Z</time>
      </trkpt>
      <trkpt lat="45.67493" lon="3.54865">
        <ele>573.56396484375</ele>
        <time>2009-05-17T08:24:46Z</time>
      </trkpt>
      <trkpt lat="45.67514" lon="3.54802">
        <ele>572.12182617188</ele>
        <time>2009-05-17T08:24:52Z</time>
      </trkpt>
      <trkpt lat="45.67535" lon="3.54768">
        <ele>571.16040039062</ele>
        <time>2009-05-17T08:24:57Z</time>
      </trkpt>
      <trkpt lat="45.6754" lon="3.54762">
        <ele>571.16040039062</ele>
        <time>2009-05-17T08:24:58Z</time>
      </trkpt>
      <trkpt lat="45.67557" lon="3.54748">
        <ele>569.23779296875</ele>
        <time>2009-05-17T08:25:01Z</time>
      </trkpt>
      <trkpt lat="45.67573" lon="3.5475">
        <ele>567.31518554688</ele>
        <time>2009-05-17T08:25:04Z</time>
      </trkpt>
      <trkpt lat="45.67578" lon="3.54751">
        <ele>567.31518554688</ele>
        <time>2009-05-17T08:25:05Z</time>
      </trkpt>
      <trkpt lat="45.67616" lon="3.54755">
        <ele>565.392578125</ele>
        <time>2009-05-17T08:25:11Z</time>
      </trkpt>
      <trkpt lat="45.67649" lon="3.54739">
        <ele>561.06665039062</ele>
        <time>2009-05-17T08:25:16Z</time>
      </trkpt>
      <trkpt lat="45.67662" lon="3.54717">
        <ele>559.62475585938</ele>
        <time>2009-05-17T08:25:19Z</time>
      </trkpt>
      <trkpt lat="45.67662" lon="3.54701">
        <ele>560.10522460938</ele>
        <time>2009-05-17T08:25:21Z</time>
      </trkpt>
      <trkpt lat="45.67651" lon="3.54677">
        <ele>560.10522460938</ele>
        <time>2009-05-17T08:25:25Z</time>
      </trkpt>
      <trkpt lat="45.67628" lon="3.54643">
        <ele>559.62475585938</ele>
        <time>2009-05-17T08:25:31Z</time>
      </trkpt>
      <trkpt lat="45.676" lon="3.54617">
        <ele>555.779296875</ele>
        <time>2009-05-17T08:25:36Z</time>
      </trkpt>
      <trkpt lat="45.67593" lon="3.54611">
        <ele>555.779296875</ele>
        <time>2009-05-17T08:25:37Z</time>
      </trkpt>
      <trkpt lat="45.67571" lon="3.54592">
        <ele>551.93408203125</ele>
        <time>2009-05-17T08:25:40Z</time>
      </trkpt>
      <trkpt lat="45.67565" lon="3.54586">
        <ele>550.01147460938</ele>
        <time>2009-05-17T08:25:41Z</time>
      </trkpt>
      <trkpt lat="45.67553" lon="3.54557">
        <ele>544.24365234375</ele>
        <time>2009-05-17T08:25:45Z</time>
      </trkpt>
      <trkpt lat="45.67556" lon="3.54535">
        <ele>540.39831542969</ele>
        <time>2009-05-17T08:25:48Z</time>
      </trkpt>
      <trkpt lat="45.6756" lon="3.54519">
        <ele>537.99499511719</ele>
        <time>2009-05-17T08:25:51Z</time>
      </trkpt>
      <trkpt lat="45.67553" lon="3.54512">
        <ele>536.55310058594</ele>
        <time>2009-05-17T08:25:55Z</time>
      </trkpt>
      <trkpt lat="45.67546" lon="3.54516">
        <ele>536.55310058594</ele>
        <time>2009-05-17T08:25:57Z</time>
      </trkpt>
      <trkpt lat="45.67534" lon="3.54524">
        <ele>535.11096191406</ele>
        <time>2009-05-17T08:26:00Z</time>
      </trkpt>
      <trkpt lat="45.67521" lon="3.54534">
        <ele>534.14965820312</ele>
        <time>2009-05-17T08:26:03Z</time>
      </trkpt>
      <trkpt lat="45.67498" lon="3.54538">
        <ele>533.18835449219</ele>
        <time>2009-05-17T08:26:08Z</time>
      </trkpt>
      <trkpt lat="45.67483" lon="3.54526">
        <ele>533.18835449219</ele>
        <time>2009-05-17T08:26:13Z</time>
      </trkpt>
      <trkpt lat="45.67476" lon="3.54517">
        <ele>534.14965820312</ele>
        <time>2009-05-17T08:26:16Z</time>
      </trkpt>
      <trkpt lat="45.67469" lon="3.54504">
        <ele>535.11096191406</ele>
        <time>2009-05-17T08:26:21Z</time>
      </trkpt>
      <trkpt lat="45.67465" lon="3.54497">
        <ele>536.07238769531</ele>
        <time>2009-05-17T08:26:25Z</time>
      </trkpt>
      <trkpt lat="45.67461" lon="3.54492">
        <ele>536.55310058594</ele>
        <time>2009-05-17T08:26:28Z</time>
      </trkpt>
      <trkpt lat="45.67459" lon="3.54489">
        <ele>537.03369140625</ele>
        <time>2009-05-17T08:26:30Z</time>
      </trkpt>
      <trkpt lat="45.67456" lon="3.54489">
        <ele>537.99499511719</ele>
        <time>2009-05-17T08:26:32Z</time>
      </trkpt>
      <trkpt lat="45.67447" lon="3.54492">
        <ele>539.43688964844</ele>
        <time>2009-05-17T08:26:38Z</time>
      </trkpt>
      <trkpt lat="45.67442" lon="3.54497">
        <ele>540.39831542969</ele>
        <time>2009-05-17T08:26:42Z</time>
      </trkpt>
      <trkpt lat="45.67439" lon="3.545">
        <ele>541.35949707031</ele>
        <time>2009-05-17T08:26:46Z</time>
      </trkpt>
      <trkpt lat="45.67438" lon="3.54501">
        <ele>541.84020996094</ele>
        <time>2009-05-17T08:26:47Z</time>
      </trkpt>
      <trkpt lat="45.6743" lon="3.54506">
        <ele>542.32092285156</ele>
        <time>2009-05-17T08:26:53Z</time>
      </trkpt>
      <trkpt lat="45.67421" lon="3.54511">
        <ele>543.28210449219</ele>
        <time>2009-05-17T08:27:00Z</time>
      </trkpt>
      <trkpt lat="45.6741" lon="3.54515">
        <ele>545.685546875</ele>
        <time>2009-05-17T08:27:07Z</time>
      </trkpt>
      <trkpt lat="45.67395" lon="3.54518">
        <ele>547.12744140625</ele>
        <time>2009-05-17T08:27:15Z</time>
      </trkpt>
      <trkpt lat="45.6739" lon="3.54515">
        <ele>547.60815429688</ele>
        <time>2009-05-17T08:27:19Z</time>
      </trkpt>
      <trkpt lat="45.67388" lon="3.54507">
        <ele>549.53076171875</ele>
        <time>2009-05-17T08:27:23Z</time>
      </trkpt>
      <trkpt lat="45.67388" lon="3.54502">
        <ele>550.01147460938</ele>
        <time>2009-05-17T08:27:25Z</time>
      </trkpt>
      <trkpt lat="45.67389" lon="3.54498">
        <ele>550.4921875</ele>
        <time>2009-05-17T08:27:27Z</time>
      </trkpt>
      <trkpt lat="45.67397" lon="3.54485">
        <ele>551.93408203125</ele>
        <time>2009-05-17T08:27:35Z</time>
      </trkpt>
      <trkpt lat="45.67402" lon="3.54472">
        <ele>552.89526367188</ele>
        <time>2009-05-17T08:27:41Z</time>
      </trkpt>
      <trkpt lat="45.67408" lon="3.54457">
        <ele>553.85668945312</ele>
        <time>2009-05-17T08:27:48Z</time>
      </trkpt>
      <trkpt lat="45.67413" lon="3.5444">
        <ele>555.29858398438</ele>
        <time>2009-05-17T08:27:56Z</time>
      </trkpt>
      <trkpt lat="45.67412" lon="3.54423">
        <ele>556.26000976562</ele>
        <time>2009-05-17T08:28:03Z</time>
      </trkpt>
      <trkpt lat="45.67406" lon="3.54408">
        <ele>557.22143554688</ele>
        <time>2009-05-17T08:28:10Z</time>
      </trkpt>
      <trkpt lat="45.67401" lon="3.54397">
        <ele>559.14404296875</ele>
        <time>2009-05-17T08:28:18Z</time>
      </trkpt>
      <trkpt lat="45.67392" lon="3.54382">
        <ele>562.02807617188</ele>
        <time>2009-05-17T08:28:28Z</time>
      </trkpt>
      <trkpt lat="45.6739" lon="3.54379">
        <ele>562.02807617188</ele>
        <time>2009-05-17T08:28:30Z</time>
      </trkpt>
      <trkpt lat="45.67384" lon="3.54371">
        <ele>563.95043945312</ele>
        <time>2009-05-17T08:28:37Z</time>
      </trkpt>
      <trkpt lat="45.67381" lon="3.54366">
        <ele>564.91186523438</ele>
        <time>2009-05-17T08:28:41Z</time>
      </trkpt>
      <trkpt lat="45.67373" lon="3.54353">
        <ele>567.79565429688</ele>
        <time>2009-05-17T08:28:51Z</time>
      </trkpt>
      <trkpt lat="45.67366" lon="3.54343">
        <ele>569.71850585938</ele>
        <time>2009-05-17T08:28:59Z</time>
      </trkpt>
      <trkpt lat="45.67361" lon="3.54332">
        <ele>572.12182617188</ele>
        <time>2009-05-17T08:29:07Z</time>
      </trkpt>
      <trkpt lat="45.67368" lon="3.5432">
        <ele>573.56396484375</ele>
        <time>2009-05-17T08:29:15Z</time>
      </trkpt>
      <trkpt lat="45.67381" lon="3.54307">
        <ele>574.52514648438</ele>
        <time>2009-05-17T08:29:22Z</time>
      </trkpt>
      <trkpt lat="45.67397" lon="3.54292">
        <ele>574.52514648438</ele>
        <time>2009-05-17T08:29:28Z</time>
      </trkpt>
      <trkpt lat="45.67416" lon="3.54269">
        <ele>573.56396484375</ele>
        <time>2009-05-17T08:29:34Z</time>
      </trkpt>
      <trkpt lat="45.67419" lon="3.54265">
        <ele>573.56396484375</ele>
        <time>2009-05-17T08:29:35Z</time>
      </trkpt>
      <trkpt lat="45.67427" lon="3.54247">
        <ele>573.08325195312</ele>
        <time>2009-05-17T08:29:38Z</time>
      </trkpt>
      <trkpt lat="45.6743" lon="3.54235">
        <ele>573.08325195312</ele>
        <time>2009-05-17T08:29:40Z</time>
      </trkpt>
      <trkpt lat="45.67434" lon="3.54203">
        <ele>571.64086914062</ele>
        <time>2009-05-17T08:29:45Z</time>
      </trkpt>
      <trkpt lat="45.67439" lon="3.54188">
        <ele>572.12182617188</ele>
        <time>2009-05-17T08:29:49Z</time>
      </trkpt>
      <trkpt lat="45.6745" lon="3.54183">
        <ele>573.08325195312</ele>
        <time>2009-05-17T08:29:54Z</time>
      </trkpt>
      <trkpt lat="45.6746" lon="3.54184">
        <ele>573.56396484375</ele>
        <time>2009-05-17T08:30:00Z</time>
      </trkpt>
      <trkpt lat="45.67468" lon="3.54184">
        <ele>576.44775390625</ele>
        <time>2009-05-17T08:30:05Z</time>
      </trkpt>
      <trkpt lat="45.67476" lon="3.5418">
        <ele>576.44775390625</ele>
        <time>2009-05-17T08:30:11Z</time>
      </trkpt>
      <trkpt lat="45.67483" lon="3.54178">
        <ele>577.8896484375</ele>
        <time>2009-05-17T08:30:17Z</time>
      </trkpt>
      <trkpt lat="45.6749" lon="3.54176">
        <ele>579.81225585938</ele>
        <time>2009-05-17T08:30:22Z</time>
      </trkpt>
      <trkpt lat="45.67498" lon="3.54173">
        <ele>582.21557617188</ele>
        <time>2009-05-17T08:30:29Z</time>
      </trkpt>
      <trkpt lat="45.67508" lon="3.54168">
        <ele>583.1767578125</ele>
        <time>2009-05-17T08:30:35Z</time>
      </trkpt>
      <trkpt lat="45.67515" lon="3.54165">
        <ele>584.13818359375</ele>
        <time>2009-05-17T08:30:42Z</time>
      </trkpt>
      <trkpt lat="45.67521" lon="3.5416">
        <ele>585.099609375</ele>
        <time>2009-05-17T08:30:46Z</time>
      </trkpt>
      <trkpt lat="45.6753" lon="3.54149">
        <ele>586.54150390625</ele>
        <time>2009-05-17T08:30:54Z</time>
      </trkpt>
      <trkpt lat="45.67537" lon="3.54137">
        <ele>587.9833984375</ele>
        <time>2009-05-17T08:31:02Z</time>
      </trkpt>
      <trkpt lat="45.67544" lon="3.54126">
        <ele>589.42553710938</ele>
        <time>2009-05-17T08:31:10Z</time>
      </trkpt>
      <trkpt lat="45.6755" lon="3.54118">
        <ele>590.86743164062</ele>
        <time>2009-05-17T08:31:18Z</time>
      </trkpt>
      <trkpt lat="45.67553" lon="3.54114">
        <ele>591.34814453125</ele>
        <time>2009-05-17T08:31:21Z</time>
      </trkpt>
      <trkpt lat="45.67559" lon="3.54109">
        <ele>592.3095703125</ele>
        <time>2009-05-17T08:31:27Z</time>
      </trkpt>
      <trkpt lat="45.67564" lon="3.54096">
        <ele>594.71264648438</ele>
        <time>2009-05-17T08:31:35Z</time>
      </trkpt>
      <trkpt lat="45.67568" lon="3.54086">
        <ele>595.67407226562</ele>
        <time>2009-05-17T08:31:42Z</time>
      </trkpt>
      <trkpt lat="45.67574" lon="3.54073">
        <ele>597.5966796875</ele>
        <time>2009-05-17T08:31:51Z</time>
      </trkpt>
      <trkpt lat="45.67579" lon="3.5406">
        <ele>598.55786132812</ele>
        <time>2009-05-17T08:31:58Z</time>
      </trkpt>
      <trkpt lat="45.67583" lon="3.54046">
        <ele>600</ele>
        <time>2009-05-17T08:32:05Z</time>
      </trkpt>
      <trkpt lat="45.67587" lon="3.54029">
        <ele>600.96118164062</ele>
        <time>2009-05-17T08:32:13Z</time>
      </trkpt>
      <trkpt lat="45.6759" lon="3.54012">
        <ele>602.40307617188</ele>
        <time>2009-05-17T08:32:21Z</time>
      </trkpt>
      <trkpt lat="45.67591" lon="3.53995">
        <ele>603.84521484375</ele>
        <time>2009-05-17T08:32:29Z</time>
      </trkpt>
      <trkpt lat="45.67592" lon="3.53974">
        <ele>606.24853515625</ele>
        <time>2009-05-17T08:32:37Z</time>
      </trkpt>
      <trkpt lat="45.67595" lon="3.53953">
        <ele>607.69067382812</ele>
        <time>2009-05-17T08:32:45Z</time>
      </trkpt>
      <trkpt lat="45.67602" lon="3.53926">
        <ele>610.09375</ele>
        <time>2009-05-17T08:32:55Z</time>
      </trkpt>
      <trkpt lat="45.67609" lon="3.53899">
        <ele>611.53588867188</ele>
        <time>2009-05-17T08:33:05Z</time>
      </trkpt>
      <trkpt lat="45.67617" lon="3.53873">
        <ele>612.0166015625</ele>
        <time>2009-05-17T08:33:13Z</time>
      </trkpt>
      <trkpt lat="45.67627" lon="3.53848">
        <ele>611.53588867188</ele>
        <time>2009-05-17T08:33:18Z</time>
      </trkpt>
      <trkpt lat="45.67634" lon="3.5382">
        <ele>612.0166015625</ele>
        <time>2009-05-17T08:33:23Z</time>
      </trkpt>
      <trkpt lat="45.67635" lon="3.53801">
        <ele>610.57446289062</ele>
        <time>2009-05-17T08:33:26Z</time>
      </trkpt>
      <trkpt lat="45.67635" lon="3.53785">
        <ele>609.61328125</ele>
        <time>2009-05-17T08:33:28Z</time>
      </trkpt>
      <trkpt lat="45.67634" lon="3.53776">
        <ele>609.13256835938</ele>
        <time>2009-05-17T08:33:29Z</time>
      </trkpt>
      <trkpt lat="45.67627" lon="3.53746">
        <ele>607.2099609375</ele>
        <time>2009-05-17T08:33:32Z</time>
      </trkpt>
      <trkpt lat="45.67616" lon="3.53711">
        <ele>604.326171875</ele>
        <time>2009-05-17T08:33:35Z</time>
      </trkpt>
      <trkpt lat="45.67603" lon="3.53674">
        <ele>601.92260742188</ele>
        <time>2009-05-17T08:33:38Z</time>
      </trkpt>
      <trkpt lat="45.67607" lon="3.53627">
        <ele>601.44189453125</ele>
        <time>2009-05-17T08:33:42Z</time>
      </trkpt>
      <trkpt lat="45.67612" lon="3.53618">
        <ele>600.96118164062</ele>
        <time>2009-05-17T08:33:43Z</time>
      </trkpt>
      <trkpt lat="45.67641" lon="3.53558">
        <ele>601.44189453125</ele>
        <time>2009-05-17T08:33:50Z</time>
      </trkpt>
      <trkpt lat="45.67644" lon="3.5355">
        <ele>600.96118164062</ele>
        <time>2009-05-17T08:33:51Z</time>
      </trkpt>
      <trkpt lat="45.67659" lon="3.53481">
        <ele>599.51928710938</ele>
        <time>2009-05-17T08:33:58Z</time>
      </trkpt>
      <trkpt lat="45.67674" lon="3.53399">
        <ele>597.11596679688</ele>
        <time>2009-05-17T08:34:05Z</time>
      </trkpt>
      <trkpt lat="45.67694" lon="3.53332">
        <ele>597.5966796875</ele>
        <time>2009-05-17T08:34:11Z</time>
      </trkpt>
      <trkpt lat="45.67707" lon="3.53304">
        <ele>596.15478515625</ele>
        <time>2009-05-17T08:34:14Z</time>
      </trkpt>
      <trkpt lat="45.67727" lon="3.53249">
        <ele>596.63549804688</ele>
        <time>2009-05-17T08:34:20Z</time>
      </trkpt>
      <trkpt lat="45.6774" lon="3.53197">
        <ele>597.11596679688</ele>
        <time>2009-05-17T08:34:26Z</time>
      </trkpt>
      <trkpt lat="45.6775" lon="3.53159">
        <ele>597.11596679688</ele>
        <time>2009-05-17T08:34:31Z</time>
      </trkpt>
      <trkpt lat="45.67755" lon="3.53137">
        <ele>597.11596679688</ele>
        <time>2009-05-17T08:34:34Z</time>
      </trkpt>
      <trkpt lat="45.67755" lon="3.53088">
        <ele>596.15478515625</ele>
        <time>2009-05-17T08:34:40Z</time>
      </trkpt>
      <trkpt lat="45.67751" lon="3.53061">
        <ele>595.193359375</ele>
        <time>2009-05-17T08:34:43Z</time>
      </trkpt>
      <trkpt lat="45.67746" lon="3.53024">
        <ele>593.75146484375</ele>
        <time>2009-05-17T08:34:47Z</time>
      </trkpt>
      <trkpt lat="45.67735" lon="3.52992">
        <ele>592.79028320312</ele>
        <time>2009-05-17T08:34:51Z</time>
      </trkpt>
      <trkpt lat="45.67735" lon="3.52984">
        <ele>592.3095703125</ele>
        <time>2009-05-17T08:34:52Z</time>
      </trkpt>
      <trkpt lat="45.67739" lon="3.52969">
        <ele>591.34814453125</ele>
        <time>2009-05-17T08:34:54Z</time>
      </trkpt>
      <trkpt lat="45.67757" lon="3.52911">
        <ele>587.02197265625</ele>
        <time>2009-05-17T08:35:01Z</time>
      </trkpt>
      <trkpt lat="45.67759" lon="3.52903">
        <ele>586.06079101562</ele>
        <time>2009-05-17T08:35:02Z</time>
      </trkpt>
      <trkpt lat="45.67772" lon="3.52876">
        <ele>580.29296875</ele>
        <time>2009-05-17T08:35:07Z</time>
      </trkpt>
      <trkpt lat="45.67781" lon="3.52864">
        <ele>575.486328125</ele>
        <time>2009-05-17T08:35:10Z</time>
      </trkpt>
      <trkpt lat="45.67786" lon="3.52856">
        <ele>574.52514648438</ele>
        <time>2009-05-17T08:35:12Z</time>
      </trkpt>
      <trkpt lat="45.67796" lon="3.5284">
        <ele>571.16040039062</ele>
        <time>2009-05-17T08:35:15Z</time>
      </trkpt>
      <trkpt lat="45.67804" lon="3.52824">
        <ele>567.31518554688</ele>
        <time>2009-05-17T08:35:18Z</time>
      </trkpt>
      <trkpt lat="45.67808" lon="3.52813">
        <ele>566.83447265625</ele>
        <time>2009-05-17T08:35:20Z</time>
      </trkpt>
      <trkpt lat="45.67811" lon="3.52802">
        <ele>564.91186523438</ele>
        <time>2009-05-17T08:35:22Z</time>
      </trkpt>
      <trkpt lat="45.67819" lon="3.52781">
        <ele>560.5859375</ele>
        <time>2009-05-17T08:35:26Z</time>
      </trkpt>
      <trkpt lat="45.67821" lon="3.52776">
        <ele>560.10522460938</ele>
        <time>2009-05-17T08:35:27Z</time>
      </trkpt>
      <trkpt lat="45.67825" lon="3.52766">
        <ele>559.14404296875</ele>
        <time>2009-05-17T08:35:29Z</time>
      </trkpt>
      <trkpt lat="45.67827" lon="3.52755">
        <ele>557.7021484375</ele>
        <time>2009-05-17T08:35:31Z</time>
      </trkpt>
      <trkpt lat="45.67832" lon="3.52745">
        <ele>555.779296875</ele>
        <time>2009-05-17T08:35:33Z</time>
      </trkpt>
      <trkpt lat="45.6784" lon="3.5272">
        <ele>551.45336914062</ele>
        <time>2009-05-17T08:35:37Z</time>
      </trkpt>
      <trkpt lat="45.67842" lon="3.52714">
        <ele>550.97265625</ele>
        <time>2009-05-17T08:35:38Z</time>
      </trkpt>
      <trkpt lat="45.67847" lon="3.52692">
        <ele>548.0888671875</ele>
        <time>2009-05-17T08:35:41Z</time>
      </trkpt>
      <trkpt lat="45.6785" lon="3.52668">
        <ele>545.20483398438</ele>
        <time>2009-05-17T08:35:44Z</time>
      </trkpt>
      <trkpt lat="45.67851" lon="3.52635">
        <ele>542.80151367188</ele>
        <time>2009-05-17T08:35:48Z</time>
      </trkpt>
      <trkpt lat="45.67852" lon="3.52612">
        <ele>539.43688964844</ele>
        <time>2009-05-17T08:35:51Z</time>
      </trkpt>
      <trkpt lat="45.67853" lon="3.52579">
        <ele>535.59155273438</ele>
        <time>2009-05-17T08:35:55Z</time>
      </trkpt>
      <trkpt lat="45.67852" lon="3.52559">
        <ele>532.22705078125</ele>
        <time>2009-05-17T08:35:58Z</time>
      </trkpt>
      <trkpt lat="45.67849" lon="3.52545">
        <ele>528.86254882812</ele>
        <time>2009-05-17T08:36:01Z</time>
      </trkpt>
      <trkpt lat="45.67849" lon="3.52538">
        <ele>527.42041015625</ele>
        <time>2009-05-17T08:36:03Z</time>
      </trkpt>
      <trkpt lat="45.67846" lon="3.52525">
        <ele>523.5751953125</ele>
        <time>2009-05-17T08:36:07Z</time>
      </trkpt>
      <trkpt lat="45.67846" lon="3.5252">
        <ele>523.5751953125</ele>
        <time>2009-05-17T08:36:08Z</time>
      </trkpt>
      <trkpt lat="45.67847" lon="3.52494">
        <ele>518.28784179688</ele>
        <time>2009-05-17T08:36:13Z</time>
      </trkpt>
      <trkpt lat="45.6785" lon="3.52472">
        <ele>516.84594726562</ele>
        <time>2009-05-17T08:36:16Z</time>
      </trkpt>
      <trkpt lat="45.67854" lon="3.52462">
        <ele>515.40405273438</ele>
        <time>2009-05-17T08:36:17Z</time>
      </trkpt>
      <trkpt lat="45.67866" lon="3.52426">
        <ele>511.07800292969</ele>
        <time>2009-05-17T08:36:21Z</time>
      </trkpt>
      <trkpt lat="45.67875" lon="3.52396">
        <ele>509.63610839844</ele>
        <time>2009-05-17T08:36:24Z</time>
      </trkpt>
      <trkpt lat="45.67883" lon="3.52354">
        <ele>507.23278808594</ele>
        <time>2009-05-17T08:36:28Z</time>
      </trkpt>
      <trkpt lat="45.67891" lon="3.5232">
        <ele>505.31018066406</ele>
        <time>2009-05-17T08:36:32Z</time>
      </trkpt>
      <trkpt lat="45.67892" lon="3.52314">
        <ele>505.79089355469</ele>
        <time>2009-05-17T08:36:33Z</time>
      </trkpt>
      <trkpt lat="45.67901" lon="3.52273">
        <ele>504.34887695312</ele>
        <time>2009-05-17T08:36:39Z</time>
      </trkpt>
      <trkpt lat="45.67903" lon="3.52264">
        <ele>503.38745117188</ele>
        <time>2009-05-17T08:36:40Z</time>
      </trkpt>
      <trkpt lat="45.67912" lon="3.52233">
        <ele>501.46484375</ele>
        <time>2009-05-17T08:36:43Z</time>
      </trkpt>
      <trkpt lat="45.67922" lon="3.52182">
        <ele>496.177734375</ele>
        <time>2009-05-17T08:36:47Z</time>
      </trkpt>
      <trkpt lat="45.67927" lon="3.52155">
        <ele>495.21618652344</ele>
        <time>2009-05-17T08:36:49Z</time>
      </trkpt>
      <trkpt lat="45.6793" lon="3.52115">
        <ele>491.85168457031</ele>
        <time>2009-05-17T08:36:52Z</time>
      </trkpt>
      <trkpt lat="45.67931" lon="3.52103">
        <ele>490.89038085938</ele>
        <time>2009-05-17T08:36:53Z</time>
      </trkpt>
      <trkpt lat="45.67929" lon="3.52087">
        <ele>489.44836425781</ele>
        <time>2009-05-17T08:36:55Z</time>
      </trkpt>
      <trkpt lat="45.67929" lon="3.52074">
        <ele>488.00646972656</ele>
        <time>2009-05-17T08:36:57Z</time>
      </trkpt>
      <trkpt lat="45.67934" lon="3.52055">
        <ele>487.04504394531</ele>
        <time>2009-05-17T08:37:00Z</time>
      </trkpt>
      <trkpt lat="45.67939" lon="3.52031">
        <ele>485.12243652344</ele>
        <time>2009-05-17T08:37:03Z</time>
      </trkpt>
      <trkpt lat="45.6795" lon="3.52003">
        <ele>481.27722167969</ele>
        <time>2009-05-17T08:37:07Z</time>
      </trkpt>
      <trkpt lat="45.67956" lon="3.51988">
        <ele>481.27722167969</ele>
        <time>2009-05-17T08:37:10Z</time>
      </trkpt>
      <trkpt lat="45.67959" lon="3.51982">
        <ele>479.83508300781</ele>
        <time>2009-05-17T08:37:11Z</time>
      </trkpt>
      <trkpt lat="45.67969" lon="3.51959">
        <ele>477.43188476562</ele>
        <time>2009-05-17T08:37:15Z</time>
      </trkpt>
      <trkpt lat="45.67973" lon="3.51948">
        <ele>476.95129394531</ele>
        <time>2009-05-17T08:37:17Z</time>
      </trkpt>
      <trkpt lat="45.67989" lon="3.51927">
        <ele>474.54797363281</ele>
        <time>2009-05-17T08:37:22Z</time>
      </trkpt>
      <trkpt lat="45.68" lon="3.51905">
        <ele>473.58666992188</ele>
        <time>2009-05-17T08:37:26Z</time>
      </trkpt>
      <trkpt lat="45.68023" lon="3.51887">
        <ele>472.62536621094</ele>
        <time>2009-05-17T08:37:31Z</time>
      </trkpt>
      <trkpt lat="45.68038" lon="3.51878">
        <ele>472.14465332031</ele>
        <time>2009-05-17T08:37:34Z</time>
      </trkpt>
      <trkpt lat="45.68071" lon="3.51876">
        <ele>473.10607910156</ele>
        <time>2009-05-17T08:37:40Z</time>
      </trkpt>
      <trkpt lat="45.68102" lon="3.51888">
        <ele>475.02868652344</ele>
        <time>2009-05-17T08:37:47Z</time>
      </trkpt>
      <trkpt lat="45.68106" lon="3.5189">
        <ele>475.02868652344</ele>
        <time>2009-05-17T08:37:48Z</time>
      </trkpt>
      <trkpt lat="45.68121" lon="3.51899">
        <ele>476.47058105469</ele>
        <time>2009-05-17T08:37:52Z</time>
      </trkpt>
      <trkpt lat="45.68132" lon="3.51904">
        <ele>476.47058105469</ele>
        <time>2009-05-17T08:37:55Z</time>
      </trkpt>
      <trkpt lat="45.68153" lon="3.51908">
        <ele>477.91247558594</ele>
        <time>2009-05-17T08:38:01Z</time>
      </trkpt>
      <trkpt lat="45.6817" lon="3.51907">
        <ele>478.87390136719</ele>
        <time>2009-05-17T08:38:06Z</time>
      </trkpt>
      <trkpt lat="45.68188" lon="3.51903">
        <ele>477.91247558594</ele>
        <time>2009-05-17T08:38:11Z</time>
      </trkpt>
      <trkpt lat="45.6822" lon="3.51902">
        <ele>476.47058105469</ele>
        <time>2009-05-17T08:38:17Z</time>
      </trkpt>
      <trkpt lat="45.6825" lon="3.51892">
        <ele>473.58666992188</ele>
        <time>2009-05-17T08:38:22Z</time>
      </trkpt>
      <trkpt lat="45.68281" lon="3.51877">
        <ele>471.66394042969</ele>
        <time>2009-05-17T08:38:26Z</time>
      </trkpt>
      <trkpt lat="45.68307" lon="3.51865">
        <ele>468.78002929688</ele>
        <time>2009-05-17T08:38:29Z</time>
      </trkpt>
      <trkpt lat="45.68315" lon="3.51861">
        <ele>468.78002929688</ele>
        <time>2009-05-17T08:38:30Z</time>
      </trkpt>
      <trkpt lat="45.68332" lon="3.51854">
        <ele>466.857421875</ele>
        <time>2009-05-17T08:38:32Z</time>
      </trkpt>
      <trkpt lat="45.68353" lon="3.51844">
        <ele>465.89611816406</ele>
        <time>2009-05-17T08:38:35Z</time>
      </trkpt>
      <trkpt lat="45.68367" lon="3.5184">
        <ele>465.41552734375</ele>
        <time>2009-05-17T08:38:37Z</time>
      </trkpt>
      <trkpt lat="45.68386" lon="3.51841">
        <ele>464.93481445312</ele>
        <time>2009-05-17T08:38:40Z</time>
      </trkpt>
      <trkpt lat="45.68417" lon="3.51853">
        <ele>465.41552734375</ele>
        <time>2009-05-17T08:38:46Z</time>
      </trkpt>
      <trkpt lat="45.6843" lon="3.51859">
        <ele>466.37670898438</ele>
        <time>2009-05-17T08:38:49Z</time>
      </trkpt>
      <trkpt lat="45.68447" lon="3.51863">
        <ele>466.37670898438</ele>
        <time>2009-05-17T08:38:53Z</time>
      </trkpt>
      <trkpt lat="45.6847" lon="3.5187">
        <ele>466.857421875</ele>
        <time>2009-05-17T08:38:58Z</time>
      </trkpt>
      <trkpt lat="45.68486" lon="3.51871">
        <ele>466.857421875</ele>
        <time>2009-05-17T08:39:01Z</time>
      </trkpt>
      <trkpt lat="45.68492" lon="3.51871">
        <ele>466.37670898438</ele>
        <time>2009-05-17T08:39:02Z</time>
      </trkpt>
      <trkpt lat="45.68507" lon="3.51868">
        <ele>466.37670898438</ele>
        <time>2009-05-17T08:39:05Z</time>
      </trkpt>
      <trkpt lat="45.68541" lon="3.51868">
        <ele>467.33813476562</ele>
        <time>2009-05-17T08:39:12Z</time>
      </trkpt>
      <trkpt lat="45.68566" lon="3.5187">
        <ele>468.29931640625</ele>
        <time>2009-05-17T08:39:17Z</time>
      </trkpt>
      <trkpt lat="45.68575" lon="3.51868">
        <ele>469.2607421875</ele>
        <time>2009-05-17T08:39:19Z</time>
      </trkpt>
      <trkpt lat="45.68611" lon="3.51859">
        <ele>468.29931640625</ele>
        <time>2009-05-17T08:39:26Z</time>
      </trkpt>
      <trkpt lat="45.68653" lon="3.51846">
        <ele>464.93481445312</ele>
        <time>2009-05-17T08:39:33Z</time>
      </trkpt>
      <trkpt lat="45.68684" lon="3.5184">
        <ele>463.49279785156</ele>
        <time>2009-05-17T08:39:38Z</time>
      </trkpt>
      <trkpt lat="45.68706" lon="3.5184">
        <ele>462.53137207031</ele>
        <time>2009-05-17T08:39:42Z</time>
      </trkpt>
      <trkpt lat="45.68717" lon="3.51842">
        <ele>461.57019042969</ele>
        <time>2009-05-17T08:39:44Z</time>
      </trkpt>
      <trkpt lat="45.68734" lon="3.5184">
        <ele>461.57019042969</ele>
        <time>2009-05-17T08:39:49Z</time>
      </trkpt>
      <trkpt lat="45.6875" lon="3.51839">
        <ele>461.57019042969</ele>
        <time>2009-05-17T08:39:54Z</time>
      </trkpt>
      <trkpt lat="45.68762" lon="3.51837">
        <ele>461.08947753906</ele>
        <time>2009-05-17T08:39:57Z</time>
      </trkpt>
      <trkpt lat="45.68783" lon="3.51836">
        <ele>462.53137207031</ele>
        <time>2009-05-17T08:40:03Z</time>
      </trkpt>
      <trkpt lat="45.68797" lon="3.51835">
        <ele>463.49279785156</ele>
        <time>2009-05-17T08:40:07Z</time>
      </trkpt>
      <trkpt lat="45.68803" lon="3.51833">
        <ele>464.4541015625</ele>
        <time>2009-05-17T08:40:09Z</time>
      </trkpt>
      <trkpt lat="45.68814" lon="3.51834">
        <ele>464.4541015625</ele>
        <time>2009-05-17T08:40:12Z</time>
      </trkpt>
      <trkpt lat="45.68835" lon="3.51838">
        <ele>463.97338867188</ele>
        <time>2009-05-17T08:40:18Z</time>
      </trkpt>
      <trkpt lat="45.68844" lon="3.51839">
        <ele>463.97338867188</ele>
        <time>2009-05-17T08:40:20Z</time>
      </trkpt>
      <trkpt lat="45.68882" lon="3.51844">
        <ele>463.01208496094</ele>
        <time>2009-05-17T08:40:28Z</time>
      </trkpt>
      <trkpt lat="45.68902" lon="3.51844">
        <ele>463.01208496094</ele>
        <time>2009-05-17T08:40:32Z</time>
      </trkpt>
      <trkpt lat="45.68941" lon="3.51857">
        <ele>462.53137207031</ele>
        <time>2009-05-17T08:40:40Z</time>
      </trkpt>
      <trkpt lat="45.68983" lon="3.51877">
        <ele>463.01208496094</ele>
        <time>2009-05-17T08:40:49Z</time>
      </trkpt>
      <trkpt lat="45.69001" lon="3.51882">
        <ele>463.97338867188</ele>
        <time>2009-05-17T08:40:54Z</time>
      </trkpt>
      <trkpt lat="45.69021" lon="3.5188">
        <ele>461.57019042969</ele>
        <time>2009-05-17T08:40:58Z</time>
      </trkpt>
      <trkpt lat="45.69036" lon="3.51884">
        <ele>460.12817382812</ele>
        <time>2009-05-17T08:41:00Z</time>
      </trkpt>
      <trkpt lat="45.69073" lon="3.51882">
        <ele>459.16687011719</ele>
        <time>2009-05-17T08:41:04Z</time>
      </trkpt>
      <trkpt lat="45.69098" lon="3.51876">
        <ele>460.60876464844</ele>
        <time>2009-05-17T08:41:08Z</time>
      </trkpt>
      <trkpt lat="45.69109" lon="3.51875">
        <ele>462.05078125</ele>
        <time>2009-05-17T08:41:12Z</time>
      </trkpt>
      <trkpt lat="45.69123" lon="3.51876">
        <ele>464.4541015625</ele>
        <time>2009-05-17T08:41:18Z</time>
      </trkpt>
      <trkpt lat="45.69129" lon="3.51875">
        <ele>465.41552734375</ele>
        <time>2009-05-17T08:41:21Z</time>
      </trkpt>
      <trkpt lat="45.69138" lon="3.51875">
        <ele>466.857421875</ele>
        <time>2009-05-17T08:41:25Z</time>
      </trkpt>
      <trkpt lat="45.69143" lon="3.51875">
        <ele>467.33813476562</ele>
        <time>2009-05-17T08:41:27Z</time>
      </trkpt>
      <trkpt lat="45.69145" lon="3.51875">
        <ele>467.81872558594</ele>
        <time>2009-05-17T08:41:28Z</time>
      </trkpt>
      <trkpt lat="45.6915" lon="3.51874">
        <ele>468.29931640625</ele>
        <time>2009-05-17T08:41:30Z</time>
      </trkpt>
      <trkpt lat="45.69152" lon="3.51873">
        <ele>468.29931640625</ele>
        <time>2009-05-17T08:41:31Z</time>
      </trkpt>
      <trkpt lat="45.69156" lon="3.5187">
        <ele>469.2607421875</ele>
        <time>2009-05-17T08:41:33Z</time>
      </trkpt>
      <trkpt lat="45.69158" lon="3.51868">
        <ele>469.74133300781</ele>
        <time>2009-05-17T08:41:34Z</time>
      </trkpt>
      <trkpt lat="45.69175" lon="3.51863">
        <ele>469.2607421875</ele>
        <time>2009-05-17T08:41:41Z</time>
      </trkpt>
      <trkpt lat="45.69183" lon="3.51861">
        <ele>468.29931640625</ele>
        <time>2009-05-17T08:41:43Z</time>
      </trkpt>
      <trkpt lat="45.69204" lon="3.51851">
        <ele>466.37670898438</ele>
        <time>2009-05-17T08:41:47Z</time>
      </trkpt>
      <trkpt lat="45.69224" lon="3.51845">
        <ele>463.49279785156</ele>
        <time>2009-05-17T08:41:50Z</time>
      </trkpt>
      <trkpt lat="45.6926" lon="3.51837">
        <ele>460.60876464844</ele>
        <time>2009-05-17T08:41:55Z</time>
      </trkpt>
      <trkpt lat="45.69267" lon="3.51835">
        <ele>459.16687011719</ele>
        <time>2009-05-17T08:41:56Z</time>
      </trkpt>
      <trkpt lat="45.69288" lon="3.51825">
        <ele>455.80224609375</ele>
        <time>2009-05-17T08:42:00Z</time>
      </trkpt>
      <trkpt lat="45.69306" lon="3.51819">
        <ele>452.43762207031</ele>
        <time>2009-05-17T08:42:03Z</time>
      </trkpt>
      <trkpt lat="45.69318" lon="3.51818">
        <ele>450.03442382812</ele>
        <time>2009-05-17T08:42:06Z</time>
      </trkpt>
      <trkpt lat="45.69325" lon="3.51817">
        <ele>448.11181640625</ele>
        <time>2009-05-17T08:42:08Z</time>
      </trkpt>
      <trkpt lat="45.69331" lon="3.51815">
        <ele>446.18908691406</ele>
        <time>2009-05-17T08:42:10Z</time>
      </trkpt>
      <trkpt lat="45.69339" lon="3.51811">
        <ele>444.7470703125</ele>
        <time>2009-05-17T08:42:13Z</time>
      </trkpt>
      <trkpt lat="45.69344" lon="3.51809">
        <ele>443.30505371094</ele>
        <time>2009-05-17T08:42:15Z</time>
      </trkpt>
      <trkpt lat="45.69353" lon="3.51808">
        <ele>441.38244628906</ele>
        <time>2009-05-17T08:42:18Z</time>
      </trkpt>
      <trkpt lat="45.69365" lon="3.51808">
        <ele>439.9404296875</ele>
        <time>2009-05-17T08:42:20Z</time>
      </trkpt>
      <trkpt lat="45.69378" lon="3.51806">
        <ele>438.97912597656</ele>
        <time>2009-05-17T08:42:22Z</time>
      </trkpt>
      <trkpt lat="45.69406" lon="3.51803">
        <ele>437.05651855469</ele>
        <time>2009-05-17T08:42:27Z</time>
      </trkpt>
      <trkpt lat="45.69419" lon="3.51795">
        <ele>436.09521484375</ele>
        <time>2009-05-17T08:42:31Z</time>
      </trkpt>
      <trkpt lat="45.69422" lon="3.51794">
        <ele>435.61450195312</ele>
        <time>2009-05-17T08:42:32Z</time>
      </trkpt>
      <trkpt lat="45.69441" lon="3.51791">
        <ele>435.61450195312</ele>
        <time>2009-05-17T08:42:38Z</time>
      </trkpt>
      <trkpt lat="45.69453" lon="3.5178">
        <ele>435.61450195312</ele>
        <time>2009-05-17T08:42:42Z</time>
      </trkpt>
      <trkpt lat="45.69456" lon="3.51776">
        <ele>435.13391113281</ele>
        <time>2009-05-17T08:42:43Z</time>
      </trkpt>
      <trkpt lat="45.6947" lon="3.5176">
        <ele>434.17260742188</ele>
        <time>2009-05-17T08:42:47Z</time>
      </trkpt>
      <trkpt lat="45.69495" lon="3.51748">
        <ele>431.28857421875</ele>
        <time>2009-05-17T08:42:52Z</time>
      </trkpt>
      <trkpt lat="45.69512" lon="3.51743">
        <ele>428.88537597656</ele>
        <time>2009-05-17T08:42:55Z</time>
      </trkpt>
      <trkpt lat="45.6954" lon="3.51751">
        <ele>425.04016113281</ele>
        <time>2009-05-17T08:43:01Z</time>
      </trkpt>
      <trkpt lat="45.69543" lon="3.51755">
        <ele>424.55944824219</ele>
        <time>2009-05-17T08:43:02Z</time>
      </trkpt>
      <trkpt lat="45.69549" lon="3.51766">
        <ele>423.59802246094</ele>
        <time>2009-05-17T08:43:04Z</time>
      </trkpt>
      <trkpt lat="45.69556" lon="3.51782">
        <ele>419.75280761719</ele>
        <time>2009-05-17T08:43:07Z</time>
      </trkpt>
      <trkpt lat="45.69562" lon="3.51796">
        <ele>416.38818359375</ele>
        <time>2009-05-17T08:43:10Z</time>
      </trkpt>
      <trkpt lat="45.69569" lon="3.51805">
        <ele>413.98486328125</ele>
        <time>2009-05-17T08:43:13Z</time>
      </trkpt>
      <trkpt lat="45.69572" lon="3.51806">
        <ele>413.50427246094</ele>
        <time>2009-05-17T08:43:14Z</time>
      </trkpt>
      <trkpt lat="45.69579" lon="3.51798">
        <ele>413.50427246094</ele>
        <time>2009-05-17T08:43:18Z</time>
      </trkpt>
      <trkpt lat="45.69577" lon="3.51774">
        <ele>413.02355957031</ele>
        <time>2009-05-17T08:43:24Z</time>
      </trkpt>
      <trkpt lat="45.69576" lon="3.51769">
        <ele>413.50427246094</ele>
        <time>2009-05-17T08:43:25Z</time>
      </trkpt>
      <trkpt lat="45.69579" lon="3.5175">
        <ele>413.02355957031</ele>
        <time>2009-05-17T08:43:29Z</time>
      </trkpt>
      <trkpt lat="45.69587" lon="3.51723">
        <ele>412.06225585938</ele>
        <time>2009-05-17T08:43:35Z</time>
      </trkpt>
      <trkpt lat="45.69588" lon="3.51712">
        <ele>412.06225585938</ele>
        <time>2009-05-17T08:43:37Z</time>
      </trkpt>
      <trkpt lat="45.696" lon="3.51679">
        <ele>411.10095214844</ele>
        <time>2009-05-17T08:43:42Z</time>
      </trkpt>
      <trkpt lat="45.69609" lon="3.51658">
        <ele>409.65905761719</ele>
        <time>2009-05-17T08:43:46Z</time>
      </trkpt>
      <trkpt lat="45.69627" lon="3.51627">
        <ele>406.77490234375</ele>
        <time>2009-05-17T08:43:51Z</time>
      </trkpt>
      <trkpt lat="45.69631" lon="3.516">
        <ele>403.89111328125</ele>
        <time>2009-05-17T08:43:54Z</time>
      </trkpt>
      <trkpt lat="45.69629" lon="3.51565">
        <ele>402.9296875</ele>
        <time>2009-05-17T08:43:59Z</time>
      </trkpt>
      <trkpt lat="45.69625" lon="3.51552">
        <ele>404.37170410156</ele>
        <time>2009-05-17T08:44:03Z</time>
      </trkpt>
      <trkpt lat="45.6962" lon="3.51543">
        <ele>404.37170410156</ele>
        <time>2009-05-17T08:44:06Z</time>
      </trkpt>
      <trkpt lat="45.69614" lon="3.51537">
        <ele>404.85229492188</ele>
        <time>2009-05-17T08:44:09Z</time>
      </trkpt>
      <trkpt lat="45.69608" lon="3.51524">
        <ele>406.29431152344</ele>
        <time>2009-05-17T08:44:14Z</time>
      </trkpt>
      <trkpt lat="45.69607" lon="3.51521">
        <ele>406.29431152344</ele>
        <time>2009-05-17T08:44:15Z</time>
      </trkpt>
      <trkpt lat="45.69603" lon="3.51516">
        <ele>407.25561523438</ele>
        <time>2009-05-17T08:44:18Z</time>
      </trkpt>
      <trkpt lat="45.69595" lon="3.51509">
        <ele>408.21704101562</ele>
        <time>2009-05-17T08:44:24Z</time>
      </trkpt>
      <trkpt lat="45.69593" lon="3.51498">
        <ele>409.65905761719</ele>
        <time>2009-05-17T08:44:27Z</time>
      </trkpt>
      <trkpt lat="45.6959" lon="3.51485">
        <ele>411.58166503906</ele>
        <time>2009-05-17T08:44:33Z</time>
      </trkpt>
      <trkpt lat="45.6959" lon="3.51481">
        <ele>412.06225585938</ele>
        <time>2009-05-17T08:44:34Z</time>
      </trkpt>
      <trkpt lat="45.69589" lon="3.51473">
        <ele>412.06225585938</ele>
        <time>2009-05-17T08:44:37Z</time>
      </trkpt>
      <trkpt lat="45.69586" lon="3.51449">
        <ele>412.06225585938</ele>
        <time>2009-05-17T08:44:43Z</time>
      </trkpt>
      <trkpt lat="45.69585" lon="3.51429">
        <ele>410.62023925781</ele>
        <time>2009-05-17T08:44:47Z</time>
      </trkpt>
      <trkpt lat="45.69586" lon="3.51416">
        <ele>408.69763183594</ele>
        <time>2009-05-17T08:44:49Z</time>
      </trkpt>
      <trkpt lat="45.69605" lon="3.51381">
        <ele>405.3330078125</ele>
        <time>2009-05-17T08:44:55Z</time>
      </trkpt>
      <trkpt lat="45.69623" lon="3.51353">
        <ele>404.85229492188</ele>
        <time>2009-05-17T08:45:00Z</time>
      </trkpt>
      <trkpt lat="45.69631" lon="3.51328">
        <ele>404.37170410156</ele>
        <time>2009-05-17T08:45:05Z</time>
      </trkpt>
      <trkpt lat="45.69642" lon="3.51309">
        <ele>404.85229492188</ele>
        <time>2009-05-17T08:45:10Z</time>
      </trkpt>
      <trkpt lat="45.69647" lon="3.51297">
        <ele>405.3330078125</ele>
        <time>2009-05-17T08:45:13Z</time>
      </trkpt>
      <trkpt lat="45.6965" lon="3.5127">
        <ele>405.3330078125</ele>
        <time>2009-05-17T08:45:20Z</time>
      </trkpt>
      <trkpt lat="45.69653" lon="3.51263">
        <ele>405.3330078125</ele>
        <time>2009-05-17T08:45:22Z</time>
      </trkpt>
      <trkpt lat="45.69651" lon="3.51238">
        <ele>404.85229492188</ele>
        <time>2009-05-17T08:45:28Z</time>
      </trkpt>
      <trkpt lat="45.69652" lon="3.51219">
        <ele>404.37170410156</ele>
        <time>2009-05-17T08:45:32Z</time>
      </trkpt>
      <trkpt lat="45.69651" lon="3.51198">
        <ele>404.85229492188</ele>
        <time>2009-05-17T08:45:37Z</time>
      </trkpt>
      <trkpt lat="45.6965" lon="3.51188">
        <ele>404.85229492188</ele>
        <time>2009-05-17T08:45:40Z</time>
      </trkpt>
      <trkpt lat="45.69643" lon="3.51174">
        <ele>406.29431152344</ele>
        <time>2009-05-17T08:45:46Z</time>
      </trkpt>
      <trkpt lat="45.6964" lon="3.51166">
        <ele>406.77490234375</ele>
        <time>2009-05-17T08:45:50Z</time>
      </trkpt>
      <trkpt lat="45.69632" lon="3.51152">
        <ele>408.21704101562</ele>
        <time>2009-05-17T08:45:56Z</time>
      </trkpt>
      <trkpt lat="45.69624" lon="3.51142">
        <ele>409.65905761719</ele>
        <time>2009-05-17T08:46:02Z</time>
      </trkpt>
      <trkpt lat="45.69618" lon="3.51137">
        <ele>410.1396484375</ele>
        <time>2009-05-17T08:46:07Z</time>
      </trkpt>
      <trkpt lat="45.69617" lon="3.51133">
        <ele>410.62023925781</ele>
        <time>2009-05-17T08:46:09Z</time>
      </trkpt>
      <trkpt lat="45.69613" lon="3.51121">
        <ele>412.06225585938</ele>
        <time>2009-05-17T08:46:16Z</time>
      </trkpt>
      <trkpt lat="45.69611" lon="3.51112">
        <ele>413.50427246094</ele>
        <time>2009-05-17T08:46:22Z</time>
      </trkpt>
      <trkpt lat="45.69603" lon="3.51102">
        <ele>414.94616699219</ele>
        <time>2009-05-17T08:46:29Z</time>
      </trkpt>
      <trkpt lat="45.69599" lon="3.51094">
        <ele>416.86889648438</ele>
        <time>2009-05-17T08:46:35Z</time>
      </trkpt>
      <trkpt lat="45.69598" lon="3.51089">
        <ele>416.86889648438</ele>
        <time>2009-05-17T08:46:41Z</time>
      </trkpt>
      <trkpt lat="45.69593" lon="3.51079">
        <ele>418.31079101562</ele>
        <time>2009-05-17T08:46:53Z</time>
      </trkpt>
      <trkpt lat="45.69588" lon="3.51074">
        <ele>418.79150390625</ele>
        <time>2009-05-17T08:46:59Z</time>
      </trkpt>
      <trkpt lat="45.69585" lon="3.5107">
        <ele>419.75280761719</ele>
        <time>2009-05-17T08:47:04Z</time>
      </trkpt>
      <trkpt lat="45.6958" lon="3.51064">
        <ele>420.71411132812</ele>
        <time>2009-05-17T08:47:13Z</time>
      </trkpt>
      <trkpt lat="45.69576" lon="3.5106">
        <ele>422.15600585938</ele>
        <time>2009-05-17T08:47:21Z</time>
      </trkpt>
      <trkpt lat="45.6957" lon="3.51057">
        <ele>423.11743164062</ele>
        <time>2009-05-17T08:47:29Z</time>
      </trkpt>
      <trkpt lat="45.69564" lon="3.51055">
        <ele>424.55944824219</ele>
        <time>2009-05-17T08:47:34Z</time>
      </trkpt>
      <trkpt lat="45.69564" lon="3.51055">
        <ele>425.04016113281</ele>
        <time>2009-05-17T08:47:35Z</time>
      </trkpt>
      <trkpt lat="45.69559" lon="3.51055">
        <ele>426.00134277344</ele>
        <time>2009-05-17T08:47:40Z</time>
      </trkpt>
      <trkpt lat="45.69552" lon="3.51056">
        <ele>426.48205566406</ele>
        <time>2009-05-17T08:47:47Z</time>
      </trkpt>
      <trkpt lat="45.69551" lon="3.51057">
        <ele>427.443359375</ele>
        <time>2009-05-17T08:47:53Z</time>
      </trkpt>
      <trkpt lat="45.69541" lon="3.51055">
        <ele>428.88537597656</ele>
        <time>2009-05-17T08:48:01Z</time>
      </trkpt>
      <trkpt lat="45.69537" lon="3.51054">
        <ele>429.36596679688</ele>
        <time>2009-05-17T08:48:04Z</time>
      </trkpt>
      <trkpt lat="45.69533" lon="3.51052">
        <ele>429.84655761719</ele>
        <time>2009-05-17T08:48:08Z</time>
      </trkpt>
      <trkpt lat="45.69526" lon="3.51049">
        <ele>431.76916503906</ele>
        <time>2009-05-17T08:48:15Z</time>
      </trkpt>
      <trkpt lat="45.69518" lon="3.51049">
        <ele>433.21130371094</ele>
        <time>2009-05-17T08:48:22Z</time>
      </trkpt>
      <trkpt lat="45.69511" lon="3.51051">
        <ele>434.6533203125</ele>
        <time>2009-05-17T08:48:28Z</time>
      </trkpt>
      <trkpt lat="45.69502" lon="3.51054">
        <ele>435.13391113281</ele>
        <time>2009-05-17T08:48:34Z</time>
      </trkpt>
      <trkpt lat="45.69492" lon="3.51054">
        <ele>437.05651855469</ele>
        <time>2009-05-17T08:48:41Z</time>
      </trkpt>
      <trkpt lat="45.69483" lon="3.5105">
        <ele>437.537109375</ele>
        <time>2009-05-17T08:48:47Z</time>
      </trkpt>
      <trkpt lat="45.69481" lon="3.51049">
        <ele>438.01782226562</ele>
        <time>2009-05-17T08:48:49Z</time>
      </trkpt>
      <trkpt lat="45.69469" lon="3.51045">
        <ele>438.97912597656</ele>
        <time>2009-05-17T08:48:55Z</time>
      </trkpt>
      <trkpt lat="45.69462" lon="3.51039">
        <ele>439.45971679688</ele>
        <time>2009-05-17T08:49:00Z</time>
      </trkpt>
      <trkpt lat="45.69455" lon="3.51035">
        <ele>440.90185546875</ele>
        <time>2009-05-17T08:49:05Z</time>
      </trkpt>
      <trkpt lat="45.69447" lon="3.5103">
        <ele>441.38244628906</ele>
        <time>2009-05-17T08:49:11Z</time>
      </trkpt>
      <trkpt lat="45.69441" lon="3.51024">
        <ele>443.30505371094</ele>
        <time>2009-05-17T08:49:17Z</time>
      </trkpt>
      <trkpt lat="45.69432" lon="3.51019">
        <ele>444.26647949219</ele>
        <time>2009-05-17T08:49:23Z</time>
      </trkpt>
      <trkpt lat="45.69429" lon="3.51018">
        <ele>444.7470703125</ele>
        <time>2009-05-17T08:49:25Z</time>
      </trkpt>
      <trkpt lat="45.69417" lon="3.51012">
        <ele>446.18908691406</ele>
        <time>2009-05-17T08:49:33Z</time>
      </trkpt>
      <trkpt lat="45.69407" lon="3.51008">
        <ele>447.63098144531</ele>
        <time>2009-05-17T08:49:39Z</time>
      </trkpt>
      <trkpt lat="45.69391" lon="3.51">
        <ele>448.59240722656</ele>
        <time>2009-05-17T08:49:49Z</time>
      </trkpt>
      <trkpt lat="45.6938" lon="3.50997">
        <ele>450.51501464844</ele>
        <time>2009-05-17T08:49:57Z</time>
      </trkpt>
      <trkpt lat="45.69369" lon="3.50995">
        <ele>452.43762207031</ele>
        <time>2009-05-17T08:50:05Z</time>
      </trkpt>
      <trkpt lat="45.69359" lon="3.50992">
        <ele>453.39892578125</ele>
        <time>2009-05-17T08:50:13Z</time>
      </trkpt>
      <trkpt lat="45.69349" lon="3.5099">
        <ele>454.36022949219</ele>
        <time>2009-05-17T08:50:22Z</time>
      </trkpt>
      <trkpt lat="45.69336" lon="3.50989">
        <ele>455.80224609375</ele>
        <time>2009-05-17T08:50:31Z</time>
      </trkpt>
      <trkpt lat="45.69326" lon="3.50986">
        <ele>456.76354980469</ele>
        <time>2009-05-17T08:50:37Z</time>
      </trkpt>
      <trkpt lat="45.69322" lon="3.50985">
        <ele>456.76354980469</ele>
        <time>2009-05-17T08:50:40Z</time>
      </trkpt>
      <trkpt lat="45.69316" lon="3.50982">
        <ele>457.24426269531</ele>
        <time>2009-05-17T08:50:44Z</time>
      </trkpt>
      <trkpt lat="45.69308" lon="3.50977">
        <ele>458.20556640625</ele>
        <time>2009-05-17T08:50:50Z</time>
      </trkpt>
      <trkpt lat="45.69302" lon="3.50975">
        <ele>459.64758300781</ele>
        <time>2009-05-17T08:50:54Z</time>
      </trkpt>
      <trkpt lat="45.69296" lon="3.50969">
        <ele>460.60876464844</ele>
        <time>2009-05-17T08:51:00Z</time>
      </trkpt>
      <trkpt lat="45.69294" lon="3.50968">
        <ele>461.08947753906</ele>
        <time>2009-05-17T08:51:02Z</time>
      </trkpt>
      <trkpt lat="45.69289" lon="3.50961">
        <ele>463.49279785156</ele>
        <time>2009-05-17T08:51:10Z</time>
      </trkpt>
      <trkpt lat="45.69281" lon="3.50957">
        <ele>464.93481445312</ele>
        <time>2009-05-17T08:51:17Z</time>
      </trkpt>
      <trkpt lat="45.69275" lon="3.50954">
        <ele>466.37670898438</ele>
        <time>2009-05-17T08:51:24Z</time>
      </trkpt>
      <trkpt lat="45.69265" lon="3.5095">
        <ele>467.33813476562</ele>
        <time>2009-05-17T08:51:31Z</time>
      </trkpt>
      <trkpt lat="45.69253" lon="3.50944">
        <ele>468.29931640625</ele>
        <time>2009-05-17T08:51:40Z</time>
      </trkpt>
      <trkpt lat="45.69246" lon="3.50943">
        <ele>469.74133300781</ele>
        <time>2009-05-17T08:51:47Z</time>
      </trkpt>
      <trkpt lat="45.69238" lon="3.50943">
        <ele>471.66394042969</ele>
        <time>2009-05-17T08:51:54Z</time>
      </trkpt>
      <trkpt lat="45.69236" lon="3.50944">
        <ele>471.66394042969</ele>
        <time>2009-05-17T08:51:55Z</time>
      </trkpt>
      <trkpt lat="45.69224" lon="3.50945">
        <ele>472.62536621094</ele>
        <time>2009-05-17T08:52:04Z</time>
      </trkpt>
      <trkpt lat="45.69209" lon="3.50947">
        <ele>475.02868652344</ele>
        <time>2009-05-17T08:52:14Z</time>
      </trkpt>
      <trkpt lat="45.692" lon="3.50948">
        <ele>476.95129394531</ele>
        <time>2009-05-17T08:52:22Z</time>
      </trkpt>
      <trkpt lat="45.69186" lon="3.50948">
        <ele>479.83508300781</ele>
        <time>2009-05-17T08:52:33Z</time>
      </trkpt>
      <trkpt lat="45.69174" lon="3.50948">
        <ele>480.79663085938</ele>
        <time>2009-05-17T08:52:42Z</time>
      </trkpt>
      <trkpt lat="45.69164" lon="3.50951">
        <ele>482.71923828125</ele>
        <time>2009-05-17T08:52:50Z</time>
      </trkpt>
      <trkpt lat="45.69156" lon="3.50958">
        <ele>484.1611328125</ele>
        <time>2009-05-17T08:52:58Z</time>
      </trkpt>
      <trkpt lat="45.69149" lon="3.50966">
        <ele>486.08374023438</ele>
        <time>2009-05-17T08:53:05Z</time>
      </trkpt>
      <trkpt lat="45.69143" lon="3.50973">
        <ele>488.48718261719</ele>
        <time>2009-05-17T08:53:12Z</time>
      </trkpt>
      <trkpt lat="45.69136" lon="3.5098">
        <ele>489.44836425781</ele>
        <time>2009-05-17T08:53:19Z</time>
      </trkpt>
      <trkpt lat="45.69128" lon="3.50989">
        <ele>491.85168457031</ele>
        <time>2009-05-17T08:53:28Z</time>
      </trkpt>
      <trkpt lat="45.69118" lon="3.50999">
        <ele>494.25500488281</ele>
        <time>2009-05-17T08:53:38Z</time>
      </trkpt>
      <trkpt lat="45.69112" lon="3.51005">
        <ele>496.177734375</ele>
        <time>2009-05-17T08:53:44Z</time>
      </trkpt>
      <trkpt lat="45.69106" lon="3.51011">
        <ele>497.13891601562</ele>
        <time>2009-05-17T08:53:51Z</time>
      </trkpt>
      <trkpt lat="45.69104" lon="3.51012">
        <ele>497.61962890625</ele>
        <time>2009-05-17T08:53:52Z</time>
      </trkpt>
      <trkpt lat="45.69097" lon="3.51019">
        <ele>500.02294921875</ele>
        <time>2009-05-17T08:53:59Z</time>
      </trkpt>
      <trkpt lat="45.69096" lon="3.5102">
        <ele>500.02294921875</ele>
        <time>2009-05-17T08:54:00Z</time>
      </trkpt>
      <trkpt lat="45.6909" lon="3.51029">
        <ele>500.50354003906</ele>
        <time>2009-05-17T08:54:08Z</time>
      </trkpt>
      <trkpt lat="45.69085" lon="3.51034">
        <ele>502.42614746094</ele>
        <time>2009-05-17T08:54:14Z</time>
      </trkpt>
      <trkpt lat="45.6908" lon="3.51032">
        <ele>502.90673828125</ele>
        <time>2009-05-17T08:54:18Z</time>
      </trkpt>
      <trkpt lat="45.69066" lon="3.51022">
        <ele>503.8681640625</ele>
        <time>2009-05-17T08:54:26Z</time>
      </trkpt>
      <trkpt lat="45.69053" lon="3.5101">
        <ele>503.8681640625</ele>
        <time>2009-05-17T08:54:34Z</time>
      </trkpt>
      <trkpt lat="45.6904" lon="3.50995">
        <ele>504.82946777344</ele>
        <time>2009-05-17T08:54:42Z</time>
      </trkpt>
      <trkpt lat="45.69032" lon="3.50986">
        <ele>505.79089355469</ele>
        <time>2009-05-17T08:54:48Z</time>
      </trkpt>
      <trkpt lat="45.69025" lon="3.50977">
        <ele>506.271484375</ele>
        <time>2009-05-17T08:54:54Z</time>
      </trkpt>
      <trkpt lat="45.69018" lon="3.50968">
        <ele>507.71350097656</ele>
        <time>2009-05-17T08:55:01Z</time>
      </trkpt>
      <trkpt lat="45.69012" lon="3.50959">
        <ele>509.15539550781</ele>
        <time>2009-05-17T08:55:08Z</time>
      </trkpt>
      <trkpt lat="45.69006" lon="3.50951">
        <ele>510.11669921875</ele>
        <time>2009-05-17T08:55:15Z</time>
      </trkpt>
      <trkpt lat="45.69" lon="3.50943">
        <ele>512.03942871094</ele>
        <time>2009-05-17T08:55:21Z</time>
      </trkpt>
      <trkpt lat="45.68994" lon="3.50936">
        <ele>512.52001953125</ele>
        <time>2009-05-17T08:55:27Z</time>
      </trkpt>
      <trkpt lat="45.68989" lon="3.50928">
        <ele>513.00073242188</ele>
        <time>2009-05-17T08:55:32Z</time>
      </trkpt>
      <trkpt lat="45.68981" lon="3.50923">
        <ele>513.4814453125</ele>
        <time>2009-05-17T08:55:38Z</time>
      </trkpt>
      <trkpt lat="45.68969" lon="3.50921">
        <ele>514.92333984375</ele>
        <time>2009-05-17T08:55:46Z</time>
      </trkpt>
      <trkpt lat="45.68949" lon="3.50916">
        <ele>516.84594726562</ele>
        <time>2009-05-17T08:55:57Z</time>
      </trkpt>
      <trkpt lat="45.68935" lon="3.5091">
        <ele>517.32666015625</ele>
        <time>2009-05-17T08:56:04Z</time>
      </trkpt>
      <trkpt lat="45.68932" lon="3.50909">
        <ele>517.32666015625</ele>
        <time>2009-05-17T08:56:05Z</time>
      </trkpt>
      <trkpt lat="45.68923" lon="3.50903">
        <ele>517.80725097656</ele>
        <time>2009-05-17T08:56:09Z</time>
      </trkpt>
      <trkpt lat="45.68898" lon="3.5089">
        <ele>517.80725097656</ele>
        <time>2009-05-17T08:56:18Z</time>
      </trkpt>
      <trkpt lat="45.68883" lon="3.50884">
        <ele>518.28784179688</ele>
        <time>2009-05-17T08:56:24Z</time>
      </trkpt>
      <trkpt lat="45.68874" lon="3.50881">
        <ele>517.80725097656</ele>
        <time>2009-05-17T08:56:28Z</time>
      </trkpt>
      <trkpt lat="45.68871" lon="3.5088">
        <ele>517.80725097656</ele>
        <time>2009-05-17T08:56:31Z</time>
      </trkpt>
      <trkpt lat="45.68871" lon="3.5088">
        <ele>517.80725097656</ele>
        <time>2009-05-17T08:56:36Z</time>
      </trkpt>
      <trkpt lat="45.68871" lon="3.5088">
        <ele>517.80725097656</ele>
        <time>2009-05-17T08:56:40Z</time>
      </trkpt>
      <trkpt lat="45.68872" lon="3.50879">
        <ele>518.28784179688</ele>
        <time>2009-05-17T08:56:42Z</time>
      </trkpt>
      <trkpt lat="45.68872" lon="3.50879">
        <ele>517.32666015625</ele>
        <time>2009-05-17T08:56:49Z</time>
      </trkpt>
      <trkpt lat="45.68872" lon="3.50879">
        <ele>517.32666015625</ele>
        <time>2009-05-17T08:56:55Z</time>
      </trkpt>
      <trkpt lat="45.68872" lon="3.50879">
        <ele>517.80725097656</ele>
        <time>2009-05-17T08:57:10Z</time>
      </trkpt>
      <trkpt lat="45.68872" lon="3.5088">
        <ele>518.28784179688</ele>
        <time>2009-05-17T08:57:17Z</time>
      </trkpt>
      <trkpt lat="45.6887" lon="3.5089">
        <ele>518.28784179688</ele>
        <time>2009-05-17T08:57:22Z</time>
      </trkpt>
      <trkpt lat="45.68868" lon="3.50917">
        <ele>518.28784179688</ele>
        <time>2009-05-17T08:57:29Z</time>
      </trkpt>
      <trkpt lat="45.68869" lon="3.50935">
        <ele>518.28784179688</ele>
        <time>2009-05-17T08:57:33Z</time>
      </trkpt>
      <trkpt lat="45.68871" lon="3.50944">
        <ele>518.7685546875</ele>
        <time>2009-05-17T08:57:35Z</time>
      </trkpt>
      <trkpt lat="45.68873" lon="3.50965">
        <ele>518.7685546875</ele>
        <time>2009-05-17T08:57:39Z</time>
      </trkpt>
      <trkpt lat="45.68876" lon="3.50987">
        <ele>518.7685546875</ele>
        <time>2009-05-17T08:57:43Z</time>
      </trkpt>
      <trkpt lat="45.68884" lon="3.51032">
        <ele>518.7685546875</ele>
        <time>2009-05-17T08:57:52Z</time>
      </trkpt>
      <trkpt lat="45.68886" lon="3.51043">
        <ele>518.7685546875</ele>
        <time>2009-05-17T08:57:56Z</time>
      </trkpt>
      <trkpt lat="45.68888" lon="3.51044">
        <ele>518.28784179688</ele>
        <time>2009-05-17T08:58:01Z</time>
      </trkpt>
      <trkpt lat="45.68888" lon="3.51044">
        <ele>518.28784179688</ele>
        <time>2009-05-17T08:58:13Z</time>
      </trkpt>
      <trkpt lat="45.68888" lon="3.51045">
        <ele>519.24926757812</ele>
        <time>2009-05-17T08:58:18Z</time>
      </trkpt>
      <trkpt lat="45.68888" lon="3.51044">
        <ele>518.7685546875</ele>
        <time>2009-05-17T08:58:27Z</time>
      </trkpt>
      <trkpt lat="45.68887" lon="3.51043">
        <ele>518.7685546875</ele>
        <time>2009-05-17T08:58:39Z</time>
      </trkpt>
      <trkpt lat="45.68887" lon="3.51041">
        <ele>518.7685546875</ele>
        <time>2009-05-17T08:58:41Z</time>
      </trkpt>
      <trkpt lat="45.68884" lon="3.51028">
        <ele>519.24926757812</ele>
        <time>2009-05-17T08:58:47Z</time>
      </trkpt>
      <trkpt lat="45.68881" lon="3.51012">
        <ele>518.7685546875</ele>
        <time>2009-05-17T08:58:50Z</time>
      </trkpt>
      <trkpt lat="45.68878" lon="3.50996">
        <ele>518.7685546875</ele>
        <time>2009-05-17T08:58:53Z</time>
      </trkpt>
      <trkpt lat="45.68877" lon="3.50991">
        <ele>518.7685546875</ele>
        <time>2009-05-17T08:58:54Z</time>
      </trkpt>
      <trkpt lat="45.68876" lon="3.50985">
        <ele>518.7685546875</ele>
        <time>2009-05-17T08:58:55Z</time>
      </trkpt>
      <trkpt lat="45.68875" lon="3.5098">
        <ele>518.28784179688</ele>
        <time>2009-05-17T08:58:56Z</time>
      </trkpt>
      <trkpt lat="45.6887" lon="3.50948">
        <ele>518.28784179688</ele>
        <time>2009-05-17T08:59:02Z</time>
      </trkpt>
      <trkpt lat="45.68865" lon="3.50902">
        <ele>517.80725097656</ele>
        <time>2009-05-17T08:59:11Z</time>
      </trkpt>
      <trkpt lat="45.68869" lon="3.50881">
        <ele>517.80725097656</ele>
        <time>2009-05-17T08:59:17Z</time>
      </trkpt>
      <trkpt lat="45.6887" lon="3.50875">
        <ele>518.7685546875</ele>
        <time>2009-05-17T08:59:20Z</time>
      </trkpt>
      <trkpt lat="45.6887" lon="3.50875">
        <ele>518.28784179688</ele>
        <time>2009-05-17T08:59:23Z</time>
      </trkpt>
      <trkpt lat="45.6887" lon="3.50875">
        <ele>518.28784179688</ele>
        <time>2009-05-17T08:59:27Z</time>
      </trkpt>
      <trkpt lat="45.6887" lon="3.50875">
        <ele>517.80725097656</ele>
        <time>2009-05-17T08:59:29Z</time>
      </trkpt>
      <trkpt lat="45.68871" lon="3.50875">
        <ele>517.80725097656</ele>
        <time>2009-05-17T08:59:30Z</time>
      </trkpt>
      <trkpt lat="45.6887" lon="3.50875">
        <ele>517.32666015625</ele>
        <time>2009-05-17T08:59:33Z</time>
      </trkpt>
      <trkpt lat="45.6887" lon="3.50875">
        <ele>517.32666015625</ele>
        <time>2009-05-17T08:59:34Z</time>
      </trkpt>
      <trkpt lat="45.68871" lon="3.50876">
        <ele>517.32666015625</ele>
        <time>2009-05-17T08:59:45Z</time>
      </trkpt>
      <trkpt lat="45.6887" lon="3.50876">
        <ele>517.80725097656</ele>
        <time>2009-05-17T08:59:47Z</time>
      </trkpt>
      <trkpt lat="45.6887" lon="3.50876">
        <ele>518.28784179688</ele>
        <time>2009-05-17T08:59:48Z</time>
      </trkpt>
      <trkpt lat="45.68869" lon="3.50876">
        <ele>518.28784179688</ele>
        <time>2009-05-17T08:59:58Z</time>
      </trkpt>
      <trkpt lat="45.68869" lon="3.50876">
        <ele>518.28784179688</ele>
        <time>2009-05-17T09:00:05Z</time>
      </trkpt>
      <trkpt lat="45.68867" lon="3.50877">
        <ele>517.80725097656</ele>
        <time>2009-05-17T09:00:10Z</time>
      </trkpt>
      <trkpt lat="45.68863" lon="3.50881">
        <ele>517.80725097656</ele>
        <time>2009-05-17T09:00:26Z</time>
      </trkpt>
      <trkpt lat="45.68864" lon="3.5088">
        <ele>517.80725097656</ele>
        <time>2009-05-17T09:00:35Z</time>
      </trkpt>
      <trkpt lat="45.68866" lon="3.50879">
        <ele>517.80725097656</ele>
        <time>2009-05-17T09:00:56Z</time>
      </trkpt>
      <trkpt lat="45.68866" lon="3.50876">
        <ele>518.28784179688</ele>
        <time>2009-05-17T09:01:09Z</time>
      </trkpt>
      <trkpt lat="45.68866" lon="3.50876">
        <ele>518.28784179688</ele>
        <time>2009-05-17T09:01:22Z</time>
      </trkpt>
      <trkpt lat="45.68867" lon="3.50876">
        <ele>517.32666015625</ele>
        <time>2009-05-17T09:01:26Z</time>
      </trkpt>
      <trkpt lat="45.68867" lon="3.50876">
        <ele>518.28784179688</ele>
        <time>2009-05-17T09:01:35Z</time>
      </trkpt>
      <trkpt lat="45.68866" lon="3.50875">
        <ele>517.80725097656</ele>
        <time>2009-05-17T09:01:40Z</time>
      </trkpt>
      <trkpt lat="45.68866" lon="3.50875">
        <ele>518.28784179688</ele>
        <time>2009-05-17T09:01:46Z</time>
      </trkpt>
      <trkpt lat="45.68867" lon="3.50874">
        <ele>517.80725097656</ele>
        <time>2009-05-17T09:02:02Z</time>
      </trkpt>
      <trkpt lat="45.68867" lon="3.50873">
        <ele>517.80725097656</ele>
        <time>2009-05-17T09:02:17Z</time>
      </trkpt>
      <trkpt lat="45.68867" lon="3.50874">
        <ele>517.32666015625</ele>
        <time>2009-05-17T09:02:34Z</time>
      </trkpt>
      <trkpt lat="45.68868" lon="3.50873">
        <ele>517.32666015625</ele>
        <time>2009-05-17T09:02:46Z</time>
      </trkpt>
      <trkpt lat="45.68869" lon="3.50872">
        <ele>517.32666015625</ele>
        <time>2009-05-17T09:02:57Z</time>
      </trkpt>
      <trkpt lat="45.68868" lon="3.50873">
        <ele>517.32666015625</ele>
        <time>2009-05-17T09:03:16Z</time>
      </trkpt>
      <trkpt lat="45.68869" lon="3.50874">
        <ele>517.32666015625</ele>
        <time>2009-05-17T09:03:30Z</time>
      </trkpt>
      <trkpt lat="45.68868" lon="3.50872">
        <ele>517.32666015625</ele>
        <time>2009-05-17T09:03:36Z</time>
      </trkpt>
      <trkpt lat="45.68875" lon="3.50862">
        <ele>517.80725097656</ele>
        <time>2009-05-17T09:03:41Z</time>
      </trkpt>
      <trkpt lat="45.68883" lon="3.50846">
        <ele>518.7685546875</ele>
        <time>2009-05-17T09:03:47Z</time>
      </trkpt>
      <trkpt lat="45.68887" lon="3.50834">
        <ele>519.72985839844</ele>
        <time>2009-05-17T09:03:51Z</time>
      </trkpt>
      <trkpt lat="45.6889" lon="3.50828">
        <ele>520.69128417969</ele>
        <time>2009-05-17T09:03:53Z</time>
      </trkpt>
      <trkpt lat="45.68893" lon="3.50818">
        <ele>521.17199707031</ele>
        <time>2009-05-17T09:03:56Z</time>
      </trkpt>
      <trkpt lat="45.68895" lon="3.50811">
        <ele>522.13317871094</ele>
        <time>2009-05-17T09:03:58Z</time>
      </trkpt>
      <trkpt lat="45.689" lon="3.50794">
        <ele>523.5751953125</ele>
        <time>2009-05-17T09:04:03Z</time>
      </trkpt>
      <trkpt lat="45.68901" lon="3.50786">
        <ele>523.5751953125</ele>
        <time>2009-05-17T09:04:05Z</time>
      </trkpt>
      <trkpt lat="45.68908" lon="3.5076">
        <ele>525.97839355469</ele>
        <time>2009-05-17T09:04:12Z</time>
      </trkpt>
      <trkpt lat="45.68911" lon="3.50745">
        <ele>527.42041015625</ele>
        <time>2009-05-17T09:04:16Z</time>
      </trkpt>
      <trkpt lat="45.68915" lon="3.50735">
        <ele>527.90100097656</ele>
        <time>2009-05-17T09:04:21Z</time>
      </trkpt>
      <trkpt lat="45.68921" lon="3.50707">
        <ele>528.3818359375</ele>
        <time>2009-05-17T09:04:29Z</time>
      </trkpt>
      <trkpt lat="45.68929" lon="3.50664">
        <ele>529.82373046875</ele>
        <time>2009-05-17T09:04:40Z</time>
      </trkpt>
      <trkpt lat="45.68936" lon="3.50635">
        <ele>532.22705078125</ele>
        <time>2009-05-17T09:04:48Z</time>
      </trkpt>
      <trkpt lat="45.6894" lon="3.50622">
        <ele>532.22705078125</ele>
        <time>2009-05-17T09:04:52Z</time>
      </trkpt>
      <trkpt lat="45.68933" lon="3.506">
        <ele>533.6689453125</ele>
        <time>2009-05-17T09:04:59Z</time>
      </trkpt>
      <trkpt lat="45.68918" lon="3.50586">
        <ele>533.18835449219</ele>
        <time>2009-05-17T09:05:05Z</time>
      </trkpt>
      <trkpt lat="45.68905" lon="3.50573">
        <ele>533.18835449219</ele>
        <time>2009-05-17T09:05:10Z</time>
      </trkpt>
      <trkpt lat="45.68884" lon="3.50553">
        <ele>533.6689453125</ele>
        <time>2009-05-17T09:05:17Z</time>
      </trkpt>
      <trkpt lat="45.68865" lon="3.5054">
        <ele>533.6689453125</ele>
        <time>2009-05-17T09:05:22Z</time>
      </trkpt>
      <trkpt lat="45.68856" lon="3.50533">
        <ele>533.18835449219</ele>
        <time>2009-05-17T09:05:24Z</time>
      </trkpt>
      <trkpt lat="45.68852" lon="3.5053">
        <ele>533.18835449219</ele>
        <time>2009-05-17T09:05:25Z</time>
      </trkpt>
      <trkpt lat="45.6881" lon="3.50498">
        <ele>532.70776367188</ele>
        <time>2009-05-17T09:05:34Z</time>
      </trkpt>
      <trkpt lat="45.68778" lon="3.50474">
        <ele>532.22705078125</ele>
        <time>2009-05-17T09:05:41Z</time>
      </trkpt>
      <trkpt lat="45.68764" lon="3.50464">
        <ele>532.70776367188</ele>
        <time>2009-05-17T09:05:44Z</time>
      </trkpt>
      <trkpt lat="45.6873" lon="3.50438">
        <ele>533.6689453125</ele>
        <time>2009-05-17T09:05:52Z</time>
      </trkpt>
      <trkpt lat="45.687" lon="3.50414">
        <ele>534.14965820312</ele>
        <time>2009-05-17T09:05:59Z</time>
      </trkpt>
      <trkpt lat="45.68679" lon="3.50399">
        <ele>535.59155273438</ele>
        <time>2009-05-17T09:06:04Z</time>
      </trkpt>
      <trkpt lat="45.68656" lon="3.5038">
        <ele>537.03369140625</ele>
        <time>2009-05-17T09:06:10Z</time>
      </trkpt>
      <trkpt lat="45.6864" lon="3.50369">
        <ele>537.99499511719</ele>
        <time>2009-05-17T09:06:14Z</time>
      </trkpt>
      <trkpt lat="45.68606" lon="3.50342">
        <ele>538.95629882812</ele>
        <time>2009-05-17T09:06:23Z</time>
      </trkpt>
      <trkpt lat="45.68579" lon="3.50322">
        <ele>540.39831542969</ele>
        <time>2009-05-17T09:06:30Z</time>
      </trkpt>
      <trkpt lat="45.68555" lon="3.50303">
        <ele>542.32092285156</ele>
        <time>2009-05-17T09:06:36Z</time>
      </trkpt>
      <trkpt lat="45.68509" lon="3.50267">
        <ele>542.32092285156</ele>
        <time>2009-05-17T09:06:48Z</time>
      </trkpt>
      <trkpt lat="45.68488" lon="3.50251">
        <ele>541.84020996094</ele>
        <time>2009-05-17T09:06:55Z</time>
      </trkpt>
      <trkpt lat="45.68486" lon="3.50249">
        <ele>541.84020996094</ele>
        <time>2009-05-17T09:06:59Z</time>
      </trkpt>
      <trkpt lat="45.68486" lon="3.50249">
        <ele>541.35949707031</ele>
        <time>2009-05-17T09:07:04Z</time>
      </trkpt>
      <trkpt lat="45.68485" lon="3.50249">
        <ele>541.35949707031</ele>
        <time>2009-05-17T09:07:07Z</time>
      </trkpt>
      <trkpt lat="45.68472" lon="3.50239">
        <ele>541.35949707031</ele>
        <time>2009-05-17T09:07:13Z</time>
      </trkpt>
      <trkpt lat="45.68461" lon="3.5023">
        <ele>540.39831542969</ele>
        <time>2009-05-17T09:07:16Z</time>
      </trkpt>
      <trkpt lat="45.68452" lon="3.50223">
        <ele>540.87890625</ele>
        <time>2009-05-17T09:07:18Z</time>
      </trkpt>
      <trkpt lat="45.68439" lon="3.50213">
        <ele>539.43688964844</ele>
        <time>2009-05-17T09:07:21Z</time>
      </trkpt>
      <trkpt lat="45.68424" lon="3.50201">
        <ele>538.47570800781</ele>
        <time>2009-05-17T09:07:24Z</time>
      </trkpt>
      <trkpt lat="45.68385" lon="3.50171">
        <ele>537.51428222656</ele>
        <time>2009-05-17T09:07:31Z</time>
      </trkpt>
      <trkpt lat="45.68342" lon="3.50137">
        <ele>536.07238769531</ele>
        <time>2009-05-17T09:07:38Z</time>
      </trkpt>
      <trkpt lat="45.68311" lon="3.50113">
        <ele>535.59155273438</ele>
        <time>2009-05-17T09:07:43Z</time>
      </trkpt>
      <trkpt lat="45.68298" lon="3.50102">
        <ele>534.14965820312</ele>
        <time>2009-05-17T09:07:45Z</time>
      </trkpt>
      <trkpt lat="45.68291" lon="3.50097">
        <ele>534.63037109375</ele>
        <time>2009-05-17T09:07:46Z</time>
      </trkpt>
      <trkpt lat="45.68271" lon="3.50082">
        <ele>532.70776367188</ele>
        <time>2009-05-17T09:07:49Z</time>
      </trkpt>
      <trkpt lat="45.68223" lon="3.50044">
        <ele>531.26574707031</ele>
        <time>2009-05-17T09:07:56Z</time>
      </trkpt>
      <trkpt lat="45.68188" lon="3.50016">
        <ele>529.34313964844</ele>
        <time>2009-05-17T09:08:01Z</time>
      </trkpt>
      <trkpt lat="45.6814" lon="3.49979">
        <ele>527.90100097656</ele>
        <time>2009-05-17T09:08:08Z</time>
      </trkpt>
      <trkpt lat="45.68134" lon="3.49974">
        <ele>527.90100097656</ele>
        <time>2009-05-17T09:08:09Z</time>
      </trkpt>
      <trkpt lat="45.68128" lon="3.49969">
        <ele>527.42041015625</ele>
        <time>2009-05-17T09:08:10Z</time>
      </trkpt>
      <trkpt lat="45.68113" lon="3.49946">
        <ele>525.97839355469</ele>
        <time>2009-05-17T09:08:13Z</time>
      </trkpt>
      <trkpt lat="45.6811" lon="3.49936">
        <ele>525.97839355469</ele>
        <time>2009-05-17T09:08:14Z</time>
      </trkpt>
      <trkpt lat="45.68086" lon="3.49894">
        <ele>524.05578613281</ele>
        <time>2009-05-17T09:08:19Z</time>
      </trkpt>
      <trkpt lat="45.68079" lon="3.4989">
        <ele>524.05578613281</ele>
        <time>2009-05-17T09:08:20Z</time>
      </trkpt>
      <trkpt lat="45.68058" lon="3.49882">
        <ele>523.5751953125</ele>
        <time>2009-05-17T09:08:23Z</time>
      </trkpt>
      <trkpt lat="45.68016" lon="3.49867">
        <ele>524.53649902344</ele>
        <time>2009-05-17T09:08:30Z</time>
      </trkpt>
      <trkpt lat="45.6799" lon="3.49859">
        <ele>524.05578613281</ele>
        <time>2009-05-17T09:08:35Z</time>
      </trkpt>
      <trkpt lat="45.67974" lon="3.49853">
        <ele>524.53649902344</ele>
        <time>2009-05-17T09:08:38Z</time>
      </trkpt>
      <trkpt lat="45.67956" lon="3.49836">
        <ele>524.53649902344</ele>
        <time>2009-05-17T09:08:42Z</time>
      </trkpt>
      <trkpt lat="45.67945" lon="3.49809">
        <ele>524.05578613281</ele>
        <time>2009-05-17T09:08:46Z</time>
      </trkpt>
      <trkpt lat="45.67945" lon="3.49801">
        <ele>524.05578613281</ele>
        <time>2009-05-17T09:08:47Z</time>
      </trkpt>
      <trkpt lat="45.67941" lon="3.49736">
        <ele>524.05578613281</ele>
        <time>2009-05-17T09:08:55Z</time>
      </trkpt>
      <trkpt lat="45.67952" lon="3.49698">
        <ele>525.01721191406</ele>
        <time>2009-05-17T09:09:00Z</time>
      </trkpt>
      <trkpt lat="45.67961" lon="3.49686">
        <ele>525.01721191406</ele>
        <time>2009-05-17T09:09:02Z</time>
      </trkpt>
      <trkpt lat="45.68012" lon="3.49632">
        <ele>524.05578613281</ele>
        <time>2009-05-17T09:09:12Z</time>
      </trkpt>
      <trkpt lat="45.68047" lon="3.49584">
        <ele>522.61389160156</ele>
        <time>2009-05-17T09:09:19Z</time>
      </trkpt>
      <trkpt lat="45.68074" lon="3.49548">
        <ele>522.61389160156</ele>
        <time>2009-05-17T09:09:24Z</time>
      </trkpt>
      <trkpt lat="45.68103" lon="3.49495">
        <ele>520.69128417969</ele>
        <time>2009-05-17T09:09:30Z</time>
      </trkpt>
      <trkpt lat="45.68134" lon="3.4945">
        <ele>518.7685546875</ele>
        <time>2009-05-17T09:09:35Z</time>
      </trkpt>
      <trkpt lat="45.68147" lon="3.49433">
        <ele>517.80725097656</ele>
        <time>2009-05-17T09:09:37Z</time>
      </trkpt>
      <trkpt lat="45.68183" lon="3.49386">
        <ele>516.365234375</ele>
        <time>2009-05-17T09:09:42Z</time>
      </trkpt>
      <trkpt lat="45.68198" lon="3.49366">
        <ele>515.88464355469</ele>
        <time>2009-05-17T09:09:44Z</time>
      </trkpt>
      <trkpt lat="45.6821" lon="3.49342">
        <ele>514.92333984375</ele>
        <time>2009-05-17T09:09:46Z</time>
      </trkpt>
      <trkpt lat="45.68214" lon="3.49328">
        <ele>514.44262695312</ele>
        <time>2009-05-17T09:09:47Z</time>
      </trkpt>
      <trkpt lat="45.68216" lon="3.493">
        <ele>513.4814453125</ele>
        <time>2009-05-17T09:09:49Z</time>
      </trkpt>
      <trkpt lat="45.68215" lon="3.49285">
        <ele>512.52001953125</ele>
        <time>2009-05-17T09:09:50Z</time>
      </trkpt>
      <trkpt lat="45.68211" lon="3.49271">
        <ele>511.55871582031</ele>
        <time>2009-05-17T09:09:51Z</time>
      </trkpt>
      <trkpt lat="45.68178" lon="3.49161">
        <ele>508.67468261719</ele>
        <time>2009-05-17T09:09:59Z</time>
      </trkpt>
      <trkpt lat="45.68143" lon="3.49107">
        <ele>506.271484375</ele>
        <time>2009-05-17T09:10:04Z</time>
      </trkpt>
      <trkpt lat="45.6811" lon="3.49076">
        <ele>504.82946777344</ele>
        <time>2009-05-17T09:10:08Z</time>
      </trkpt>
      <trkpt lat="45.68048" lon="3.4903">
        <ele>500.98413085938</ele>
        <time>2009-05-17T09:10:15Z</time>
      </trkpt>
      <trkpt lat="45.68012" lon="3.49002">
        <ele>499.54223632812</ele>
        <time>2009-05-17T09:10:19Z</time>
      </trkpt>
      <trkpt lat="45.67994" lon="3.48988">
        <ele>498.58093261719</ele>
        <time>2009-05-17T09:10:21Z</time>
      </trkpt>
      <trkpt lat="45.67977" lon="3.48974">
        <ele>499.0615234375</ele>
        <time>2009-05-17T09:10:23Z</time>
      </trkpt>
      <trkpt lat="45.67961" lon="3.4896">
        <ele>497.61962890625</ele>
        <time>2009-05-17T09:10:25Z</time>
      </trkpt>
      <trkpt lat="45.67952" lon="3.48954">
        <ele>497.61962890625</ele>
        <time>2009-05-17T09:10:26Z</time>
      </trkpt>
      <trkpt lat="45.67911" lon="3.48921">
        <ele>496.177734375</ele>
        <time>2009-05-17T09:10:31Z</time>
      </trkpt>
      <trkpt lat="45.67894" lon="3.48912">
        <ele>495.21618652344</ele>
        <time>2009-05-17T09:10:33Z</time>
      </trkpt>
      <trkpt lat="45.67876" lon="3.48905">
        <ele>492.33239746094</ele>
        <time>2009-05-17T09:10:35Z</time>
      </trkpt>
      <trkpt lat="45.67857" lon="3.48903">
        <ele>491.37097167969</ele>
        <time>2009-05-17T09:10:37Z</time>
      </trkpt>
      <trkpt lat="45.67819" lon="3.48901">
        <ele>490.89038085938</ele>
        <time>2009-05-17T09:10:41Z</time>
      </trkpt>
      <trkpt lat="45.67796" lon="3.48875">
        <ele>487.52563476562</ele>
        <time>2009-05-17T09:10:44Z</time>
      </trkpt>
      <trkpt lat="45.6779" lon="3.48862">
        <ele>487.52563476562</ele>
        <time>2009-05-17T09:10:45Z</time>
      </trkpt>
      <trkpt lat="45.67786" lon="3.48848">
        <ele>486.564453125</ele>
        <time>2009-05-17T09:10:46Z</time>
      </trkpt>
      <trkpt lat="45.6776" lon="3.48785">
        <ele>485.12243652344</ele>
        <time>2009-05-17T09:10:51Z</time>
      </trkpt>
      <trkpt lat="45.67741" lon="3.4877">
        <ele>482.23852539062</ele>
        <time>2009-05-17T09:10:53Z</time>
      </trkpt>
      <trkpt lat="45.67731" lon="3.48764">
        <ele>482.23852539062</ele>
        <time>2009-05-17T09:10:54Z</time>
      </trkpt>
      <trkpt lat="45.67701" lon="3.48752">
        <ele>481.7578125</ele>
        <time>2009-05-17T09:10:57Z</time>
      </trkpt>
      <trkpt lat="45.6768" lon="3.48748">
        <ele>478.87390136719</ele>
        <time>2009-05-17T09:10:59Z</time>
      </trkpt>
      <trkpt lat="45.67641" lon="3.48723">
        <ele>476.47058105469</ele>
        <time>2009-05-17T09:11:03Z</time>
      </trkpt>
      <trkpt lat="45.67601" lon="3.48703">
        <ele>474.06726074219</ele>
        <time>2009-05-17T09:11:07Z</time>
      </trkpt>
      <trkpt lat="45.67583" lon="3.48689">
        <ele>471.66394042969</ele>
        <time>2009-05-17T09:11:09Z</time>
      </trkpt>
      <trkpt lat="45.67577" lon="3.48676">
        <ele>471.66394042969</ele>
        <time>2009-05-17T09:11:10Z</time>
      </trkpt>
      <trkpt lat="45.67576" lon="3.48647">
        <ele>471.18334960938</ele>
        <time>2009-05-17T09:11:12Z</time>
      </trkpt>
      <trkpt lat="45.6758" lon="3.48633">
        <ele>470.70263671875</ele>
        <time>2009-05-17T09:11:13Z</time>
      </trkpt>
      <trkpt lat="45.67588" lon="3.48605">
        <ele>471.18334960938</ele>
        <time>2009-05-17T09:11:15Z</time>
      </trkpt>
      <trkpt lat="45.67591" lon="3.48545">
        <ele>469.74133300781</ele>
        <time>2009-05-17T09:11:19Z</time>
      </trkpt>
      <trkpt lat="45.67575" lon="3.4851">
        <ele>469.74133300781</ele>
        <time>2009-05-17T09:11:22Z</time>
      </trkpt>
      <trkpt lat="45.67561" lon="3.48495">
        <ele>467.33813476562</ele>
        <time>2009-05-17T09:11:24Z</time>
      </trkpt>
      <trkpt lat="45.675" lon="3.48449">
        <ele>465.41552734375</ele>
        <time>2009-05-17T09:11:32Z</time>
      </trkpt>
      <trkpt lat="45.67482" lon="3.48431">
        <ele>463.01208496094</ele>
        <time>2009-05-17T09:11:35Z</time>
      </trkpt>
      <trkpt lat="45.67456" lon="3.48408">
        <ele>462.05078125</ele>
        <time>2009-05-17T09:11:39Z</time>
      </trkpt>
      <trkpt lat="45.67432" lon="3.48401">
        <ele>460.60876464844</ele>
        <time>2009-05-17T09:11:42Z</time>
      </trkpt>
      <trkpt lat="45.67413" lon="3.48384">
        <ele>457.24426269531</ele>
        <time>2009-05-17T09:11:45Z</time>
      </trkpt>
      <trkpt lat="45.67413" lon="3.48373">
        <ele>457.24426269531</ele>
        <time>2009-05-17T09:11:46Z</time>
      </trkpt>
      <trkpt lat="45.67421" lon="3.48353">
        <ele>456.76354980469</ele>
        <time>2009-05-17T09:11:48Z</time>
      </trkpt>
      <trkpt lat="45.67431" lon="3.48333">
        <ele>455.32153320312</ele>
        <time>2009-05-17T09:11:50Z</time>
      </trkpt>
      <trkpt lat="45.67456" lon="3.48278">
        <ele>452.91821289062</ele>
        <time>2009-05-17T09:11:55Z</time>
      </trkpt>
      <trkpt lat="45.67472" lon="3.48243">
        <ele>451.47631835938</ele>
        <time>2009-05-17T09:11:58Z</time>
      </trkpt>
      <trkpt lat="45.67488" lon="3.4821">
        <ele>451.47631835938</ele>
        <time>2009-05-17T09:12:01Z</time>
      </trkpt>
      <trkpt lat="45.67513" lon="3.4818">
        <ele>451.47631835938</ele>
        <time>2009-05-17T09:12:05Z</time>
      </trkpt>
      <trkpt lat="45.6752" lon="3.48175">
        <ele>451.95703125</ele>
        <time>2009-05-17T09:12:06Z</time>
      </trkpt>
      <trkpt lat="45.67554" lon="3.48156">
        <ele>451.95703125</ele>
        <time>2009-05-17T09:12:11Z</time>
      </trkpt>
      <trkpt lat="45.67571" lon="3.48143">
        <ele>452.43762207031</ele>
        <time>2009-05-17T09:12:14Z</time>
      </trkpt>
      <trkpt lat="45.67582" lon="3.48134">
        <ele>452.91821289062</ele>
        <time>2009-05-17T09:12:16Z</time>
      </trkpt>
      <trkpt lat="45.676" lon="3.48127">
        <ele>454.36022949219</ele>
        <time>2009-05-17T09:12:19Z</time>
      </trkpt>
      <trkpt lat="45.67615" lon="3.48141">
        <ele>454.8408203125</ele>
        <time>2009-05-17T09:12:22Z</time>
      </trkpt>
      <trkpt lat="45.67618" lon="3.48149">
        <ele>455.32153320312</ele>
        <time>2009-05-17T09:12:23Z</time>
      </trkpt>
      <trkpt lat="45.67629" lon="3.4818">
        <ele>454.8408203125</ele>
        <time>2009-05-17T09:12:27Z</time>
      </trkpt>
      <trkpt lat="45.67648" lon="3.48231">
        <ele>455.80224609375</ele>
        <time>2009-05-17T09:12:34Z</time>
      </trkpt>
      <trkpt lat="45.67665" lon="3.48276">
        <ele>455.80224609375</ele>
        <time>2009-05-17T09:12:40Z</time>
      </trkpt>
      <trkpt lat="45.67683" lon="3.48295">
        <ele>455.32153320312</ele>
        <time>2009-05-17T09:12:44Z</time>
      </trkpt>
      <trkpt lat="45.67719" lon="3.48302">
        <ele>456.28295898438</ele>
        <time>2009-05-17T09:12:50Z</time>
      </trkpt>
      <trkpt lat="45.67739" lon="3.48316">
        <ele>456.76354980469</ele>
        <time>2009-05-17T09:12:54Z</time>
      </trkpt>
      <trkpt lat="45.67747" lon="3.48329">
        <ele>456.28295898438</ele>
        <time>2009-05-17T09:12:56Z</time>
      </trkpt>
      <trkpt lat="45.67764" lon="3.48357">
        <ele>455.80224609375</ele>
        <time>2009-05-17T09:13:00Z</time>
      </trkpt>
      <trkpt lat="45.67787" lon="3.48377">
        <ele>455.80224609375</ele>
        <time>2009-05-17T09:13:04Z</time>
      </trkpt>
      <trkpt lat="45.67828" lon="3.48392">
        <ele>456.28295898438</ele>
        <time>2009-05-17T09:13:10Z</time>
      </trkpt>
      <trkpt lat="45.67862" lon="3.48391">
        <ele>455.32153320312</ele>
        <time>2009-05-17T09:13:15Z</time>
      </trkpt>
      <trkpt lat="45.67908" lon="3.48388">
        <ele>456.28295898438</ele>
        <time>2009-05-17T09:13:22Z</time>
      </trkpt>
      <trkpt lat="45.67915" lon="3.48388">
        <ele>455.80224609375</ele>
        <time>2009-05-17T09:13:23Z</time>
      </trkpt>
      <trkpt lat="45.67952" lon="3.48405">
        <ele>457.24426269531</ele>
        <time>2009-05-17T09:13:29Z</time>
      </trkpt>
      <trkpt lat="45.67997" lon="3.48436">
        <ele>458.68615722656</ele>
        <time>2009-05-17T09:13:36Z</time>
      </trkpt>
      <trkpt lat="45.68032" lon="3.48456">
        <ele>457.72497558594</ele>
        <time>2009-05-17T09:13:41Z</time>
      </trkpt>
      <trkpt lat="45.68064" lon="3.48465">
        <ele>457.24426269531</ele>
        <time>2009-05-17T09:13:45Z</time>
      </trkpt>
      <trkpt lat="45.68108" lon="3.48465">
        <ele>455.80224609375</ele>
        <time>2009-05-17T09:13:50Z</time>
      </trkpt>
      <trkpt lat="45.68174" lon="3.48453">
        <ele>453.87963867188</ele>
        <time>2009-05-17T09:13:57Z</time>
      </trkpt>
      <trkpt lat="45.68212" lon="3.48447">
        <ele>452.43762207031</ele>
        <time>2009-05-17T09:14:01Z</time>
      </trkpt>
      <trkpt lat="45.68272" lon="3.48464">
        <ele>450.03442382812</ele>
        <time>2009-05-17T09:14:07Z</time>
      </trkpt>
      <trkpt lat="45.68321" lon="3.48488">
        <ele>447.15026855469</ele>
        <time>2009-05-17T09:14:12Z</time>
      </trkpt>
      <trkpt lat="45.68332" lon="3.48492">
        <ele>447.15026855469</ele>
        <time>2009-05-17T09:14:13Z</time>
      </trkpt>
      <trkpt lat="45.68352" lon="3.48502">
        <ele>446.66967773438</ele>
        <time>2009-05-17T09:14:15Z</time>
      </trkpt>
      <trkpt lat="45.68382" lon="3.48523">
        <ele>444.26647949219</ele>
        <time>2009-05-17T09:14:18Z</time>
      </trkpt>
      <trkpt lat="45.68391" lon="3.48532">
        <ele>444.26647949219</ele>
        <time>2009-05-17T09:14:19Z</time>
      </trkpt>
      <trkpt lat="45.68417" lon="3.48564">
        <ele>443.30505371094</ele>
        <time>2009-05-17T09:14:22Z</time>
      </trkpt>
      <trkpt lat="45.68434" lon="3.48588">
        <ele>442.82446289062</ele>
        <time>2009-05-17T09:14:24Z</time>
      </trkpt>
      <trkpt lat="45.68458" lon="3.48624">
        <ele>441.86315917969</ele>
        <time>2009-05-17T09:14:27Z</time>
      </trkpt>
      <trkpt lat="45.68495" lon="3.48677">
        <ele>440.42126464844</ele>
        <time>2009-05-17T09:14:32Z</time>
      </trkpt>
      <trkpt lat="45.68529" lon="3.48728">
        <ele>440.42126464844</ele>
        <time>2009-05-17T09:14:37Z</time>
      </trkpt>
      <trkpt lat="45.68546" lon="3.48758">
        <ele>440.90185546875</ele>
        <time>2009-05-17T09:14:40Z</time>
      </trkpt>
      <trkpt lat="45.68557" lon="3.48777">
        <ele>441.38244628906</ele>
        <time>2009-05-17T09:14:42Z</time>
      </trkpt>
      <trkpt lat="45.68578" lon="3.48815">
        <ele>441.86315917969</ele>
        <time>2009-05-17T09:14:46Z</time>
      </trkpt>
      <trkpt lat="45.68589" lon="3.48835">
        <ele>441.86315917969</ele>
        <time>2009-05-17T09:14:48Z</time>
      </trkpt>
      <trkpt lat="45.68595" lon="3.48845">
        <ele>441.86315917969</ele>
        <time>2009-05-17T09:14:49Z</time>
      </trkpt>
      <trkpt lat="45.686" lon="3.48855">
        <ele>441.86315917969</ele>
        <time>2009-05-17T09:14:50Z</time>
      </trkpt>
      <trkpt lat="45.68628" lon="3.48906">
        <ele>441.86315917969</ele>
        <time>2009-05-17T09:14:55Z</time>
      </trkpt>
      <trkpt lat="45.68645" lon="3.48935">
        <ele>442.82446289062</ele>
        <time>2009-05-17T09:14:58Z</time>
      </trkpt>
      <trkpt lat="45.68662" lon="3.48964">
        <ele>441.38244628906</ele>
        <time>2009-05-17T09:15:01Z</time>
      </trkpt>
      <trkpt lat="45.68676" lon="3.4899">
        <ele>441.86315917969</ele>
        <time>2009-05-17T09:15:04Z</time>
      </trkpt>
      <trkpt lat="45.68684" lon="3.49007">
        <ele>440.90185546875</ele>
        <time>2009-05-17T09:15:07Z</time>
      </trkpt>
      <trkpt lat="45.68689" lon="3.4902">
        <ele>441.38244628906</ele>
        <time>2009-05-17T09:15:12Z</time>
      </trkpt>
      <trkpt lat="45.68691" lon="3.49025">
        <ele>441.86315917969</ele>
        <time>2009-05-17T09:15:18Z</time>
      </trkpt>
      <trkpt lat="45.68689" lon="3.49021">
        <ele>441.38244628906</ele>
        <time>2009-05-17T09:15:20Z</time>
      </trkpt>
      <trkpt lat="45.68689" lon="3.49019">
        <ele>441.86315917969</ele>
        <time>2009-05-17T09:15:21Z</time>
      </trkpt>
      <trkpt lat="45.68689" lon="3.49017">
        <ele>441.86315917969</ele>
        <time>2009-05-17T09:15:25Z</time>
      </trkpt>
      <trkpt lat="45.68689" lon="3.49014">
        <ele>442.34387207031</ele>
        <time>2009-05-17T09:15:35Z</time>
      </trkpt>
      <trkpt lat="45.68689" lon="3.4901">
        <ele>441.86315917969</ele>
        <time>2009-05-17T09:15:40Z</time>
      </trkpt>
      <trkpt lat="45.68689" lon="3.49009">
        <ele>441.38244628906</ele>
        <time>2009-05-17T09:15:53Z</time>
      </trkpt>
      <trkpt lat="45.68689" lon="3.49012">
        <ele>441.38244628906</ele>
        <time>2009-05-17T09:16:06Z</time>
      </trkpt>
      <trkpt lat="45.68689" lon="3.49011">
        <ele>441.38244628906</ele>
        <time>2009-05-17T09:16:09Z</time>
      </trkpt>
      <trkpt lat="45.68689" lon="3.49011">
        <ele>440.90185546875</ele>
        <time>2009-05-17T09:16:13Z</time>
      </trkpt>
      <trkpt lat="45.68689" lon="3.49011">
        <ele>440.90185546875</ele>
        <time>2009-05-17T09:16:15Z</time>
      </trkpt>
      <trkpt lat="45.68689" lon="3.49011">
        <ele>440.90185546875</ele>
        <time>2009-05-17T09:16:16Z</time>
      </trkpt>
      <trkpt lat="45.68689" lon="3.4901">
        <ele>440.90185546875</ele>
        <time>2009-05-17T09:16:17Z</time>
      </trkpt>
      <trkpt lat="45.68689" lon="3.49011">
        <ele>440.90185546875</ele>
        <time>2009-05-17T09:16:19Z</time>
      </trkpt>
      <trkpt lat="45.68683" lon="3.49017">
        <ele>440.42126464844</ele>
        <time>2009-05-17T09:16:23Z</time>
      </trkpt>
      <trkpt lat="45.68671" lon="3.49051">
        <ele>439.9404296875</ele>
        <time>2009-05-17T09:16:28Z</time>
      </trkpt>
      <trkpt lat="45.68668" lon="3.49082">
        <ele>439.45971679688</ele>
        <time>2009-05-17T09:16:32Z</time>
      </trkpt>
      <trkpt lat="45.6866" lon="3.49115">
        <ele>438.01782226562</ele>
        <time>2009-05-17T09:16:36Z</time>
      </trkpt>
      <trkpt lat="45.68657" lon="3.49124">
        <ele>438.01782226562</ele>
        <time>2009-05-17T09:16:37Z</time>
      </trkpt>
      <trkpt lat="45.68638" lon="3.49187">
        <ele>436.09521484375</ele>
        <time>2009-05-17T09:16:44Z</time>
      </trkpt>
      <trkpt lat="45.68628" lon="3.49227">
        <ele>436.57592773438</ele>
        <time>2009-05-17T09:16:48Z</time>
      </trkpt>
      <trkpt lat="45.68629" lon="3.49264">
        <ele>436.57592773438</ele>
        <time>2009-05-17T09:16:52Z</time>
      </trkpt>
      <trkpt lat="45.68636" lon="3.49286">
        <ele>437.05651855469</ele>
        <time>2009-05-17T09:16:55Z</time>
      </trkpt>
      <trkpt lat="45.68647" lon="3.49323">
        <ele>438.49853515625</ele>
        <time>2009-05-17T09:17:00Z</time>
      </trkpt>
      <trkpt lat="45.68664" lon="3.4936">
        <ele>440.42126464844</ele>
        <time>2009-05-17T09:17:06Z</time>
      </trkpt>
      <trkpt lat="45.68672" lon="3.49377">
        <ele>441.38244628906</ele>
        <time>2009-05-17T09:17:09Z</time>
      </trkpt>
      <trkpt lat="45.68678" lon="3.49387">
        <ele>439.9404296875</ele>
        <time>2009-05-17T09:17:11Z</time>
      </trkpt>
      <trkpt lat="45.6869" lon="3.494">
        <ele>438.97912597656</ele>
        <time>2009-05-17T09:17:14Z</time>
      </trkpt>
      <trkpt lat="45.68695" lon="3.49404">
        <ele>438.97912597656</ele>
        <time>2009-05-17T09:17:15Z</time>
      </trkpt>
      <trkpt lat="45.68727" lon="3.49405">
        <ele>438.01782226562</ele>
        <time>2009-05-17T09:17:20Z</time>
      </trkpt>
      <trkpt lat="45.68739" lon="3.49397">
        <ele>437.537109375</ele>
        <time>2009-05-17T09:17:22Z</time>
      </trkpt>
      <trkpt lat="45.6875" lon="3.49388">
        <ele>437.537109375</ele>
        <time>2009-05-17T09:17:24Z</time>
      </trkpt>
      <trkpt lat="45.68787" lon="3.49379">
        <ele>435.61450195312</ele>
        <time>2009-05-17T09:17:30Z</time>
      </trkpt>
      <trkpt lat="45.68794" lon="3.49379">
        <ele>435.61450195312</ele>
        <time>2009-05-17T09:17:31Z</time>
      </trkpt>
      <trkpt lat="45.68812" lon="3.49387">
        <ele>435.61450195312</ele>
        <time>2009-05-17T09:17:34Z</time>
      </trkpt>
      <trkpt lat="45.68822" lon="3.49406">
        <ele>435.61450195312</ele>
        <time>2009-05-17T09:17:37Z</time>
      </trkpt>
      <trkpt lat="45.68827" lon="3.49419">
        <ele>435.13391113281</ele>
        <time>2009-05-17T09:17:39Z</time>
      </trkpt>
      <trkpt lat="45.68833" lon="3.49431">
        <ele>434.17260742188</ele>
        <time>2009-05-17T09:17:41Z</time>
      </trkpt>
      <trkpt lat="45.68843" lon="3.49467">
        <ele>432.73071289062</ele>
        <time>2009-05-17T09:17:46Z</time>
      </trkpt>
      <trkpt lat="45.68842" lon="3.49479">
        <ele>432.73071289062</ele>
        <time>2009-05-17T09:17:49Z</time>
      </trkpt>
      <trkpt lat="45.68842" lon="3.49485">
        <ele>432.25</ele>
        <time>2009-05-17T09:17:51Z</time>
      </trkpt>
      <trkpt lat="45.68842" lon="3.49491">
        <ele>432.25</ele>
        <time>2009-05-17T09:17:53Z</time>
      </trkpt>
      <trkpt lat="45.68841" lon="3.49494">
        <ele>432.25</ele>
        <time>2009-05-17T09:17:54Z</time>
      </trkpt>
      <trkpt lat="45.6884" lon="3.49497">
        <ele>431.76916503906</ele>
        <time>2009-05-17T09:17:55Z</time>
      </trkpt>
      <trkpt lat="45.6884" lon="3.49505">
        <ele>431.76916503906</ele>
        <time>2009-05-17T09:18:01Z</time>
      </trkpt>
      <trkpt lat="45.68839" lon="3.49505">
        <ele>431.76916503906</ele>
        <time>2009-05-17T09:18:05Z</time>
      </trkpt>
      <trkpt lat="45.68839" lon="3.49505">
        <ele>431.28857421875</ele>
        <time>2009-05-17T09:18:08Z</time>
      </trkpt>
      <trkpt lat="45.68839" lon="3.49505">
        <ele>431.28857421875</ele>
        <time>2009-05-17T09:18:09Z</time>
      </trkpt>
      <trkpt lat="45.68839" lon="3.49506">
        <ele>431.76916503906</ele>
        <time>2009-05-17T09:18:11Z</time>
      </trkpt>
      <trkpt lat="45.68839" lon="3.49506">
        <ele>431.28857421875</ele>
        <time>2009-05-17T09:18:12Z</time>
      </trkpt>
      <trkpt lat="45.68839" lon="3.49506">
        <ele>431.28857421875</ele>
        <time>2009-05-17T09:18:19Z</time>
      </trkpt>
      <trkpt lat="45.68839" lon="3.49506">
        <ele>431.28857421875</ele>
        <time>2009-05-17T09:18:41Z</time>
      </trkpt>
      <trkpt lat="45.68839" lon="3.49505">
        <ele>431.28857421875</ele>
        <time>2009-05-17T09:20:02Z</time>
      </trkpt>
      <trkpt lat="45.68839" lon="3.49505">
        <ele>429.84655761719</ele>
        <time>2009-05-17T09:20:55Z</time>
      </trkpt>
      <trkpt lat="45.6884" lon="3.49505">
        <ele>430.32727050781</ele>
        <time>2009-05-17T09:21:08Z</time>
      </trkpt>
      <trkpt lat="45.68839" lon="3.49505">
        <ele>430.32727050781</ele>
        <time>2009-05-17T09:21:25Z</time>
      </trkpt>
      <trkpt lat="45.68839" lon="3.49503">
        <ele>430.32727050781</ele>
        <time>2009-05-17T09:22:23Z</time>
      </trkpt>
      <trkpt lat="45.68839" lon="3.49503">
        <ele>430.32727050781</ele>
        <time>2009-05-17T09:22:24Z</time>
      </trkpt>
      <trkpt lat="45.6884" lon="3.49504">
        <ele>430.80798339844</ele>
        <time>2009-05-17T09:23:47Z</time>
      </trkpt>
      <trkpt lat="45.6884" lon="3.49505">
        <ele>431.28857421875</ele>
        <time>2009-05-17T09:24:34Z</time>
      </trkpt>
      <trkpt lat="45.68839" lon="3.49503">
        <ele>432.25</ele>
        <time>2009-05-17T09:27:07Z</time>
      </trkpt>
      <trkpt lat="45.68839" lon="3.49503">
        <ele>431.28857421875</ele>
        <time>2009-05-17T09:27:08Z</time>
      </trkpt>
      <trkpt lat="45.68837" lon="3.49499">
        <ele>431.76916503906</ele>
        <time>2009-05-17T09:27:15Z</time>
      </trkpt>
      <trkpt lat="45.68836" lon="3.49496">
        <ele>433.21130371094</ele>
        <time>2009-05-17T09:27:17Z</time>
      </trkpt>
      <trkpt lat="45.68835" lon="3.49495">
        <ele>432.73071289062</ele>
        <time>2009-05-17T09:27:19Z</time>
      </trkpt>
      <trkpt lat="45.68835" lon="3.49494">
        <ele>432.25</ele>
        <time>2009-05-17T09:27:37Z</time>
      </trkpt>
      <trkpt lat="45.68835" lon="3.49495">
        <ele>432.25</ele>
        <time>2009-05-17T09:27:46Z</time>
      </trkpt>
      <trkpt lat="45.68835" lon="3.49496">
        <ele>432.25</ele>
        <time>2009-05-17T09:27:53Z</time>
      </trkpt>
      <trkpt lat="45.68835" lon="3.49496">
        <ele>431.76916503906</ele>
        <time>2009-05-17T09:28:00Z</time>
      </trkpt>
      <trkpt lat="45.68836" lon="3.49495">
        <ele>432.25</ele>
        <time>2009-05-17T09:28:09Z</time>
      </trkpt>
      <trkpt lat="45.68837" lon="3.49486">
        <ele>431.76916503906</ele>
        <time>2009-05-17T09:28:13Z</time>
      </trkpt>
      <trkpt lat="45.68839" lon="3.49466">
        <ele>432.73071289062</ele>
        <time>2009-05-17T09:28:17Z</time>
      </trkpt>
      <trkpt lat="45.6884" lon="3.49455">
        <ele>432.73071289062</ele>
        <time>2009-05-17T09:28:19Z</time>
      </trkpt>
      <trkpt lat="45.68835" lon="3.49441">
        <ele>433.69189453125</ele>
        <time>2009-05-17T09:28:22Z</time>
      </trkpt>
      <trkpt lat="45.68832" lon="3.49432">
        <ele>434.6533203125</ele>
        <time>2009-05-17T09:28:24Z</time>
      </trkpt>
      <trkpt lat="45.68825" lon="3.49419">
        <ele>436.09521484375</ele>
        <time>2009-05-17T09:28:28Z</time>
      </trkpt>
      <trkpt lat="45.68819" lon="3.49405">
        <ele>436.09521484375</ele>
        <time>2009-05-17T09:28:32Z</time>
      </trkpt>
      <trkpt lat="45.68812" lon="3.49391">
        <ele>435.61450195312</ele>
        <time>2009-05-17T09:28:35Z</time>
      </trkpt>
      <trkpt lat="45.68793" lon="3.49379">
        <ele>436.09521484375</ele>
        <time>2009-05-17T09:28:40Z</time>
      </trkpt>
      <trkpt lat="45.68767" lon="3.49381">
        <ele>438.01782226562</ele>
        <time>2009-05-17T09:28:46Z</time>
      </trkpt>
      <trkpt lat="45.68747" lon="3.49388">
        <ele>437.537109375</ele>
        <time>2009-05-17T09:28:51Z</time>
      </trkpt>
      <trkpt lat="45.68727" lon="3.49402">
        <ele>438.49853515625</ele>
        <time>2009-05-17T09:28:56Z</time>
      </trkpt>
      <trkpt lat="45.68707" lon="3.4941">
        <ele>439.9404296875</ele>
        <time>2009-05-17T09:29:01Z</time>
      </trkpt>
      <trkpt lat="45.68682" lon="3.494">
        <ele>440.42126464844</ele>
        <time>2009-05-17T09:29:08Z</time>
      </trkpt>
      <trkpt lat="45.68661" lon="3.49369">
        <ele>442.34387207031</ele>
        <time>2009-05-17T09:29:17Z</time>
      </trkpt>
      <trkpt lat="45.68648" lon="3.49337">
        <ele>440.42126464844</ele>
        <time>2009-05-17T09:29:23Z</time>
      </trkpt>
      <trkpt lat="45.68629" lon="3.49276">
        <ele>439.45971679688</ele>
        <time>2009-05-17T09:29:31Z</time>
      </trkpt>
      <trkpt lat="45.68625" lon="3.4926">
        <ele>438.49853515625</ele>
        <time>2009-05-17T09:29:33Z</time>
      </trkpt>
      <trkpt lat="45.68626" lon="3.49227">
        <ele>437.537109375</ele>
        <time>2009-05-17T09:29:37Z</time>
      </trkpt>
      <trkpt lat="45.68628" lon="3.49219">
        <ele>437.05651855469</ele>
        <time>2009-05-17T09:29:38Z</time>
      </trkpt>
      <trkpt lat="45.68643" lon="3.4917">
        <ele>437.537109375</ele>
        <time>2009-05-17T09:29:45Z</time>
      </trkpt>
      <trkpt lat="45.68655" lon="3.49127">
        <ele>438.49853515625</ele>
        <time>2009-05-17T09:29:52Z</time>
      </trkpt>
      <trkpt lat="45.68663" lon="3.49104">
        <ele>438.49853515625</ele>
        <time>2009-05-17T09:29:56Z</time>
      </trkpt>
      <trkpt lat="45.6867" lon="3.49062">
        <ele>439.45971679688</ele>
        <time>2009-05-17T09:30:03Z</time>
      </trkpt>
      <trkpt lat="45.68671" lon="3.49044">
        <ele>439.45971679688</ele>
        <time>2009-05-17T09:30:06Z</time>
      </trkpt>
      <trkpt lat="45.6868" lon="3.49018">
        <ele>440.42126464844</ele>
        <time>2009-05-17T09:30:11Z</time>
      </trkpt>
      <trkpt lat="45.68682" lon="3.49008">
        <ele>440.42126464844</ele>
        <time>2009-05-17T09:30:13Z</time>
      </trkpt>
      <trkpt lat="45.68674" lon="3.4898">
        <ele>440.42126464844</ele>
        <time>2009-05-17T09:30:18Z</time>
      </trkpt>
      <trkpt lat="45.68649" lon="3.48937">
        <ele>440.42126464844</ele>
        <time>2009-05-17T09:30:26Z</time>
      </trkpt>
      <trkpt lat="45.68634" lon="3.48908">
        <ele>441.38244628906</ele>
        <time>2009-05-17T09:30:31Z</time>
      </trkpt>
      <trkpt lat="45.68628" lon="3.48877">
        <ele>441.86315917969</ele>
        <time>2009-05-17T09:30:36Z</time>
      </trkpt>
      <trkpt lat="45.68628" lon="3.48872">
        <ele>441.86315917969</ele>
        <time>2009-05-17T09:30:37Z</time>
      </trkpt>
      <trkpt lat="45.68632" lon="3.4886">
        <ele>443.30505371094</ele>
        <time>2009-05-17T09:30:40Z</time>
      </trkpt>
      <trkpt lat="45.6864" lon="3.4884">
        <ele>445.70837402344</ele>
        <time>2009-05-17T09:30:47Z</time>
      </trkpt>
      <trkpt lat="45.68643" lon="3.48832">
        <ele>446.66967773438</ele>
        <time>2009-05-17T09:30:50Z</time>
      </trkpt>
      <trkpt lat="45.68646" lon="3.48818">
        <ele>449.07299804688</ele>
        <time>2009-05-17T09:30:55Z</time>
      </trkpt>
      <trkpt lat="45.6865" lon="3.48802">
        <ele>450.03442382812</ele>
        <time>2009-05-17T09:31:01Z</time>
      </trkpt>
      <trkpt lat="45.68657" lon="3.48787">
        <ele>451.95703125</ele>
        <time>2009-05-17T09:31:08Z</time>
      </trkpt>
      <trkpt lat="45.68659" lon="3.48786">
        <ele>452.43762207031</ele>
        <time>2009-05-17T09:31:09Z</time>
      </trkpt>
      <trkpt lat="45.68663" lon="3.48788">
        <ele>453.39892578125</ele>
        <time>2009-05-17T09:31:11Z</time>
      </trkpt>
      <trkpt lat="45.68669" lon="3.48801">
        <ele>454.8408203125</ele>
        <time>2009-05-17T09:31:17Z</time>
      </trkpt>
      <trkpt lat="45.6867" lon="3.48806">
        <ele>455.32153320312</ele>
        <time>2009-05-17T09:31:19Z</time>
      </trkpt>
      <trkpt lat="45.68672" lon="3.48811">
        <ele>456.28295898438</ele>
        <time>2009-05-17T09:31:21Z</time>
      </trkpt>
      <trkpt lat="45.68678" lon="3.48826">
        <ele>458.20556640625</ele>
        <time>2009-05-17T09:31:27Z</time>
      </trkpt>
      <trkpt lat="45.68689" lon="3.48837">
        <ele>460.12817382812</ele>
        <time>2009-05-17T09:31:34Z</time>
      </trkpt>
      <trkpt lat="45.68699" lon="3.4884">
        <ele>460.60876464844</ele>
        <time>2009-05-17T09:31:40Z</time>
      </trkpt>
      <trkpt lat="45.68711" lon="3.48837">
        <ele>462.05078125</ele>
        <time>2009-05-17T09:31:46Z</time>
      </trkpt>
      <trkpt lat="45.68727" lon="3.4883">
        <ele>463.97338867188</ele>
        <time>2009-05-17T09:31:54Z</time>
      </trkpt>
      <trkpt lat="45.68731" lon="3.48827">
        <ele>464.93481445312</ele>
        <time>2009-05-17T09:31:56Z</time>
      </trkpt>
      <trkpt lat="45.68736" lon="3.48823">
        <ele>466.37670898438</ele>
        <time>2009-05-17T09:31:59Z</time>
      </trkpt>
      <trkpt lat="45.68749" lon="3.48808">
        <ele>467.81872558594</ele>
        <time>2009-05-17T09:32:07Z</time>
      </trkpt>
      <trkpt lat="45.68761" lon="3.48794">
        <ele>468.29931640625</ele>
        <time>2009-05-17T09:32:14Z</time>
      </trkpt>
      <trkpt lat="45.6877" lon="3.48786">
        <ele>471.18334960938</ele>
        <time>2009-05-17T09:32:19Z</time>
      </trkpt>
      <trkpt lat="45.68789" lon="3.4877">
        <ele>472.62536621094</ele>
        <time>2009-05-17T09:32:28Z</time>
      </trkpt>
      <trkpt lat="45.68801" lon="3.48752">
        <ele>474.06726074219</ele>
        <time>2009-05-17T09:32:34Z</time>
      </trkpt>
      <trkpt lat="45.6882" lon="3.4872">
        <ele>476.47058105469</ele>
        <time>2009-05-17T09:32:44Z</time>
      </trkpt>
      <trkpt lat="45.68838" lon="3.48691">
        <ele>477.91247558594</ele>
        <time>2009-05-17T09:32:53Z</time>
      </trkpt>
      <trkpt lat="45.68852" lon="3.48664">
        <ele>481.27722167969</ele>
        <time>2009-05-17T09:33:01Z</time>
      </trkpt>
      <trkpt lat="45.68872" lon="3.48625">
        <ele>483.68041992188</ele>
        <time>2009-05-17T09:33:12Z</time>
      </trkpt>
      <trkpt lat="45.68884" lon="3.48596">
        <ele>486.08374023438</ele>
        <time>2009-05-17T09:33:20Z</time>
      </trkpt>
      <trkpt lat="45.68891" lon="3.48569">
        <ele>488.48718261719</ele>
        <time>2009-05-17T09:33:27Z</time>
      </trkpt>
      <trkpt lat="45.68895" lon="3.48542">
        <ele>490.40979003906</ele>
        <time>2009-05-17T09:33:34Z</time>
      </trkpt>
      <trkpt lat="45.68899" lon="3.48514">
        <ele>493.77429199219</ele>
        <time>2009-05-17T09:33:41Z</time>
      </trkpt>
      <trkpt lat="45.68906" lon="3.48482">
        <ele>495.69689941406</ele>
        <time>2009-05-17T09:33:49Z</time>
      </trkpt>
      <trkpt lat="45.68911" lon="3.48441">
        <ele>498.10034179688</ele>
        <time>2009-05-17T09:33:59Z</time>
      </trkpt>
      <trkpt lat="45.68915" lon="3.48404">
        <ele>499.0615234375</ele>
        <time>2009-05-17T09:34:07Z</time>
      </trkpt>
      <trkpt lat="45.68922" lon="3.48352">
        <ele>501.94555664062</ele>
        <time>2009-05-17T09:34:17Z</time>
      </trkpt>
      <trkpt lat="45.68924" lon="3.48337">
        <ele>502.90673828125</ele>
        <time>2009-05-17T09:34:20Z</time>
      </trkpt>
      <trkpt lat="45.68933" lon="3.48293">
        <ele>504.82946777344</ele>
        <time>2009-05-17T09:34:29Z</time>
      </trkpt>
      <trkpt lat="45.6895" lon="3.48237">
        <ele>507.71350097656</ele>
        <time>2009-05-17T09:34:40Z</time>
      </trkpt>
      <trkpt lat="45.68957" lon="3.48212">
        <ele>508.19409179688</ele>
        <time>2009-05-17T09:34:45Z</time>
      </trkpt>
      <trkpt lat="45.68972" lon="3.4816">
        <ele>509.15539550781</ele>
        <time>2009-05-17T09:34:55Z</time>
      </trkpt>
      <trkpt lat="45.68974" lon="3.48155">
        <ele>509.63610839844</ele>
        <time>2009-05-17T09:34:56Z</time>
      </trkpt>
      <trkpt lat="45.68983" lon="3.48111">
        <ele>510.11669921875</ele>
        <time>2009-05-17T09:35:04Z</time>
      </trkpt>
      <trkpt lat="45.68992" lon="3.48074">
        <ele>511.55871582031</ele>
        <time>2009-05-17T09:35:11Z</time>
      </trkpt>
      <trkpt lat="45.69004" lon="3.48028">
        <ele>514.44262695312</ele>
        <time>2009-05-17T09:35:21Z</time>
      </trkpt>
      <trkpt lat="45.69011" lon="3.47999">
        <ele>516.84594726562</ele>
        <time>2009-05-17T09:35:28Z</time>
      </trkpt>
      <trkpt lat="45.69011" lon="3.47995">
        <ele>516.84594726562</ele>
        <time>2009-05-17T09:35:29Z</time>
      </trkpt>
      <trkpt lat="45.69011" lon="3.4798">
        <ele>516.365234375</ele>
        <time>2009-05-17T09:35:35Z</time>
      </trkpt>
      <trkpt lat="45.69017" lon="3.47964">
        <ele>517.32666015625</ele>
        <time>2009-05-17T09:35:42Z</time>
      </trkpt>
      <trkpt lat="45.69026" lon="3.47939">
        <ele>518.7685546875</ele>
        <time>2009-05-17T09:35:52Z</time>
      </trkpt>
      <trkpt lat="45.69035" lon="3.47916">
        <ele>521.17199707031</ele>
        <time>2009-05-17T09:36:02Z</time>
      </trkpt>
      <trkpt lat="45.69044" lon="3.47892">
        <ele>522.61389160156</ele>
        <time>2009-05-17T09:36:12Z</time>
      </trkpt>
      <trkpt lat="45.69053" lon="3.47869">
        <ele>523.5751953125</ele>
        <time>2009-05-17T09:36:21Z</time>
      </trkpt>
      <trkpt lat="45.69064" lon="3.47845">
        <ele>524.53649902344</ele>
        <time>2009-05-17T09:36:29Z</time>
      </trkpt>
      <trkpt lat="45.69076" lon="3.47824">
        <ele>525.01721191406</ele>
        <time>2009-05-17T09:36:36Z</time>
      </trkpt>
      <trkpt lat="45.69088" lon="3.478">
        <ele>525.01721191406</ele>
        <time>2009-05-17T09:36:43Z</time>
      </trkpt>
      <trkpt lat="45.69098" lon="3.47785">
        <ele>524.53649902344</ele>
        <time>2009-05-17T09:36:48Z</time>
      </trkpt>
      <trkpt lat="45.69113" lon="3.47766">
        <ele>525.01721191406</ele>
        <time>2009-05-17T09:36:55Z</time>
      </trkpt>
      <trkpt lat="45.69122" lon="3.4776">
        <ele>525.01721191406</ele>
        <time>2009-05-17T09:37:00Z</time>
      </trkpt>
      <trkpt lat="45.69128" lon="3.47756">
        <ele>523.5751953125</ele>
        <time>2009-05-17T09:37:07Z</time>
      </trkpt>
      <trkpt lat="45.69134" lon="3.47752">
        <ele>524.05578613281</ele>
        <time>2009-05-17T09:37:13Z</time>
      </trkpt>
      <trkpt lat="45.69137" lon="3.4775">
        <ele>524.05578613281</ele>
        <time>2009-05-17T09:37:19Z</time>
      </trkpt>
      <trkpt lat="45.69142" lon="3.47748">
        <ele>524.53649902344</ele>
        <time>2009-05-17T09:37:27Z</time>
      </trkpt>
      <trkpt lat="45.69152" lon="3.4774">
        <ele>524.53649902344</ele>
        <time>2009-05-17T09:37:35Z</time>
      </trkpt>
      <trkpt lat="45.69158" lon="3.47736">
        <ele>524.53649902344</ele>
        <time>2009-05-17T09:37:40Z</time>
      </trkpt>
      <trkpt lat="45.69167" lon="3.4773">
        <ele>523.5751953125</ele>
        <time>2009-05-17T09:37:46Z</time>
      </trkpt>
      <trkpt lat="45.69174" lon="3.47726">
        <ele>524.53649902344</ele>
        <time>2009-05-17T09:37:51Z</time>
      </trkpt>
      <trkpt lat="45.69185" lon="3.47718">
        <ele>524.53649902344</ele>
        <time>2009-05-17T09:37:57Z</time>
      </trkpt>
      <trkpt lat="45.69205" lon="3.477">
        <ele>523.09460449219</ele>
        <time>2009-05-17T09:38:05Z</time>
      </trkpt>
      <trkpt lat="45.69221" lon="3.47688">
        <ele>522.61389160156</ele>
        <time>2009-05-17T09:38:11Z</time>
      </trkpt>
      <trkpt lat="45.69228" lon="3.47683">
        <ele>521.65258789062</ele>
        <time>2009-05-17T09:38:15Z</time>
      </trkpt>
      <trkpt lat="45.69241" lon="3.47679">
        <ele>520.21057128906</ele>
        <time>2009-05-17T09:38:20Z</time>
      </trkpt>
      <trkpt lat="45.6925" lon="3.4768">
        <ele>519.24926757812</ele>
        <time>2009-05-17T09:38:24Z</time>
      </trkpt>
      <trkpt lat="45.69257" lon="3.47681">
        <ele>518.7685546875</ele>
        <time>2009-05-17T09:38:27Z</time>
      </trkpt>
      <trkpt lat="45.69275" lon="3.47679">
        <ele>518.28784179688</ele>
        <time>2009-05-17T09:38:33Z</time>
      </trkpt>
      <trkpt lat="45.69284" lon="3.47672">
        <ele>517.80725097656</ele>
        <time>2009-05-17T09:38:38Z</time>
      </trkpt>
      <trkpt lat="45.6929" lon="3.47662">
        <ele>516.365234375</ele>
        <time>2009-05-17T09:38:43Z</time>
      </trkpt>
      <trkpt lat="45.69292" lon="3.47642">
        <ele>517.80725097656</ele>
        <time>2009-05-17T09:38:49Z</time>
      </trkpt>
      <trkpt lat="45.69296" lon="3.47623">
        <ele>517.32666015625</ele>
        <time>2009-05-17T09:38:54Z</time>
      </trkpt>
      <trkpt lat="45.69302" lon="3.47606">
        <ele>516.365234375</ele>
        <time>2009-05-17T09:38:59Z</time>
      </trkpt>
      <trkpt lat="45.69316" lon="3.47593">
        <ele>516.365234375</ele>
        <time>2009-05-17T09:39:03Z</time>
      </trkpt>
      <trkpt lat="45.69333" lon="3.47583">
        <ele>515.88464355469</ele>
        <time>2009-05-17T09:39:08Z</time>
      </trkpt>
      <trkpt lat="45.69352" lon="3.47568">
        <ele>514.92333984375</ele>
        <time>2009-05-17T09:39:14Z</time>
      </trkpt>
      <trkpt lat="45.69361" lon="3.47557">
        <ele>513.00073242188</ele>
        <time>2009-05-17T09:39:17Z</time>
      </trkpt>
      <trkpt lat="45.69373" lon="3.47536">
        <ele>513.00073242188</ele>
        <time>2009-05-17T09:39:21Z</time>
      </trkpt>
      <trkpt lat="45.69377" lon="3.4753">
        <ele>512.03942871094</ele>
        <time>2009-05-17T09:39:22Z</time>
      </trkpt>
      <trkpt lat="45.69382" lon="3.47514">
        <ele>511.55871582031</ele>
        <time>2009-05-17T09:39:25Z</time>
      </trkpt>
      <trkpt lat="45.69379" lon="3.47504">
        <ele>510.59729003906</ele>
        <time>2009-05-17T09:39:27Z</time>
      </trkpt>
      <trkpt lat="45.69376" lon="3.47477">
        <ele>509.63610839844</ele>
        <time>2009-05-17T09:39:32Z</time>
      </trkpt>
      <trkpt lat="45.69386" lon="3.47455">
        <ele>507.71350097656</ele>
        <time>2009-05-17T09:39:37Z</time>
      </trkpt>
      <trkpt lat="45.69401" lon="3.47447">
        <ele>507.23278808594</ele>
        <time>2009-05-17T09:39:41Z</time>
      </trkpt>
      <trkpt lat="45.69409" lon="3.47445">
        <ele>506.271484375</ele>
        <time>2009-05-17T09:39:43Z</time>
      </trkpt>
      <trkpt lat="45.69432" lon="3.47438">
        <ele>504.82946777344</ele>
        <time>2009-05-17T09:39:49Z</time>
      </trkpt>
      <trkpt lat="45.69442" lon="3.47432">
        <ele>503.38745117188</ele>
        <time>2009-05-17T09:39:52Z</time>
      </trkpt>
      <trkpt lat="45.69453" lon="3.47421">
        <ele>502.42614746094</ele>
        <time>2009-05-17T09:39:56Z</time>
      </trkpt>
      <trkpt lat="45.69462" lon="3.47408">
        <ele>500.98413085938</ele>
        <time>2009-05-17T09:39:59Z</time>
      </trkpt>
      <trkpt lat="45.69485" lon="3.47385">
        <ele>500.02294921875</ele>
        <time>2009-05-17T09:40:04Z</time>
      </trkpt>
      <trkpt lat="45.69497" lon="3.47367">
        <ele>498.58093261719</ele>
        <time>2009-05-17T09:40:09Z</time>
      </trkpt>
      <trkpt lat="45.69499" lon="3.4735">
        <ele>498.58093261719</ele>
        <time>2009-05-17T09:40:14Z</time>
      </trkpt>
      <trkpt lat="45.695" lon="3.47345">
        <ele>499.0615234375</ele>
        <time>2009-05-17T09:40:16Z</time>
      </trkpt>
      <trkpt lat="45.69494" lon="3.47336">
        <ele>498.10034179688</ele>
        <time>2009-05-17T09:40:22Z</time>
      </trkpt>
      <trkpt lat="45.69493" lon="3.47335">
        <ele>498.10034179688</ele>
        <time>2009-05-17T09:40:30Z</time>
      </trkpt>
      <trkpt lat="45.6949" lon="3.47338">
        <ele>498.58093261719</ele>
        <time>2009-05-17T09:40:40Z</time>
      </trkpt>
      <trkpt lat="45.69489" lon="3.47337">
        <ele>498.10034179688</ele>
        <time>2009-05-17T09:40:45Z</time>
      </trkpt>
      <trkpt lat="45.69487" lon="3.47334">
        <ele>498.10034179688</ele>
        <time>2009-05-17T09:40:56Z</time>
      </trkpt>
      <trkpt lat="45.69482" lon="3.47329">
        <ele>498.58093261719</ele>
        <time>2009-05-17T09:41:00Z</time>
      </trkpt>
      <trkpt lat="45.69479" lon="3.47326">
        <ele>498.58093261719</ele>
        <time>2009-05-17T09:41:02Z</time>
      </trkpt>
      <trkpt lat="45.69475" lon="3.47324">
        <ele>498.58093261719</ele>
        <time>2009-05-17T09:41:04Z</time>
      </trkpt>
      <trkpt lat="45.69468" lon="3.4732">
        <ele>498.58093261719</ele>
        <time>2009-05-17T09:41:07Z</time>
      </trkpt>
      <trkpt lat="45.69455" lon="3.47316">
        <ele>500.02294921875</ele>
        <time>2009-05-17T09:41:14Z</time>
      </trkpt>
      <trkpt lat="45.69448" lon="3.47313">
        <ele>502.42614746094</ele>
        <time>2009-05-17T09:41:18Z</time>
      </trkpt>
      <trkpt lat="45.69444" lon="3.4731">
        <ele>502.42614746094</ele>
        <time>2009-05-17T09:41:21Z</time>
      </trkpt>
      <trkpt lat="45.6944" lon="3.47308">
        <ele>503.38745117188</ele>
        <time>2009-05-17T09:41:24Z</time>
      </trkpt>
      <trkpt lat="45.69439" lon="3.47307">
        <ele>503.8681640625</ele>
        <time>2009-05-17T09:41:25Z</time>
      </trkpt>
      <trkpt lat="45.69436" lon="3.47306">
        <ele>504.34887695312</ele>
        <time>2009-05-17T09:41:27Z</time>
      </trkpt>
      <trkpt lat="45.69428" lon="3.47302">
        <ele>504.82946777344</ele>
        <time>2009-05-17T09:41:33Z</time>
      </trkpt>
      <trkpt lat="45.69418" lon="3.47294">
        <ele>505.79089355469</ele>
        <time>2009-05-17T09:41:40Z</time>
      </trkpt>
      <trkpt lat="45.69406" lon="3.47282">
        <ele>508.67468261719</ele>
        <time>2009-05-17T09:41:48Z</time>
      </trkpt>
      <trkpt lat="45.69397" lon="3.47272">
        <ele>509.15539550781</ele>
        <time>2009-05-17T09:41:54Z</time>
      </trkpt>
      <trkpt lat="45.69384" lon="3.4726">
        <ele>509.15539550781</ele>
        <time>2009-05-17T09:42:01Z</time>
      </trkpt>
      <trkpt lat="45.69379" lon="3.47254">
        <ele>509.15539550781</ele>
        <time>2009-05-17T09:42:04Z</time>
      </trkpt>
      <trkpt lat="45.69382" lon="3.47243">
        <ele>508.67468261719</ele>
        <time>2009-05-17T09:42:09Z</time>
      </trkpt>
      <trkpt lat="45.69388" lon="3.4724">
        <ele>509.15539550781</ele>
        <time>2009-05-17T09:42:12Z</time>
      </trkpt>
      <trkpt lat="45.69407" lon="3.47233">
        <ele>509.63610839844</ele>
        <time>2009-05-17T09:42:18Z</time>
      </trkpt>
      <trkpt lat="45.69429" lon="3.47221">
        <ele>511.07800292969</ele>
        <time>2009-05-17T09:42:25Z</time>
      </trkpt>
      <trkpt lat="45.69457" lon="3.47201">
        <ele>511.07800292969</ele>
        <time>2009-05-17T09:42:33Z</time>
      </trkpt>
      <trkpt lat="45.69492" lon="3.47175">
        <ele>511.55871582031</ele>
        <time>2009-05-17T09:42:42Z</time>
      </trkpt>
      <trkpt lat="45.69515" lon="3.47157">
        <ele>512.03942871094</ele>
        <time>2009-05-17T09:42:48Z</time>
      </trkpt>
      <trkpt lat="45.69534" lon="3.47145">
        <ele>512.03942871094</ele>
        <time>2009-05-17T09:42:53Z</time>
      </trkpt>
      <trkpt lat="45.69561" lon="3.47136">
        <ele>513.00073242188</ele>
        <time>2009-05-17T09:43:00Z</time>
      </trkpt>
      <trkpt lat="45.69569" lon="3.47136">
        <ele>512.52001953125</ele>
        <time>2009-05-17T09:43:02Z</time>
      </trkpt>
      <trkpt lat="45.69598" lon="3.4713">
        <ele>513.00073242188</ele>
        <time>2009-05-17T09:43:09Z</time>
      </trkpt>
      <trkpt lat="45.69629" lon="3.47123">
        <ele>513.00073242188</ele>
        <time>2009-05-17T09:43:16Z</time>
      </trkpt>
      <trkpt lat="45.69652" lon="3.47118">
        <ele>513.00073242188</ele>
        <time>2009-05-17T09:43:21Z</time>
      </trkpt>
      <trkpt lat="45.69687" lon="3.47111">
        <ele>515.40405273438</ele>
        <time>2009-05-17T09:43:29Z</time>
      </trkpt>
      <trkpt lat="45.69695" lon="3.4711">
        <ele>514.44262695312</ele>
        <time>2009-05-17T09:43:31Z</time>
      </trkpt>
      <trkpt lat="45.69726" lon="3.47113">
        <ele>516.365234375</ele>
        <time>2009-05-17T09:43:39Z</time>
      </trkpt>
      <trkpt lat="45.69748" lon="3.47118">
        <ele>517.80725097656</ele>
        <time>2009-05-17T09:43:45Z</time>
      </trkpt>
      <trkpt lat="45.69766" lon="3.47117">
        <ele>518.7685546875</ele>
        <time>2009-05-17T09:43:50Z</time>
      </trkpt>
      <trkpt lat="45.69778" lon="3.4711">
        <ele>519.72985839844</ele>
        <time>2009-05-17T09:43:53Z</time>
      </trkpt>
      <trkpt lat="45.69799" lon="3.47088">
        <ele>520.21057128906</ele>
        <time>2009-05-17T09:43:59Z</time>
      </trkpt>
      <trkpt lat="45.69821" lon="3.47073">
        <ele>520.69128417969</ele>
        <time>2009-05-17T09:44:04Z</time>
      </trkpt>
      <trkpt lat="45.69846" lon="3.47061">
        <ele>521.65258789062</ele>
        <time>2009-05-17T09:44:10Z</time>
      </trkpt>
      <trkpt lat="45.69859" lon="3.47055">
        <ele>522.61389160156</ele>
        <time>2009-05-17T09:44:13Z</time>
      </trkpt>
      <trkpt lat="45.699" lon="3.47046">
        <ele>522.61389160156</ele>
        <time>2009-05-17T09:44:23Z</time>
      </trkpt>
      <trkpt lat="45.69928" lon="3.47041">
        <ele>523.09460449219</ele>
        <time>2009-05-17T09:44:30Z</time>
      </trkpt>
      <trkpt lat="45.69947" lon="3.47027">
        <ele>523.09460449219</ele>
        <time>2009-05-17T09:44:35Z</time>
      </trkpt>
      <trkpt lat="45.69953" lon="3.47019">
        <ele>523.5751953125</ele>
        <time>2009-05-17T09:44:37Z</time>
      </trkpt>
      <trkpt lat="45.69961" lon="3.46998">
        <ele>523.5751953125</ele>
        <time>2009-05-17T09:44:41Z</time>
      </trkpt>
      <trkpt lat="45.69964" lon="3.46981">
        <ele>525.01721191406</ele>
        <time>2009-05-17T09:44:44Z</time>
      </trkpt>
      <trkpt lat="45.69966" lon="3.46969">
        <ele>524.53649902344</ele>
        <time>2009-05-17T09:44:46Z</time>
      </trkpt>
      <trkpt lat="45.6998" lon="3.4695">
        <ele>525.01721191406</ele>
        <time>2009-05-17T09:44:51Z</time>
      </trkpt>
      <trkpt lat="45.69995" lon="3.46955">
        <ele>525.01721191406</ele>
        <time>2009-05-17T09:44:55Z</time>
      </trkpt>
      <trkpt lat="45.7" lon="3.46962">
        <ele>526.45910644531</ele>
        <time>2009-05-17T09:44:57Z</time>
      </trkpt>
      <trkpt lat="45.70018" lon="3.46998">
        <ele>527.90100097656</ele>
        <time>2009-05-17T09:45:06Z</time>
      </trkpt>
      <trkpt lat="45.70037" lon="3.47011">
        <ele>529.82373046875</ele>
        <time>2009-05-17T09:45:12Z</time>
      </trkpt>
      <trkpt lat="45.70065" lon="3.47013">
        <ele>531.74633789062</ele>
        <time>2009-05-17T09:45:20Z</time>
      </trkpt>
      <trkpt lat="45.70097" lon="3.47014">
        <ele>532.70776367188</ele>
        <time>2009-05-17T09:45:29Z</time>
      </trkpt>
      <trkpt lat="45.70122" lon="3.47022">
        <ele>535.11096191406</ele>
        <time>2009-05-17T09:45:37Z</time>
      </trkpt>
      <trkpt lat="45.70144" lon="3.4702">
        <ele>537.03369140625</ele>
        <time>2009-05-17T09:45:44Z</time>
      </trkpt>
      <trkpt lat="45.7017" lon="3.47008">
        <ele>537.99499511719</ele>
        <time>2009-05-17T09:45:53Z</time>
      </trkpt>
      <trkpt lat="45.70197" lon="3.47004">
        <ele>538.95629882812</ele>
        <time>2009-05-17T09:46:02Z</time>
      </trkpt>
      <trkpt lat="45.70217" lon="3.47014">
        <ele>540.39831542969</ele>
        <time>2009-05-17T09:46:09Z</time>
      </trkpt>
      <trkpt lat="45.7023" lon="3.47025">
        <ele>541.84020996094</ele>
        <time>2009-05-17T09:46:14Z</time>
      </trkpt>
      <trkpt lat="45.70235" lon="3.47041">
        <ele>542.32092285156</ele>
        <time>2009-05-17T09:46:18Z</time>
      </trkpt>
      <trkpt lat="45.70236" lon="3.47079">
        <ele>541.84020996094</ele>
        <time>2009-05-17T09:46:25Z</time>
      </trkpt>
      <trkpt lat="45.70246" lon="3.47105">
        <ele>543.28210449219</ele>
        <time>2009-05-17T09:46:31Z</time>
      </trkpt>
      <trkpt lat="45.70257" lon="3.47124">
        <ele>544.24365234375</ele>
        <time>2009-05-17T09:46:37Z</time>
      </trkpt>
      <trkpt lat="45.70269" lon="3.47146">
        <ele>543.28210449219</ele>
        <time>2009-05-17T09:46:43Z</time>
      </trkpt>
      <trkpt lat="45.70282" lon="3.47169">
        <ele>542.32092285156</ele>
        <time>2009-05-17T09:46:49Z</time>
      </trkpt>
      <trkpt lat="45.70292" lon="3.47191">
        <ele>540.87890625</ele>
        <time>2009-05-17T09:46:54Z</time>
      </trkpt>
      <trkpt lat="45.70308" lon="3.47218">
        <ele>538.95629882812</ele>
        <time>2009-05-17T09:46:59Z</time>
      </trkpt>
      <trkpt lat="45.70317" lon="3.47234">
        <ele>538.47570800781</ele>
        <time>2009-05-17T09:47:02Z</time>
      </trkpt>
      <trkpt lat="45.70322" lon="3.47244">
        <ele>537.03369140625</ele>
        <time>2009-05-17T09:47:04Z</time>
      </trkpt>
      <trkpt lat="45.70328" lon="3.47252">
        <ele>536.55310058594</ele>
        <time>2009-05-17T09:47:06Z</time>
      </trkpt>
      <trkpt lat="45.70333" lon="3.47259">
        <ele>535.59155273438</ele>
        <time>2009-05-17T09:47:08Z</time>
      </trkpt>
      <trkpt lat="45.70343" lon="3.47274">
        <ele>535.59155273438</ele>
        <time>2009-05-17T09:47:13Z</time>
      </trkpt>
      <trkpt lat="45.70356" lon="3.4729">
        <ele>534.63037109375</ele>
        <time>2009-05-17T09:47:19Z</time>
      </trkpt>
      <trkpt lat="45.70364" lon="3.47302">
        <ele>534.14965820312</ele>
        <time>2009-05-17T09:47:23Z</time>
      </trkpt>
      <trkpt lat="45.70374" lon="3.47312">
        <ele>534.14965820312</ele>
        <time>2009-05-17T09:47:28Z</time>
      </trkpt>
      <trkpt lat="45.70378" lon="3.47319">
        <ele>533.18835449219</ele>
        <time>2009-05-17T09:47:32Z</time>
      </trkpt>
      <trkpt lat="45.70387" lon="3.47326">
        <ele>533.18835449219</ele>
        <time>2009-05-17T09:47:36Z</time>
      </trkpt>
      <trkpt lat="45.70394" lon="3.47335">
        <ele>532.70776367188</ele>
        <time>2009-05-17T09:47:39Z</time>
      </trkpt>
      <trkpt lat="45.70409" lon="3.47352">
        <ele>531.74633789062</ele>
        <time>2009-05-17T09:47:45Z</time>
      </trkpt>
      <trkpt lat="45.70424" lon="3.47369">
        <ele>531.26574707031</ele>
        <time>2009-05-17T09:47:51Z</time>
      </trkpt>
      <trkpt lat="45.70436" lon="3.47384">
        <ele>530.30444335938</ele>
        <time>2009-05-17T09:47:57Z</time>
      </trkpt>
      <trkpt lat="45.70443" lon="3.47391">
        <ele>530.78515625</ele>
        <time>2009-05-17T09:48:03Z</time>
      </trkpt>
      <trkpt lat="45.70446" lon="3.47395">
        <ele>529.82373046875</ele>
        <time>2009-05-17T09:48:08Z</time>
      </trkpt>
      <trkpt lat="45.70451" lon="3.47398">
        <ele>529.82373046875</ele>
        <time>2009-05-17T09:48:12Z</time>
      </trkpt>
      <trkpt lat="45.70462" lon="3.4741">
        <ele>529.82373046875</ele>
        <time>2009-05-17T09:48:21Z</time>
      </trkpt>
      <trkpt lat="45.70464" lon="3.47412">
        <ele>528.86254882812</ele>
        <time>2009-05-17T09:48:23Z</time>
      </trkpt>
      <trkpt lat="45.70467" lon="3.47419">
        <ele>528.86254882812</ele>
        <time>2009-05-17T09:48:30Z</time>
      </trkpt>
      <trkpt lat="45.70477" lon="3.47428">
        <ele>529.34313964844</ele>
        <time>2009-05-17T09:48:37Z</time>
      </trkpt>
      <trkpt lat="45.70484" lon="3.47433">
        <ele>529.34313964844</ele>
        <time>2009-05-17T09:48:40Z</time>
      </trkpt>
      <trkpt lat="45.70499" lon="3.47444">
        <ele>528.86254882812</ele>
        <time>2009-05-17T09:48:47Z</time>
      </trkpt>
      <trkpt lat="45.70507" lon="3.47451">
        <ele>527.42041015625</ele>
        <time>2009-05-17T09:48:52Z</time>
      </trkpt>
      <trkpt lat="45.70511" lon="3.47453">
        <ele>527.90100097656</ele>
        <time>2009-05-17T09:48:56Z</time>
      </trkpt>
      <trkpt lat="45.70523" lon="3.47462">
        <ele>527.42041015625</ele>
        <time>2009-05-17T09:49:01Z</time>
      </trkpt>
      <trkpt lat="45.70536" lon="3.47472">
        <ele>525.97839355469</ele>
        <time>2009-05-17T09:49:05Z</time>
      </trkpt>
      <trkpt lat="45.70543" lon="3.47478">
        <ele>525.97839355469</ele>
        <time>2009-05-17T09:49:07Z</time>
      </trkpt>
      <trkpt lat="45.70558" lon="3.47495">
        <ele>525.49780273438</ele>
        <time>2009-05-17T09:49:12Z</time>
      </trkpt>
      <trkpt lat="45.70578" lon="3.4752">
        <ele>523.09460449219</ele>
        <time>2009-05-17T09:49:18Z</time>
      </trkpt>
      <trkpt lat="45.70591" lon="3.47535">
        <ele>522.61389160156</ele>
        <time>2009-05-17T09:49:22Z</time>
      </trkpt>
      <trkpt lat="45.70611" lon="3.47545">
        <ele>522.61389160156</ele>
        <time>2009-05-17T09:49:27Z</time>
      </trkpt>
      <trkpt lat="45.70614" lon="3.47546">
        <ele>522.61389160156</ele>
        <time>2009-05-17T09:49:28Z</time>
      </trkpt>
      <trkpt lat="45.7063" lon="3.47549">
        <ele>523.09460449219</ele>
        <time>2009-05-17T09:49:34Z</time>
      </trkpt>
      <trkpt lat="45.70634" lon="3.4755">
        <ele>521.65258789062</ele>
        <time>2009-05-17T09:49:36Z</time>
      </trkpt>
      <trkpt lat="45.70645" lon="3.47544">
        <ele>524.05578613281</ele>
        <time>2009-05-17T09:49:42Z</time>
      </trkpt>
      <trkpt lat="45.7065" lon="3.47538">
        <ele>524.53649902344</ele>
        <time>2009-05-17T09:49:45Z</time>
      </trkpt>
      <trkpt lat="45.70654" lon="3.47533">
        <ele>524.53649902344</ele>
        <time>2009-05-17T09:49:47Z</time>
      </trkpt>
      <trkpt lat="45.70668" lon="3.47516">
        <ele>525.97839355469</ele>
        <time>2009-05-17T09:49:55Z</time>
      </trkpt>
      <trkpt lat="45.70673" lon="3.47511">
        <ele>526.93981933594</ele>
        <time>2009-05-17T09:49:58Z</time>
      </trkpt>
      <trkpt lat="45.70683" lon="3.47499">
        <ele>528.3818359375</ele>
        <time>2009-05-17T09:50:05Z</time>
      </trkpt>
      <trkpt lat="45.70691" lon="3.4749">
        <ele>529.34313964844</ele>
        <time>2009-05-17T09:50:10Z</time>
      </trkpt>
      <trkpt lat="45.70702" lon="3.47478">
        <ele>529.34313964844</ele>
        <time>2009-05-17T09:50:16Z</time>
      </trkpt>
      <trkpt lat="45.70707" lon="3.47472">
        <ele>529.82373046875</ele>
        <time>2009-05-17T09:50:19Z</time>
      </trkpt>
      <trkpt lat="45.70724" lon="3.47452">
        <ele>530.78515625</ele>
        <time>2009-05-17T09:50:28Z</time>
      </trkpt>
      <trkpt lat="45.70744" lon="3.47429">
        <ele>531.74633789062</ele>
        <time>2009-05-17T09:50:38Z</time>
      </trkpt>
      <trkpt lat="45.70759" lon="3.47411">
        <ele>533.6689453125</ele>
        <time>2009-05-17T09:50:46Z</time>
      </trkpt>
      <trkpt lat="45.70778" lon="3.47389">
        <ele>534.63037109375</ele>
        <time>2009-05-17T09:50:56Z</time>
      </trkpt>
      <trkpt lat="45.70795" lon="3.47369">
        <ele>535.59155273438</ele>
        <time>2009-05-17T09:51:06Z</time>
      </trkpt>
      <trkpt lat="45.70807" lon="3.47356">
        <ele>537.03369140625</ele>
        <time>2009-05-17T09:51:13Z</time>
      </trkpt>
      <trkpt lat="45.70819" lon="3.47341">
        <ele>537.99499511719</ele>
        <time>2009-05-17T09:51:20Z</time>
      </trkpt>
      <trkpt lat="45.70837" lon="3.47321">
        <ele>539.43688964844</ele>
        <time>2009-05-17T09:51:30Z</time>
      </trkpt>
      <trkpt lat="45.70844" lon="3.47315">
        <ele>539.91760253906</ele>
        <time>2009-05-17T09:51:34Z</time>
      </trkpt>
      <trkpt lat="45.70852" lon="3.47327">
        <ele>539.43688964844</ele>
        <time>2009-05-17T09:51:39Z</time>
      </trkpt>
      <trkpt lat="45.70852" lon="3.47354">
        <ele>538.47570800781</ele>
        <time>2009-05-17T09:51:45Z</time>
      </trkpt>
      <trkpt lat="45.70847" lon="3.47388">
        <ele>537.99499511719</ele>
        <time>2009-05-17T09:51:51Z</time>
      </trkpt>
      <trkpt lat="45.70841" lon="3.47422">
        <ele>537.99499511719</ele>
        <time>2009-05-17T09:51:56Z</time>
      </trkpt>
      <trkpt lat="45.70837" lon="3.47442">
        <ele>536.55310058594</ele>
        <time>2009-05-17T09:51:59Z</time>
      </trkpt>
      <trkpt lat="45.70833" lon="3.47455">
        <ele>537.51428222656</ele>
        <time>2009-05-17T09:52:01Z</time>
      </trkpt>
      <trkpt lat="45.70817" lon="3.4749">
        <ele>537.51428222656</ele>
        <time>2009-05-17T09:52:07Z</time>
      </trkpt>
      <trkpt lat="45.70809" lon="3.47509">
        <ele>536.07238769531</ele>
        <time>2009-05-17T09:52:10Z</time>
      </trkpt>
      <trkpt lat="45.70804" lon="3.47521">
        <ele>535.59155273438</ele>
        <time>2009-05-17T09:52:12Z</time>
      </trkpt>
      <trkpt lat="45.70779" lon="3.47568">
        <ele>536.07238769531</ele>
        <time>2009-05-17T09:52:20Z</time>
      </trkpt>
      <trkpt lat="45.70764" lon="3.47601">
        <ele>536.07238769531</ele>
        <time>2009-05-17T09:52:25Z</time>
      </trkpt>
      <trkpt lat="45.70756" lon="3.4762">
        <ele>536.07238769531</ele>
        <time>2009-05-17T09:52:28Z</time>
      </trkpt>
      <trkpt lat="45.70743" lon="3.47651">
        <ele>537.51428222656</ele>
        <time>2009-05-17T09:52:33Z</time>
      </trkpt>
      <trkpt lat="45.70732" lon="3.4768">
        <ele>537.51428222656</ele>
        <time>2009-05-17T09:52:38Z</time>
      </trkpt>
      <trkpt lat="45.70724" lon="3.47699">
        <ele>536.55310058594</ele>
        <time>2009-05-17T09:52:42Z</time>
      </trkpt>
      <trkpt lat="45.70709" lon="3.47737">
        <ele>536.55310058594</ele>
        <time>2009-05-17T09:52:49Z</time>
      </trkpt>
      <trkpt lat="45.70699" lon="3.4776">
        <ele>535.59155273438</ele>
        <time>2009-05-17T09:52:53Z</time>
      </trkpt>
      <trkpt lat="45.70675" lon="3.47815">
        <ele>533.6689453125</ele>
        <time>2009-05-17T09:53:02Z</time>
      </trkpt>
      <trkpt lat="45.70648" lon="3.47873">
        <ele>534.14965820312</ele>
        <time>2009-05-17T09:53:11Z</time>
      </trkpt>
      <trkpt lat="45.70636" lon="3.47903">
        <ele>533.18835449219</ele>
        <time>2009-05-17T09:53:16Z</time>
      </trkpt>
      <trkpt lat="45.70628" lon="3.47921">
        <ele>532.22705078125</ele>
        <time>2009-05-17T09:53:19Z</time>
      </trkpt>
      <trkpt lat="45.70611" lon="3.4796">
        <ele>531.26574707031</ele>
        <time>2009-05-17T09:53:26Z</time>
      </trkpt>
      <trkpt lat="45.706" lon="3.47991">
        <ele>529.82373046875</ele>
        <time>2009-05-17T09:53:31Z</time>
      </trkpt>
      <trkpt lat="45.70601" lon="3.48018">
        <ele>529.34313964844</ele>
        <time>2009-05-17T09:53:35Z</time>
      </trkpt>
      <trkpt lat="45.70615" lon="3.48036">
        <ele>527.90100097656</ele>
        <time>2009-05-17T09:53:39Z</time>
      </trkpt>
      <trkpt lat="45.7063" lon="3.48049">
        <ele>526.93981933594</ele>
        <time>2009-05-17T09:53:43Z</time>
      </trkpt>
      <trkpt lat="45.70634" lon="3.48056">
        <ele>527.42041015625</ele>
        <time>2009-05-17T09:53:45Z</time>
      </trkpt>
      <trkpt lat="45.7065" lon="3.48082">
        <ele>525.49780273438</ele>
        <time>2009-05-17T09:53:51Z</time>
      </trkpt>
      <trkpt lat="45.70657" lon="3.48091">
        <ele>525.01721191406</ele>
        <time>2009-05-17T09:53:53Z</time>
      </trkpt>
      <trkpt lat="45.70664" lon="3.48105">
        <ele>523.5751953125</ele>
        <time>2009-05-17T09:53:56Z</time>
      </trkpt>
      <trkpt lat="45.70666" lon="3.48108">
        <ele>522.61389160156</ele>
        <time>2009-05-17T09:53:57Z</time>
      </trkpt>
      <trkpt lat="45.70672" lon="3.48109">
        <ele>522.13317871094</ele>
        <time>2009-05-17T09:54:02Z</time>
      </trkpt>
      <trkpt lat="45.70673" lon="3.48109">
        <ele>522.61389160156</ele>
        <time>2009-05-17T09:54:05Z</time>
      </trkpt>
      <trkpt lat="45.70676" lon="3.48105">
        <ele>523.09460449219</ele>
        <time>2009-05-17T09:54:08Z</time>
      </trkpt>
      <trkpt lat="45.7068" lon="3.48105">
        <ele>523.5751953125</ele>
        <time>2009-05-17T09:54:11Z</time>
      </trkpt>
      <trkpt lat="45.70683" lon="3.48107">
        <ele>524.05578613281</ele>
        <time>2009-05-17T09:54:13Z</time>
      </trkpt>
      <trkpt lat="45.70692" lon="3.48116">
        <ele>524.53649902344</ele>
        <time>2009-05-17T09:54:21Z</time>
      </trkpt>
      <trkpt lat="45.70698" lon="3.48124">
        <ele>525.01721191406</ele>
        <time>2009-05-17T09:54:26Z</time>
      </trkpt>
      <trkpt lat="45.70703" lon="3.48126">
        <ele>525.97839355469</ele>
        <time>2009-05-17T09:54:31Z</time>
      </trkpt>
      <trkpt lat="45.70706" lon="3.4813">
        <ele>525.97839355469</ele>
        <time>2009-05-17T09:54:36Z</time>
      </trkpt>
      <trkpt lat="45.70712" lon="3.48137">
        <ele>526.93981933594</ele>
        <time>2009-05-17T09:54:43Z</time>
      </trkpt>
      <trkpt lat="45.70715" lon="3.4814">
        <ele>527.42041015625</ele>
        <time>2009-05-17T09:54:48Z</time>
      </trkpt>
      <trkpt lat="45.70722" lon="3.48145">
        <ele>527.90100097656</ele>
        <time>2009-05-17T09:54:54Z</time>
      </trkpt>
      <trkpt lat="45.70723" lon="3.48147">
        <ele>527.90100097656</ele>
        <time>2009-05-17T09:54:55Z</time>
      </trkpt>
      <trkpt lat="45.70728" lon="3.48152">
        <ele>528.3818359375</ele>
        <time>2009-05-17T09:54:59Z</time>
      </trkpt>
      <trkpt lat="45.70737" lon="3.4816">
        <ele>528.3818359375</ele>
        <time>2009-05-17T09:55:04Z</time>
      </trkpt>
      <trkpt lat="45.70742" lon="3.48166">
        <ele>529.34313964844</ele>
        <time>2009-05-17T09:55:11Z</time>
      </trkpt>
      <trkpt lat="45.70743" lon="3.48168">
        <ele>528.86254882812</ele>
        <time>2009-05-17T09:55:13Z</time>
      </trkpt>
      <trkpt lat="45.70749" lon="3.4817">
        <ele>529.34313964844</ele>
        <time>2009-05-17T09:55:19Z</time>
      </trkpt>
      <trkpt lat="45.70751" lon="3.48174">
        <ele>529.34313964844</ele>
        <time>2009-05-17T09:55:22Z</time>
      </trkpt>
      <trkpt lat="45.70756" lon="3.48182">
        <ele>528.86254882812</ele>
        <time>2009-05-17T09:55:27Z</time>
      </trkpt>
      <trkpt lat="45.70766" lon="3.48189">
        <ele>528.86254882812</ele>
        <time>2009-05-17T09:55:35Z</time>
      </trkpt>
      <trkpt lat="45.70767" lon="3.48192">
        <ele>529.82373046875</ele>
        <time>2009-05-17T09:55:38Z</time>
      </trkpt>
      <trkpt lat="45.70773" lon="3.48204">
        <ele>529.82373046875</ele>
        <time>2009-05-17T09:55:44Z</time>
      </trkpt>
      <trkpt lat="45.70775" lon="3.48206">
        <ele>529.82373046875</ele>
        <time>2009-05-17T09:55:45Z</time>
      </trkpt>
      <trkpt lat="45.70785" lon="3.48218">
        <ele>528.86254882812</ele>
        <time>2009-05-17T09:55:50Z</time>
      </trkpt>
      <trkpt lat="45.70789" lon="3.48221">
        <ele>528.86254882812</ele>
        <time>2009-05-17T09:55:52Z</time>
      </trkpt>
      <trkpt lat="45.70802" lon="3.48235">
        <ele>528.86254882812</ele>
        <time>2009-05-17T09:55:59Z</time>
      </trkpt>
      <trkpt lat="45.70804" lon="3.48238">
        <ele>528.86254882812</ele>
        <time>2009-05-17T09:56:01Z</time>
      </trkpt>
      <trkpt lat="45.70812" lon="3.48251">
        <ele>529.34313964844</ele>
        <time>2009-05-17T09:56:06Z</time>
      </trkpt>
      <trkpt lat="45.70816" lon="3.48254">
        <ele>529.34313964844</ele>
        <time>2009-05-17T09:56:09Z</time>
      </trkpt>
      <trkpt lat="45.70826" lon="3.48264">
        <ele>528.3818359375</ele>
        <time>2009-05-17T09:56:14Z</time>
      </trkpt>
      <trkpt lat="45.70832" lon="3.48269">
        <ele>527.90100097656</ele>
        <time>2009-05-17T09:56:17Z</time>
      </trkpt>
      <trkpt lat="45.70843" lon="3.48279">
        <ele>526.93981933594</ele>
        <time>2009-05-17T09:56:22Z</time>
      </trkpt>
      <trkpt lat="45.70855" lon="3.48295">
        <ele>525.49780273438</ele>
        <time>2009-05-17T09:56:27Z</time>
      </trkpt>
      <trkpt lat="45.70861" lon="3.483">
        <ele>525.49780273438</ele>
        <time>2009-05-17T09:56:31Z</time>
      </trkpt>
      <trkpt lat="45.70861" lon="3.48299">
        <ele>525.49780273438</ele>
        <time>2009-05-17T09:56:34Z</time>
      </trkpt>
      <trkpt lat="45.70867" lon="3.48303">
        <ele>525.01721191406</ele>
        <time>2009-05-17T09:56:39Z</time>
      </trkpt>
      <trkpt lat="45.70871" lon="3.48311">
        <ele>525.49780273438</ele>
        <time>2009-05-17T09:56:45Z</time>
      </trkpt>
      <trkpt lat="45.7088" lon="3.4832">
        <ele>525.49780273438</ele>
        <time>2009-05-17T09:56:50Z</time>
      </trkpt>
      <trkpt lat="45.70892" lon="3.48331">
        <ele>525.01721191406</ele>
        <time>2009-05-17T09:56:56Z</time>
      </trkpt>
      <trkpt lat="45.70903" lon="3.48344">
        <ele>525.01721191406</ele>
        <time>2009-05-17T09:57:03Z</time>
      </trkpt>
      <trkpt lat="45.70915" lon="3.48359">
        <ele>524.53649902344</ele>
        <time>2009-05-17T09:57:08Z</time>
      </trkpt>
      <trkpt lat="45.7093" lon="3.48375">
        <ele>524.05578613281</ele>
        <time>2009-05-17T09:57:13Z</time>
      </trkpt>
      <trkpt lat="45.70943" lon="3.48386">
        <ele>522.13317871094</ele>
        <time>2009-05-17T09:57:17Z</time>
      </trkpt>
      <trkpt lat="45.70961" lon="3.48399">
        <ele>522.13317871094</ele>
        <time>2009-05-17T09:57:23Z</time>
      </trkpt>
      <trkpt lat="45.70967" lon="3.4841">
        <ele>522.13317871094</ele>
        <time>2009-05-17T09:57:27Z</time>
      </trkpt>
      <trkpt lat="45.70977" lon="3.48425">
        <ele>521.65258789062</ele>
        <time>2009-05-17T09:57:32Z</time>
      </trkpt>
      <trkpt lat="45.70988" lon="3.48438">
        <ele>521.65258789062</ele>
        <time>2009-05-17T09:57:37Z</time>
      </trkpt>
      <trkpt lat="45.70998" lon="3.48449">
        <ele>521.17199707031</ele>
        <time>2009-05-17T09:57:42Z</time>
      </trkpt>
      <trkpt lat="45.71001" lon="3.48453">
        <ele>521.17199707031</ele>
        <time>2009-05-17T09:57:44Z</time>
      </trkpt>
      <trkpt lat="45.71014" lon="3.48462">
        <ele>521.17199707031</ele>
        <time>2009-05-17T09:57:50Z</time>
      </trkpt>
      <trkpt lat="45.71025" lon="3.48477">
        <ele>521.17199707031</ele>
        <time>2009-05-17T09:57:55Z</time>
      </trkpt>
      <trkpt lat="45.71044" lon="3.48497">
        <ele>521.17199707031</ele>
        <time>2009-05-17T09:58:01Z</time>
      </trkpt>
      <trkpt lat="45.71063" lon="3.48516">
        <ele>520.21057128906</ele>
        <time>2009-05-17T09:58:07Z</time>
      </trkpt>
      <trkpt lat="45.71075" lon="3.48526">
        <ele>520.21057128906</ele>
        <time>2009-05-17T09:58:12Z</time>
      </trkpt>
      <trkpt lat="45.71088" lon="3.48537">
        <ele>519.72985839844</ele>
        <time>2009-05-17T09:58:17Z</time>
      </trkpt>
      <trkpt lat="45.71104" lon="3.48553">
        <ele>519.24926757812</ele>
        <time>2009-05-17T09:58:23Z</time>
      </trkpt>
      <trkpt lat="45.71114" lon="3.48565">
        <ele>517.80725097656</ele>
        <time>2009-05-17T09:58:28Z</time>
      </trkpt>
      <trkpt lat="45.71129" lon="3.48582">
        <ele>517.32666015625</ele>
        <time>2009-05-17T09:58:34Z</time>
      </trkpt>
      <trkpt lat="45.71141" lon="3.48596">
        <ele>516.365234375</ele>
        <time>2009-05-17T09:58:38Z</time>
      </trkpt>
      <trkpt lat="45.71151" lon="3.48611">
        <ele>513.96203613281</ele>
        <time>2009-05-17T09:58:42Z</time>
      </trkpt>
      <trkpt lat="45.71159" lon="3.48621">
        <ele>512.52001953125</ele>
        <time>2009-05-17T09:58:45Z</time>
      </trkpt>
      <trkpt lat="45.7116" lon="3.48624">
        <ele>512.03942871094</ele>
        <time>2009-05-17T09:58:46Z</time>
      </trkpt>
      <trkpt lat="45.71164" lon="3.48621">
        <ele>512.52001953125</ele>
        <time>2009-05-17T09:58:50Z</time>
      </trkpt>
      <trkpt lat="45.71165" lon="3.48611">
        <ele>512.52001953125</ele>
        <time>2009-05-17T09:58:53Z</time>
      </trkpt>
      <trkpt lat="45.71177" lon="3.48581">
        <ele>513.4814453125</ele>
        <time>2009-05-17T09:59:00Z</time>
      </trkpt>
      <trkpt lat="45.71187" lon="3.48566">
        <ele>513.96203613281</ele>
        <time>2009-05-17T09:59:04Z</time>
      </trkpt>
      <trkpt lat="45.7119" lon="3.48564">
        <ele>514.44262695312</ele>
        <time>2009-05-17T09:59:05Z</time>
      </trkpt>
      <trkpt lat="45.71197" lon="3.48565">
        <ele>514.44262695312</ele>
        <time>2009-05-17T09:59:07Z</time>
      </trkpt>
      <trkpt lat="45.71209" lon="3.4858">
        <ele>515.40405273438</ele>
        <time>2009-05-17T09:59:12Z</time>
      </trkpt>
      <trkpt lat="45.71212" lon="3.48585">
        <ele>516.365234375</ele>
        <time>2009-05-17T09:59:14Z</time>
      </trkpt>
      <trkpt lat="45.71218" lon="3.48593">
        <ele>517.32666015625</ele>
        <time>2009-05-17T09:59:19Z</time>
      </trkpt>
      <trkpt lat="45.71228" lon="3.48605">
        <ele>519.24926757812</ele>
        <time>2009-05-17T09:59:27Z</time>
      </trkpt>
      <trkpt lat="45.71231" lon="3.48611">
        <ele>520.21057128906</ele>
        <time>2009-05-17T09:59:31Z</time>
      </trkpt>
      <trkpt lat="45.71235" lon="3.48615">
        <ele>521.65258789062</ele>
        <time>2009-05-17T09:59:34Z</time>
      </trkpt>
      <trkpt lat="45.71243" lon="3.48626">
        <ele>523.5751953125</ele>
        <time>2009-05-17T09:59:42Z</time>
      </trkpt>
      <trkpt lat="45.71246" lon="3.4863">
        <ele>525.01721191406</ele>
        <time>2009-05-17T09:59:45Z</time>
      </trkpt>
      <trkpt lat="45.71251" lon="3.48637">
        <ele>528.3818359375</ele>
        <time>2009-05-17T09:59:50Z</time>
      </trkpt>
      <trkpt lat="45.71258" lon="3.48645">
        <ele>528.86254882812</ele>
        <time>2009-05-17T09:59:56Z</time>
      </trkpt>
      <trkpt lat="45.71267" lon="3.48657">
        <ele>529.34313964844</ele>
        <time>2009-05-17T10:00:03Z</time>
      </trkpt>
      <trkpt lat="45.7128" lon="3.48674">
        <ele>530.30444335938</ele>
        <time>2009-05-17T10:00:12Z</time>
      </trkpt>
      <trkpt lat="45.71293" lon="3.48692">
        <ele>529.82373046875</ele>
        <time>2009-05-17T10:00:21Z</time>
      </trkpt>
      <trkpt lat="45.71298" lon="3.48697">
        <ele>531.26574707031</ele>
        <time>2009-05-17T10:00:24Z</time>
      </trkpt>
      <trkpt lat="45.71309" lon="3.48715">
        <ele>533.6689453125</ele>
        <time>2009-05-17T10:00:33Z</time>
      </trkpt>
      <trkpt lat="45.71322" lon="3.48731">
        <ele>534.14965820312</ele>
        <time>2009-05-17T10:00:41Z</time>
      </trkpt>
      <trkpt lat="45.71338" lon="3.48753">
        <ele>536.07238769531</ele>
        <time>2009-05-17T10:00:49Z</time>
      </trkpt>
      <trkpt lat="45.71355" lon="3.48777">
        <ele>536.55310058594</ele>
        <time>2009-05-17T10:00:58Z</time>
      </trkpt>
      <trkpt lat="45.7137" lon="3.48798">
        <ele>539.43688964844</ele>
        <time>2009-05-17T10:01:08Z</time>
      </trkpt>
      <trkpt lat="45.71385" lon="3.48816">
        <ele>538.95629882812</ele>
        <time>2009-05-17T10:01:16Z</time>
      </trkpt>
      <trkpt lat="45.71402" lon="3.48838">
        <ele>541.84020996094</ele>
        <time>2009-05-17T10:01:25Z</time>
      </trkpt>
      <trkpt lat="45.71417" lon="3.48857">
        <ele>543.28210449219</ele>
        <time>2009-05-17T10:01:34Z</time>
      </trkpt>
      <trkpt lat="45.71421" lon="3.48862">
        <ele>544.72424316406</ele>
        <time>2009-05-17T10:01:36Z</time>
      </trkpt>
      <trkpt lat="45.71434" lon="3.48881">
        <ele>547.60815429688</ele>
        <time>2009-05-17T10:01:44Z</time>
      </trkpt>
      <trkpt lat="45.7145" lon="3.48904">
        <ele>549.05004882812</ele>
        <time>2009-05-17T10:01:53Z</time>
      </trkpt>
      <trkpt lat="45.71469" lon="3.48927">
        <ele>548.5693359375</ele>
        <time>2009-05-17T10:02:01Z</time>
      </trkpt>
      <trkpt lat="45.71481" lon="3.48943">
        <ele>547.60815429688</ele>
        <time>2009-05-17T10:02:06Z</time>
      </trkpt>
      <trkpt lat="45.71494" lon="3.48961">
        <ele>546.64685058594</ele>
        <time>2009-05-17T10:02:10Z</time>
      </trkpt>
      <trkpt lat="45.71513" lon="3.48987">
        <ele>545.20483398438</ele>
        <time>2009-05-17T10:02:16Z</time>
      </trkpt>
      <trkpt lat="45.71527" lon="3.49005">
        <ele>545.20483398438</ele>
        <time>2009-05-17T10:02:21Z</time>
      </trkpt>
      <trkpt lat="45.71535" lon="3.49016">
        <ele>546.16625976562</ele>
        <time>2009-05-17T10:02:24Z</time>
      </trkpt>
      <trkpt lat="45.71552" lon="3.49037">
        <ele>547.60815429688</ele>
        <time>2009-05-17T10:02:31Z</time>
      </trkpt>
      <trkpt lat="45.71559" lon="3.49046">
        <ele>549.05004882812</ele>
        <time>2009-05-17T10:02:35Z</time>
      </trkpt>
      <trkpt lat="45.71566" lon="3.49056">
        <ele>550.01147460938</ele>
        <time>2009-05-17T10:02:39Z</time>
      </trkpt>
      <trkpt lat="45.71568" lon="3.49058">
        <ele>550.01147460938</ele>
        <time>2009-05-17T10:02:40Z</time>
      </trkpt>
      <trkpt lat="45.71574" lon="3.49068">
        <ele>551.45336914062</ele>
        <time>2009-05-17T10:02:44Z</time>
      </trkpt>
      <trkpt lat="45.71583" lon="3.4908">
        <ele>552.41455078125</ele>
        <time>2009-05-17T10:02:49Z</time>
      </trkpt>
      <trkpt lat="45.71591" lon="3.49091">
        <ele>552.89526367188</ele>
        <time>2009-05-17T10:02:54Z</time>
      </trkpt>
      <trkpt lat="45.71607" lon="3.49109">
        <ele>554.81787109375</ele>
        <time>2009-05-17T10:03:03Z</time>
      </trkpt>
      <trkpt lat="45.71621" lon="3.49104">
        <ele>554.81787109375</ele>
        <time>2009-05-17T10:03:08Z</time>
      </trkpt>
      <trkpt lat="45.71645" lon="3.49083">
        <ele>553.85668945312</ele>
        <time>2009-05-17T10:03:15Z</time>
      </trkpt>
      <trkpt lat="45.71669" lon="3.49063">
        <ele>552.89526367188</ele>
        <time>2009-05-17T10:03:21Z</time>
      </trkpt>
      <trkpt lat="45.71697" lon="3.49039">
        <ele>551.93408203125</ele>
        <time>2009-05-17T10:03:27Z</time>
      </trkpt>
      <trkpt lat="45.71736" lon="3.49006">
        <ele>550.4921875</ele>
        <time>2009-05-17T10:03:34Z</time>
      </trkpt>
      <trkpt lat="45.71767" lon="3.4898">
        <ele>550.01147460938</ele>
        <time>2009-05-17T10:03:40Z</time>
      </trkpt>
      <trkpt lat="45.71789" lon="3.48962">
        <ele>549.53076171875</ele>
        <time>2009-05-17T10:03:45Z</time>
      </trkpt>
      <trkpt lat="45.71797" lon="3.48959">
        <ele>549.53076171875</ele>
        <time>2009-05-17T10:03:47Z</time>
      </trkpt>
      <trkpt lat="45.71801" lon="3.4896">
        <ele>549.05004882812</ele>
        <time>2009-05-17T10:03:48Z</time>
      </trkpt>
      <trkpt lat="45.71811" lon="3.48974">
        <ele>550.01147460938</ele>
        <time>2009-05-17T10:03:52Z</time>
      </trkpt>
      <trkpt lat="45.7181" lon="3.48995">
        <ele>550.01147460938</ele>
        <time>2009-05-17T10:03:56Z</time>
      </trkpt>
      <trkpt lat="45.7181" lon="3.49001">
        <ele>550.01147460938</ele>
        <time>2009-05-17T10:03:57Z</time>
      </trkpt>
      <trkpt lat="45.71816" lon="3.49035">
        <ele>549.05004882812</ele>
        <time>2009-05-17T10:04:02Z</time>
      </trkpt>
      <trkpt lat="45.71834" lon="3.49076">
        <ele>548.0888671875</ele>
        <time>2009-05-17T10:04:08Z</time>
      </trkpt>
      <trkpt lat="45.71863" lon="3.4914">
        <ele>546.64685058594</ele>
        <time>2009-05-17T10:04:16Z</time>
      </trkpt>
      <trkpt lat="45.71884" lon="3.49181">
        <ele>545.685546875</ele>
        <time>2009-05-17T10:04:21Z</time>
      </trkpt>
      <trkpt lat="45.71913" lon="3.49218">
        <ele>542.80151367188</ele>
        <time>2009-05-17T10:04:26Z</time>
      </trkpt>
      <trkpt lat="45.71955" lon="3.49259">
        <ele>540.87890625</ele>
        <time>2009-05-17T10:04:32Z</time>
      </trkpt>
      <trkpt lat="45.71962" lon="3.49265">
        <ele>540.39831542969</ele>
        <time>2009-05-17T10:04:33Z</time>
      </trkpt>
      <trkpt lat="45.72002" lon="3.49293">
        <ele>537.51428222656</ele>
        <time>2009-05-17T10:04:38Z</time>
      </trkpt>
      <trkpt lat="45.72011" lon="3.49299">
        <ele>537.03369140625</ele>
        <time>2009-05-17T10:04:39Z</time>
      </trkpt>
      <trkpt lat="45.72039" lon="3.49319">
        <ele>533.18835449219</ele>
        <time>2009-05-17T10:04:42Z</time>
      </trkpt>
      <trkpt lat="45.72049" lon="3.49326">
        <ele>532.22705078125</ele>
        <time>2009-05-17T10:04:43Z</time>
      </trkpt>
      <trkpt lat="45.72099" lon="3.49366">
        <ele>530.78515625</ele>
        <time>2009-05-17T10:04:48Z</time>
      </trkpt>
      <trkpt lat="45.72132" lon="3.49405">
        <ele>529.34313964844</ele>
        <time>2009-05-17T10:04:52Z</time>
      </trkpt>
      <trkpt lat="45.72155" lon="3.49454">
        <ele>526.93981933594</ele>
        <time>2009-05-17T10:04:56Z</time>
      </trkpt>
      <trkpt lat="45.72159" lon="3.49467">
        <ele>526.93981933594</ele>
        <time>2009-05-17T10:04:57Z</time>
      </trkpt>
      <trkpt lat="45.72173" lon="3.49518">
        <ele>525.97839355469</ele>
        <time>2009-05-17T10:05:01Z</time>
      </trkpt>
      <trkpt lat="45.72182" lon="3.49555">
        <ele>524.05578613281</ele>
        <time>2009-05-17T10:05:04Z</time>
      </trkpt>
      <trkpt lat="45.72203" lon="3.49597">
        <ele>522.61389160156</ele>
        <time>2009-05-17T10:05:09Z</time>
      </trkpt>
      <trkpt lat="45.72217" lon="3.49604">
        <ele>521.17199707031</ele>
        <time>2009-05-17T10:05:13Z</time>
      </trkpt>
      <trkpt lat="45.72224" lon="3.49594">
        <ele>519.72985839844</ele>
        <time>2009-05-17T10:05:15Z</time>
      </trkpt>
      <trkpt lat="45.72227" lon="3.49578">
        <ele>520.21057128906</ele>
        <time>2009-05-17T10:05:17Z</time>
      </trkpt>
      <trkpt lat="45.72227" lon="3.49526">
        <ele>517.32666015625</ele>
        <time>2009-05-17T10:05:22Z</time>
      </trkpt>
      <trkpt lat="45.72244" lon="3.49485">
        <ele>516.365234375</ele>
        <time>2009-05-17T10:05:26Z</time>
      </trkpt>
      <trkpt lat="45.72267" lon="3.49479">
        <ele>513.4814453125</ele>
        <time>2009-05-17T10:05:29Z</time>
      </trkpt>
      <trkpt lat="45.72281" lon="3.49485">
        <ele>510.11669921875</ele>
        <time>2009-05-17T10:05:31Z</time>
      </trkpt>
      <trkpt lat="45.72297" lon="3.4949">
        <ele>507.23278808594</ele>
        <time>2009-05-17T10:05:34Z</time>
      </trkpt>
      <trkpt lat="45.72348" lon="3.49495">
        <ele>504.82946777344</ele>
        <time>2009-05-17T10:05:41Z</time>
      </trkpt>
      <trkpt lat="45.72384" lon="3.49481">
        <ele>501.46484375</ele>
        <time>2009-05-17T10:05:46Z</time>
      </trkpt>
      <trkpt lat="45.72407" lon="3.49469">
        <ele>498.58093261719</ele>
        <time>2009-05-17T10:05:49Z</time>
      </trkpt>
      <trkpt lat="45.72453" lon="3.49445">
        <ele>495.69689941406</ele>
        <time>2009-05-17T10:05:55Z</time>
      </trkpt>
      <trkpt lat="45.7246" lon="3.49441">
        <ele>494.73559570312</ele>
        <time>2009-05-17T10:05:56Z</time>
      </trkpt>
      <trkpt lat="45.72486" lon="3.49427">
        <ele>493.29357910156</ele>
        <time>2009-05-17T10:06:00Z</time>
      </trkpt>
      <trkpt lat="45.72512" lon="3.49411">
        <ele>489.92907714844</ele>
        <time>2009-05-17T10:06:04Z</time>
      </trkpt>
      <trkpt lat="45.72534" lon="3.49401">
        <ele>488.00646972656</ele>
        <time>2009-05-17T10:06:07Z</time>
      </trkpt>
      <trkpt lat="45.72564" lon="3.49387">
        <ele>483.68041992188</ele>
        <time>2009-05-17T10:06:11Z</time>
      </trkpt>
      <trkpt lat="45.7258" lon="3.4938">
        <ele>482.71923828125</ele>
        <time>2009-05-17T10:06:13Z</time>
      </trkpt>
      <trkpt lat="45.72618" lon="3.49362">
        <ele>479.83508300781</ele>
        <time>2009-05-17T10:06:18Z</time>
      </trkpt>
      <trkpt lat="45.72652" lon="3.49347">
        <ele>477.43188476562</ele>
        <time>2009-05-17T10:06:22Z</time>
      </trkpt>
      <trkpt lat="45.72689" lon="3.4933">
        <ele>476.95129394531</ele>
        <time>2009-05-17T10:06:27Z</time>
      </trkpt>
      <trkpt lat="45.72707" lon="3.49321">
        <ele>477.91247558594</ele>
        <time>2009-05-17T10:06:31Z</time>
      </trkpt>
      <trkpt lat="45.72717" lon="3.49315">
        <ele>478.87390136719</ele>
        <time>2009-05-17T10:06:34Z</time>
      </trkpt>
      <trkpt lat="45.72729" lon="3.4931">
        <ele>481.27722167969</ele>
        <time>2009-05-17T10:06:38Z</time>
      </trkpt>
      <trkpt lat="45.72731" lon="3.49308">
        <ele>481.7578125</ele>
        <time>2009-05-17T10:06:39Z</time>
      </trkpt>
      <trkpt lat="45.72739" lon="3.49304">
        <ele>482.23852539062</ele>
        <time>2009-05-17T10:06:42Z</time>
      </trkpt>
      <trkpt lat="45.72742" lon="3.49303">
        <ele>482.23852539062</ele>
        <time>2009-05-17T10:06:43Z</time>
      </trkpt>
      <trkpt lat="45.72753" lon="3.49297">
        <ele>483.68041992188</ele>
        <time>2009-05-17T10:06:47Z</time>
      </trkpt>
      <trkpt lat="45.72764" lon="3.4929">
        <ele>484.64184570312</ele>
        <time>2009-05-17T10:06:51Z</time>
      </trkpt>
      <trkpt lat="45.72775" lon="3.49279">
        <ele>484.1611328125</ele>
        <time>2009-05-17T10:06:55Z</time>
      </trkpt>
      <trkpt lat="45.72784" lon="3.49267">
        <ele>485.12243652344</ele>
        <time>2009-05-17T10:06:59Z</time>
      </trkpt>
      <trkpt lat="45.72786" lon="3.49263">
        <ele>485.60302734375</ele>
        <time>2009-05-17T10:07:00Z</time>
      </trkpt>
      <trkpt lat="45.72788" lon="3.49255">
        <ele>485.60302734375</ele>
        <time>2009-05-17T10:07:04Z</time>
      </trkpt>
      <trkpt lat="45.72797" lon="3.49252">
        <ele>485.60302734375</ele>
        <time>2009-05-17T10:07:08Z</time>
      </trkpt>
      <trkpt lat="45.72813" lon="3.49251">
        <ele>481.27722167969</ele>
        <time>2009-05-17T10:07:12Z</time>
      </trkpt>
      <trkpt lat="45.72824" lon="3.49261">
        <ele>478.87390136719</ele>
        <time>2009-05-17T10:07:15Z</time>
      </trkpt>
      <trkpt lat="45.72836" lon="3.49279">
        <ele>476.95129394531</ele>
        <time>2009-05-17T10:07:19Z</time>
      </trkpt>
      <trkpt lat="45.7284" lon="3.49289">
        <ele>475.98986816406</ele>
        <time>2009-05-17T10:07:21Z</time>
      </trkpt>
      <trkpt lat="45.72845" lon="3.49311">
        <ele>473.10607910156</ele>
        <time>2009-05-17T10:07:24Z</time>
      </trkpt>
      <trkpt lat="45.7285" lon="3.49328">
        <ele>470.22192382812</ele>
        <time>2009-05-17T10:07:26Z</time>
      </trkpt>
      <trkpt lat="45.72861" lon="3.49365">
        <ele>467.33813476562</ele>
        <time>2009-05-17T10:07:30Z</time>
      </trkpt>
      <trkpt lat="45.72874" lon="3.49405">
        <ele>466.37670898438</ele>
        <time>2009-05-17T10:07:34Z</time>
      </trkpt>
      <trkpt lat="45.7288" lon="3.49424">
        <ele>465.89611816406</ele>
        <time>2009-05-17T10:07:36Z</time>
      </trkpt>
      <trkpt lat="45.72886" lon="3.49461">
        <ele>465.41552734375</ele>
        <time>2009-05-17T10:07:42Z</time>
      </trkpt>
      <trkpt lat="45.72889" lon="3.49501">
        <ele>464.93481445312</ele>
        <time>2009-05-17T10:07:48Z</time>
      </trkpt>
      <trkpt lat="45.72892" lon="3.49554">
        <ele>463.49279785156</ele>
        <time>2009-05-17T10:07:54Z</time>
      </trkpt>
      <trkpt lat="45.72893" lon="3.49595">
        <ele>459.64758300781</ele>
        <time>2009-05-17T10:07:58Z</time>
      </trkpt>
      <trkpt lat="45.72896" lon="3.49629">
        <ele>458.20556640625</ele>
        <time>2009-05-17T10:08:01Z</time>
      </trkpt>
      <trkpt lat="45.72898" lon="3.49669">
        <ele>455.32153320312</ele>
        <time>2009-05-17T10:08:04Z</time>
      </trkpt>
      <trkpt lat="45.72902" lon="3.49707">
        <ele>454.36022949219</ele>
        <time>2009-05-17T10:08:07Z</time>
      </trkpt>
      <trkpt lat="45.72916" lon="3.49772">
        <ele>452.43762207031</ele>
        <time>2009-05-17T10:08:13Z</time>
      </trkpt>
      <trkpt lat="45.72929" lon="3.49823">
        <ele>448.59240722656</ele>
        <time>2009-05-17T10:08:18Z</time>
      </trkpt>
      <trkpt lat="45.72936" lon="3.49842">
        <ele>447.15026855469</ele>
        <time>2009-05-17T10:08:20Z</time>
      </trkpt>
      <trkpt lat="45.72948" lon="3.49872">
        <ele>442.82446289062</ele>
        <time>2009-05-17T10:08:23Z</time>
      </trkpt>
      <trkpt lat="45.72962" lon="3.49896">
        <ele>441.86315917969</ele>
        <time>2009-05-17T10:08:26Z</time>
      </trkpt>
      <trkpt lat="45.72961" lon="3.49928">
        <ele>438.97912597656</ele>
        <time>2009-05-17T10:08:30Z</time>
      </trkpt>
      <trkpt lat="45.7295" lon="3.49948">
        <ele>435.13391113281</ele>
        <time>2009-05-17T10:08:33Z</time>
      </trkpt>
      <trkpt lat="45.72936" lon="3.49955">
        <ele>433.21130371094</ele>
        <time>2009-05-17T10:08:36Z</time>
      </trkpt>
      <trkpt lat="45.72923" lon="3.4996">
        <ele>428.40466308594</ele>
        <time>2009-05-17T10:08:40Z</time>
      </trkpt>
      <trkpt lat="45.72926" lon="3.49973">
        <ele>426.96276855469</ele>
        <time>2009-05-17T10:08:44Z</time>
      </trkpt>
      <trkpt lat="45.72934" lon="3.49978">
        <ele>426.00134277344</ele>
        <time>2009-05-17T10:08:46Z</time>
      </trkpt>
      <trkpt lat="45.72952" lon="3.49988">
        <ele>422.63671875</ele>
        <time>2009-05-17T10:08:50Z</time>
      </trkpt>
      <trkpt lat="45.72956" lon="3.49991">
        <ele>421.19482421875</ele>
        <time>2009-05-17T10:08:51Z</time>
      </trkpt>
      <trkpt lat="45.72972" lon="3.50001">
        <ele>419.27221679688</ele>
        <time>2009-05-17T10:08:54Z</time>
      </trkpt>
      <trkpt lat="45.72989" lon="3.50017">
        <ele>418.31079101562</ele>
        <time>2009-05-17T10:08:57Z</time>
      </trkpt>
      <trkpt lat="45.73" lon="3.50045">
        <ele>419.27221679688</ele>
        <time>2009-05-17T10:09:01Z</time>
      </trkpt>
      <trkpt lat="45.73002" lon="3.50051">
        <ele>419.27221679688</ele>
        <time>2009-05-17T10:09:02Z</time>
      </trkpt>
      <trkpt lat="45.7301" lon="3.50071">
        <ele>421.19482421875</ele>
        <time>2009-05-17T10:09:07Z</time>
      </trkpt>
      <trkpt lat="45.73014" lon="3.5008">
        <ele>420.71411132812</ele>
        <time>2009-05-17T10:09:09Z</time>
      </trkpt>
      <trkpt lat="45.73026" lon="3.50107">
        <ele>418.79150390625</ele>
        <time>2009-05-17T10:09:13Z</time>
      </trkpt>
      <trkpt lat="45.73034" lon="3.50125">
        <ele>417.349609375</ele>
        <time>2009-05-17T10:09:15Z</time>
      </trkpt>
      <trkpt lat="45.73038" lon="3.50135">
        <ele>415.42687988281</ele>
        <time>2009-05-17T10:09:16Z</time>
      </trkpt>
      <trkpt lat="45.73059" lon="3.50168">
        <ele>413.50427246094</ele>
        <time>2009-05-17T10:09:20Z</time>
      </trkpt>
      <trkpt lat="45.73068" lon="3.50186">
        <ele>412.54284667969</ele>
        <time>2009-05-17T10:09:22Z</time>
      </trkpt>
      <trkpt lat="45.73077" lon="3.50202">
        <ele>411.10095214844</ele>
        <time>2009-05-17T10:09:24Z</time>
      </trkpt>
      <trkpt lat="45.7308" lon="3.50207">
        <ele>410.62023925781</ele>
        <time>2009-05-17T10:09:25Z</time>
      </trkpt>
      <trkpt lat="45.7309" lon="3.50205">
        <ele>411.10095214844</ele>
        <time>2009-05-17T10:09:29Z</time>
      </trkpt>
      <trkpt lat="45.73093" lon="3.50207">
        <ele>412.06225585938</ele>
        <time>2009-05-17T10:09:31Z</time>
      </trkpt>
      <trkpt lat="45.73109" lon="3.50219">
        <ele>413.02355957031</ele>
        <time>2009-05-17T10:09:38Z</time>
      </trkpt>
      <trkpt lat="45.73111" lon="3.50232">
        <ele>415.42687988281</ele>
        <time>2009-05-17T10:09:42Z</time>
      </trkpt>
      <trkpt lat="45.73109" lon="3.5024">
        <ele>415.42687988281</ele>
        <time>2009-05-17T10:09:45Z</time>
      </trkpt>
      <trkpt lat="45.7311" lon="3.50259">
        <ele>417.349609375</ele>
        <time>2009-05-17T10:09:52Z</time>
      </trkpt>
      <trkpt lat="45.73116" lon="3.50275">
        <ele>418.31079101562</ele>
        <time>2009-05-17T10:09:57Z</time>
      </trkpt>
      <trkpt lat="45.73127" lon="3.50306">
        <ele>417.83020019531</ele>
        <time>2009-05-17T10:10:05Z</time>
      </trkpt>
      <trkpt lat="45.73137" lon="3.50336">
        <ele>418.79150390625</ele>
        <time>2009-05-17T10:10:12Z</time>
      </trkpt>
      <trkpt lat="45.73149" lon="3.50359">
        <ele>420.71411132812</ele>
        <time>2009-05-17T10:10:20Z</time>
      </trkpt>
      <trkpt lat="45.7316" lon="3.50376">
        <ele>421.67541503906</ele>
        <time>2009-05-17T10:10:28Z</time>
      </trkpt>
      <trkpt lat="45.7317" lon="3.5039">
        <ele>422.15600585938</ele>
        <time>2009-05-17T10:10:35Z</time>
      </trkpt>
      <trkpt lat="45.73182" lon="3.50407">
        <ele>424.07873535156</ele>
        <time>2009-05-17T10:10:44Z</time>
      </trkpt>
      <trkpt lat="45.73194" lon="3.50419">
        <ele>426.00134277344</ele>
        <time>2009-05-17T10:10:52Z</time>
      </trkpt>
      <trkpt lat="45.73207" lon="3.50429">
        <ele>426.96276855469</ele>
        <time>2009-05-17T10:11:00Z</time>
      </trkpt>
      <trkpt lat="45.73221" lon="3.50436">
        <ele>428.40466308594</ele>
        <time>2009-05-17T10:11:08Z</time>
      </trkpt>
      <trkpt lat="45.73242" lon="3.50441">
        <ele>429.36596679688</ele>
        <time>2009-05-17T10:11:18Z</time>
      </trkpt>
      <trkpt lat="45.73258" lon="3.50444">
        <ele>430.80798339844</ele>
        <time>2009-05-17T10:11:26Z</time>
      </trkpt>
      <trkpt lat="45.73273" lon="3.50446">
        <ele>432.25</ele>
        <time>2009-05-17T10:11:33Z</time>
      </trkpt>
      <trkpt lat="45.73287" lon="3.50445">
        <ele>433.69189453125</ele>
        <time>2009-05-17T10:11:40Z</time>
      </trkpt>
      <trkpt lat="45.733" lon="3.50441">
        <ele>434.6533203125</ele>
        <time>2009-05-17T10:11:47Z</time>
      </trkpt>
      <trkpt lat="45.7331" lon="3.50438">
        <ele>436.57592773438</ele>
        <time>2009-05-17T10:11:52Z</time>
      </trkpt>
      <trkpt lat="45.73323" lon="3.50437">
        <ele>438.49853515625</ele>
        <time>2009-05-17T10:11:59Z</time>
      </trkpt>
      <trkpt lat="45.73344" lon="3.50441">
        <ele>439.45971679688</ele>
        <time>2009-05-17T10:12:07Z</time>
      </trkpt>
      <trkpt lat="45.73368" lon="3.50444">
        <ele>439.9404296875</ele>
        <time>2009-05-17T10:12:15Z</time>
      </trkpt>
      <trkpt lat="45.73399" lon="3.50445">
        <ele>441.38244628906</ele>
        <time>2009-05-17T10:12:25Z</time>
      </trkpt>
      <trkpt lat="45.7342" lon="3.50446">
        <ele>442.34387207031</ele>
        <time>2009-05-17T10:12:32Z</time>
      </trkpt>
      <trkpt lat="45.73446" lon="3.5045">
        <ele>443.78576660156</ele>
        <time>2009-05-17T10:12:41Z</time>
      </trkpt>
      <trkpt lat="45.7346" lon="3.50449">
        <ele>444.7470703125</ele>
        <time>2009-05-17T10:12:48Z</time>
      </trkpt>
      <trkpt lat="45.73471" lon="3.50445">
        <ele>448.11181640625</ele>
        <time>2009-05-17T10:12:57Z</time>
      </trkpt>
      <trkpt lat="45.73475" lon="3.50438">
        <ele>449.5537109375</ele>
        <time>2009-05-17T10:13:02Z</time>
      </trkpt>
      <trkpt lat="45.73468" lon="3.50423">
        <ele>451.47631835938</ele>
        <time>2009-05-17T10:13:11Z</time>
      </trkpt>
      <trkpt lat="45.73466" lon="3.50409">
        <ele>452.91821289062</ele>
        <time>2009-05-17T10:13:18Z</time>
      </trkpt>
      <trkpt lat="45.73462" lon="3.50384">
        <ele>454.36022949219</ele>
        <time>2009-05-17T10:13:28Z</time>
      </trkpt>
      <trkpt lat="45.73458" lon="3.5036">
        <ele>454.8408203125</ele>
        <time>2009-05-17T10:13:36Z</time>
      </trkpt>
      <trkpt lat="45.73463" lon="3.50345">
        <ele>457.24426269531</ele>
        <time>2009-05-17T10:13:42Z</time>
      </trkpt>
      <trkpt lat="45.73477" lon="3.50336">
        <ele>457.24426269531</ele>
        <time>2009-05-17T10:13:48Z</time>
      </trkpt>
      <trkpt lat="45.73495" lon="3.50322">
        <ele>458.68615722656</ele>
        <time>2009-05-17T10:13:55Z</time>
      </trkpt>
      <trkpt lat="45.73506" lon="3.50299">
        <ele>457.24426269531</ele>
        <time>2009-05-17T10:14:01Z</time>
      </trkpt>
      <trkpt lat="45.73524" lon="3.50265">
        <ele>456.76354980469</ele>
        <time>2009-05-17T10:14:08Z</time>
      </trkpt>
      <trkpt lat="45.73541" lon="3.50247">
        <ele>456.28295898438</ele>
        <time>2009-05-17T10:14:12Z</time>
      </trkpt>
      <trkpt lat="45.73581" lon="3.50227">
        <ele>455.32153320312</ele>
        <time>2009-05-17T10:14:19Z</time>
      </trkpt>
      <trkpt lat="45.73598" lon="3.50218">
        <ele>455.32153320312</ele>
        <time>2009-05-17T10:14:22Z</time>
      </trkpt>
      <trkpt lat="45.73603" lon="3.50215">
        <ele>455.32153320312</ele>
        <time>2009-05-17T10:14:23Z</time>
      </trkpt>
      <trkpt lat="45.73626" lon="3.50207">
        <ele>454.8408203125</ele>
        <time>2009-05-17T10:14:27Z</time>
      </trkpt>
      <trkpt lat="45.7365" lon="3.50207">
        <ele>453.87963867188</ele>
        <time>2009-05-17T10:14:31Z</time>
      </trkpt>
      <trkpt lat="45.73691" lon="3.50219">
        <ele>452.91821289062</ele>
        <time>2009-05-17T10:14:38Z</time>
      </trkpt>
      <trkpt lat="45.73711" lon="3.50226">
        <ele>452.43762207031</ele>
        <time>2009-05-17T10:14:41Z</time>
      </trkpt>
      <trkpt lat="45.73724" lon="3.50228">
        <ele>451.95703125</ele>
        <time>2009-05-17T10:14:43Z</time>
      </trkpt>
      <trkpt lat="45.73737" lon="3.50228">
        <ele>450.99560546875</ele>
        <time>2009-05-17T10:14:45Z</time>
      </trkpt>
      <trkpt lat="45.73754" lon="3.50216">
        <ele>450.99560546875</ele>
        <time>2009-05-17T10:14:48Z</time>
      </trkpt>
      <trkpt lat="45.73763" lon="3.50192">
        <ele>451.47631835938</ele>
        <time>2009-05-17T10:14:52Z</time>
      </trkpt>
      <trkpt lat="45.73763" lon="3.50185">
        <ele>450.99560546875</ele>
        <time>2009-05-17T10:14:53Z</time>
      </trkpt>
      <trkpt lat="45.73763" lon="3.50157">
        <ele>451.95703125</ele>
        <time>2009-05-17T10:14:57Z</time>
      </trkpt>
      <trkpt lat="45.73756" lon="3.50114">
        <ele>453.39892578125</ele>
        <time>2009-05-17T10:15:05Z</time>
      </trkpt>
      <trkpt lat="45.73747" lon="3.50083">
        <ele>451.95703125</ele>
        <time>2009-05-17T10:15:11Z</time>
      </trkpt>
      <trkpt lat="45.7374" lon="3.50054">
        <ele>451.95703125</ele>
        <time>2009-05-17T10:15:16Z</time>
      </trkpt>
      <trkpt lat="45.73734" lon="3.49991">
        <ele>450.99560546875</ele>
        <time>2009-05-17T10:15:25Z</time>
      </trkpt>
      <trkpt lat="45.73724" lon="3.49969">
        <ele>450.51501464844</ele>
        <time>2009-05-17T10:15:29Z</time>
      </trkpt>
      <trkpt lat="45.73712" lon="3.49968">
        <ele>451.47631835938</ele>
        <time>2009-05-17T10:15:32Z</time>
      </trkpt>
      <trkpt lat="45.73703" lon="3.49968">
        <ele>452.43762207031</ele>
        <time>2009-05-17T10:15:35Z</time>
      </trkpt>
      <trkpt lat="45.73684" lon="3.49966">
        <ele>453.39892578125</ele>
        <time>2009-05-17T10:15:42Z</time>
      </trkpt>
      <trkpt lat="45.73676" lon="3.49952">
        <ele>453.87963867188</ele>
        <time>2009-05-17T10:15:47Z</time>
      </trkpt>
      <trkpt lat="45.73667" lon="3.4993">
        <ele>454.36022949219</ele>
        <time>2009-05-17T10:15:54Z</time>
      </trkpt>
      <trkpt lat="45.73656" lon="3.49909">
        <ele>454.8408203125</ele>
        <time>2009-05-17T10:16:01Z</time>
      </trkpt>
      <trkpt lat="45.73643" lon="3.49893">
        <ele>457.24426269531</ele>
        <time>2009-05-17T10:16:09Z</time>
      </trkpt>
      <trkpt lat="45.73627" lon="3.49878">
        <ele>459.16687011719</ele>
        <time>2009-05-17T10:16:18Z</time>
      </trkpt>
      <trkpt lat="45.73611" lon="3.49866">
        <ele>460.12817382812</ele>
        <time>2009-05-17T10:16:27Z</time>
      </trkpt>
      <trkpt lat="45.73598" lon="3.49855">
        <ele>461.57019042969</ele>
        <time>2009-05-17T10:16:36Z</time>
      </trkpt>
      <trkpt lat="45.73588" lon="3.49845">
        <ele>463.97338867188</ele>
        <time>2009-05-17T10:16:44Z</time>
      </trkpt>
      <trkpt lat="45.73581" lon="3.49836">
        <ele>464.93481445312</ele>
        <time>2009-05-17T10:16:51Z</time>
      </trkpt>
      <trkpt lat="45.73573" lon="3.49827">
        <ele>466.857421875</ele>
        <time>2009-05-17T10:16:58Z</time>
      </trkpt>
      <trkpt lat="45.73564" lon="3.4982">
        <ele>467.81872558594</ele>
        <time>2009-05-17T10:17:06Z</time>
      </trkpt>
      <trkpt lat="45.73557" lon="3.49814">
        <ele>471.18334960938</ele>
        <time>2009-05-17T10:17:13Z</time>
      </trkpt>
      <trkpt lat="45.73552" lon="3.49809">
        <ele>472.62536621094</ele>
        <time>2009-05-17T10:17:19Z</time>
      </trkpt>
      <trkpt lat="45.73547" lon="3.49793">
        <ele>474.06726074219</ele>
        <time>2009-05-17T10:17:28Z</time>
      </trkpt>
      <trkpt lat="45.73547" lon="3.4978">
        <ele>475.02868652344</ele>
        <time>2009-05-17T10:17:35Z</time>
      </trkpt>
      <trkpt lat="45.7355" lon="3.49764">
        <ele>475.50927734375</ele>
        <time>2009-05-17T10:17:42Z</time>
      </trkpt>
      <trkpt lat="45.73555" lon="3.49735">
        <ele>478.39318847656</ele>
        <time>2009-05-17T10:17:53Z</time>
      </trkpt>
      <trkpt lat="45.7356" lon="3.49703">
        <ele>478.39318847656</ele>
        <time>2009-05-17T10:18:04Z</time>
      </trkpt>
      <trkpt lat="45.73567" lon="3.49678">
        <ele>478.87390136719</ele>
        <time>2009-05-17T10:18:12Z</time>
      </trkpt>
      <trkpt lat="45.73578" lon="3.49672">
        <ele>481.7578125</ele>
        <time>2009-05-17T10:18:18Z</time>
      </trkpt>
      <trkpt lat="45.73593" lon="3.49667">
        <ele>482.71923828125</ele>
        <time>2009-05-17T10:18:27Z</time>
      </trkpt>
      <trkpt lat="45.73602" lon="3.49664">
        <ele>483.19982910156</ele>
        <time>2009-05-17T10:18:33Z</time>
      </trkpt>
      <trkpt lat="45.73614" lon="3.4966">
        <ele>484.1611328125</ele>
        <time>2009-05-17T10:18:41Z</time>
      </trkpt>
      <trkpt lat="45.73629" lon="3.49657">
        <ele>487.04504394531</ele>
        <time>2009-05-17T10:18:50Z</time>
      </trkpt>
      <trkpt lat="45.73642" lon="3.49652">
        <ele>488.9677734375</ele>
        <time>2009-05-17T10:18:59Z</time>
      </trkpt>
      <trkpt lat="45.73654" lon="3.49648">
        <ele>489.92907714844</ele>
        <time>2009-05-17T10:19:07Z</time>
      </trkpt>
      <trkpt lat="45.73668" lon="3.49645">
        <ele>492.81298828125</ele>
        <time>2009-05-17T10:19:16Z</time>
      </trkpt>
      <trkpt lat="45.73682" lon="3.49641">
        <ele>493.29357910156</ele>
        <time>2009-05-17T10:19:25Z</time>
      </trkpt>
      <trkpt lat="45.737" lon="3.49635">
        <ele>495.69689941406</ele>
        <time>2009-05-17T10:19:34Z</time>
      </trkpt>
      <trkpt lat="45.73716" lon="3.49629">
        <ele>494.73559570312</ele>
        <time>2009-05-17T10:19:42Z</time>
      </trkpt>
      <trkpt lat="45.73735" lon="3.49617">
        <ele>497.13891601562</ele>
        <time>2009-05-17T10:19:51Z</time>
      </trkpt>
      <trkpt lat="45.73742" lon="3.49612">
        <ele>498.58093261719</ele>
        <time>2009-05-17T10:19:54Z</time>
      </trkpt>
      <trkpt lat="45.73758" lon="3.49601">
        <ele>500.02294921875</ele>
        <time>2009-05-17T10:20:01Z</time>
      </trkpt>
      <trkpt lat="45.73776" lon="3.49588">
        <ele>500.98413085938</ele>
        <time>2009-05-17T10:20:08Z</time>
      </trkpt>
      <trkpt lat="45.73789" lon="3.49579">
        <ele>501.46484375</ele>
        <time>2009-05-17T10:20:13Z</time>
      </trkpt>
      <trkpt lat="45.73819" lon="3.49558">
        <ele>502.90673828125</ele>
        <time>2009-05-17T10:20:23Z</time>
      </trkpt>
      <trkpt lat="45.73851" lon="3.49536">
        <ele>501.94555664062</ele>
        <time>2009-05-17T10:20:32Z</time>
      </trkpt>
      <trkpt lat="45.73891" lon="3.49508">
        <ele>502.90673828125</ele>
        <time>2009-05-17T10:20:42Z</time>
      </trkpt>
      <trkpt lat="45.73904" lon="3.49499">
        <ele>504.34887695312</ele>
        <time>2009-05-17T10:20:47Z</time>
      </trkpt>
      <trkpt lat="45.73922" lon="3.49487">
        <ele>506.75207519531</ele>
        <time>2009-05-17T10:20:55Z</time>
      </trkpt>
      <trkpt lat="45.73947" lon="3.4947">
        <ele>507.71350097656</ele>
        <time>2009-05-17T10:21:04Z</time>
      </trkpt>
      <trkpt lat="45.73964" lon="3.49461">
        <ele>506.75207519531</ele>
        <time>2009-05-17T10:21:09Z</time>
      </trkpt>
      <trkpt lat="45.73986" lon="3.49446">
        <ele>507.23278808594</ele>
        <time>2009-05-17T10:21:15Z</time>
      </trkpt>
      <trkpt lat="45.74019" lon="3.4943">
        <ele>504.34887695312</ele>
        <time>2009-05-17T10:21:23Z</time>
      </trkpt>
      <trkpt lat="45.74023" lon="3.49428">
        <ele>504.34887695312</ele>
        <time>2009-05-17T10:21:24Z</time>
      </trkpt>
      <trkpt lat="45.74055" lon="3.49426">
        <ele>505.31018066406</ele>
        <time>2009-05-17T10:21:31Z</time>
      </trkpt>
      <trkpt lat="45.74059" lon="3.49426">
        <ele>505.31018066406</ele>
        <time>2009-05-17T10:21:32Z</time>
      </trkpt>
      <trkpt lat="45.74077" lon="3.49416">
        <ele>506.271484375</ele>
        <time>2009-05-17T10:21:36Z</time>
      </trkpt>
      <trkpt lat="45.74089" lon="3.49403">
        <ele>505.31018066406</ele>
        <time>2009-05-17T10:21:39Z</time>
      </trkpt>
      <trkpt lat="45.74112" lon="3.49375">
        <ele>503.8681640625</ele>
        <time>2009-05-17T10:21:44Z</time>
      </trkpt>
      <trkpt lat="45.74129" lon="3.4936">
        <ele>503.38745117188</ele>
        <time>2009-05-17T10:21:47Z</time>
      </trkpt>
      <trkpt lat="45.74158" lon="3.49348">
        <ele>501.46484375</ele>
        <time>2009-05-17T10:21:51Z</time>
      </trkpt>
      <trkpt lat="45.74207" lon="3.49344">
        <ele>500.50354003906</ele>
        <time>2009-05-17T10:21:57Z</time>
      </trkpt>
      <trkpt lat="45.7424" lon="3.49341">
        <ele>500.02294921875</ele>
        <time>2009-05-17T10:22:01Z</time>
      </trkpt>
      <trkpt lat="45.74268" lon="3.4935">
        <ele>498.10034179688</ele>
        <time>2009-05-17T10:22:05Z</time>
      </trkpt>
      <trkpt lat="45.74269" lon="3.49364">
        <ele>498.58093261719</ele>
        <time>2009-05-17T10:22:10Z</time>
      </trkpt>
      <trkpt lat="45.74266" lon="3.4937">
        <ele>498.58093261719</ele>
        <time>2009-05-17T10:22:12Z</time>
      </trkpt>
      <trkpt lat="45.74266" lon="3.4939">
        <ele>499.0615234375</ele>
        <time>2009-05-17T10:22:17Z</time>
      </trkpt>
      <trkpt lat="45.74268" lon="3.49402">
        <ele>499.54223632812</ele>
        <time>2009-05-17T10:22:19Z</time>
      </trkpt>
      <trkpt lat="45.74275" lon="3.49424">
        <ele>500.02294921875</ele>
        <time>2009-05-17T10:22:23Z</time>
      </trkpt>
      <trkpt lat="45.74276" lon="3.4943">
        <ele>500.50354003906</ele>
        <time>2009-05-17T10:22:24Z</time>
      </trkpt>
      <trkpt lat="45.74279" lon="3.49443">
        <ele>500.50354003906</ele>
        <time>2009-05-17T10:22:26Z</time>
      </trkpt>
      <trkpt lat="45.74281" lon="3.49464">
        <ele>500.50354003906</ele>
        <time>2009-05-17T10:22:29Z</time>
      </trkpt>
      <trkpt lat="45.74274" lon="3.4951">
        <ele>500.50354003906</ele>
        <time>2009-05-17T10:22:35Z</time>
      </trkpt>
      <trkpt lat="45.74274" lon="3.49541">
        <ele>500.50354003906</ele>
        <time>2009-05-17T10:22:39Z</time>
      </trkpt>
      <trkpt lat="45.74279" lon="3.49575">
        <ele>500.98413085938</ele>
        <time>2009-05-17T10:22:44Z</time>
      </trkpt>
      <trkpt lat="45.74275" lon="3.49607">
        <ele>502.42614746094</ele>
        <time>2009-05-17T10:22:49Z</time>
      </trkpt>
      <trkpt lat="45.74259" lon="3.49663">
        <ele>504.82946777344</ele>
        <time>2009-05-17T10:22:59Z</time>
      </trkpt>
      <trkpt lat="45.74257" lon="3.49702">
        <ele>506.75207519531</ele>
        <time>2009-05-17T10:23:06Z</time>
      </trkpt>
      <trkpt lat="45.74256" lon="3.49718">
        <ele>506.75207519531</ele>
        <time>2009-05-17T10:23:09Z</time>
      </trkpt>
      <trkpt lat="45.74263" lon="3.49749">
        <ele>504.82946777344</ele>
        <time>2009-05-17T10:23:14Z</time>
      </trkpt>
      <trkpt lat="45.74267" lon="3.49755">
        <ele>503.8681640625</ele>
        <time>2009-05-17T10:23:15Z</time>
      </trkpt>
      <trkpt lat="45.74278" lon="3.49768">
        <ele>502.42614746094</ele>
        <time>2009-05-17T10:23:17Z</time>
      </trkpt>
      <trkpt lat="45.74308" lon="3.49797">
        <ele>500.02294921875</ele>
        <time>2009-05-17T10:23:21Z</time>
      </trkpt>
      <trkpt lat="45.74334" lon="3.49816">
        <ele>497.61962890625</ele>
        <time>2009-05-17T10:23:24Z</time>
      </trkpt>
      <trkpt lat="45.74363" lon="3.49852">
        <ele>496.65832519531</ele>
        <time>2009-05-17T10:23:28Z</time>
      </trkpt>
      <trkpt lat="45.7437" lon="3.49875">
        <ele>494.73559570312</ele>
        <time>2009-05-17T10:23:30Z</time>
      </trkpt>
      <trkpt lat="45.74381" lon="3.49926">
        <ele>492.33239746094</ele>
        <time>2009-05-17T10:23:34Z</time>
      </trkpt>
      <trkpt lat="45.74387" lon="3.49952">
        <ele>488.9677734375</ele>
        <time>2009-05-17T10:23:36Z</time>
      </trkpt>
      <trkpt lat="45.74393" lon="3.49988">
        <ele>486.564453125</ele>
        <time>2009-05-17T10:23:39Z</time>
      </trkpt>
      <trkpt lat="45.74395" lon="3.49998">
        <ele>484.64184570312</ele>
        <time>2009-05-17T10:23:40Z</time>
      </trkpt>
      <trkpt lat="45.74397" lon="3.50007">
        <ele>483.19982910156</ele>
        <time>2009-05-17T10:23:41Z</time>
      </trkpt>
      <trkpt lat="45.74404" lon="3.50044">
        <ele>476.95129394531</ele>
        <time>2009-05-17T10:23:45Z</time>
      </trkpt>
      <trkpt lat="45.74406" lon="3.50055">
        <ele>476.95129394531</ele>
        <time>2009-05-17T10:23:46Z</time>
      </trkpt>
      <trkpt lat="45.74408" lon="3.50067">
        <ele>473.58666992188</ele>
        <time>2009-05-17T10:23:47Z</time>
      </trkpt>
      <trkpt lat="45.74414" lon="3.50103">
        <ele>470.22192382812</ele>
        <time>2009-05-17T10:23:50Z</time>
      </trkpt>
      <trkpt lat="45.74417" lon="3.5013">
        <ele>469.74133300781</ele>
        <time>2009-05-17T10:23:52Z</time>
      </trkpt>
      <trkpt lat="45.74422" lon="3.50159">
        <ele>466.37670898438</ele>
        <time>2009-05-17T10:23:54Z</time>
      </trkpt>
      <trkpt lat="45.74431" lon="3.50205">
        <ele>462.53137207031</ele>
        <time>2009-05-17T10:23:57Z</time>
      </trkpt>
      <trkpt lat="45.7444" lon="3.50251">
        <ele>458.20556640625</ele>
        <time>2009-05-17T10:24:00Z</time>
      </trkpt>
      <trkpt lat="45.74442" lon="3.50266">
        <ele>459.16687011719</ele>
        <time>2009-05-17T10:24:01Z</time>
      </trkpt>
      <trkpt lat="45.74451" lon="3.5031">
        <ele>456.28295898438</ele>
        <time>2009-05-17T10:24:04Z</time>
      </trkpt>
      <trkpt lat="45.74456" lon="3.5034">
        <ele>454.8408203125</ele>
        <time>2009-05-17T10:24:06Z</time>
      </trkpt>
      <trkpt lat="45.74463" lon="3.50384">
        <ele>451.47631835938</ele>
        <time>2009-05-17T10:24:09Z</time>
      </trkpt>
      <trkpt lat="45.74466" lon="3.50397">
        <ele>450.99560546875</ele>
        <time>2009-05-17T10:24:10Z</time>
      </trkpt>
      <trkpt lat="45.74474" lon="3.50438">
        <ele>448.11181640625</ele>
        <time>2009-05-17T10:24:13Z</time>
      </trkpt>
      <trkpt lat="45.74479" lon="3.50466">
        <ele>446.18908691406</ele>
        <time>2009-05-17T10:24:15Z</time>
      </trkpt>
      <trkpt lat="45.74485" lon="3.50506">
        <ele>445.22766113281</ele>
        <time>2009-05-17T10:24:18Z</time>
      </trkpt>
      <trkpt lat="45.74485" lon="3.50569">
        <ele>443.78576660156</ele>
        <time>2009-05-17T10:24:23Z</time>
      </trkpt>
      <trkpt lat="45.74485" lon="3.50618">
        <ele>445.70837402344</ele>
        <time>2009-05-17T10:24:28Z</time>
      </trkpt>
      <trkpt lat="45.74484" lon="3.50652">
        <ele>447.15026855469</ele>
        <time>2009-05-17T10:24:33Z</time>
      </trkpt>
      <trkpt lat="45.74481" lon="3.50675">
        <ele>448.59240722656</ele>
        <time>2009-05-17T10:24:38Z</time>
      </trkpt>
      <trkpt lat="45.7448" lon="3.50689">
        <ele>450.03442382812</ele>
        <time>2009-05-17T10:24:42Z</time>
      </trkpt>
      <trkpt lat="45.74479" lon="3.50707">
        <ele>451.95703125</ele>
        <time>2009-05-17T10:24:47Z</time>
      </trkpt>
      <trkpt lat="45.7448" lon="3.50724">
        <ele>452.43762207031</ele>
        <time>2009-05-17T10:24:52Z</time>
      </trkpt>
      <trkpt lat="45.74484" lon="3.50733">
        <ele>453.39892578125</ele>
        <time>2009-05-17T10:24:55Z</time>
      </trkpt>
      <trkpt lat="45.74491" lon="3.50743">
        <ele>453.87963867188</ele>
        <time>2009-05-17T10:24:59Z</time>
      </trkpt>
      <trkpt lat="45.74501" lon="3.50758">
        <ele>455.32153320312</ele>
        <time>2009-05-17T10:25:05Z</time>
      </trkpt>
      <trkpt lat="45.74506" lon="3.50766">
        <ele>456.28295898438</ele>
        <time>2009-05-17T10:25:08Z</time>
      </trkpt>
      <trkpt lat="45.74515" lon="3.50781">
        <ele>457.24426269531</ele>
        <time>2009-05-17T10:25:14Z</time>
      </trkpt>
      <trkpt lat="45.74528" lon="3.50808">
        <ele>459.64758300781</ele>
        <time>2009-05-17T10:25:23Z</time>
      </trkpt>
      <trkpt lat="45.74533" lon="3.50834">
        <ele>460.60876464844</ele>
        <time>2009-05-17T10:25:30Z</time>
      </trkpt>
      <trkpt lat="45.74534" lon="3.50859">
        <ele>461.57019042969</ele>
        <time>2009-05-17T10:25:36Z</time>
      </trkpt>
      <trkpt lat="45.74533" lon="3.50896">
        <ele>463.97338867188</ele>
        <time>2009-05-17T10:25:45Z</time>
      </trkpt>
      <trkpt lat="45.74533" lon="3.50924">
        <ele>464.93481445312</ele>
        <time>2009-05-17T10:25:52Z</time>
      </trkpt>
      <trkpt lat="45.74541" lon="3.50943">
        <ele>464.93481445312</ele>
        <time>2009-05-17T10:25:57Z</time>
      </trkpt>
      <trkpt lat="45.74551" lon="3.50965">
        <ele>464.93481445312</ele>
        <time>2009-05-17T10:26:02Z</time>
      </trkpt>
      <trkpt lat="45.74568" lon="3.51003">
        <ele>463.97338867188</ele>
        <time>2009-05-17T10:26:09Z</time>
      </trkpt>
      <trkpt lat="45.74571" lon="3.5101">
        <ele>463.01208496094</ele>
        <time>2009-05-17T10:26:10Z</time>
      </trkpt>
      <trkpt lat="45.74591" lon="3.51035">
        <ele>463.97338867188</ele>
        <time>2009-05-17T10:26:15Z</time>
      </trkpt>
      <trkpt lat="45.74597" lon="3.51035">
        <ele>463.97338867188</ele>
        <time>2009-05-17T10:26:16Z</time>
      </trkpt>
      <trkpt lat="45.74637" lon="3.51032">
        <ele>461.08947753906</ele>
        <time>2009-05-17T10:26:22Z</time>
      </trkpt>
      <trkpt lat="45.74654" lon="3.51031">
        <ele>459.64758300781</ele>
        <time>2009-05-17T10:26:24Z</time>
      </trkpt>
      <trkpt lat="45.74687" lon="3.51043">
        <ele>458.20556640625</ele>
        <time>2009-05-17T10:26:28Z</time>
      </trkpt>
      <trkpt lat="45.74709" lon="3.51053">
        <ele>458.20556640625</ele>
        <time>2009-05-17T10:26:31Z</time>
      </trkpt>
      <trkpt lat="45.74762" lon="3.51071">
        <ele>458.20556640625</ele>
        <time>2009-05-17T10:26:39Z</time>
      </trkpt>
      <trkpt lat="45.74785" lon="3.51088">
        <ele>458.20556640625</ele>
        <time>2009-05-17T10:26:43Z</time>
      </trkpt>
      <trkpt lat="45.74816" lon="3.51128">
        <ele>458.20556640625</ele>
        <time>2009-05-17T10:26:50Z</time>
      </trkpt>
      <trkpt lat="45.74838" lon="3.51178">
        <ele>457.72497558594</ele>
        <time>2009-05-17T10:26:57Z</time>
      </trkpt>
      <trkpt lat="45.74856" lon="3.51229">
        <ele>456.76354980469</ele>
        <time>2009-05-17T10:27:03Z</time>
      </trkpt>
      <trkpt lat="45.74878" lon="3.5128">
        <ele>456.76354980469</ele>
        <time>2009-05-17T10:27:10Z</time>
      </trkpt>
      <trkpt lat="45.74896" lon="3.51309">
        <ele>453.87963867188</ele>
        <time>2009-05-17T10:27:14Z</time>
      </trkpt>
      <trkpt lat="45.74926" lon="3.51333">
        <ele>451.95703125</ele>
        <time>2009-05-17T10:27:18Z</time>
      </trkpt>
      <trkpt lat="45.74951" lon="3.51348">
        <ele>450.99560546875</ele>
        <time>2009-05-17T10:27:21Z</time>
      </trkpt>
      <trkpt lat="45.74981" lon="3.51382">
        <ele>450.99560546875</ele>
        <time>2009-05-17T10:27:26Z</time>
      </trkpt>
      <trkpt lat="45.7499" lon="3.51394">
        <ele>451.95703125</ele>
        <time>2009-05-17T10:27:28Z</time>
      </trkpt>
      <trkpt lat="45.75003" lon="3.51416">
        <ele>453.87963867188</ele>
        <time>2009-05-17T10:27:32Z</time>
      </trkpt>
      <trkpt lat="45.75022" lon="3.51453">
        <ele>451.95703125</ele>
        <time>2009-05-17T10:27:38Z</time>
      </trkpt>
      <trkpt lat="45.75037" lon="3.5148">
        <ele>451.47631835938</ele>
        <time>2009-05-17T10:27:42Z</time>
      </trkpt>
      <trkpt lat="45.75074" lon="3.51536">
        <ele>450.99560546875</ele>
        <time>2009-05-17T10:27:50Z</time>
      </trkpt>
      <trkpt lat="45.75117" lon="3.51597">
        <ele>449.07299804688</ele>
        <time>2009-05-17T10:27:59Z</time>
      </trkpt>
      <trkpt lat="45.75157" lon="3.51643">
        <ele>449.07299804688</ele>
        <time>2009-05-17T10:28:06Z</time>
      </trkpt>
      <trkpt lat="45.75181" lon="3.51654">
        <ele>450.51501464844</ele>
        <time>2009-05-17T10:28:10Z</time>
      </trkpt>
      <trkpt lat="45.75201" lon="3.51669">
        <ele>450.51501464844</ele>
        <time>2009-05-17T10:28:14Z</time>
      </trkpt>
      <trkpt lat="45.75217" lon="3.51689">
        <ele>452.43762207031</ele>
        <time>2009-05-17T10:28:18Z</time>
      </trkpt>
      <trkpt lat="45.75233" lon="3.51711">
        <ele>451.95703125</ele>
        <time>2009-05-17T10:28:22Z</time>
      </trkpt>
      <trkpt lat="45.75242" lon="3.51723">
        <ele>451.95703125</ele>
        <time>2009-05-17T10:28:24Z</time>
      </trkpt>
      <trkpt lat="45.75246" lon="3.51729">
        <ele>451.47631835938</ele>
        <time>2009-05-17T10:28:25Z</time>
      </trkpt>
      <trkpt lat="45.75268" lon="3.51764">
        <ele>450.51501464844</ele>
        <time>2009-05-17T10:28:31Z</time>
      </trkpt>
      <trkpt lat="45.75283" lon="3.51795">
        <ele>450.99560546875</ele>
        <time>2009-05-17T10:28:36Z</time>
      </trkpt>
      <trkpt lat="45.75286" lon="3.51802">
        <ele>451.47631835938</ele>
        <time>2009-05-17T10:28:37Z</time>
      </trkpt>
      <trkpt lat="45.75314" lon="3.51849">
        <ele>450.03442382812</ele>
        <time>2009-05-17T10:28:45Z</time>
      </trkpt>
      <trkpt lat="45.75328" lon="3.51893">
        <ele>450.03442382812</ele>
        <time>2009-05-17T10:28:51Z</time>
      </trkpt>
      <trkpt lat="45.75338" lon="3.51911">
        <ele>449.5537109375</ele>
        <time>2009-05-17T10:28:54Z</time>
      </trkpt>
      <trkpt lat="45.75349" lon="3.5194">
        <ele>448.59240722656</ele>
        <time>2009-05-17T10:28:58Z</time>
      </trkpt>
      <trkpt lat="45.75361" lon="3.52">
        <ele>445.22766113281</ele>
        <time>2009-05-17T10:29:04Z</time>
      </trkpt>
      <trkpt lat="45.75364" lon="3.5201">
        <ele>445.22766113281</ele>
        <time>2009-05-17T10:29:05Z</time>
      </trkpt>
      <trkpt lat="45.75376" lon="3.5205">
        <ele>444.26647949219</ele>
        <time>2009-05-17T10:29:09Z</time>
      </trkpt>
      <trkpt lat="45.75382" lon="3.52066">
        <ele>443.78576660156</ele>
        <time>2009-05-17T10:29:12Z</time>
      </trkpt>
      <trkpt lat="45.75383" lon="3.52066">
        <ele>443.78576660156</ele>
        <time>2009-05-17T10:29:16Z</time>
      </trkpt>
      <trkpt lat="45.75383" lon="3.52066">
        <ele>443.30505371094</ele>
        <time>2009-05-17T10:29:22Z</time>
      </trkpt>
      <trkpt lat="45.75384" lon="3.52072">
        <ele>443.78576660156</ele>
        <time>2009-05-17T10:29:30Z</time>
      </trkpt>
      <trkpt lat="45.75391" lon="3.5209">
        <ele>443.30505371094</ele>
        <time>2009-05-17T10:29:35Z</time>
      </trkpt>
      <trkpt lat="45.75397" lon="3.52103">
        <ele>443.30505371094</ele>
        <time>2009-05-17T10:29:38Z</time>
      </trkpt>
      <trkpt lat="45.75404" lon="3.5212">
        <ele>442.34387207031</ele>
        <time>2009-05-17T10:29:41Z</time>
      </trkpt>
      <trkpt lat="45.75406" lon="3.52127">
        <ele>442.34387207031</ele>
        <time>2009-05-17T10:29:42Z</time>
      </trkpt>
      <trkpt lat="45.75414" lon="3.52157">
        <ele>442.34387207031</ele>
        <time>2009-05-17T10:29:46Z</time>
      </trkpt>
      <trkpt lat="45.7543" lon="3.52203">
        <ele>441.86315917969</ele>
        <time>2009-05-17T10:29:52Z</time>
      </trkpt>
      <trkpt lat="45.75442" lon="3.52234">
        <ele>441.86315917969</ele>
        <time>2009-05-17T10:29:56Z</time>
      </trkpt>
      <trkpt lat="45.75449" lon="3.52248">
        <ele>442.34387207031</ele>
        <time>2009-05-17T10:29:58Z</time>
      </trkpt>
      <trkpt lat="45.7546" lon="3.52269">
        <ele>442.82446289062</ele>
        <time>2009-05-17T10:30:01Z</time>
      </trkpt>
      <trkpt lat="45.75478" lon="3.52312">
        <ele>441.86315917969</ele>
        <time>2009-05-17T10:30:07Z</time>
      </trkpt>
      <trkpt lat="45.75494" lon="3.52336">
        <ele>440.42126464844</ele>
        <time>2009-05-17T10:30:11Z</time>
      </trkpt>
      <trkpt lat="45.75501" lon="3.52339">
        <ele>439.9404296875</ele>
        <time>2009-05-17T10:30:12Z</time>
      </trkpt>
      <trkpt lat="45.75536" lon="3.52343">
        <ele>438.97912597656</ele>
        <time>2009-05-17T10:30:17Z</time>
      </trkpt>
      <trkpt lat="45.75564" lon="3.52345">
        <ele>437.05651855469</ele>
        <time>2009-05-17T10:30:21Z</time>
      </trkpt>
      <trkpt lat="45.75571" lon="3.52344">
        <ele>436.09521484375</ele>
        <time>2009-05-17T10:30:22Z</time>
      </trkpt>
      <trkpt lat="45.75589" lon="3.52344">
        <ele>435.61450195312</ele>
        <time>2009-05-17T10:30:25Z</time>
      </trkpt>
      <trkpt lat="45.75615" lon="3.52345">
        <ele>435.13391113281</ele>
        <time>2009-05-17T10:30:29Z</time>
      </trkpt>
      <trkpt lat="45.75636" lon="3.52348">
        <ele>433.21130371094</ele>
        <time>2009-05-17T10:30:32Z</time>
      </trkpt>
      <trkpt lat="45.75681" lon="3.52347">
        <ele>431.76916503906</ele>
        <time>2009-05-17T10:30:38Z</time>
      </trkpt>
      <trkpt lat="45.75723" lon="3.52345">
        <ele>429.36596679688</ele>
        <time>2009-05-17T10:30:44Z</time>
      </trkpt>
      <trkpt lat="45.75754" lon="3.52343">
        <ele>427.92395019531</ele>
        <time>2009-05-17T10:30:48Z</time>
      </trkpt>
      <trkpt lat="45.75797" lon="3.52346">
        <ele>425.04016113281</ele>
        <time>2009-05-17T10:30:53Z</time>
      </trkpt>
      <trkpt lat="45.75824" lon="3.52343">
        <ele>421.19482421875</ele>
        <time>2009-05-17T10:30:56Z</time>
      </trkpt>
      <trkpt lat="45.75844" lon="3.52338">
        <ele>419.75280761719</ele>
        <time>2009-05-17T10:30:58Z</time>
      </trkpt>
      <trkpt lat="45.75881" lon="3.52327">
        <ele>417.349609375</ele>
        <time>2009-05-17T10:31:02Z</time>
      </trkpt>
      <trkpt lat="45.75891" lon="3.52324">
        <ele>415.90747070312</ele>
        <time>2009-05-17T10:31:03Z</time>
      </trkpt>
      <trkpt lat="45.7592" lon="3.52315">
        <ele>411.58166503906</ele>
        <time>2009-05-17T10:31:06Z</time>
      </trkpt>
      <trkpt lat="45.75941" lon="3.52309">
        <ele>406.77490234375</ele>
        <time>2009-05-17T10:31:08Z</time>
      </trkpt>
      <trkpt lat="45.75951" lon="3.52306">
        <ele>406.77490234375</ele>
        <time>2009-05-17T10:31:09Z</time>
      </trkpt>
      <trkpt lat="45.75992" lon="3.52308">
        <ele>400.52648925781</ele>
        <time>2009-05-17T10:31:13Z</time>
      </trkpt>
      <trkpt lat="45.76032" lon="3.52319">
        <ele>394.75854492188</ele>
        <time>2009-05-17T10:31:17Z</time>
      </trkpt>
      <trkpt lat="45.76042" lon="3.52322">
        <ele>394.27795410156</ele>
        <time>2009-05-17T10:31:18Z</time>
      </trkpt>
      <trkpt lat="45.76074" lon="3.52349">
        <ele>388.99060058594</ele>
        <time>2009-05-17T10:31:22Z</time>
      </trkpt>
      <trkpt lat="45.76088" lon="3.52365">
        <ele>387.06799316406</ele>
        <time>2009-05-17T10:31:24Z</time>
      </trkpt>
      <trkpt lat="45.76124" lon="3.5243">
        <ele>383.22265625</ele>
        <time>2009-05-17T10:31:30Z</time>
      </trkpt>
      <trkpt lat="45.7614" lon="3.5247">
        <ele>380.81945800781</ele>
        <time>2009-05-17T10:31:33Z</time>
      </trkpt>
      <trkpt lat="45.76155" lon="3.52509">
        <ele>378.41613769531</ele>
        <time>2009-05-17T10:31:36Z</time>
      </trkpt>
      <trkpt lat="45.76162" lon="3.5253">
        <ele>376.01281738281</ele>
        <time>2009-05-17T10:31:38Z</time>
      </trkpt>
      <trkpt lat="45.76176" lon="3.52548">
        <ele>373.60949707031</ele>
        <time>2009-05-17T10:31:42Z</time>
      </trkpt>
      <trkpt lat="45.76181" lon="3.52549">
        <ele>372.64819335938</ele>
        <time>2009-05-17T10:31:43Z</time>
      </trkpt>
      <trkpt lat="45.76193" lon="3.52551">
        <ele>372.16748046875</ele>
        <time>2009-05-17T10:31:45Z</time>
      </trkpt>
      <trkpt lat="45.76216" lon="3.52568">
        <ele>372.64819335938</ele>
        <time>2009-05-17T10:31:49Z</time>
      </trkpt>
      <trkpt lat="45.76222" lon="3.526">
        <ele>370.7255859375</ele>
        <time>2009-05-17T10:31:52Z</time>
      </trkpt>
      <trkpt lat="45.76212" lon="3.52633">
        <ele>370.24487304688</ele>
        <time>2009-05-17T10:31:55Z</time>
      </trkpt>
      <trkpt lat="45.762" lon="3.52651">
        <ele>369.28369140625</ele>
        <time>2009-05-17T10:31:57Z</time>
      </trkpt>
      <trkpt lat="45.76175" lon="3.52686">
        <ele>367.36096191406</ele>
        <time>2009-05-17T10:32:01Z</time>
      </trkpt>
      <trkpt lat="45.76166" lon="3.52709">
        <ele>366.39953613281</ele>
        <time>2009-05-17T10:32:03Z</time>
      </trkpt>
      <trkpt lat="45.76157" lon="3.52759">
        <ele>364.95764160156</ele>
        <time>2009-05-17T10:32:07Z</time>
      </trkpt>
      <trkpt lat="45.76152" lon="3.52798">
        <ele>363.51574707031</ele>
        <time>2009-05-17T10:32:10Z</time>
      </trkpt>
      <trkpt lat="45.76151" lon="3.52811">
        <ele>363.51574707031</ele>
        <time>2009-05-17T10:32:11Z</time>
      </trkpt>
      <trkpt lat="45.76144" lon="3.5285">
        <ele>363.51574707031</ele>
        <time>2009-05-17T10:32:14Z</time>
      </trkpt>
      <trkpt lat="45.76126" lon="3.5289">
        <ele>362.07373046875</ele>
        <time>2009-05-17T10:32:18Z</time>
      </trkpt>
      <trkpt lat="45.76094" lon="3.52936">
        <ele>362.07373046875</ele>
        <time>2009-05-17T10:32:24Z</time>
      </trkpt>
      <trkpt lat="45.76074" lon="3.52964">
        <ele>361.11242675781</ele>
        <time>2009-05-17T10:32:28Z</time>
      </trkpt>
      <trkpt lat="45.76064" lon="3.52978">
        <ele>360.15112304688</ele>
        <time>2009-05-17T10:32:30Z</time>
      </trkpt>
      <trkpt lat="45.76023" lon="3.53035">
        <ele>359.67041015625</ele>
        <time>2009-05-17T10:32:38Z</time>
      </trkpt>
      <trkpt lat="45.76009" lon="3.53054">
        <ele>360.15112304688</ele>
        <time>2009-05-17T10:32:41Z</time>
      </trkpt>
      <trkpt lat="45.76004" lon="3.5306">
        <ele>360.15112304688</ele>
        <time>2009-05-17T10:32:42Z</time>
      </trkpt>
      <trkpt lat="45.75993" lon="3.5308">
        <ele>359.67041015625</ele>
        <time>2009-05-17T10:32:46Z</time>
      </trkpt>
      <trkpt lat="45.76001" lon="3.53097">
        <ele>359.18969726562</ele>
        <time>2009-05-17T10:32:49Z</time>
      </trkpt>
      <trkpt lat="45.76039" lon="3.53147">
        <ele>356.30578613281</ele>
        <time>2009-05-17T10:32:57Z</time>
      </trkpt>
      <trkpt lat="45.76045" lon="3.53157">
        <ele>355.8251953125</ele>
        <time>2009-05-17T10:32:59Z</time>
      </trkpt>
      <trkpt lat="45.76041" lon="3.53176">
        <ele>355.34448242188</ele>
        <time>2009-05-17T10:33:03Z</time>
      </trkpt>
      <trkpt lat="45.76035" lon="3.53186">
        <ele>354.86376953125</ele>
        <time>2009-05-17T10:33:05Z</time>
      </trkpt>
      <trkpt lat="45.7603" lon="3.53212">
        <ele>354.38317871094</ele>
        <time>2009-05-17T10:33:09Z</time>
      </trkpt>
      <trkpt lat="45.76034" lon="3.53227">
        <ele>354.38317871094</ele>
        <time>2009-05-17T10:33:11Z</time>
      </trkpt>
      <trkpt lat="45.7604" lon="3.53242">
        <ele>353.90258789062</ele>
        <time>2009-05-17T10:33:13Z</time>
      </trkpt>
      <trkpt lat="45.76073" lon="3.53295">
        <ele>352.94116210938</ele>
        <time>2009-05-17T10:33:21Z</time>
      </trkpt>
      <trkpt lat="45.76087" lon="3.53315">
        <ele>352.94116210938</ele>
        <time>2009-05-17T10:33:24Z</time>
      </trkpt>
      <trkpt lat="45.76097" lon="3.53328">
        <ele>352.46057128906</ele>
        <time>2009-05-17T10:33:26Z</time>
      </trkpt>
      <trkpt lat="45.76121" lon="3.53352">
        <ele>350.05725097656</ele>
        <time>2009-05-17T10:33:30Z</time>
      </trkpt>
      <trkpt lat="45.76148" lon="3.53376">
        <ele>348.615234375</ele>
        <time>2009-05-17T10:33:34Z</time>
      </trkpt>
      <trkpt lat="45.76163" lon="3.53398">
        <ele>347.17321777344</ele>
        <time>2009-05-17T10:33:37Z</time>
      </trkpt>
      <trkpt lat="45.76168" lon="3.5343">
        <ele>345.73132324219</ele>
        <time>2009-05-17T10:33:40Z</time>
      </trkpt>
      <trkpt lat="45.76167" lon="3.53442">
        <ele>345.25061035156</ele>
        <time>2009-05-17T10:33:41Z</time>
      </trkpt>
      <trkpt lat="45.76157" lon="3.53503">
        <ele>344.77001953125</ele>
        <time>2009-05-17T10:33:47Z</time>
      </trkpt>
      <trkpt lat="45.76151" lon="3.5352">
        <ele>344.77001953125</ele>
        <time>2009-05-17T10:33:49Z</time>
      </trkpt>
      <trkpt lat="45.76114" lon="3.53619">
        <ele>343.32788085938</ele>
        <time>2009-05-17T10:34:01Z</time>
      </trkpt>
      <trkpt lat="45.76097" lon="3.53658">
        <ele>343.32788085938</ele>
        <time>2009-05-17T10:34:06Z</time>
      </trkpt>
      <trkpt lat="45.76091" lon="3.53673">
        <ele>343.32788085938</ele>
        <time>2009-05-17T10:34:08Z</time>
      </trkpt>
      <trkpt lat="45.76067" lon="3.53694">
        <ele>344.28942871094</ele>
        <time>2009-05-17T10:34:13Z</time>
      </trkpt>
      <trkpt lat="45.76044" lon="3.53696">
        <ele>343.32788085938</ele>
        <time>2009-05-17T10:34:17Z</time>
      </trkpt>
      <trkpt lat="45.7602" lon="3.53692">
        <ele>340.92468261719</ele>
        <time>2009-05-17T10:34:21Z</time>
      </trkpt>
      <trkpt lat="45.75955" lon="3.53682">
        <ele>342.36669921875</ele>
        <time>2009-05-17T10:34:32Z</time>
      </trkpt>
      <trkpt lat="45.75925" lon="3.53678">
        <ele>341.4052734375</ele>
        <time>2009-05-17T10:34:37Z</time>
      </trkpt>
      <trkpt lat="45.75902" lon="3.53673">
        <ele>341.4052734375</ele>
        <time>2009-05-17T10:34:41Z</time>
      </trkpt>
      <trkpt lat="45.75862" lon="3.53666">
        <ele>340.44409179688</ele>
        <time>2009-05-17T10:34:48Z</time>
      </trkpt>
      <trkpt lat="45.75839" lon="3.53672">
        <ele>339.96337890625</ele>
        <time>2009-05-17T10:34:53Z</time>
      </trkpt>
    </trkseg>
  </trk>
</gpx>